# Wetter Temperatur Luftdruck Luftfeuchtigkeit Sichtweite Windgeschwindigkeit Windrichtung Zeit
1 Clouds 14 992 90 10000 0.45 41 05:32 02.10.2022
2 Clouds 14 995 90 10000 0.45 283 02:49 02.10.2022
3 Rain 15 997 90 10000 0.89 140 00:39 02.10.2022
4 Rain 15 997 90 10000 0.89 140 00:39 02.10.2022
5 Clouds 14 998 90 10000 2.07 103 23:36 01.10.2022
6 Clouds 15 999 90 10000 1.26 104 22:25 01.10.2022
7 Clouds 15 1001 90 10000 1.35 271 19:31 01.10.2022
8 Clouds 17 1002 83 10000 2.47 271 17:46 01.10.2022
9 Clouds 19 1003 80 10000 3.6 262 16:24 01.10.2022
10 Clouds 20 1004 68 10000 0.45 137 14:18 01.10.2022
11 Clouds 22 1013 63 10000 0.89 56 12:35 01.10.2022
12 Clouds 21 1004 69 10000 0.89 256 11:23 01.10.2022
13 Clouds 20 1004 72 10000 0.45 131 10:53 01.10.2022
14 Clouds 20 1013 75 10000 4.45 257 10:30 01.10.2022
15 Clouds 20 1013 75 10000 4.45 257 10:30 01.10.2022
16 Clouds 20 1013 75 10000 4.45 257 10:30 01.10.2022
17 Clouds 18 986 69 10000 3.82 257 09:26 01.10.2022
18 Clouds 16 986 75 10000 3.3 251 08:39 01.10.2022
19 Clouds 14 1004 92 10000 2.49 195 03:52 01.10.2022
20 Clouds 14 1004 91 10000 2.68 185 03:24 01.10.2022
21 Clouds 16 1004 91 10000 1.52 221 23:22 30.09.2022
22 Clouds 16 1004 91 10000 1.08 194 22:19 30.09.2022
23 Clouds 15 1005 91 10000 0.71 224 21:22 30.09.2022
24 Clouds 15 1004 90 10000 0.6 253 20:30 30.09.2022
25 Clouds 16 1004 91 10000 0.3 248 18:45 30.09.2022
26 Clouds 20 1012 87 10000 0.22 336 16:55 30.09.2022
27 Clouds 20 1012 83 10000 0.75 240 14:49 30.09.2022
28 Clouds 20 1011 84 10000 0.63 287 12:51 30.09.2022
29 Clouds 19 1011 85 10000 0.79 313 11:56 30.09.2022
30 Clouds 17 1010 88 10000 0.57 300 09:45 30.09.2022
31 Clouds 15 1002 90 10000 0.45 190 08:19 30.09.2022
32 Clouds 14 999 90 10000 1.93 181 04:21 30.09.2022
33 Clouds 14 999 90 10000 1.95 166 02:21 30.09.2022
34 Rain 14 998 87 10000 0.89 174 21:53 29.09.2022
35 Clouds 14 998 83 10000 4.5 142 21:24 29.09.2022
36 Clouds 15 998 79 10000 0.45 194 19:58 29.09.2022
37 Clouds 16 998 72 10000 0.45 161 18:30 29.09.2022
38 Clouds 16 998 72 10000 0.45 161 18:30 29.09.2022
39 Clouds 18 1007 68 10000 0.45 292 16:29 29.09.2022
40 Clouds 19 1007 66 10000 4.93 149 15:37 29.09.2022
41 Clouds 19 1007 63 10000 0.45 132 14:59 29.09.2022
42 Clouds 17 1007 69 10000 0.89 234 12:45 29.09.2022
43 Clouds 10 1007 90 10000 0.45 148 08:47 29.09.2022
44 Clouds 9 997 94 10000 1.67 199 04:46 29.09.2022
45 Clouds 9 996 93 10000 1.72 240 02:37 29.09.2022
46 Clear 10 995 92 10000 2.09 275 23:29 28.09.2022
47 Clear 11 995 91 10000 0.45 156 22:22 28.09.2022
48 Clouds 13 995 89 10000 0.45 185 21:25 28.09.2022
49 Clouds 14 993 87 10000 0.45 137 19:57 28.09.2022
50 Rain 16 991 87 10000 0.45 136 16:52 28.09.2022
51 Clouds 17 991 82 10000 3.17 223 14:35 28.09.2022
52 Clouds 17 999 79 10000 2.68 180 11:49 28.09.2022
53 Clouds 14 991 88 10000 0.45 105 09:49 28.09.2022
54 Clouds 14 991 89 10000 1.21 100 07:52 28.09.2022
55 Clouds 12 991 90 10000 1.4 82 05:48 28.09.2022
56 Clouds 13 991 91 10000 0.78 55 01:44 28.09.2022
57 Clouds 13 991 91 10000 0.93 95 00:36 28.09.2022
58 Clouds 13 991 91 10000 0.45 16 22:49 27.09.2022
59 Clouds 13 991 91 10000 1.23 60 21:20 27.09.2022
60 Clouds 13 991 91 10000 1.23 60 20:34 27.09.2022
61 Clouds 13 992 91 10000 0.77 214 19:40 27.09.2022
62 Clouds 14 993 90 10000 0.8 211 17:47 27.09.2022
63 Clouds 15 991 90 10000 0.68 157 16:56 27.09.2022
64 Clouds 14 992 90 10000 1.64 191 15:18 27.09.2022
65 Clouds 14 993 90 10000 1.28 247 13:53 27.09.2022
66 Clouds 14 992 90 10000 1.42 255 12:39 27.09.2022
67 Clouds 13 992 90 10000 1.65 237 10:35 27.09.2022
68 Clouds 12 993 91 10000 0.78 166 07:55 27.09.2022
69 Clouds 11 994 92 10000 1.09 79 05:22 27.09.2022
70 Clouds 12 996 91 10000 2.41 48 01:40 27.09.2022
71 Clouds 12 996 90 10000 0.89 318 00:23 27.09.2022
72 Clouds 12 997 89 10000 0.45 324 23:24 26.09.2022
73 Clouds 12 998 91 10000 2.12 71 21:35 26.09.2022
74 Rain 13 998 86 10000 0.45 0 19:49 26.09.2022
75 Clouds 14 998 82 10000 2.75 99 18:55 26.09.2022
76 Clouds 15 999 80 10000 1.51 79 17:26 26.09.2022
77 Clouds 14 1010 67 10000 1.96 131 15:25 26.09.2022
78 Clouds 12 1012 100 10000 1.97 176 12:31 26.09.2022
79 Clouds 12 1001 89 10000 0.45 135 10:44 26.09.2022
80 Clouds 12 1001 89 10000 2.31 181 10:23 26.09.2022
81 Clouds 12 1001 90 10000 2.31 181 09:59 26.09.2022
82 Clouds 11 1001 90 10000 2.31 181 09:40 26.09.2022
83 Clouds 11 1003 91 10000 0.45 138 09:20 26.09.2022
84 Rain 11 1002 90 10000 2.73 200 05:30 26.09.2022
85 Clouds 11 1002 87 10000 1.71 210 02:29 26.09.2022
86 Clouds 10 1003 89 10000 2.19 233 23:24 25.09.2022
87 Clouds 10 1004 90 10000 2.34 237 21:44 25.09.2022
88 Clouds 9 1004 91 10000 2.47 247 20:59 25.09.2022
89 Clouds 9 1004 91 10000 2.47 247 20:34 25.09.2022
90 Clouds 10 1004 86 10000 3.22 255 18:55 25.09.2022
91 Clouds 11 1004 80 10000 3.6 255 18:24 25.09.2022
92 Clouds 14 1004 67 10000 3.1 262 17:23 25.09.2022
93 Clouds 16 1013 58 10000 3 272 16:00 25.09.2022
94 Clouds 17 1004 54 10000 0.45 233 14:37 25.09.2022
95 Clouds 17 1004 52 10000 0.89 175 13:58 25.09.2022
96 Clouds 16 1014 65 10000 0.45 237 10:38 25.09.2022
97 Clouds 11 986 50 10000 5.15 281 09:37 25.09.2022
98 Clear 7 1005 91 10000 0.45 211 06:53 25.09.2022
99 Clear 6 1004 92 10000 4.16 273 05:19 25.09.2022
100 Clouds 9 1004 88 10000 0.89 159 23:36 24.09.2022
101 Clouds 10 1004 86 10000 0.45 255 21:19 24.09.2022
102 Clouds 10 1003 84 10000 4.42 283 19:33 24.09.2022
103 Clouds 10 1003 84 10000 0.45 243 18:57 24.09.2022
104 Clouds 14 1011 71 10000 0.89 178 16:50 24.09.2022
105 Clouds 14 1002 74 10000 0.45 190 15:23 24.09.2022
106 Clouds 14 1003 72 10000 0.89 85 14:27 24.09.2022
107 Clouds 13 1002 72 10000 0.45 18 12:59 24.09.2022
108 Clouds 15 1011 70 10000 0.45 124 12:22 24.09.2022
109 Clouds 11 1002 83 10000 0.89 51 09:58 24.09.2022
110 Clouds 10 1002 87 10000 0.89 185 08:56 24.09.2022
111 Clouds 9 1002 90 10000 0.45 264 07:40 24.09.2022
112 Clouds 9 1001 91 10000 0.45 249 04:52 24.09.2022
113 Clouds 9 1001 91 10000 3.49 296 03:48 24.09.2022
114 Clouds 9 1002 90 10000 0.45 239 22:54 23.09.2022
115 Clouds 9 1002 90 10000 2.69 298 21:33 23.09.2022
116 Clouds 9 1003 91 10000 0.45 69 20:57 23.09.2022
117 Rain 10 1003 91 10000 0.45 69 20:26 23.09.2022
118 Clouds 10 1003 90 10000 0.45 266 19:19 23.09.2022
119 Clouds 13 1002 76 10000 0.45 132 15:29 23.09.2022
120 Rain 11 1003 87 10000 2.64 327 11:47 23.09.2022
121 Clouds 11 1003 88 10000 0.45 90 09:36 23.09.2022
122 Clouds 10 1003 90 10000 0.45 262 06:51 23.09.2022
123 Clouds 10 1004 90 10000 0.45 155 00:42 23.09.2022
124 Clouds 9 1004 91 10000 0.45 221 23:23 22.09.2022
125 Clouds 9 1004 91 10000 2.04 279 22:27 22.09.2022
126 Clouds 10 1004 90 10000 0.45 234 21:19 22.09.2022
127 Clouds 9 1004 91 10000 2.83 287 19:58 22.09.2022
128 Clouds 11 1004 88 10000 2.87 290 17:38 22.09.2022
129 Clouds 12 1004 87 10000 0.45 138 13:20 22.09.2022
130 Clouds 11 1004 87 10000 0.45 174 10:37 22.09.2022
131 Clouds 10 1004 89 10000 0.45 315 08:58 22.09.2022
132 Clouds 8 1004 92 10000 2.19 292 07:27 22.09.2022
133 Clouds 8 1003 90 10000 1.8 302 04:36 22.09.2022
134 Clouds 10 1003 90 10000 2.26 275 23:32 21.09.2022
135 Clouds 10 1004 90 10000 2.07 283 21:51 21.09.2022
136 Clouds 10 1003 91 10000 1.92 295 20:40 21.09.2022
137 Clouds 11 1003 90 10000 0.45 187 17:51 21.09.2022
138 Clouds 13 1002 87 10000 0.45 82 16:55 21.09.2022
139 Clouds 12 1002 89 10000 0.45 60 14:52 21.09.2022
140 Rain 11 1002 89 10000 0.45 77 13:24 21.09.2022
141 Clouds 12 1002 89 10000 3.87 323 11:30 21.09.2022
142 Rain 11 1001 90 10000 0.45 133 10:34 21.09.2022
143 Clouds 11 1001 89 10000 0.89 100 09:36 21.09.2022
144 Clouds 10 1001 89 10000 0.45 97 07:58 21.09.2022
145 Clouds 10 1000 89 10000 0.45 41 02:51 21.09.2022
146 Clouds 10 1000 89 10000 0.45 346 02:29 21.09.2022
147 Clouds 10 1000 89 10000 0.45 107 01:49 21.09.2022
148 Rain 10 1000 90 10000 4.39 33 23:19 20.09.2022
149 Clouds 10 1000 90 9659 3.89 14 21:33 20.09.2022
150 Clouds 10 1000 90 10000 3.16 22 19:57 20.09.2022
151 Clouds 11 1000 90 10000 0.45 335 17:38 20.09.2022
152 Clouds 11 1001 90 10000 0.45 350 14:53 20.09.2022
153 Rain 11 1001 90 10000 2.17 92 13:52 20.09.2022
154 Clouds 12 1002 87 10000 2.6 67 10:41 20.09.2022
155 Clouds 11 1001 87 10000 0.45 302 08:29 20.09.2022
156 Clouds 11 1001 88 10000 1.84 71 07:27 20.09.2022
157 Clouds 9 1001 90 10000 0.85 220 04:29 20.09.2022
158 Clouds 10 1001 89 10000 3 248 23:49 19.09.2022
159 Clouds 10 1001 89 10000 3.27 241 22:28 19.09.2022
160 Clouds 10 1001 87 10000 3.55 237 20:58 19.09.2022
161 Clouds 10 1001 88 10000 3.29 240 20:39 19.09.2022
162 Clouds 11 1000 81 10000 3.32 239 18:41 19.09.2022
163 Clouds 16 1007 59 10000 0.45 198 15:56 19.09.2022
164 Clouds 16 998 62 10000 0.45 165 13:39 19.09.2022
165 Clouds 13 996 79 10000 0.45 55 11:30 19.09.2022
166 Clouds 13 995 83 10000 0.89 155 09:20 19.09.2022
167 Clouds 11 994 87 10000 0.45 136 08:19 19.09.2022
168 Clouds 10 989 89 10000 0.45 134 02:18 19.09.2022
169 Clouds 9 988 89 10000 0.45 79 23:24 18.09.2022
170 Rain 9 986 89 10000 0.45 78 21:47 18.09.2022
171 Rain 9 984 89 10000 0.89 144 20:34 18.09.2022
172 Clouds 12 980 87 10000 0.45 171 18:41 18.09.2022
173 Clouds 12 962 82 10000 4.56 197 17:43 18.09.2022
174 Clouds 16 989 85 10000 0.89 124 15:56 18.09.2022
175 Clouds 15 990 85 10000 0.45 146 14:30 18.09.2022
176 Clouds 14 983 85 8226 0.45 236 12:36 18.09.2022
177 Rain 14 983 87 2679 2.13 148 11:46 18.09.2022
178 Clouds 12 987 87 10000 0.89 321 06:30 18.09.2022
179 Rain 12 991 87 10000 2.43 65 01:30 18.09.2022
180 Clouds 13 992 87 10000 0.45 312 00:42 18.09.2022
181 Clouds 13 994 87 10000 2.18 97 21:54 17.09.2022
182 Clouds 13 994 87 10000 2.14 101 20:29 17.09.2022
183 Rain 14 995 87 10000 2.07 115 19:19 17.09.2022
184 Rain 15 995 89 10000 3.2 146 16:57 17.09.2022
185 Clouds 16 1005 84 10000 3.02 148 13:59 17.09.2022
186 Clouds 16 996 82 10000 2.2 178 12:29 17.09.2022
187 Clouds 15 996 84 10000 0.45 153 10:28 17.09.2022
188 Clouds 12 996 88 10000 1.47 241 06:28 17.09.2022
189 Clouds 11 995 88 10000 1.62 238 02:43 17.09.2022
190 Clouds 12 995 86 10000 2.25 266 22:58 16.09.2022
191 Clouds 13 995 85 10000 3.04 277 21:32 16.09.2022
192 Clouds 13 994 85 10000 3.11 269 20:31 16.09.2022
193 Clouds 18 975 64 10000 3.22 277 17:52 16.09.2022
194 Clouds 20 975 92 10000 4.42 278 15:57 16.09.2022
195 Clouds 21 1002 65 10000 0.45 123 14:32 16.09.2022
196 Clouds 20 992 82 10000 0.89 234 11:56 16.09.2022
197 Clouds 16 992 89 10000 0.45 102 09:21 16.09.2022
198 Clouds 14 992 90 10000 0.45 170 07:20 16.09.2022
199 Rain 14 991 90 10000 0.45 163 06:47 16.09.2022
200 Clouds 15 990 89 10000 0.45 179 02:59 16.09.2022
201 Clouds 16 989 90 10000 0.45 155 23:50 15.09.2022
202 Rain 16 990 89 10000 0.45 101 21:24 15.09.2022
203 Rain 16 990 88 10000 0.45 121 20:23 15.09.2022
204 Rain 16 990 88 10000 0.45 48 18:30 15.09.2022
205 Clouds 16 991 87 10000 0.45 104 17:33 15.09.2022
206 Clouds 16 991 87 10000 1.99 157 16:52 15.09.2022
207 Rain 13 1002 96 10000 2.57 154 14:41 15.09.2022
208 Rain 15 1003 100 10000 2.66 156 12:30 15.09.2022
209 Clouds 16 994 91 10000 0.45 138 10:21 15.09.2022
210 Rain 14 993 92 10000 2.47 181 07:51 15.09.2022
211 Clouds 12 994 93 10000 2.24 204 03:58 15.09.2022
212 Clouds 12 995 94 10000 2.45 222 01:27 15.09.2022
213 Clouds 13 995 94 10000 1.74 257 21:54 14.09.2022
214 Clouds 13 995 95 10000 2.63 304 19:59 14.09.2022
215 Clouds 13 995 94 10000 3.1 287 19:26 14.09.2022
216 Clouds 16 995 92 10000 3.19 264 17:25 14.09.2022
217 Rain 15 995 91 10000 2.72 241 15:56 14.09.2022
218 Clouds 16 995 84 10000 0.45 184 14:34 14.09.2022
219 Clouds 16 996 71 10000 0.45 233 11:40 14.09.2022
220 Clouds 16 996 75 10000 0.45 99 09:48 14.09.2022
221 Clouds 12 997 88 10000 0.45 224 07:39 14.09.2022
222 Clouds 12 997 90 10000 0.45 186 06:47 14.09.2022
223 Clouds 11 996 91 10000 0.45 111 04:33 14.09.2022
224 Clouds 11 997 91 10000 2.79 271 01:48 14.09.2022
225 Clouds 11 997 91 10000 0.89 88 01:27 14.09.2022
226 Clouds 11 997 91 10000 0.45 116 00:48 14.09.2022
227 Rain 11 998 91 10000 3.24 274 23:54 13.09.2022
228 Clouds 11 998 91 10000 3.24 274 23:36 13.09.2022
229 Clouds 11 998 91 10000 3 282 23:18 13.09.2022
230 Clouds 11 998 91 10000 2.83 293 21:50 13.09.2022
231 Clouds 11 998 91 10000 3.24 322 19:45 13.09.2022
232 Clouds 11 998 90 10000 0.45 212 18:18 13.09.2022
233 Clouds 12 998 89 10000 0.89 134 15:55 13.09.2022
234 Clouds 12 997 88 10000 0.89 224 14:36 13.09.2022
235 Clouds 12 997 88 10000 0.89 224 14:36 13.09.2022
236 Clouds 12 997 89 10000 0.45 171 12:40 13.09.2022
237 Clouds 12 997 91 10000 0.45 352 08:50 13.09.2022
238 Clouds 12 996 91 9220 0.45 279 06:24 13.09.2022
239 Rain 12 997 91 10000 1.97 326 00:22 13.09.2022
240 Clouds 12 997 90 10000 2.58 306 22:50 12.09.2022
241 Clouds 11 997 90 7808 2.8 302 21:55 12.09.2022
242 Rain 12 998 90 10000 2.39 316 20:25 12.09.2022
243 Clouds 12 998 90 10000 2 311 18:44 12.09.2022
244 Rain 13 997 86 10000 2 298 16:38 12.09.2022
245 Clouds 14 997 85 10000 1.69 251 14:37 12.09.2022
246 Clouds 14 978 100 10000 2.86 235 11:30 12.09.2022
247 Clouds 13 996 87 10000 2.64 240 09:56 12.09.2022
248 Clouds 13 996 90 10000 0.45 148 04:51 12.09.2022
249 Clouds 13 996 90 10000 0.45 133 04:25 12.09.2022
250 Clouds 13 997 91 10000 2.4 180 23:39 11.09.2022
251 Rain 13 997 91 10000 0.89 148 22:28 11.09.2022
252 Clouds 13 998 90 10000 0.45 182 20:50 11.09.2022
253 Clouds 13 999 90 10000 0.45 359 19:57 11.09.2022
254 Clouds 14 998 89 10000 0.45 183 19:25 11.09.2022
255 Clouds 15 999 87 10000 4.59 137 18:21 11.09.2022
256 Clouds 16 1008 83 10000 0.89 217 16:47 11.09.2022
257 Clouds 15 1000 84 10000 0.45 131 14:53 11.09.2022
258 Clouds 15 1000 84 10000 3.25 143 12:50 11.09.2022
259 Clouds 13 1000 89 10000 1.61 235 09:25 11.09.2022
260 Clouds 13 1000 89 10000 1.61 235 09:25 11.09.2022
261 Clouds 12 1000 91 10000 3.24 183 07:19 11.09.2022
262 Clouds 12 1001 90 10000 0.45 300 00:54 11.09.2022
263 Rain 12 1002 92 10000 0.89 188 22:56 10.09.2022
264 Rain 12 1003 92 9134 0.89 210 21:33 10.09.2022
265 Clouds 11 1004 92 10000 0.89 245 19:48 10.09.2022
266 Rain 11 1004 92 10000 1.34 193 19:29 10.09.2022
267 Rain 11 1005 92 10000 0.89 216 18:55 10.09.2022
268 Rain 11 1006 92 10000 0.45 276 16:51 10.09.2022
269 Rain 10 1007 92 10000 0.89 226 14:43 10.09.2022
270 Rain 10 1008 92 10000 0.89 294 12:53 10.09.2022
271 Clouds 10 1009 92 10000 0.89 264 11:19 10.09.2022
272 Rain 9 1010 93 10000 1.34 299 09:51 10.09.2022
273 Rain 9 1010 93 10000 0.45 303 08:37 10.09.2022
274 Rain 10 1010 93 10000 0.45 319 07:22 10.09.2022
275 Rain 10 1012 87 10000 0.89 303 00:51 10.09.2022
276 Rain 11 1012 78 10000 0.89 304 23:33 09.09.2022
277 Clouds 14 1012 55 10000 0.89 314 22:19 09.09.2022
278 Clouds 15 1012 56 10000 0.89 291 20:47 09.09.2022
279 Clouds 15 1012 58 10000 0.45 188 19:25 09.09.2022
280 Clouds 15 1012 56 10000 0.89 312 18:53 09.09.2022
281 Clouds 17 1012 46 10000 0.45 334 16:28 09.09.2022
282 Clouds 19 1021 40 10000 0.89 182 13:50 09.09.2022
283 Clouds 19 1012 44 10000 0.89 117 12:32 09.09.2022
284 Clouds 16 1013 55 10000 0.89 309 09:57 09.09.2022
285 Clouds 8 1012 83 10000 3.57 77 05:38 09.09.2022
286 Clouds 9 1012 79 10000 0.45 70 03:20 09.09.2022
287 Clear 13 1011 68 10000 0.45 347 21:53 08.09.2022
288 Clear 14 1011 67 10000 0.45 54 20:56 08.09.2022
289 Clouds 15 1011 67 10000 2.75 54 20:32 08.09.2022
290 Clouds 15 1010 67 10000 2.75 54 19:57 08.09.2022
291 Clouds 17 1009 58 10000 0.45 142 18:26 08.09.2022
292 Clouds 21 1017 37 10000 0.45 320 16:21 08.09.2022
293 Clear 21 1018 34 10000 0.45 52 14:40 08.09.2022
294 Clouds 21 1018 34 10000 2.34 356 13:27 08.09.2022
295 Clouds 21 1018 34 10000 0.89 96 12:24 08.09.2022
296 Clouds 21 1018 41 10000 0.45 212 10:57 08.09.2022
297 Clouds 18 1009 52 10000 0.89 95 08:51 08.09.2022
298 Clouds 10 1008 74 10000 1.6 347 06:42 08.09.2022
299 Clouds 10 1017 67 10000 0.53 355 02:37 08.09.2022
300 Clear 10 1017 68 10000 0.52 359 02:18 08.09.2022
301 Clear 9 1018 75 10000 0.14 22 00:56 08.09.2022
302 Clear 9 1018 73 10000 0.48 138 22:44 07.09.2022
303 Clear 9 1018 70 10000 0.69 141 21:42 07.09.2022
304 Clear 11 1009 68 10000 0.91 127 20:49 07.09.2022
305 Clear 12 1010 61 10000 0.52 17 19:40 07.09.2022
306 Clear 17 1009 43 10000 1.21 316 17:49 07.09.2022
307 Clear 20 1021 37 10000 2.56 267 12:52 07.09.2022
308 Clear 17 1022 41 10000 0.45 111 10:47 07.09.2022
309 Clear 12 994 41 10000 2 262 09:19 07.09.2022
310 Clear 10 1013 70 10000 2.35 268 07:23 07.09.2022
311 Clear 7 1013 87 10000 1.85 263 03:19 07.09.2022
312 Clear 8 1014 84 10000 0.82 313 22:59 06.09.2022
313 Clear 9 1014 80 10000 1.12 341 21:41 06.09.2022
314 Clouds 10 1014 73 10000 1.29 315 20:24 06.09.2022
315 Clouds 13 1013 61 10000 1.28 329 18:45 06.09.2022
316 Clouds 13 1013 58 10000 2.24 347 18:21 06.09.2022
317 Clouds 14 1013 56 10000 0.89 62 17:21 06.09.2022
318 Clouds 15 1022 58 10000 0.45 125 16:37 06.09.2022
319 Clouds 16 1014 51 10000 0.45 328 14:59 06.09.2022
320 Clouds 15 1014 51 10000 0.45 116 13:45 06.09.2022
321 Clouds 16 1014 52 10000 0.89 104 13:22 06.09.2022
322 Clouds 15 1015 50 10000 0.89 31 11:57 06.09.2022
323 Clouds 14 1015 52 10000 0.45 318 10:41 06.09.2022
324 Clear 13 1015 62 10000 3.03 331 08:50 06.09.2022
325 Clear 11 1015 74 10000 2.74 330 07:37 06.09.2022
326 Clear 9 1014 82 10000 1.77 350 02:43 06.09.2022
327 Clouds 11 1014 69 10000 2.26 4 23:22 05.09.2022
328 Clouds 13 1014 65 10000 0.45 326 21:53 05.09.2022
329 Clouds 13 1014 65 10000 2.9 18 20:33 05.09.2022
330 Clouds 14 1014 64 10000 3.73 18 19:19 05.09.2022
331 Clouds 15 1013 61 10000 3.73 18 18:45 05.09.2022
332 Clouds 15 1013 60 10000 0.45 84 18:21 05.09.2022
333 Clouds 17 1022 48 10000 0.89 57 16:35 05.09.2022
334 Clouds 19 1021 48 10000 0.89 273 15:46 05.09.2022
335 Clouds 18 1022 53 10000 0.45 106 13:25 05.09.2022
336 Clouds 19 1022 55 10000 0.45 109 12:26 05.09.2022
337 Clouds 15 1014 70 10000 0.45 333 09:44 05.09.2022
338 Clouds 14 1013 60 10000 0.45 160 06:40 05.09.2022
339 Clouds 14 1014 59 10000 0.45 123 01:56 05.09.2022
340 Clouds 12 1014 73 10000 1.19 59 22:44 04.09.2022
341 Clouds 12 1014 72 10000 1.34 16 22:26 04.09.2022
342 Clouds 12 1014 70 10000 1.66 8 20:43 04.09.2022
343 Clear 15 1013 58 10000 1.48 9 19:20 04.09.2022
344 Clear 18 1013 46 10000 2.25 350 17:43 04.09.2022
345 Clouds 20 1022 41 10000 0.45 213 16:28 04.09.2022
346 Clear 22 1022 36 10000 0.89 3 14:27 04.09.2022
347 Clear 21 1022 39 10000 4.07 19 12:57 04.09.2022
348 Clear 21 1022 40 10000 0.45 155 11:52 04.09.2022
349 Clear 17 1023 51 10000 3.6 32 09:50 04.09.2022
350 Clear 12 1013 78 10000 2.43 33 06:51 04.09.2022
351 Clouds 11 1012 87 10000 1.88 8 03:59 04.09.2022
352 Clouds 12 1012 81 10000 1.49 341 23:40 03.09.2022
353 Clouds 12 1012 79 10000 1.1 5 22:21 03.09.2022
354 Clouds 13 1012 72 10000 0.27 175 21:23 03.09.2022
355 Clouds 13 1012 72 10000 0.27 175 21:23 03.09.2022
356 Clouds 16 1011 60 10000 2.31 175 18:59 03.09.2022
357 Clouds 18 1020 53 10000 0.45 62 17:25 03.09.2022
358 Clouds 20 1021 48 10000 2.9 146 16:26 03.09.2022
359 Clouds 19 1021 52 10000 0.45 184 14:44 03.09.2022
360 Clouds 20 1021 48 10000 0.45 333 13:50 03.09.2022
361 Clouds 20 1022 49 10000 0.45 326 11:37 03.09.2022
362 Clouds 17 1013 61 10000 2.98 103 09:51 03.09.2022
363 Clouds 14 1013 64 10000 1.92 58 07:57 03.09.2022
364 Clouds 13 1013 66 10000 1.96 89 04:57 03.09.2022
365 Clouds 13 1013 66 10000 2.28 86 03:57 03.09.2022
366 Clouds 14 1013 62 10000 2.54 57 23:49 02.09.2022
367 Clouds 14 1012 58 10000 0.45 242 22:34 02.09.2022
368 Clouds 14 1012 62 10000 2.75 40 20:57 02.09.2022
369 Clouds 14 1012 61 10000 0.45 332 20:23 02.09.2022
370 Clouds 16 1011 55 10000 2.26 34 18:59 02.09.2022
371 Clouds 18 1011 52 10000 2.26 21 18:26 02.09.2022
372 Clouds 19 1020 47 10000 2.5 4 17:30 02.09.2022
373 Clouds 19 1020 47 10000 2.5 4 17:30 02.09.2022
374 Clouds 19 1020 44 10000 2.5 4 16:44 02.09.2022
375 Clouds 19 1021 44 10000 0.45 297 13:51 02.09.2022
376 Clouds 20 1021 45 10000 0.45 350 11:36 02.09.2022
377 Clouds 19 1021 54 10000 0.45 339 09:46 02.09.2022
378 Clouds 17 1021 61 10000 0.45 317 08:49 02.09.2022
379 Clouds 12 1020 77 10000 1.84 322 07:24 02.09.2022
380 Clouds 10 1011 89 10000 1.83 322 06:34 02.09.2022
381 Clear 11 1009 83 10000 2.35 338 02:34 02.09.2022
382 Clear 14 1008 68 10000 3.01 343 22:24 01.09.2022
383 Clear 13 1007 70 10000 3.01 343 21:39 01.09.2022
384 Clear 13 1007 71 10000 3.1 352 21:20 01.09.2022
385 Clouds 14 1007 65 10000 3.96 11 20:31 01.09.2022
386 Clouds 18 1006 50 10000 5.12 9 18:37 01.09.2022
387 Clouds 21 1014 38 10000 0.89 64 16:55 01.09.2022
388 Clouds 22 1014 41 10000 0.89 348 15:26 01.09.2022
389 Clouds 22 1014 43 10000 0.45 12 13:33 01.09.2022
390 Clouds 21 1014 48 10000 0.45 66 12:56 01.09.2022
391 Clouds 21 1015 47 10000 0.45 40 11:51 01.09.2022
392 Clouds 21 1015 46 10000 0.45 98 11:22 01.09.2022
393 Clouds 20 1015 55 10000 0.45 298 09:32 01.09.2022
394 Clouds 16 1006 79 10000 1.57 14 07:31 01.09.2022
395 Clouds 14 1005 76 10000 1.87 27 03:59 01.09.2022
396 Clouds 15 1005 76 10000 0.45 64 01:30 01.09.2022
397 Clouds 15 1005 76 10000 0.45 64 01:30 01.09.2022
398 Clouds 15 1005 76 10000 0.45 64 01:30 01.09.2022
399 Clouds 15 1005 76 10000 0.45 64 01:30 01.09.2022
400 Clouds 15 1005 76 10000 0.45 64 01:30 01.09.2022
401 Clouds 17 1005 74 10000 1.56 352 22:50 31.08.2022
402 Clouds 18 1005 65 10000 2.51 357 20:44 31.08.2022
403 Clouds 21 1004 56 10000 3.95 11 18:46 31.08.2022
404 Clouds 23 1004 56 10000 0.45 124 16:47 31.08.2022
405 Clouds 24 1004 55 10000 0.45 166 15:25 31.08.2022
406 Clouds 24 1013 62 10000 1.34 90 13:28 31.08.2022
407 Clouds 24 1005 63 10000 0.45 84 11:55 31.08.2022
408 Clear 24 1014 63 10000 0.45 122 09:36 31.08.2022
409 Clear 24 1014 63 10000 0.45 122 09:36 31.08.2022
410 Clouds 21 1014 70 10000 0.45 101 08:26 31.08.2022
411 Clouds 18 1005 74 10000 0.45 273 02:58 31.08.2022
412 Clouds 19 1005 70 10000 2.9 283 22:24 30.08.2022
413 Clouds 20 1005 65 10000 2.61 292 21:29 30.08.2022
414 Clouds 20 1005 63 10000 2.72 296 20:35 30.08.2022
415 Clear 27 1013 45 10000 0.45 89 16:58 30.08.2022
416 Clouds 29 1014 46 10000 0.45 201 13:51 30.08.2022
417 Clouds 28 1014 49 10000 0.45 74 11:58 30.08.2022
418 Clouds 27 1014 48 10000 0.89 133 11:20 30.08.2022
419 Clouds 25 1006 63 10000 0.45 123 09:39 30.08.2022
420 Clouds 19 1005 88 10000 0.45 154 06:48 30.08.2022
421 Clouds 22 1004 80 10000 0.45 156 01:18 30.08.2022
422 Clouds 24 1004 70 10000 4.2 286 22:38 29.08.2022
423 Clouds 24 1004 65 10000 0.45 137 21:53 29.08.2022
424 Clouds 26 1003 62 10000 3.48 308 20:47 29.08.2022
425 Clouds 26 1003 61 10000 2.4 280 18:59 29.08.2022
426 Clouds 27 1011 55 10000 2.18 265 17:33 29.08.2022
427 Clouds 29 1002 54 10000 3.76 282 16:59 29.08.2022
428 Clear 33 1002 39 10000 0.45 121 15:20 29.08.2022
429 Clear 33 1003 37 10000 0.89 106 13:54 29.08.2022
430 Clear 32 1011 37 10000 0.89 116 12:24 29.08.2022
431 Clear 30 1011 49 10000 0.45 49 10:48 29.08.2022
432 Clear 27 1011 58 10000 0.45 69 09:19 29.08.2022
433 Clouds 19 1002 82 10000 2.9 243 07:20 29.08.2022
434 Rain 18 1002 90 10000 1.67 256 02:31 29.08.2022
435 Clear 18 1002 90 10000 0.82 49 23:35 28.08.2022
436 Clear 19 1002 85 10000 1.23 32 21:48 28.08.2022
437 Clear 20 1002 81 10000 1.83 28 21:25 28.08.2022
438 Clouds 21 1002 77 10000 2.97 9 20:18 28.08.2022
439 Clouds 24 1001 58 10000 0.45 75 18:22 28.08.2022
440 Clouds 25 1001 54 10000 0.45 62 17:59 28.08.2022
441 Clouds 27 1009 44 10000 0.45 84 16:44 28.08.2022
442 Clouds 27 1009 50 10000 0.45 311 15:33 28.08.2022
443 Clouds 30 1000 41 10000 0.45 54 13:32 28.08.2022
444 Clouds 27 1001 48 10000 0.45 136 11:59 28.08.2022
445 Clouds 25 1009 61 10000 0.45 283 10:20 28.08.2022
446 Clouds 24 1009 64 10000 0.45 247 09:24 28.08.2022
447 Clouds 21 1009 70 10000 1.03 81 07:56 28.08.2022
448 Clouds 21 1000 70 10000 0.67 30 07:26 28.08.2022
449 Clouds 20 1001 70 10000 1.46 25 00:37 28.08.2022
450 Clouds 20 1001 66 10000 2.04 56 23:20 27.08.2022
451 Clouds 22 1001 60 10000 2.23 46 22:27 27.08.2022
452 Clouds 23 1002 60 10000 2.28 49 20:35 27.08.2022
453 Clouds 26 1001 50 10000 0.45 298 19:26 27.08.2022
454 Clouds 31 1001 29 10000 0.45 58 16:29 27.08.2022
455 Clouds 31 1010 27 10000 1.34 322 15:31 27.08.2022
456 Clouds 30 1002 36 10000 0.89 306 13:22 27.08.2022
457 Clouds 29 1010 44 10000 0.45 147 11:59 27.08.2022
458 Clouds 25 1011 55 10000 6.13 69 10:30 27.08.2022
459 Clouds 24 984 28 10000 6.13 69 09:33 27.08.2022
460 Clouds 21 1011 60 10000 0.45 104 06:52 27.08.2022
461 Clouds 21 1003 54 10000 0.45 300 01:21 27.08.2022
462 Clouds 23 1003 55 10000 0.45 306 23:46 26.08.2022
463 Clouds 24 1003 49 10000 0.45 295 21:46 26.08.2022
464 Clouds 26 1003 39 10000 4.35 139 20:20 26.08.2022
465 Clouds 29 1004 32 10000 0.45 300 17:59 26.08.2022
466 Clouds 30 1012 29 10000 0.89 190 16:32 26.08.2022
467 Clouds 31 1012 28 10000 0.45 174 15:24 26.08.2022
468 Clouds 32 1013 26 10000 0.45 240 13:18 26.08.2022
469 Clouds 31 1004 31 10000 0.89 267 11:48 26.08.2022
470 Clouds 30 1004 36 10000 0.45 315 11:21 26.08.2022
471 Clouds 25 1005 53 10000 0.45 121 08:55 26.08.2022
472 Clouds 21 1005 68 10000 2.4 59 03:59 26.08.2022
473 Clear 22 1006 66 10000 3 74 00:39 26.08.2022
474 Clear 24 1006 59 10000 3.7 71 22:39 25.08.2022
475 Clear 25 1006 53 10000 3.72 68 20:55 25.08.2022
476 Clear 27 1007 45 10000 4.22 68 19:35 25.08.2022
477 Clear 29 1007 37 10000 0.45 294 18:29 25.08.2022
478 Clear 31 1015 33 10000 0.89 337 17:32 25.08.2022
479 Clear 31 1015 33 10000 1.34 339 16:45 25.08.2022
480 Clear 31 1015 33 10000 0.89 332 15:30 25.08.2022
481 Clear 34 1007 29 10000 1.34 0 13:58 25.08.2022
482 Clear 30 1009 39 10000 0.45 324 11:21 25.08.2022
483 Clear 28 1009 46 10000 0.45 310 10:42 25.08.2022
484 Clear 21 1009 68 10000 0.45 326 07:35 25.08.2022
485 Clear 19 1010 69 10000 2.28 72 02:51 25.08.2022
486 Clear 22 1010 62 10000 0.89 310 23:36 24.08.2022
487 Clear 23 1010 58 10000 3.78 86 22:55 24.08.2022
488 Clear 24 1010 55 10000 0.45 302 21:53 24.08.2022
489 Clear 25 1010 54 10000 0.45 118 21:28 24.08.2022
490 Clear 27 1010 47 10000 0.45 315 19:52 24.08.2022
491 Clear 32 1018 35 10000 0.89 240 16:51 24.08.2022
492 Clear 33 1018 33 10000 0.89 309 15:53 24.08.2022
493 Clear 34 1018 31 10000 0.45 247 15:18 24.08.2022
494 Clear 33 1010 32 10000 0.45 213 12:48 24.08.2022
495 Clear 30 1010 37 10000 0.89 179 11:18 24.08.2022
496 Clear 25 1019 47 10000 0.45 284 08:45 24.08.2022
497 Clear 20 1009 61 10000 0.45 292 05:26 24.08.2022
498 Clear 21 1008 65 10000 3.48 103 00:41 24.08.2022
499 Clear 25 1008 53 10000 0.45 340 22:35 23.08.2022
500 Clear 25 1008 55 10000 0.89 318 21:49 23.08.2022
501 Clear 25 990 44 10000 3.2 90 20:43 23.08.2022
502 Clouds 26 1007 54 10000 3.35 118 18:58 23.08.2022
503 Clouds 28 1015 45 10000 4.42 135 17:56 23.08.2022
504 Clouds 29 1007 41 10000 0.89 138 17:21 23.08.2022
505 Clouds 32 1015 31 10000 0.89 264 15:54 23.08.2022
506 Clouds 30 1015 33 10000 0.89 299 13:54 23.08.2022
507 Clouds 29 1015 36 10000 0.89 140 12:46 23.08.2022
508 Clouds 28 1006 45 10000 0.89 184 10:57 23.08.2022
509 Clouds 28 1006 44 10000 0.89 184 10:33 23.08.2022
510 Clouds 25 1006 52 10000 0.89 139 08:58 23.08.2022
511 Clear 23 1006 57 10000 5.38 115 08:38 23.08.2022
512 Clear 23 1005 57 10000 0.45 226 08:18 23.08.2022
513 Clear 22 1005 59 10000 0.45 207 07:31 23.08.2022
514 Clear 21 1005 61 10000 0.45 215 06:22 23.08.2022
515 Clouds 21 1003 68 10000 0.45 294 01:45 23.08.2022
516 Clouds 21 1003 68 10000 2.37 70 00:27 23.08.2022
517 Clouds 21 1004 70 10000 2.49 55 23:32 22.08.2022
518 Clouds 21 1003 71 10000 2.48 59 22:24 22.08.2022
519 Clouds 23 1004 64 10000 2.05 82 20:29 22.08.2022
520 Clouds 24 1003 58 10000 2.5 85 19:41 22.08.2022
521 Clouds 27 985 54 10000 3.49 86 18:36 22.08.2022
522 Clouds 30 1011 42 10000 0.45 325 15:46 22.08.2022
523 Clouds 30 1011 41 10000 0.45 293 15:18 22.08.2022
524 Clear 28 1002 47 10000 0.89 309 11:39 22.08.2022
525 Clear 24 1003 60 10000 0.45 311 09:24 22.08.2022
526 Clear 17 1002 87 10000 1.91 87 05:51 22.08.2022
527 Clouds 20 1002 85 10000 2.28 112 00:56 22.08.2022
528 Clouds 20 1002 84 10000 2.28 112 00:36 22.08.2022
529 Clouds 21 1002 83 10000 1.73 100 23:21 21.08.2022
530 Clouds 22 1002 80 10000 1.76 56 21:55 21.08.2022
531 Clouds 22 1002 76 10000 0.45 302 21:18 21.08.2022
532 Clouds 24 1002 69 10000 0.45 333 19:42 21.08.2022
533 Clouds 25 1001 63 10000 0.45 308 18:36 21.08.2022
534 Clouds 29 1010 54 10000 0.45 5 16:48 21.08.2022
535 Clouds 29 1010 52 10000 0.45 309 15:52 21.08.2022
536 Clear 29 1010 53 10000 0.89 185 14:41 21.08.2022
537 Clouds 29 1010 50 10000 0.45 193 13:48 21.08.2022
538 Clouds 29 1010 52 10000 0.45 324 12:53 21.08.2022
539 Clouds 25 1002 69 10000 3.15 100 09:57 21.08.2022
540 Clouds 22 1002 73 10000 0.45 178 08:56 21.08.2022
541 Clouds 22 1002 74 10000 0.45 160 08:38 21.08.2022
542 Clouds 20 1002 80 10000 0.89 194 07:53 21.08.2022
543 Clouds 18 1002 89 10000 0.45 293 05:39 21.08.2022
544 Clouds 19 1002 89 10000 0.45 354 00:54 21.08.2022
545 Clouds 20 1003 89 10000 0.45 61 23:20 20.08.2022
546 Clouds 21 1003 88 10000 2.3 54 21:46 20.08.2022
547 Clouds 21 1003 86 10000 0.45 252 20:50 20.08.2022
548 Clouds 21 1004 86 10000 2.08 347 19:42 20.08.2022
549 Clouds 22 1003 85 10000 1.85 351 18:45 20.08.2022
550 Clouds 23 1003 85 10000 0.45 40 18:25 20.08.2022
551 Clouds 23 1003 80 10000 0.9 27 17:20 20.08.2022
552 Clouds 24 1003 78 10000 1.72 51 15:52 20.08.2022
553 Clouds 24 1003 74 10000 0.45 88 13:48 20.08.2022
554 Clouds 24 1003 73 10000 1.78 53 11:54 20.08.2022
555 Clouds 24 1003 72 10000 0.45 295 11:24 20.08.2022
556 Clouds 22 1004 80 10000 2.24 36 09:20 20.08.2022
557 Clouds 18 1004 89 10000 0.45 315 06:40 20.08.2022
558 Clouds 16 1004 91 10000 1.83 13 04:40 20.08.2022
559 Clear 18 1004 88 10000 1.78 25 00:55 20.08.2022
560 Clear 18 1004 89 10000 2.76 38 23:25 19.08.2022
561 Clear 18 1004 89 10000 3.02 31 22:36 19.08.2022
562 Clear 21 1005 79 10000 0.89 299 20:41 19.08.2022
563 Clouds 22 1004 76 10000 0.45 312 18:53 19.08.2022
564 Clouds 24 1004 72 10000 0.89 323 15:55 19.08.2022
565 Clouds 24 1004 72 10000 0.89 323 15:55 19.08.2022
566 Clouds 27 1004 67 10000 0.89 321 13:41 19.08.2022
567 Clear 26 1012 64 10000 0.89 0 11:40 19.08.2022
568 Clear 25 1011 68 10000 0.45 110 10:30 19.08.2022
569 Clear 20 1003 84 10000 0.45 25 07:25 19.08.2022
570 Clear 20 1002 83 10000 0.45 308 02:23 19.08.2022
571 Clear 21 1002 78 10000 3.46 14 00:36 19.08.2022
572 Clear 22 1002 74 10000 0.45 228 23:48 18.08.2022
573 Clear 22 1002 75 10000 0.45 303 23:48 18.08.2022
574 Clear 23 1002 68 10000 3.64 23 22:53 18.08.2022
575 Clear 23 1002 67 10000 0.89 310 22:18 18.08.2022
576 Clear 24 1002 65 10000 0.45 305 21:40 18.08.2022
577 Clear 25 1002 63 10000 0.45 294 20:32 18.08.2022
578 Clear 26 1001 63 10000 0.45 294 19:32 18.08.2022
579 Clear 28 1001 55 10000 0.89 315 18:19 18.08.2022
580 Clear 30 1009 51 10000 0.45 338 17:29 18.08.2022
581 Clouds 30 1009 51 10000 0.89 317 15:27 18.08.2022
582 Clouds 30 1009 53 10000 0.45 337 14:20 18.08.2022
583 Clouds 30 1009 52 10000 0.45 313 13:40 18.08.2022
584 Clouds 29 1001 54 10000 0.45 326 12:27 18.08.2022
585 Clouds 26 1009 64 10000 0.89 338 10:25 18.08.2022
586 Clouds 25 1009 66 10000 0.89 59 09:42 18.08.2022
587 Clouds 20 1000 82 10000 0.45 307 07:24 18.08.2022
588 Clouds 19 1000 88 10000 0.45 25 04:47 18.08.2022
589 Clouds 22 999 85 10000 1.55 27 23:49 17.08.2022
590 Clouds 22 1008 84 10000 2.69 54 22:20 17.08.2022
591 Clouds 24 1008 76 10000 1.97 32 20:20 17.08.2022
592 Clouds 25 1000 73 10000 1.03 351 19:32 17.08.2022
593 Clouds 27 999 65 10000 1.4 246 18:21 17.08.2022
594 Clouds 28 1008 59 10000 1.19 110 16:50 17.08.2022
595 Clouds 29 1007 60 10000 2.26 92 15:30 17.08.2022
596 Clouds 29 1007 58 10000 0.45 306 14:18 17.08.2022
597 Clouds 28 1008 64 10000 0.45 300 11:45 17.08.2022
598 Clouds 27 1008 63 10000 0.45 319 10:22 17.08.2022
599 Clouds 22 1008 79 10000 2.06 68 08:25 17.08.2022
600 Clouds 16 999 90 10000 1.41 70 04:20 17.08.2022
601 Clouds 18 1000 89 10000 1.81 101 00:40 17.08.2022
602 Clouds 19 1000 89 10000 0.45 278 22:50 16.08.2022
603 Rain 19 1000 90 10000 0.45 297 20:59 16.08.2022
604 Rain 19 1001 90 10000 0.89 284 19:54 16.08.2022
605 Clouds 20 1000 89 10000 2 69 19:19 16.08.2022
606 Clouds 21 1000 87 10000 0.45 323 17:54 16.08.2022
607 Clouds 23 1000 81 10000 0.45 281 16:18 16.08.2022
608 Clouds 23 1000 81 10000 0.45 249 15:39 16.08.2022
609 Clouds 23 1000 83 10000 0.45 308 14:43 16.08.2022
610 Clouds 23 1000 82 10000 0.45 256 14:25 16.08.2022
611 Clouds 20 1000 90 10000 0.45 305 11:39 16.08.2022
612 Clouds 22 1000 82 10000 0.89 293 09:58 16.08.2022
613 Rain 22 1006 83 10000 1.34 175 08:48 16.08.2022
614 Clouds 23 997 75 10000 0.45 257 08:19 16.08.2022
615 Clouds 21 997 80 10000 4.58 77 05:18 16.08.2022
616 Clouds 24 1007 71 10000 6.59 49 23:18 15.08.2022
617 Clouds 23 999 73 10000 0.45 340 22:18 15.08.2022
618 Clouds 23 999 76 10000 6.8 47 21:41 15.08.2022
619 Clouds 24 1000 70 10000 5.91 49 20:30 15.08.2022
620 Clouds 26 999 65 10000 4.46 60 18:56 15.08.2022
621 Clouds 26 999 60 10000 0.45 305 17:56 15.08.2022
622 Clouds 27 1000 69 10000 4.96 61 16:23 15.08.2022
623 Clouds 24 1000 75 10000 5.29 85 14:40 15.08.2022
624 Clouds 27 982 90 10000 5.52 88 13:19 15.08.2022
625 Clouds 24 1009 74 10000 5.25 89 10:36 15.08.2022
626 Clouds 27 1010 33 10000 6.14 90 08:53 15.08.2022
627 Clouds 21 1000 85 10000 4.27 60 06:39 15.08.2022
628 Clouds 21 1000 83 10000 0.45 319 03:34 15.08.2022
629 Clouds 22 1001 85 10000 0.89 319 23:27 14.08.2022
630 Clouds 23 1001 81 10000 0.45 92 21:48 14.08.2022
631 Clouds 23 1001 80 10000 5.03 77 20:41 14.08.2022
632 Clouds 26 1011 46 10000 5.29 66 19:45 14.08.2022
633 Clouds 29 1010 37 10000 5.86 69 18:32 14.08.2022
634 Clouds 29 1010 37 10000 5.85 69 17:37 14.08.2022
635 Clouds 30 1011 34 10000 5.07 66 16:23 14.08.2022
636 Clouds 28 1001 63 10000 0.89 333 15:34 14.08.2022
637 Clouds 30 1010 58 10000 0.89 336 13:51 14.08.2022
638 Clouds 29 1010 59 10000 0.45 333 13:31 14.08.2022
639 Clouds 30 1002 57 10000 0.89 282 12:42 14.08.2022
640 Clouds 28 1002 63 10000 0.45 304 11:23 14.08.2022
641 Clouds 24 1002 74 10000 0.45 303 09:34 14.08.2022
642 Clouds 21 1002 79 10000 4.13 70 06:53 14.08.2022
643 Clouds 21 1002 79 10000 0.45 35 05:45 14.08.2022
644 Clouds 22 1002 80 10000 0.45 326 01:43 14.08.2022
645 Clouds 23 1002 84 10000 0.45 299 23:22 13.08.2022
646 Clouds 23 1002 82 10000 0.45 278 22:28 13.08.2022
647 Clouds 24 1002 79 10000 0.45 293 20:51 13.08.2022
648 Clouds 26 1003 77 10000 5.33 59 19:49 13.08.2022
649 Clouds 25 1002 79 10000 0.45 305 19:18 13.08.2022
650 Clouds 27 1002 75 10000 6.04 52 17:21 13.08.2022
651 Clouds 28 1012 67 10000 0.89 306 14:50 13.08.2022
652 Clouds 29 1013 40 10000 6.31 61 13:50 13.08.2022
653 Clouds 26 1013 96 10000 6.31 61 13:50 13.08.2022
654 Clouds 26 1014 92 10000 6.74 74 13:28 13.08.2022
655 Rain 27 1015 44 10000 6.44 85 11:29 13.08.2022
656 Clouds 23 986 52 10000 5.16 81 09:26 13.08.2022
657 Rain 20 1005 89 10000 0.89 312 06:54 13.08.2022
658 Clouds 21 1006 87 10000 3.97 24 01:51 13.08.2022
659 Clouds 23 1017 100 10000 4.3 18 23:32 12.08.2022
660 Rain 20 1017 88 10000 4.47 14 21:39 12.08.2022
661 Clouds 23 989 100 10000 4.92 38 19:49 12.08.2022
662 Clouds 24 1007 80 10000 4.19 31 19:23 12.08.2022
663 Clouds 25 1007 79 10000 4.44 25 18:26 12.08.2022
664 Clouds 26 1007 75 10000 6.83 97 16:27 12.08.2022
665 Rain 26 1018 100 10000 3.76 69 15:21 12.08.2022
666 Clouds 25 1008 77 10000 1.9 24 13:47 12.08.2022
667 Clouds 25 1008 77 10000 0.89 319 12:38 12.08.2022
668 Clouds 23 1007 82 10000 0.45 39 08:57 12.08.2022
669 Clouds 21 1007 85 10000 4.47 43 07:46 12.08.2022
670 Clouds 20 1008 87 10000 3.96 25 06:24 12.08.2022
671 Clouds 22 1008 86 10000 0.45 333 00:49 12.08.2022
672 Clouds 21 990 100 10000 3.08 41 23:59 11.08.2022
673 Clouds 22 1008 85 10000 0.45 355 23:25 11.08.2022
674 Clouds 22 1008 86 10000 0.89 40 21:55 11.08.2022
675 Clouds 22 1008 86 10000 4.36 46 21:28 11.08.2022
676 Clouds 22 990 100 10000 3.39 34 20:31 11.08.2022
677 Clouds 22 990 100 10000 4.63 51 19:34 11.08.2022
678 Clouds 23 990 100 10000 4.63 51 18:57 11.08.2022
679 Clouds 26 990 100 10000 3.72 14 17:23 11.08.2022
680 Clouds 25 1008 79 10000 4.23 38 15:51 11.08.2022
681 Clouds 24 1017 77 10000 0.45 2 14:46 11.08.2022
682 Clouds 22 1008 84 10000 0.45 93 12:35 11.08.2022
683 Clouds 19 1008 87 10000 0.45 60 09:24 11.08.2022
684 Clouds 17 1007 88 10000 0.89 330 06:58 11.08.2022
685 Rain 17 1008 87 10000 0.45 322 03:23 11.08.2022
686 Clouds 18 1009 88 10000 2.49 19 00:28 11.08.2022
687 Clouds 19 1010 84 10000 3.04 15 22:18 10.08.2022
688 Clouds 19 1010 83 10000 3.17 26 21:20 10.08.2022
689 Clouds 19 1010 83 10000 3.17 26 20:42 10.08.2022
690 Clouds 21 1009 76 10000 1.52 61 18:53 10.08.2022
691 Clouds 22 1009 76 10000 3.56 61 17:28 10.08.2022
692 Clouds 23 1010 72 10000 0.45 309 15:26 10.08.2022
693 Clouds 22 1010 80 10000 0.45 297 13:34 10.08.2022
694 Clouds 22 1010 75 10000 0.45 29 12:24 10.08.2022
695 Clouds 19 1011 84 10000 0.45 54 08:45 10.08.2022
696 Clouds 19 1010 81 10000 2.8 24 07:44 10.08.2022
697 Clouds 18 1010 86 10000 2.74 2 05:53 10.08.2022
698 Clouds 18 1010 79 10000 3.05 355 02:44 10.08.2022
699 Clouds 18 1011 78 10000 2.81 328 23:33 09.08.2022
700 Clouds 19 1011 73 10000 2.97 329 22:48 09.08.2022
701 Clouds 20 1013 69 10000 2.86 328 21:34 09.08.2022
702 Clouds 20 1011 69 10000 2.25 351 19:33 09.08.2022
703 Clouds 21 1011 65 10000 0.45 331 18:23 09.08.2022
704 Clouds 22 1011 65 10000 0.45 261 17:26 09.08.2022
705 Clouds 23 1011 64 10000 3.75 5 16:40 09.08.2022
706 Clouds 23 1012 63 10000 0.89 8 15:31 09.08.2022
707 Clouds 23 1012 64 10000 0.45 52 12:25 09.08.2022
708 Clouds 23 1012 71 10000 0.45 44 09:22 09.08.2022
709 Clouds 21 1021 78 10000 0.45 106 08:26 09.08.2022
710 Clouds 19 1012 84 10000 3.58 26 07:18 09.08.2022
711 Clouds 18 1011 86 10000 0.45 349 02:54 09.08.2022
712 Clouds 18 1011 86 10000 2.51 28 23:26 08.08.2022
713 Clouds 18 1011 86 10000 2.51 28 22:52 08.08.2022
714 Clouds 19 1011 86 10000 2.32 28 21:48 08.08.2022
715 Clouds 19 1011 86 10000 2.25 28 20:51 08.08.2022
716 Clouds 20 992 100 10000 2.13 22 19:50 08.08.2022
717 Clouds 22 1010 82 10000 2.34 21 18:19 08.08.2022
718 Clouds 24 1011 79 10000 0.45 37 15:57 08.08.2022
719 Clouds 23 1011 81 10000 0.45 327 15:38 08.08.2022
720 Clouds 21 1011 84 10000 0.45 70 12:39 08.08.2022
721 Clouds 21 1011 84 10000 0.45 55 11:32 08.08.2022
722 Clouds 19 1010 84 10000 0.45 177 08:26 08.08.2022
723 Clouds 18 1010 83 10000 0.45 292 05:33 08.08.2022
724 Clouds 19 1009 88 10000 0.45 352 01:47 08.08.2022
725 Clouds 20 1009 88 10000 0.45 96 21:49 07.08.2022
726 Clouds 20 1009 89 10000 0.45 315 21:30 07.08.2022
727 Clouds 20 1008 89 10000 5.73 356 20:25 07.08.2022
728 Clouds 20 1008 89 10000 0.45 66 19:53 07.08.2022
729 Clouds 20 1010 88 10000 0.89 84 19:24 07.08.2022
730 Rain 20 1008 88 10000 0.89 44 17:59 07.08.2022
731 Rain 21 1007 85 10000 0.89 347 16:53 07.08.2022
732 Rain 23 1017 100 10000 6.49 346 15:45 07.08.2022
733 Clouds 26 1016 100 10000 5.73 350 14:34 07.08.2022
734 Clouds 29 1006 58 10000 3.16 3 12:50 07.08.2022
735 Clouds 29 1006 56 10000 0.45 155 12:50 07.08.2022
736 Clouds 30 1015 64 10000 0.45 347 10:54 07.08.2022
737 Clouds 29 1015 68 10000 2.86 353 10:21 07.08.2022
738 Clouds 21 1005 85 10000 0.66 10 04:42 07.08.2022
739 Clouds 21 1005 85 10000 0.91 79 02:37 07.08.2022
740 Clouds 22 1006 85 10000 0.88 61 22:57 06.08.2022
741 Clear 22 1006 84 10000 1.07 94 22:19 06.08.2022
742 Clear 25 1006 74 10000 1.35 107 20:19 06.08.2022
743 Clear 26 1006 69 10000 2.17 97 19:37 06.08.2022
744 Clear 31 1014 54 10000 0.45 250 17:52 06.08.2022
745 Clear 30 1014 57 10000 0.45 239 16:30 06.08.2022
746 Clear 31 1014 56 10000 0.45 134 13:52 06.08.2022
747 Clear 31 1015 56 10000 3.49 61 12:46 06.08.2022
748 Clear 29 1015 62 10000 0.45 177 11:21 06.08.2022
749 Clear 27 1015 68 10000 0.45 220 09:49 06.08.2022
750 Clear 21 1006 83 10000 0.45 145 07:35 06.08.2022
751 Clear 20 1005 85 10000 2.15 84 01:59 06.08.2022
752 Clear 21 1005 85 10000 2.44 82 22:40 05.08.2022
753 Clouds 21 1005 85 10000 2.75 89 21:36 05.08.2022
754 Clouds 24 1005 81 10000 2.16 28 19:22 05.08.2022
755 Clouds 24 1014 75 10000 2.16 28 18:44 05.08.2022
756 Clouds 28 1014 67 10000 3.72 60 16:55 05.08.2022
757 Clouds 26 1014 100 10000 3.72 60 16:37 05.08.2022
758 Clouds 27 1014 69 10000 3.26 73 15:19 05.08.2022
759 Clouds 25 1014 80 10000 0.45 298 13:39 05.08.2022
760 Clouds 24 988 53 10000 3.56 88 13:20 05.08.2022
761 Clouds 22 1015 83 10000 0.45 23 12:23 05.08.2022
762 Clouds 22 1014 84 10000 0.45 46 10:25 05.08.2022
763 Clouds 19 1005 84 10000 0.45 320 07:58 05.08.2022
764 Clouds 18 1004 84 10000 0.45 288 05:25 05.08.2022
765 Clouds 19 1005 85 10000 3.1 357 23:50 04.08.2022
766 Clouds 19 1005 85 10000 3.1 357 23:50 04.08.2022
767 Clouds 21 1006 84 10000 2.99 354 21:39 04.08.2022
768 Clouds 21 1005 84 10000 3.09 6 21:21 04.08.2022
769 Clouds 21 1007 85 10000 3.09 6 20:40 04.08.2022
770 Clouds 22 1005 85 10000 0.45 35 19:21 04.08.2022
771 Clouds 22 1005 84 10000 2.97 13 18:34 04.08.2022
772 Clouds 24 1005 83 10000 2.65 33 17:28 04.08.2022
773 Clouds 26 1005 75 10000 0.45 43 13:35 04.08.2022
774 Clouds 25 1005 78 10000 0.89 133 11:46 04.08.2022
775 Clouds 23 1005 83 10000 0.89 218 10:27 04.08.2022
776 Clouds 20 1005 84 10000 0.45 117 07:50 04.08.2022
777 Clouds 19 1005 84 10000 0.45 296 04:28 04.08.2022
778 Clouds 19 1005 84 10000 0.45 47 01:58 04.08.2022
779 Clouds 20 1005 84 10000 0.45 55 23:42 03.08.2022
780 Clouds 20 1004 84 10000 0.45 44 21:39 03.08.2022
781 Clouds 20 1005 84 10000 4.03 4 20:22 03.08.2022
782 Clouds 21 1004 85 10000 0.45 91 19:28 03.08.2022
783 Clouds 22 1004 84 10000 0.45 80 17:41 03.08.2022
784 Rain 21 1013 85 10000 0.89 123 16:24 03.08.2022
785 Rain 25 1012 78 10000 0.89 121 14:25 03.08.2022
786 Rain 24 1003 84 10000 0.45 269 11:47 03.08.2022
787 Clouds 20 1012 84 10000 0.45 120 08:20 03.08.2022
788 Clouds 18 1002 85 10000 0.45 307 04:46 03.08.2022
789 Clouds 18 1002 85 10000 0.45 351 03:27 03.08.2022
790 Clouds 18 1002 86 10000 4.53 347 01:18 03.08.2022
791 Clouds 18 1001 86 10000 0.45 58 22:59 02.08.2022
792 Rain 18 1001 87 10000 0.45 80 21:53 02.08.2022
793 Rain 18 1001 87 10000 0.45 71 20:58 02.08.2022
794 Clouds 18 1001 87 10000 0.45 132 18:48 02.08.2022
795 Rain 19 1001 87 6101 0.45 71 16:21 02.08.2022
796 Rain 19 1001 88 10000 0.89 33 11:45 02.08.2022
797 Rain 19 1000 87 10000 2.55 4 09:18 02.08.2022
798 Rain 19 1000 89 10000 2.27 6 07:53 02.08.2022
799 Rain 20 1000 88 10000 0.89 312 06:43 02.08.2022
800 Clouds 21 1000 86 10000 0.45 65 04:54 02.08.2022
801 Clouds 21 1001 80 10000 0.69 137 23:51 01.08.2022
802 Clouds 22 1001 79 8147 2.52 101 22:25 01.08.2022
803 Clouds 22 1001 80 10000 3 74 20:52 01.08.2022
804 Clouds 24 1000 75 10000 0.45 240 19:25 01.08.2022
805 Clouds 25 1000 71 10000 0.45 300 18:40 01.08.2022
806 Clouds 26 1009 69 10000 4.86 101 16:53 01.08.2022
807 Clouds 28 1008 54 10000 0.45 235 15:52 01.08.2022
808 Clouds 29 1008 53 10000 0.89 294 15:30 01.08.2022
809 Clouds 28 1008 54 10000 0.89 261 14:43 01.08.2022
810 Clouds 29 1000 50 10000 0.89 165 11:59 01.08.2022
811 Clouds 27 1000 51 10000 0.45 214 09:43 01.08.2022
812 Clouds 24 1000 57 10000 0.45 306 08:30 01.08.2022
813 Clouds 18 1000 80 10000 2.8 99 04:54 01.08.2022
814 Clouds 18 1001 80 10000 3.21 104 03:49 01.08.2022
815 Clouds 21 1001 68 10000 0.45 266 00:23 01.08.2022
816 Clouds 23 1002 60 10000 0.45 260 22:39 31.07.2022
817 Clouds 24 1002 58 10000 0.89 309 21:27 31.07.2022
818 Clouds 26 1002 53 10000 0.45 246 19:53 31.07.2022
819 Clouds 30 1010 43 10000 0.45 273 17:57 31.07.2022
820 Clouds 32 1010 40 10000 0.89 304 15:39 31.07.2022
821 Clouds 31 1011 41 10000 0.45 268 13:43 31.07.2022
822 Clouds 30 1004 39 10000 0.89 209 11:58 31.07.2022
823 Clouds 28 1004 51 10000 0.45 264 09:55 31.07.2022
824 Clouds 23 1005 62 10000 0.89 218 07:59 31.07.2022
825 Clouds 20 1005 79 10000 0.45 273 02:58 31.07.2022
826 Clouds 22 1006 76 10000 0.45 207 23:40 30.07.2022
827 Clouds 23 1006 70 10000 0.45 233 22:19 30.07.2022
828 Clouds 23 1006 69 10000 0.45 227 21:48 30.07.2022
829 Clouds 24 1006 67 10000 0.45 329 20:57 30.07.2022
830 Clouds 25 1005 59 10000 0.45 252 19:59 30.07.2022
831 Clouds 27 1014 53 10000 0.45 347 18:53 30.07.2022
832 Clouds 27 1015 47 10000 3.93 97 17:44 30.07.2022
833 Clouds 30 1014 43 10000 0.45 207 15:50 30.07.2022
834 Clouds 29 1016 31 10000 3.1 72 15:22 30.07.2022
835 Clouds 31 1016 44 10000 0.45 204 12:59 30.07.2022
836 Clouds 30 1007 45 10000 0.89 134 12:19 30.07.2022
837 Clouds 29 1008 49 10000 0.45 176 10:31 30.07.2022
838 Clouds 29 1008 49 10000 0.45 176 10:31 30.07.2022
839 Clouds 27 1008 55 10000 2.69 155 09:54 30.07.2022
840 Clouds 23 1008 70 10000 2.65 135 07:55 30.07.2022
841 Clouds 19 1008 78 10000 2.58 135 02:57 30.07.2022
842 Clouds 21 1009 74 10000 2.1 131 02:24 30.07.2022
843 Clouds 23 1009 66 10000 2.82 89 22:41 29.07.2022
844 Clouds 23 1009 62 10000 0.45 294 21:24 29.07.2022
845 Clouds 24 1009 64 10000 3.15 58 20:35 29.07.2022
846 Clouds 29 1017 45 10000 0.45 351 17:59 29.07.2022
847 Clouds 27 1018 47 10000 0.45 198 15:35 29.07.2022
848 Clear 30 1019 42 10000 0.45 200 13:19 29.07.2022
849 Clear 29 1019 42 10000 0.45 326 11:22 29.07.2022
850 Clear 25 1010 47 10000 0.45 89 08:50 29.07.2022
851 Clouds 22 1010 58 10000 0.45 178 07:54 29.07.2022
852 Clouds 16 1010 77 10000 0.69 39 01:52 29.07.2022
853 Clear 18 1009 72 10000 1 93 22:49 28.07.2022
854 Clear 20 1009 66 10000 1.83 59 21:20 28.07.2022
855 Clear 20 1008 62 10000 2.19 59 20:31 28.07.2022
856 Clear 21 1017 58 10000 2.19 59 19:43 28.07.2022
857 Clear 22 1016 55 10000 2.29 38 19:23 28.07.2022
858 Clear 27 1016 44 10000 0.45 89 17:43 28.07.2022
859 Clear 27 1016 42 10000 0.45 252 16:55 28.07.2022
860 Clouds 27 1016 44 10000 0.89 339 15:32 28.07.2022
861 Clouds 27 1016 48 10000 0.45 320 13:29 28.07.2022
862 Clouds 24 1016 58 10000 0.89 324 10:37 28.07.2022
863 Clouds 19 1015 81 10000 0.45 136 06:42 28.07.2022
864 Clouds 18 1005 85 10000 0.45 123 05:29 28.07.2022
865 Clouds 19 1005 86 10000 3.88 333 01:23 28.07.2022
866 Clouds 20 1004 84 10000 3.67 331 22:41 27.07.2022
867 Clouds 21 1003 81 10000 3.9 319 21:28 27.07.2022
868 Clouds 23 1002 66 10000 3.56 329 19:42 27.07.2022
869 Clouds 23 1001 68 10000 0.45 101 17:49 27.07.2022
870 Clouds 26 1001 56 10000 0.45 85 15:52 27.07.2022
871 Clouds 26 1001 55 10000 0.45 93 14:57 27.07.2022
872 Clouds 27 1001 54 10000 0.45 272 14:34 27.07.2022
873 Clouds 31 1009 41 10000 0.45 129 12:50 27.07.2022
874 Clouds 24 1009 63 10000 0.45 154 07:54 27.07.2022
875 Clouds 22 1000 68 10000 1.32 213 06:56 27.07.2022
876 Clouds 17 1009 84 10000 1.79 124 01:59 27.07.2022
877 Clear 18 1000 73 10000 1.99 58 22:29 26.07.2022
878 Clear 19 1000 68 10000 1.85 46 21:20 26.07.2022
879 Clear 21 1000 65 10000 1.42 40 20:31 26.07.2022
880 Clear 25 1008 53 10000 1.88 47 18:44 26.07.2022
881 Clear 28 1008 44 10000 0.45 279 17:59 26.07.2022
882 Clear 29 1008 42 10000 0.45 310 16:31 26.07.2022
883 Clear 29 1009 42 10000 0.45 75 15:30 26.07.2022
884 Clear 27 1009 46 10000 0.45 21 13:38 26.07.2022
885 Clear 26 1010 56 10000 0.45 76 11:38 26.07.2022
886 Clear 23 1010 71 10000 0.45 132 08:57 26.07.2022
887 Clear 18 1001 83 10000 2.75 318 06:26 26.07.2022
888 Clear 19 1011 84 10000 2.43 316 00:44 26.07.2022
889 Clear 19 984 76 10000 2.12 318 23:32 25.07.2022
890 Clear 20 1011 76 10000 2.33 328 22:26 25.07.2022
891 Clear 20 1011 79 10000 2.33 328 21:43 25.07.2022
892 Clear 20 1011 78 10000 0.45 329 20:42 25.07.2022
893 Clouds 21 1010 72 10000 2.96 347 19:46 25.07.2022
894 Clouds 22 1010 69 10000 0.45 44 18:19 25.07.2022
895 Clouds 24 1001 63 10000 0.89 320 17:27 25.07.2022
896 Clouds 25 1010 61 10000 0.45 356 15:20 25.07.2022
897 Clouds 25 1011 66 10000 0.45 356 12:22 25.07.2022
898 Clouds 23 1002 72 10000 0.45 224 09:58 25.07.2022
899 Clouds 17 1002 85 10000 0.45 343 04:38 25.07.2022
900 Clouds 19 1002 84 10000 0.89 216 23:54 24.07.2022
901 Clouds 19 1002 85 10000 0.45 96 23:18 24.07.2022
902 Clouds 19 1002 85 10000 3.89 309 22:34 24.07.2022
903 Rain 19 1002 86 10000 2.64 299 21:25 24.07.2022
904 Rain 20 1002 86 10000 2.64 299 20:51 24.07.2022
905 Rain 20 1002 86 10000 1.54 298 20:26 24.07.2022
906 Rain 20 1011 86 10000 0.45 232 18:48 24.07.2022
907 Clouds 24 1013 100 10000 5.85 271 16:32 24.07.2022
908 Rain 23 1011 83 10000 0.45 128 15:50 24.07.2022
909 Clouds 27 1011 63 10000 0.45 147 14:38 24.07.2022
910 Clouds 30 1003 46 10000 0.45 83 12:55 24.07.2022
911 Clouds 31 1003 42 10000 0.45 116 11:40 24.07.2022
912 Clouds 32 1011 40 10000 0.89 114 11:18 24.07.2022
913 Clear 29 1012 55 10000 0.45 113 08:48 24.07.2022
914 Clouds 25 1004 65 10000 0.89 168 07:52 24.07.2022
915 Clear 21 1004 72 10000 0.45 142 06:18 24.07.2022
916 Clear 21 1005 72 10000 2.59 161 01:27 24.07.2022
917 Clear 21 1005 74 10000 2.22 109 22:21 23.07.2022
918 Clear 23 1005 67 10000 1.18 57 20:28 23.07.2022
919 Clear 26 1013 47 10000 1.78 28 18:51 23.07.2022
920 Clear 31 1014 39 10000 0.89 305 17:29 23.07.2022
921 Clear 31 1014 41 10000 0.45 296 16:36 23.07.2022
922 Clear 30 1014 46 10000 0.45 114 15:31 23.07.2022
923 Clear 29 1006 48 10000 0.45 68 14:59 23.07.2022
924 Clear 29 1015 51 10000 3.01 358 14:30 23.07.2022
925 Clear 30 1015 47 10000 0.45 345 13:36 23.07.2022
926 Clear 28 1015 51 10000 0.45 80 10:49 23.07.2022
927 Clear 27 1016 56 10000 0.45 293 10:22 23.07.2022
928 Clear 25 1016 63 10000 0.45 315 08:50 23.07.2022
929 Clear 18 1006 84 10000 2.3 344 03:40 23.07.2022
930 Clear 19 1006 77 10000 2.08 350 01:33 23.07.2022
931 Clear 21 1006 72 10000 0.45 44 22:56 22.07.2022
932 Clear 22 1014 64 10000 0.45 325 20:57 22.07.2022
933 Clouds 24 1013 60 10000 3.84 0 19:46 22.07.2022
934 Clouds 26 1013 52 10000 0.45 59 18:28 22.07.2022
935 Clouds 27 1013 47 10000 0.45 62 17:28 22.07.2022
936 Clouds 27 1013 46 10000 1.34 74 14:55 22.07.2022
937 Clear 25 1013 57 10000 0.89 64 11:36 22.07.2022
938 Clear 23 1012 68 10000 0.45 77 09:26 22.07.2022
939 Clear 22 1012 75 10000 0.89 71 08:37 22.07.2022
940 Clear 19 1012 85 10000 0.45 263 06:59 22.07.2022
941 Clear 18 1002 87 10000 3.42 341 02:25 22.07.2022
942 Clouds 20 1001 81 10000 0.45 352 22:45 21.07.2022
943 Rain 22 1002 74 10000 1.34 64 21:34 21.07.2022
944 Clouds 25 1001 55 10000 0.45 82 19:28 21.07.2022
945 Clouds 25 1012 50 10000 5.26 341 17:41 21.07.2022
946 Clouds 27 1001 49 10000 0.89 281 17:19 21.07.2022
947 Clouds 26 1001 50 10000 0.45 283 17:19 21.07.2022
948 Clouds 27 1010 48 10000 0.45 55 15:22 21.07.2022
949 Clouds 27 1002 45 10000 0.89 153 14:37 21.07.2022
950 Clear 26 1002 46 10000 1.34 80 12:28 21.07.2022
951 Clear 26 1011 46 10000 0.89 180 11:19 21.07.2022
952 Clear 24 1012 53 10000 0.89 85 09:38 21.07.2022
953 Clear 22 1012 56 10000 0.89 117 08:52 21.07.2022
954 Clouds 20 1013 63 10000 0.45 121 07:50 21.07.2022
955 Clear 15 1004 72 10000 0.45 100 05:47 21.07.2022
956 Clouds 17 1004 70 10000 3.53 318 00:43 21.07.2022
957 Clouds 19 1004 64 10000 4.59 356 22:22 20.07.2022
958 Clouds 20 1004 58 10000 0.45 133 20:55 20.07.2022
959 Clouds 19 1015 53 10000 6.4 2 19:52 20.07.2022
960 Clouds 22 1011 57 10000 0.45 357 19:24 20.07.2022
961 Clouds 25 1010 52 10000 0.89 65 18:34 20.07.2022
962 Clouds 25 1010 54 10000 0.89 95 17:59 20.07.2022
963 Clouds 21 983 100 10000 5.57 338 16:45 20.07.2022
964 Clouds 25 983 45 10000 5.49 301 15:31 20.07.2022
965 Clouds 25 984 54 10000 5.45 283 14:20 20.07.2022
966 Clouds 25 984 54 10000 5.45 283 14:20 20.07.2022
967 Clouds 25 984 54 10000 5.45 283 14:20 20.07.2022
968 Clouds 27 1014 57 10000 0.45 300 11:34 20.07.2022
969 Clouds 24 1016 67 10000 0.45 250 08:50 20.07.2022
970 Clear 15 991 100 10000 2.22 279 03:47 20.07.2022
971 Clear 17 1010 88 10000 1.81 277 00:49 20.07.2022
972 Clear 17 1010 88 10000 1.77 276 23:41 19.07.2022
973 Clear 18 1010 87 10000 1.94 282 22:33 19.07.2022
974 Clear 18 1010 86 10000 1.94 282 21:31 19.07.2022
975 Clouds 19 1009 83 10000 2.15 262 20:28 19.07.2022
976 Clouds 21 1018 74 10000 0.45 87 18:44 19.07.2022
977 Clouds 23 1018 69 10000 0.45 177 17:58 19.07.2022
978 Rain 21 1009 80 10000 0.45 20 16:37 19.07.2022
979 Rain 21 1019 77 10000 0.89 156 14:53 19.07.2022
980 Clouds 19 992 72 10000 2.55 267 11:39 19.07.2022
981 Clouds 16 1022 72 10000 2.55 267 10:47 19.07.2022
982 Clouds 15 1022 73 10000 2.05 281 09:23 19.07.2022
983 Clouds 15 1022 73 10000 2.05 281 08:38 19.07.2022
984 Clouds 18 1011 71 10000 0.45 344 07:19 19.07.2022
985 Clouds 17 1011 73 10000 0.45 132 05:28 19.07.2022
986 Clouds 16 1011 74 10000 2.29 257 04:53 19.07.2022
987 Clouds 15 1011 78 10000 2.65 281 00:38 19.07.2022
988 Clouds 16 1011 73 10000 2.32 273 23:36 18.07.2022
989 Clouds 16 1011 70 10000 2.35 272 23:18 18.07.2022
990 Clouds 18 1011 64 10000 0.45 149 21:58 18.07.2022
991 Clouds 19 1011 57 10000 2.56 285 20:51 18.07.2022
992 Clouds 21 1010 51 10000 0.45 223 19:33 18.07.2022
993 Clouds 22 1011 52 10000 0.45 314 17:31 18.07.2022
994 Clouds 22 1021 46 10000 4.51 311 15:52 18.07.2022
995 Clouds 23 992 46 10000 3.96 301 14:34 18.07.2022
996 Clouds 24 1020 50 10000 0.89 91 12:58 18.07.2022
997 Clouds 24 1020 52 10000 0.89 148 11:30 18.07.2022
998 Clear 21 1020 69 10000 4.44 314 08:57 18.07.2022
999 Clouds 16 1011 81 10000 0.45 256 07:38 18.07.2022
1000 Clouds 13 1009 87 10000 0.45 135 01:24 18.07.2022
1001 Rain 13 1009 86 10000 0.45 137 22:43 17.07.2022
1002 Rain 14 1009 85 10000 4.29 282 22:22 17.07.2022
1003 Clouds 13 1008 83 10000 0.45 271 21:23 17.07.2022
1004 Clouds 13 1008 82 10000 0.45 42 20:44 17.07.2022
1005 Rain 15 1008 69 10000 0.89 334 19:34 17.07.2022
1006 Clouds 17 1007 64 10000 0.45 85 18:54 17.07.2022
1007 Clouds 21 1007 53 10000 0.45 178 17:38 17.07.2022
1008 Clouds 20 1016 55 10000 0.89 100 16:51 17.07.2022
1009 Clouds 19 1016 61 10000 0.45 77 16:26 17.07.2022
1010 Clouds 20 1006 56 10000 0.89 123 14:58 17.07.2022
1011 Clouds 21 1006 49 10000 0.45 275 13:31 17.07.2022
1012 Clouds 21 1006 49 10000 0.89 70 11:41 17.07.2022
1013 Clouds 18 1015 69 10000 0.89 137 09:24 17.07.2022
1014 Clouds 17 1005 80 10000 0.45 89 05:25 17.07.2022
1015 Clouds 18 1006 76 10000 0.45 186 02:33 17.07.2022
1016 Clouds 18 987 100 10000 1.69 182 23:20 16.07.2022
1017 Clouds 20 1014 60 10000 1.88 332 21:32 16.07.2022
1018 Clouds 21 1005 59 10000 2.8 320 19:40 16.07.2022
1019 Clouds 23 1005 54 10000 0.45 305 18:32 16.07.2022
1020 Clouds 27 1005 39 10000 0.45 116 16:53 16.07.2022
1021 Clouds 25 1015 46 10000 0.89 137 13:56 16.07.2022
1022 Clouds 24 1015 53 10000 0.45 106 10:55 16.07.2022
1023 Clouds 20 988 47 10000 2.03 316 09:33 16.07.2022
1024 Clouds 20 988 47 10000 2.03 316 08:47 16.07.2022
1025 Clouds 20 988 54 10000 2.27 318 08:29 16.07.2022
1026 Clouds 14 1006 88 10000 1.99 299 04:24 16.07.2022
1027 Clouds 14 1006 88 10000 1.63 307 03:22 16.07.2022
1028 Clouds 16 1005 86 10000 2.41 301 23:34 15.07.2022
1029 Clouds 17 1005 83 10000 2.34 306 22:41 15.07.2022
1030 Clouds 17 1004 88 10000 2.18 316 21:29 15.07.2022
1031 Clouds 17 1004 88 10000 1.44 359 20:30 15.07.2022
1032 Clouds 21 1012 77 10000 1.71 64 18:42 15.07.2022
1033 Clouds 24 1011 72 10000 0.45 314 17:38 15.07.2022
1034 Clouds 20 1002 85 10000 0.45 68 14:54 15.07.2022
1035 Clouds 21 983 85 10000 6.3 343 12:58 15.07.2022
1036 Clouds 24 1000 74 10000 0.45 88 11:27 15.07.2022
1037 Clouds 23 999 77 10000 0.45 170 09:44 15.07.2022
1038 Clouds 19 1001 83 10000 1.01 255 06:24 15.07.2022
1039 Clear 18 1001 81 10000 2.33 273 00:58 15.07.2022
1040 Clear 19 1001 82 10000 2.5 266 00:21 15.07.2022
1041 Clear 20 1002 74 10000 2.92 266 22:50 14.07.2022
1042 Clear 19 1010 74 10000 3.35 266 21:47 14.07.2022
1043 Clear 19 1001 73 10000 3.55 262 21:29 14.07.2022
1044 Clear 20 1010 69 10000 3.55 262 20:45 14.07.2022
1045 Clouds 21 1001 64 10000 3.09 253 20:21 14.07.2022
1046 Clouds 24 1010 54 10000 3.28 265 19:18 14.07.2022
1047 Clouds 25 1011 37 10000 4.79 285 16:23 14.07.2022
1048 Clouds 25 1011 47 10000 4.58 275 15:32 14.07.2022
1049 Clouds 25 1010 59 10000 0.45 64 13:59 14.07.2022
1050 Clouds 25 1001 60 10000 0.89 60 12:58 14.07.2022
1051 Clouds 24 1001 61 10000 0.45 205 11:54 14.07.2022
1052 Clouds 23 1010 66 10000 0.89 139 11:23 14.07.2022
1053 Clouds 23 1009 63 10000 0.45 128 10:24 14.07.2022
1054 Clouds 17 1000 82 10000 0.45 317 07:50 14.07.2022
1055 Clouds 16 997 86 10000 0.89 156 01:26 14.07.2022
1056 Clouds 16 997 86 10000 0.89 1 00:53 14.07.2022
1057 Clouds 15 996 86 10000 0.45 278 22:33 13.07.2022
1058 Clouds 15 996 86 10000 0.45 155 21:59 13.07.2022
1059 Rain 15 996 86 10000 0.45 202 21:19 13.07.2022
1060 Clouds 16 996 86 10000 0.45 349 19:58 13.07.2022
1061 Rain 16 994 87 9021 0.45 0 17:52 13.07.2022
1062 Rain 16 995 87 7878 0.45 158 16:46 13.07.2022
1063 Rain 15 996 87 10000 5.62 221 15:26 13.07.2022
1064 Clouds 15 996 87 10000 0.45 193 13:24 13.07.2022
1065 Rain 14 996 88 10000 0.45 145 10:46 13.07.2022
1066 Rain 14 996 89 10000 0.89 141 10:28 13.07.2022
1067 Rain 14 996 88 10000 0.89 143 09:26 13.07.2022
1068 Clouds 14 996 88 10000 0.45 181 07:53 13.07.2022
1069 Clouds 14 997 83 10000 0.45 175 03:26 13.07.2022
1070 Clouds 15 999 81 10000 0.89 159 00:18 13.07.2022
1071 Clouds 15 1000 81 10000 0.45 145 22:18 12.07.2022
1072 Clouds 15 1000 79 10000 0.45 114 21:35 12.07.2022
1073 Clouds 16 1001 78 10000 0.45 136 20:42 12.07.2022
1074 Clouds 17 1001 73 10000 0.89 109 19:42 12.07.2022
1075 Clouds 19 1002 67 10000 0.89 161 18:21 12.07.2022
1076 Rain 19 1011 80 10000 0.45 162 16:20 12.07.2022
1077 Clouds 19 1011 65 10000 0.89 86 14:31 12.07.2022
1078 Clouds 22 1001 58 10000 0.89 121 13:24 12.07.2022
1079 Clouds 20 983 52 10000 5.64 252 11:46 12.07.2022
1080 Clouds 20 1010 68 10000 0.45 108 10:25 12.07.2022
1081 Clear 19 1009 74 10000 0.45 214 08:38 12.07.2022
1082 Clouds 16 1009 83 10000 0.45 299 07:38 12.07.2022
1083 Clouds 14 999 87 10000 0.89 34 05:44 12.07.2022
1084 Clouds 14 999 88 10000 0.45 129 03:50 12.07.2022
1085 Rain 15 1008 88 10000 0.45 94 23:50 11.07.2022
1086 Clouds 15 999 86 10000 0.45 26 22:37 11.07.2022
1087 Rain 15 998 88 10000 0.45 238 20:54 11.07.2022
1088 Rain 16 1007 88 10000 1.34 177 20:29 11.07.2022
1089 Clouds 16 1009 100 10000 4.76 296 18:39 11.07.2022
1090 Clouds 20 1009 45 10000 5.26 300 17:57 11.07.2022
1091 Clouds 22 1008 39 10000 4.15 326 16:26 11.07.2022
1092 Rain 19 1006 80 10000 0.45 144 14:58 11.07.2022
1093 Clouds 22 997 64 10000 0.89 25 12:38 11.07.2022
1094 Clouds 22 997 68 10000 0.89 64 10:56 11.07.2022
1095 Clouds 22 997 68 10000 0.89 33 09:54 11.07.2022
1096 Clouds 21 997 73 10000 0.45 72 09:21 11.07.2022
1097 Clouds 18 997 81 10000 0.45 160 07:52 11.07.2022
1098 Clouds 18 997 82 10000 3.9 335 00:54 11.07.2022
1099 Clouds 19 997 83 10000 3.97 330 23:53 10.07.2022
1100 Clouds 20 998 75 10000 3.43 319 22:37 10.07.2022
1101 Clouds 20 980 62 10000 3 328 20:55 10.07.2022
1102 Clouds 22 997 62 10000 0.45 52 20:24 10.07.2022
1103 Clouds 22 997 62 10000 0.45 95 19:28 10.07.2022
1104 Clouds 24 1006 58 10000 0.45 144 17:59 10.07.2022
1105 Clouds 25 997 56 10000 0.45 51 16:59 10.07.2022
1106 Clouds 25 1007 56 10000 5.08 325 16:20 10.07.2022
1107 Clouds 26 1006 52 10000 0.89 54 14:44 10.07.2022
1108 Rain 23 1008 56 10000 4.19 327 13:18 10.07.2022
1109 Clouds 25 1007 60 10000 0.89 85 11:39 10.07.2022
1110 Clouds 22 1007 72 10000 0.45 68 09:45 10.07.2022
1111 Clouds 21 980 50 10000 3.85 322 08:43 10.07.2022
1112 Clear 18 998 83 10000 0.45 109 06:39 10.07.2022
1113 Clouds 17 982 100 10000 2.05 299 23:47 09.07.2022
1114 Clouds 18 1001 81 10000 2.25 326 22:26 09.07.2022
1115 Clouds 18 1001 83 10000 2.25 326 21:41 09.07.2022
1116 Clouds 19 1002 82 10000 2.15 13 19:44 09.07.2022
1117 Clouds 19 1002 83 10000 2.15 13 19:44 09.07.2022
1118 Clouds 19 1002 82 10000 3.24 342 18:26 09.07.2022
1119 Clouds 19 1002 82 10000 3.24 342 18:26 09.07.2022
1120 Clouds 19 1011 82 10000 3.69 341 17:32 09.07.2022
1121 Clouds 19 1011 82 10000 3.69 341 16:34 09.07.2022
1122 Clouds 19 1003 84 10000 4.31 344 15:39 09.07.2022
1123 Clouds 19 1003 83 10000 5.36 356 14:23 09.07.2022
1124 Clouds 19 1012 84 10000 0.45 126 13:48 09.07.2022
1125 Clouds 19 1003 85 10000 0.45 69 12:22 09.07.2022
1126 Rain 18 1003 86 10000 0.45 75 10:27 09.07.2022
1127 Rain 18 1004 87 10000 0.45 56 09:57 09.07.2022
1128 Clouds 19 1004 83 10000 0.45 280 07:44 09.07.2022
1129 Clouds 19 1005 77 10000 3.96 13 04:49 09.07.2022
1130 Clouds 19 1005 76 10000 0.45 57 00:38 09.07.2022
1131 Clouds 20 1005 72 10000 0.45 326 22:41 08.07.2022
1132 Clouds 21 1005 67 10000 0.45 330 21:27 08.07.2022
1133 Clouds 21 1006 67 10000 0.45 278 20:40 08.07.2022
1134 Clouds 21 1015 68 10000 0.45 291 19:48 08.07.2022
1135 Clouds 23 1015 67 10000 0.45 39 17:56 08.07.2022
1136 Clouds 23 1017 76 10000 4.37 8 16:33 08.07.2022
1137 Clouds 23 1017 78 10000 4.69 12 14:51 08.07.2022
1138 Clouds 24 1016 65 10000 0.45 71 12:42 08.07.2022
1139 Clouds 23 989 43 10000 4.87 29 11:24 08.07.2022
1140 Clouds 21 989 47 10000 4.62 24 10:21 08.07.2022
1141 Clouds 19 1007 80 10000 0.45 74 07:55 08.07.2022
1142 Clouds 19 1007 82 10000 3.11 16 06:23 08.07.2022
1143 Clouds 19 1007 80 10000 2.67 24 00:41 08.07.2022
1144 Clouds 19 1006 80 10000 0.45 356 22:57 07.07.2022
1145 Clouds 19 1006 79 10000 3.71 1 21:52 07.07.2022
1146 Clouds 22 1006 67 10000 0.89 320 19:35 07.07.2022
1147 Clouds 23 1016 77 10000 5.08 325 17:56 07.07.2022
1148 Clouds 24 1015 58 10000 0.89 60 16:32 07.07.2022
1149 Clouds 24 1015 61 10000 0.89 106 14:21 07.07.2022
1150 Clouds 23 1015 64 10000 0.89 57 12:45 07.07.2022
1151 Clouds 24 1006 66 10000 0.89 47 12:23 07.07.2022
1152 Clouds 22 1008 71 10000 0.89 57 11:34 07.07.2022
1153 Clouds 21 1005 71 10000 0.89 189 10:46 07.07.2022
1154 Clouds 21 1005 76 10000 0.89 111 10:27 07.07.2022
1155 Clouds 18 1005 81 10000 4.69 328 09:32 07.07.2022
1156 Clouds 16 1004 84 10000 0.89 67 06:26 07.07.2022
1157 Clouds 19 1002 83 10000 0.89 126 00:28 07.07.2022
1158 Clouds 19 1002 83 10000 0.45 148 23:36 06.07.2022
1159 Clouds 20 1002 83 10000 0.45 120 23:18 06.07.2022
1160 Clouds 20 1002 84 10000 0.45 238 22:51 06.07.2022
1161 Clouds 20 1002 84 10000 0.45 238 22:51 06.07.2022
1162 Clouds 20 1001 84 10000 6.1 317 22:33 06.07.2022
1163 Clouds 21 1010 100 10000 2.03 304 20:23 06.07.2022
1164 Clouds 26 1010 43 10000 2.3 11 19:18 06.07.2022
1165 Clouds 28 1010 40 10000 2.39 253 17:21 06.07.2022
1166 Clouds 27 1007 66 10000 0.89 231 15:55 06.07.2022
1167 Clouds 36 1009 36 10000 0.89 223 12:44 06.07.2022
1168 Clouds 32 983 15 10000 4.82 170 11:52 06.07.2022
1169 Clouds 31 984 34 10000 5.04 161 10:49 06.07.2022
1170 Clouds 27 984 38 10000 4.54 155 09:21 06.07.2022
1171 Clouds 27 1003 57 10000 0.89 144 07:44 06.07.2022
1172 Clouds 25 1003 66 10000 3.65 150 06:44 06.07.2022
1173 Clouds 24 1004 63 10000 2.25 84 23:42 05.07.2022
1174 Clouds 25 1004 61 10000 0.45 176 22:42 05.07.2022
1175 Clear 26 1012 60 10000 2.81 78 20:48 05.07.2022
1176 Clouds 27 1012 53 10000 2.91 45 19:56 05.07.2022
1177 Clouds 29 1012 49 10000 2.91 45 19:36 05.07.2022
1178 Clouds 31 1014 23 10000 2.26 34 17:50 05.07.2022
1179 Clouds 31 1014 23 10000 2.14 45 17:19 05.07.2022
1180 Clouds 31 1014 23 10000 1.81 59 16:18 05.07.2022
1181 Clouds 33 1012 42 10000 0.89 190 14:54 05.07.2022
1182 Clouds 34 1013 41 10000 0.45 244 12:59 05.07.2022
1183 Clouds 32 1013 45 10000 0.89 202 12:22 05.07.2022
1184 Clouds 32 1013 44 10000 0.45 174 10:45 05.07.2022
1185 Clouds 30 987 37 10000 0.73 38 09:52 05.07.2022
1186 Clouds 29 1014 59 10000 0.8 283 08:21 05.07.2022
1187 Clouds 25 1005 71 10000 1.17 285 06:48 05.07.2022
1188 Clouds 20 1005 85 10000 1.55 246 04:30 05.07.2022
1189 Clear 23 987 98 10000 1.6 142 00:47 05.07.2022
1190 Clear 22 1005 72 10000 1.7 135 23:37 04.07.2022
1191 Clear 22 1014 72 10000 1.2 131 22:55 04.07.2022
1192 Clear 23 1005 65 10000 0.73 112 21:56 04.07.2022
1193 Clear 23 1013 61 10000 0.36 65 20:55 04.07.2022
1194 Clear 25 1013 58 10000 0.35 67 20:35 04.07.2022
1195 Clouds 26 1013 53 10000 1.44 23 19:56 04.07.2022
1196 Clouds 27 1013 50 10000 1.44 23 19:37 04.07.2022
1197 Clouds 30 1013 41 10000 0.45 194 18:34 04.07.2022
1198 Clouds 29 1015 24 10000 0.88 251 16:42 04.07.2022
1199 Clouds 32 1014 36 10000 0.45 163 15:34 04.07.2022
1200 Clouds 32 1015 36 10000 0.89 172 13:44 04.07.2022
1201 Clouds 32 1015 36 10000 0.45 232 12:38 04.07.2022
1202 Clouds 27 989 32 10000 1.98 170 10:39 04.07.2022
1203 Clouds 30 1016 46 10000 0.45 224 10:20 04.07.2022
1204 Clear 24 989 42 10000 1.59 174 08:31 04.07.2022
1205 Clear 19 1008 81 10000 1.06 140 05:36 04.07.2022
1206 Clouds 18 1007 85 10000 1.28 201 00:44 04.07.2022
1207 Clouds 18 1008 84 10000 1.59 171 23:38 03.07.2022
1208 Clouds 18 1008 82 10000 1.26 90 22:23 03.07.2022
1209 Clouds 20 1008 74 10000 1.44 75 20:42 03.07.2022
1210 Clouds 22 1016 71 10000 1.68 55 19:42 03.07.2022
1211 Clouds 22 1016 70 10000 1.16 45 19:23 03.07.2022
1212 Clouds 25 1009 62 10000 0.94 60 17:45 03.07.2022
1213 Clouds 25 990 32 10000 0.65 78 17:18 03.07.2022
1214 Clouds 24 990 69 10000 0.58 213 15:26 03.07.2022
1215 Rain 24 1008 67 10000 0.58 213 14:37 03.07.2022
1216 Clouds 27 1008 56 10000 0.71 231 13:49 03.07.2022
1217 Clouds 25 1019 36 10000 1.3 219 12:42 03.07.2022
1218 Clouds 26 1019 33 10000 1.18 172 11:46 03.07.2022
1219 Clouds 28 991 29 10000 1.59 112 10:40 03.07.2022
1220 Clouds 29 1018 42 10000 0.45 181 10:20 03.07.2022
1221 Clouds 22 1020 37 10000 0.9 184 07:37 03.07.2022
1222 Clouds 19 1019 61 10000 1.83 189 05:26 03.07.2022
1223 Clouds 18 1010 66 10000 2.5 136 00:25 03.07.2022
1224 Clouds 19 1010 57 10000 2.73 109 22:37 02.07.2022
1225 Clouds 20 1019 56 10000 2.74 109 22:18 02.07.2022
1226 Clear 23 1019 50 10000 0.45 198 20:21 02.07.2022
1227 Clear 21 1021 42 10000 2.79 71 19:49 02.07.2022
1228 Clear 26 1021 27 10000 3.47 55 17:59 02.07.2022
1229 Clear 26 1021 24 10000 3.48 52 17:37 02.07.2022
1230 Clear 27 1021 25 10000 3.18 52 15:37 02.07.2022
1231 Clear 26 1022 31 10000 3.27 77 12:49 02.07.2022
1232 Clear 28 993 35 10000 3.39 85 11:48 02.07.2022
1233 Clear 26 993 37 10000 3.26 93 10:50 02.07.2022
1234 Clear 24 993 41 10000 3.16 101 09:49 02.07.2022
1235 Clouds 23 993 53 10000 3.64 116 08:37 02.07.2022
1236 Clouds 23 993 53 10000 3.64 116 08:19 02.07.2022
1237 Clouds 18 1009 81 10000 0.45 283 02:53 02.07.2022
1238 Clouds 19 1008 78 10000 1.71 63 00:27 02.07.2022
1239 Clear 20 1008 74 10000 1.72 59 22:59 01.07.2022
1240 Clear 21 1007 73 10000 1.48 61 22:26 01.07.2022
1241 Clear 23 1016 62 10000 1.48 61 21:37 01.07.2022
1242 Clear 23 989 60 10000 1.81 63 20:58 01.07.2022
1243 Clear 22 1018 59 10000 2.24 56 20:19 01.07.2022
1244 Clear 26 1015 51 10000 3.59 47 19:34 01.07.2022
1245 Clear 28 1017 27 10000 4.24 34 16:40 01.07.2022
1246 Clear 27 1017 35 10000 4.14 19 14:27 01.07.2022
1247 Clear 28 1017 33 10000 4.17 18 13:33 01.07.2022
1248 Clear 29 1015 56 10000 0.45 77 10:53 01.07.2022
1249 Clear 28 989 52 10000 3.51 9 10:19 01.07.2022
1250 Clear 22 1007 79 10000 0.85 7 06:21 01.07.2022
1251 Clouds 19 1007 84 10000 0.71 134 02:19 01.07.2022
1252 Clouds 20 1007 85 10000 2.05 124 23:34 30.06.2022
1253 Clear 21 1007 85 10000 2.37 104 22:50 30.06.2022
1254 Clouds 21 1007 83 10000 2.95 91 22:31 30.06.2022
1255 Clouds 21 1015 81 10000 2.95 91 21:53 30.06.2022
1256 Clouds 24 1015 72 10000 3.07 84 20:45 30.06.2022
1257 Clouds 24 1006 70 10000 0.45 290 20:18 30.06.2022
1258 Clouds 25 1014 67 10000 0.45 291 19:47 30.06.2022
1259 Clouds 26 1014 64 10000 0.45 323 18:52 30.06.2022
1260 Clouds 26 1016 67 10000 4.38 67 17:53 30.06.2022
1261 Clouds 29 1014 56 10000 0.45 310 17:18 30.06.2022
1262 Clouds 27 1016 68 10000 4.4 56 15:56 30.06.2022
1263 Clouds 30 1014 59 10000 0.45 24 13:59 30.06.2022
1264 Clear 30 1014 58 10000 0.45 27 13:20 30.06.2022
1265 Clear 30 1015 57 10000 2.99 43 12:33 30.06.2022
1266 Clear 28 1015 64 10000 0.45 25 10:49 30.06.2022
1267 Clear 27 1015 65 10000 0.45 23 09:47 30.06.2022
1268 Clear 23 988 62 10000 2.18 59 08:31 30.06.2022
1269 Clouds 21 1015 83 10000 0.45 29 07:41 30.06.2022
1270 Clouds 18 1006 84 10000 1.99 72 05:45 30.06.2022
1271 Clouds 19 1005 84 10000 0.45 86 23:39 29.06.2022
1272 Clouds 19 1005 85 10000 0.45 130 22:42 29.06.2022
1273 Clouds 19 1006 85 10000 0.45 129 22:19 29.06.2022
1274 Rain 19 1006 87 10000 0.45 128 20:35 29.06.2022
1275 Rain 20 1008 88 10000 2.72 182 19:57 29.06.2022
1276 Rain 21 1017 88 10000 0.45 22 18:46 29.06.2022
1277 Clouds 21 987 94 5595 4.84 334 17:38 29.06.2022
1278 Clouds 30 1014 48 10000 0.83 14 16:24 29.06.2022
1279 Clouds 32 1015 43 10000 2.68 100 13:52 29.06.2022
1280 Clear 34 1016 28 10000 2.38 71 12:38 29.06.2022
1281 Clear 31 989 44 10000 2.16 80 10:19 29.06.2022
1282 Clear 30 989 49 10000 1.53 77 09:31 29.06.2022
1283 Rain 22 1018 71 10000 1.76 81 06:57 29.06.2022
1284 Clouds 21 1007 89 10000 1.39 53 04:46 29.06.2022
1285 Clouds 24 1015 82 10000 1.04 124 00:54 29.06.2022
1286 Clouds 24 1015 80 10000 1.02 125 00:35 29.06.2022
1287 Clouds 26 1008 65 10000 0.45 326 22:52 28.06.2022
1288 Clouds 27 1007 63 10000 0.45 238 22:18 28.06.2022
1289 Clouds 27 1016 63 10000 0.45 307 21:49 28.06.2022
1290 Clear 26 1016 68 10000 1.97 62 21:29 28.06.2022
1291 Rain 24 1017 70 10000 3.44 12 19:56 28.06.2022
1292 Clouds 30 1015 55 10000 3.91 343 19:31 28.06.2022
1293 Clouds 32 1014 48 10000 0.45 299 18:40 28.06.2022
1294 Clouds 30 1017 45 10000 3.71 80 17:36 28.06.2022
1295 Clouds 34 1015 44 10000 1.34 318 15:55 28.06.2022
1296 Clouds 34 1015 44 10000 0.45 16 14:54 28.06.2022
1297 Clouds 35 1015 43 10000 0.89 312 14:19 28.06.2022
1298 Clouds 34 1016 44 10000 0.45 121 13:45 28.06.2022
1299 Clouds 34 1016 46 10000 0.45 69 12:35 28.06.2022
1300 Clouds 31 1017 53 10000 0.45 89 10:40 28.06.2022
1301 Clouds 30 1017 55 10000 0.45 70 08:56 28.06.2022
1302 Clouds 28 990 53 10000 3.29 27 08:37 28.06.2022
1303 Clouds 25 1017 73 10000 0.45 117 07:20 28.06.2022
1304 Clouds 21 1017 85 10000 1.93 24 04:54 28.06.2022
1305 Clouds 21 1009 79 10000 1.48 69 23:53 27.06.2022
1306 Clouds 21 1009 79 10000 1.84 55 23:27 27.06.2022
1307 Clouds 21 1018 78 10000 1.85 82 22:42 27.06.2022
1308 Clouds 23 1009 72 10000 2.68 79 21:30 27.06.2022
1309 Clouds 26 1010 62 10000 2.68 78 20:34 27.06.2022
1310 Clouds 29 1008 53 10000 0.45 278 18:52 27.06.2022
1311 Clouds 30 1017 49 10000 0.45 290 17:44 27.06.2022
1312 Clouds 32 1017 41 10000 0.45 298 15:50 27.06.2022
1313 Clouds 32 1018 44 10000 0.45 312 14:26 27.06.2022
1314 Clouds 31 1018 48 10000 0.45 319 12:59 27.06.2022
1315 Clouds 31 1018 49 10000 0.45 328 12:36 27.06.2022
1316 Clouds 29 1019 60 10000 0.45 120 09:53 27.06.2022
1317 Clouds 27 1019 64 10000 0.45 81 08:43 27.06.2022
1318 Clouds 25 1010 70 10000 0.45 87 07:52 27.06.2022
1319 Clouds 22 1019 73 10000 3.06 47 06:37 27.06.2022
1320 Clouds 21 1009 74 10000 2.35 53 01:26 27.06.2022
1321 Clouds 20 1009 76 10000 2.35 58 23:27 26.06.2022
1322 Clouds 22 1017 67 10000 3.42 74 21:40 26.06.2022
1323 Clouds 24 1008 63 10000 3.97 65 20:34 26.06.2022
1324 Clouds 26 1008 56 10000 4.4 63 19:19 26.06.2022
1325 Clouds 27 1016 53 10000 0.45 23 18:23 26.06.2022
1326 Clouds 27 1016 49 10000 0.89 31 15:37 26.06.2022
1327 Clouds 28 1018 30 10000 3.04 72 14:33 26.06.2022
1328 Clouds 26 1018 46 10000 5.67 72 13:27 26.06.2022
1329 Clouds 28 1016 48 10000 0.45 38 12:37 26.06.2022
1330 Clouds 29 1017 49 10000 0.89 192 10:53 26.06.2022
1331 Clouds 28 990 50 10000 4.8 60 10:22 26.06.2022
1332 Clouds 26 1017 62 10000 0.45 37 08:45 26.06.2022
1333 Clouds 21 1016 75 10000 0.89 295 06:50 26.06.2022
1334 Clouds 19 1015 76 10000 1.85 43 00:38 26.06.2022
1335 Clouds 20 1015 74 10000 1.74 72 00:19 26.06.2022
1336 Clouds 20 1015 74 10000 1.74 72 23:31 25.06.2022
1337 Clouds 21 1015 70 10000 2.2 84 22:48 25.06.2022
1338 Clouds 21 1015 69 10000 2.44 85 22:25 25.06.2022
1339 Clouds 20 1017 67 10000 2.87 86 21:22 25.06.2022
1340 Clouds 20 1017 67 10000 2.87 86 20:54 25.06.2022
1341 Clouds 21 1017 61 10000 3.12 71 20:25 25.06.2022
1342 Clouds 25 1016 34 10000 2.96 89 18:26 25.06.2022
1343 Clouds 22 1016 58 10000 3.5 124 17:27 25.06.2022
1344 Clouds 26 1016 29 10000 3.92 104 16:29 25.06.2022
1345 Clouds 27 1016 28 10000 3.84 87 14:43 25.06.2022
1346 Clouds 25 1015 46 10000 4.2 79 12:51 25.06.2022
1347 Clouds 25 1016 45 10000 4.38 68 12:32 25.06.2022
1348 Clouds 23 1016 54 10000 4.16 63 09:35 25.06.2022
1349 Clear 25 987 57 10000 4.15 61 08:55 25.06.2022
1350 Clouds 23 987 62 10000 3.65 53 08:20 25.06.2022
1351 Clouds 20 1013 71 10000 3.82 52 06:36 25.06.2022
1352 Clouds 17 1003 77 10000 2.67 29 01:31 25.06.2022
1353 Clouds 18 1003 74 10000 2.29 33 23:58 24.06.2022
1354 Clear 21 1012 60 10000 0.45 308 22:29 24.06.2022
1355 Clouds 22 1012 58 10000 0.45 293 21:28 24.06.2022
1356 Clouds 23 1012 53 10000 0.45 311 20:24 24.06.2022
1357 Clouds 24 1011 50 10000 0.45 78 19:37 24.06.2022
1358 Clouds 25 1011 47 10000 0.45 248 19:18 24.06.2022
1359 Clouds 26 1011 44 10000 0.89 330 18:31 24.06.2022
1360 Clouds 25 1013 31 10000 5.63 31 17:57 24.06.2022
1361 Clouds 26 1013 29 10000 5.88 26 16:47 24.06.2022
1362 Clouds 26 1013 28 10000 5.26 36 14:50 24.06.2022
1363 Clouds 26 1013 31 10000 6.6 31 14:23 24.06.2022
1364 Clouds 27 1011 45 10000 0.89 342 13:41 24.06.2022
1365 Clouds 26 1012 51 10000 0.89 306 11:41 24.06.2022
1366 Clouds 23 1002 62 10000 0.45 44 10:36 24.06.2022
1367 Clouds 22 1003 65 10000 0.89 311 09:42 24.06.2022
1368 Clouds 21 1002 66 10000 0.89 158 08:53 24.06.2022
1369 Clouds 20 1003 69 10000 0.45 106 07:57 24.06.2022
1370 Clouds 19 1003 71 10000 0.45 69 06:44 24.06.2022
1371 Clouds 19 1002 73 10000 0.89 176 06:22 24.06.2022
1372 Clouds 17 1002 86 10000 0.45 39 04:41 24.06.2022
1373 Rain 18 1003 81 10000 0.89 325 23:24 23.06.2022
1374 Clouds 19 1003 70 10000 4.04 1 22:42 23.06.2022
1375 Clouds 19 1002 70 10000 4.48 1 20:59 23.06.2022
1376 Clouds 19 1001 68 10000 0.45 311 20:36 23.06.2022
1377 Clouds 20 1002 64 10000 0.89 320 19:40 23.06.2022
1378 Clouds 20 983 81 10000 3.97 7 18:26 23.06.2022
1379 Clouds 21 982 85 10000 5.37 21 17:33 23.06.2022
1380 Clouds 21 1000 66 10000 0.45 290 16:23 23.06.2022
1381 Clouds 21 1009 66 10000 0.45 325 15:25 23.06.2022
1382 Clouds 20 1008 72 10000 0.45 316 13:46 23.06.2022
1383 Clouds 21 1007 71 10000 0.89 23 11:27 23.06.2022
1384 Clouds 20 997 80 10000 0.89 36 10:40 23.06.2022
1385 Clouds 19 996 80 10000 0.45 354 09:18 23.06.2022
1386 Clouds 14 994 89 10000 0.45 102 03:51 23.06.2022
1387 Clouds 16 994 85 10000 0.45 304 00:27 23.06.2022
1388 Clouds 16 994 85 10000 0.89 100 23:43 22.06.2022
1389 Clouds 15 994 86 10000 0.89 117 22:48 22.06.2022
1390 Clouds 15 994 86 10000 0.89 117 22:48 22.06.2022
1391 Clouds 16 994 80 10000 0.45 134 21:27 22.06.2022
1392 Clouds 16 994 75 10000 0.45 284 20:48 22.06.2022
1393 Clouds 17 993 72 10000 0.45 141 19:58 22.06.2022
1394 Rain 17 1002 72 10000 0.45 154 18:50 22.06.2022
1395 Rain 18 1002 64 10000 4.02 337 17:29 22.06.2022
1396 Clouds 19 1000 59 10000 0.45 36 16:37 22.06.2022
1397 Clouds 21 1000 49 10000 0.45 84 15:27 22.06.2022
1398 Rain 19 1001 54 10000 4.36 357 14:31 22.06.2022
1399 Clouds 20 999 56 10000 0.89 7 13:44 22.06.2022
1400 Clouds 16 972 57 10000 4.26 354 13:23 22.06.2022
1401 Rain 17 999 79 10000 0.45 224 11:50 22.06.2022
1402 Clouds 17 988 72 10000 0.45 289 10:58 22.06.2022
1403 Rain 15 988 80 10000 4.07 357 10:19 22.06.2022
1404 Clouds 14 989 77 10000 0.45 307 08:48 22.06.2022
1405 Clouds 13 988 81 10000 0.45 91 05:59 22.06.2022
1406 Clear 12 972 82 10000 4.57 276 01:49 22.06.2022
1407 Clear 13 991 73 10000 0.45 209 00:36 22.06.2022
1408 Clear 15 991 63 10000 5.69 270 22:37 21.06.2022
1409 Clear 17 973 63 10000 6.28 273 20:39 21.06.2022
1410 Clouds 20 1000 70 10000 0.45 354 18:51 21.06.2022
1411 Clouds 20 1000 70 10000 0.89 236 17:40 21.06.2022
1412 Rain 17 1000 87 10000 0.89 86 15:21 21.06.2022
1413 Rain 24 1001 69 6841 7.13 278 11:55 21.06.2022
1414 Clear 28 972 52 10000 5.91 259 10:20 21.06.2022
1415 Clear 25 972 48 10000 5.96 251 08:51 21.06.2022
1416 Clear 25 999 52 10000 0.45 149 07:35 21.06.2022
1417 Clear 21 975 49 10000 4.05 223 03:21 21.06.2022
1418 Clear 21 1006 60 10000 3.52 210 23:27 20.06.2022
1419 Clear 22 1007 59 10000 3.33 207 21:58 20.06.2022
1420 Clear 23 1007 57 10000 3 220 21:31 20.06.2022
1421 Clear 24 1008 53 10000 2.96 233 19:57 20.06.2022
1422 Clear 26 1008 47 10000 3.36 243 18:54 20.06.2022
1423 Clear 30 1008 18 10000 4.44 248 18:24 20.06.2022
1424 Clear 30 1008 18 10000 4.44 248 17:41 20.06.2022
1425 Clear 31 1009 15 10000 5.24 242 16:21 20.06.2022
1426 Clear 32 981 13 10000 5.13 236 14:29 20.06.2022
1427 Clear 28 982 37 10000 5.46 233 11:46 20.06.2022
1428 Clear 26 983 40 10000 5.74 228 09:49 20.06.2022
1429 Clear 24 983 43 10000 5.73 223 08:45 20.06.2022
1430 Clear 22 984 47 10000 5.32 224 07:35 20.06.2022
1431 Clear 20 984 62 10000 4.15 228 03:51 20.06.2022
1432 Clear 19 1015 71 10000 3.82 213 00:52 20.06.2022
1433 Clear 20 1015 70 10000 3.21 211 23:29 19.06.2022
1434 Clear 22 1013 63 10000 2.98 216 22:19 19.06.2022
1435 Clear 22 1013 64 10000 2.98 216 21:42 19.06.2022
1436 Clear 24 1013 60 10000 2.91 220 20:48 19.06.2022
1437 Clear 22 1016 63 10000 3.03 223 19:49 19.06.2022
1438 Clear 24 1016 58 10000 3.33 223 19:24 19.06.2022
1439 Clear 27 1016 31 10000 3.61 234 18:31 19.06.2022
1440 Clear 28 1016 29 10000 3.61 234 17:39 19.06.2022
1441 Clear 28 1016 26 10000 3.78 241 16:39 19.06.2022
1442 Clear 28 1016 25 10000 3.83 248 15:44 19.06.2022
1443 Clear 28 1017 24 10000 3.9 255 15:26 19.06.2022
1444 Clear 29 1017 23 10000 3.9 255 14:35 19.06.2022
1445 Clear 26 1017 42 10000 3.96 256 13:44 19.06.2022
1446 Clear 28 988 42 10000 3.86 247 11:53 19.06.2022
1447 Clear 25 989 44 10000 3.68 252 10:52 19.06.2022
1448 Clear 23 989 52 10000 3.35 252 08:55 19.06.2022
1449 Clouds 23 990 57 10000 2.91 263 08:30 19.06.2022
1450 Clouds 20 1016 63 10000 0.45 148 06:54 19.06.2022
1451 Clouds 15 1016 75 10000 2.08 251 03:38 19.06.2022
1452 Clouds 15 1016 80 10000 1.86 226 00:28 19.06.2022
1453 Clouds 14 1016 79 10000 1.86 226 23:59 18.06.2022
1454 Clouds 15 1016 80 10000 1.86 226 23:34 18.06.2022
1455 Clouds 16 1016 73 10000 1.06 194 22:23 18.06.2022
1456 Clouds 19 1016 61 10000 0.3 180 20:51 18.06.2022
1457 Clouds 19 1016 60 10000 0.81 92 20:18 18.06.2022
1458 Clouds 22 1015 54 10000 0.45 110 18:57 18.06.2022
1459 Clouds 24 1015 50 10000 1.55 79 18:38 18.06.2022
1460 Clouds 22 1017 43 10000 2.61 28 17:29 18.06.2022
1461 Clouds 25 1015 53 10000 0.45 309 15:57 18.06.2022
1462 Clouds 22 1016 62 10000 0.45 96 14:54 18.06.2022
1463 Clouds 21 1016 62 10000 0.45 325 14:35 18.06.2022
1464 Clouds 21 1016 69 10000 0.45 305 12:30 18.06.2022
1465 Rain 19 1018 64 10000 3.3 342 11:20 18.06.2022
1466 Clouds 18 989 71 10000 2.78 333 09:46 18.06.2022
1467 Clouds 19 1016 79 10000 2.99 320 08:46 18.06.2022
1468 Clouds 17 1006 85 10000 0.89 244 07:34 18.06.2022
1469 Clouds 14 1006 87 10000 2.51 338 05:20 18.06.2022
1470 Rain 14 1006 89 10000 0.45 146 01:50 18.06.2022
1471 Rain 14 1006 89 10000 2.69 351 01:21 18.06.2022
1472 Rain 15 1006 90 10000 2.69 351 00:32 18.06.2022
1473 Rain 15 1006 90 7800 2.85 355 23:37 17.06.2022
1474 Clouds 15 1006 90 7230 2.56 355 22:33 17.06.2022
1475 Clouds 16 1014 89 10000 0.45 75 20:29 17.06.2022
1476 Rain 17 1014 81 8567 0.45 137 19:24 17.06.2022
1477 Clouds 17 986 93 10000 2.81 360 18:19 17.06.2022
1478 Rain 15 1016 91 10000 3.54 6 16:50 17.06.2022
1479 Rain 15 1016 91 10000 3.55 358 16:25 17.06.2022
1480 Rain 15 1016 91 10000 3.55 358 15:40 17.06.2022
1481 Clouds 21 1015 49 10000 5.45 284 14:23 17.06.2022
1482 Clouds 25 1013 42 10000 0.45 116 13:59 17.06.2022
1483 Clouds 26 1013 43 10000 5.03 287 13:38 17.06.2022
1484 Clouds 26 1013 40 10000 0.45 111 12:28 17.06.2022
1485 Clouds 27 1013 38 10000 0.45 151 11:55 17.06.2022
1486 Clouds 26 1014 38 10000 0.45 314 11:33 17.06.2022
1487 Clouds 21 1016 44 10000 2.53 184 09:36 17.06.2022
1488 Clouds 19 1016 52 10000 1.91 210 08:26 17.06.2022
1489 Clouds 19 1005 75 10000 2.03 225 06:45 17.06.2022
1490 Clouds 14 1006 80 10000 1.86 227 03:59 17.06.2022
1491 Clouds 15 1005 80 10000 2.86 209 01:56 17.06.2022
1492 Clouds 16 1007 72 10000 2.07 219 23:47 16.06.2022
1493 Clouds 17 1007 70 10000 1.86 231 22:42 16.06.2022
1494 Clouds 19 1016 61 10000 1.66 251 21:22 16.06.2022
1495 Clouds 19 1015 59 10000 1.66 251 20:52 16.06.2022
1496 Clouds 20 1015 59 10000 2.07 258 20:33 16.06.2022
1497 Clouds 20 1015 55 10000 2.46 262 19:32 16.06.2022
1498 Clouds 23 1015 49 10000 2.88 262 18:24 16.06.2022
1499 Clouds 23 1015 49 10000 0.45 16 17:42 16.06.2022
1500 Clouds 21 1018 44 10000 2.78 258 16:33 16.06.2022
1501 Clouds 20 1019 46 10000 2.98 275 15:22 16.06.2022
1502 Clouds 21 1019 44 10000 2.99 284 14:30 16.06.2022
1503 Clouds 22 1019 39 10000 2.87 288 13:19 16.06.2022
1504 Clouds 25 1017 45 10000 0.45 92 12:35 16.06.2022
1505 Clouds 22 1017 48 10000 0.45 102 11:49 16.06.2022
1506 Clear 23 1017 47 10000 0.45 140 10:54 16.06.2022
1507 Clear 23 1017 49 10000 0.45 243 09:43 16.06.2022
1508 Clear 21 990 52 10000 3.1 298 09:20 16.06.2022
1509 Clouds 19 990 58 10000 2.99 297 07:57 16.06.2022
1510 Clouds 18 990 64 10000 3.06 294 07:24 16.06.2022
1511 Clouds 15 990 100 10000 2.58 287 04:33 16.06.2022
1512 Clouds 15 1017 70 10000 0.45 139 01:54 16.06.2022
1513 Clouds 16 1017 70 10000 0.45 0 01:34 16.06.2022
1514 Clouds 16 1017 70 10000 0.45 0 01:34 16.06.2022
1515 Clouds 16 1017 70 10000 2.87 282 00:38 16.06.2022
1516 Clouds 16 1017 67 10000 2.87 285 23:25 15.06.2022
1517 Clouds 16 1008 67 10000 2.98 285 22:28 15.06.2022
1518 Clouds 17 1008 64 10000 0.45 159 21:21 15.06.2022
1519 Clouds 18 1016 67 10000 0.45 106 20:38 15.06.2022
1520 Clouds 19 1016 60 10000 0.45 321 20:19 15.06.2022
1521 Clouds 20 1016 60 10000 0.45 321 18:51 15.06.2022
1522 Clouds 21 1006 55 10000 0.45 39 17:55 15.06.2022
1523 Clouds 21 1016 54 10000 0.45 301 16:38 15.06.2022
1524 Clouds 22 1018 33 10000 4.33 282 15:26 15.06.2022
1525 Clouds 23 1016 44 10000 0.45 85 13:43 15.06.2022
1526 Clouds 23 1016 41 10000 0.45 145 12:53 15.06.2022
1527 Clear 23 1016 42 10000 0.89 189 11:48 15.06.2022
1528 Clear 21 989 45 10000 4.67 295 10:23 15.06.2022
1529 Clear 20 1016 54 10000 0.89 220 09:38 15.06.2022
1530 Clouds 16 989 57 10000 4.05 295 08:27 15.06.2022
1531 Clouds 15 1016 73 10000 0.89 123 06:33 15.06.2022
1532 Clouds 14 1006 69 10000 0.45 65 03:45 15.06.2022
1533 Clouds 15 1006 64 10000 3.08 295 01:53 15.06.2022
1534 Clouds 14 988 92 10000 3.06 294 00:50 15.06.2022
1535 Clouds 16 1006 58 10000 0.45 9 23:39 14.06.2022
1536 Clouds 16 987 65 10000 3.03 287 22:56 14.06.2022
1537 Clouds 17 1005 54 10000 0.45 58 22:18 14.06.2022
1538 Clouds 17 1004 52 10000 0.45 74 21:28 14.06.2022
1539 Clouds 18 1005 49 10000 0.45 219 20:48 14.06.2022
1540 Clouds 18 1006 49 10000 0.45 204 20:28 14.06.2022
1541 Clouds 21 1003 46 10000 0.89 75 18:45 14.06.2022
1542 Clouds 24 1012 40 10000 0.45 310 17:29 14.06.2022
1543 Clouds 23 1012 44 10000 0.89 111 16:43 14.06.2022
1544 Clouds 24 1011 44 10000 0.89 123 15:49 14.06.2022
1545 Clouds 24 1011 43 10000 0.89 125 15:49 14.06.2022
1546 Clouds 23 1003 48 10000 0.89 92 14:57 14.06.2022
1547 Clouds 22 1002 52 10000 0.45 236 14:23 14.06.2022
1548 Clouds 21 1003 57 10000 0.89 154 13:39 14.06.2022
1549 Clouds 20 1003 60 10000 0.89 126 12:30 14.06.2022
1550 Clouds 20 1001 63 10000 0.89 111 11:28 14.06.2022
1551 Clouds 18 1011 78 10000 0.89 200 10:35 14.06.2022
1552 Rain 17 1002 88 10000 0.45 119 09:45 14.06.2022
1553 Clouds 18 1010 81 10000 0.45 132 08:45 14.06.2022
1554 Clouds 20 1008 72 10000 0.45 131 07:26 14.06.2022
1555 Clouds 19 1009 76 10000 0.45 117 07:26 14.06.2022
1556 Clear 20 1007 68 10000 4.08 242 04:44 14.06.2022
1557 Clouds 20 1007 67 10000 2.69 185 02:45 14.06.2022
1558 Clouds 22 999 62 10000 1.97 163 00:27 14.06.2022
1559 Clouds 21 1002 62 10000 1.12 149 23:18 13.06.2022
1560 Clouds 22 1009 59 10000 0.95 111 22:25 13.06.2022
1561 Clouds 22 1009 59 10000 0.95 111 21:43 13.06.2022
1562 Clouds 24 1009 55 10000 0.45 303 20:19 13.06.2022
1563 Clouds 25 1008 52 10000 1.74 154 19:34 13.06.2022
1564 Clouds 27 1011 31 10000 1.31 107 17:57 13.06.2022
1565 Clouds 27 1011 29 10000 1.31 107 17:36 13.06.2022
1566 Clouds 27 1011 27 10000 1.01 85 16:39 13.06.2022
1567 Clouds 28 983 40 10000 1.87 11 15:20 13.06.2022
1568 Clouds 29 1010 41 10000 0.45 284 14:41 13.06.2022
1569 Clouds 26 1012 36 10000 3.17 13 13:41 13.06.2022
1570 Clear 25 1013 42 10000 3.06 14 12:30 13.06.2022
1571 Clear 24 1013 45 10000 3.26 12 11:25 13.06.2022
1572 Clear 23 1014 49 10000 3.46 8 10:26 13.06.2022
1573 Clear 22 1014 55 10000 3.39 4 09:23 13.06.2022
1574 Clear 22 1012 78 10000 0.45 68 07:34 13.06.2022
1575 Clouds 20 1011 85 10000 0.45 75 05:39 13.06.2022
1576 Clouds 20 1003 80 10000 2.4 350 02:47 13.06.2022
1577 Clear 18 1014 81 10000 2.4 342 01:37 13.06.2022
1578 Clear 18 1014 78 10000 2.75 348 23:52 12.06.2022
1579 Clear 21 1011 71 10000 3.11 347 22:50 12.06.2022
1580 Clear 20 1014 68 10000 3.18 343 22:22 12.06.2022
1581 Clouds 23 985 61 10000 2.89 345 21:20 12.06.2022
1582 Clouds 24 1002 62 10000 2.4 328 20:27 12.06.2022
1583 Clouds 25 1010 60 10000 0.45 17 19:30 12.06.2022
1584 Clouds 26 1012 73 10000 2.72 1 17:51 12.06.2022
1585 Clouds 26 1013 46 10000 2.98 9 16:24 12.06.2022
1586 Clouds 26 1013 45 10000 3.85 355 14:57 12.06.2022
1587 Clouds 27 1013 43 10000 4.38 345 14:21 12.06.2022
1588 Clear 27 1013 44 10000 4.54 344 13:51 12.06.2022
1589 Clear 29 1011 48 10000 0.45 104 12:37 12.06.2022
1590 Clear 29 1012 57 10000 0.89 91 11:37 12.06.2022
1591 Clear 27 1012 64 10000 0.45 109 10:22 12.06.2022
1592 Clear 25 1012 71 10000 0.89 68 08:55 12.06.2022
1593 Clear 25 1012 71 10000 0.89 68 08:36 12.06.2022
1594 Clouds 23 1012 82 10000 0.89 59 07:32 12.06.2022
1595 Clouds 20 1003 86 10000 0.45 357 04:45 12.06.2022
1596 Clouds 20 985 100 10000 2.21 323 02:53 12.06.2022
1597 Clouds 19 1014 70 10000 1.67 320 01:39 12.06.2022
1598 Clear 21 1012 55 10000 1.16 298 00:58 12.06.2022
1599 Clear 21 1012 54 10000 0.93 288 00:20 12.06.2022
1600 Clear 21 1012 54 10000 0.93 288 00:20 12.06.2022
1601 Clear 21 1012 56 10000 0.93 288 23:40 11.06.2022
1602 Clear 21 1012 54 10000 0.3 219 22:38 11.06.2022
1603 Clear 21 1012 53 10000 0.79 110 21:52 11.06.2022
1604 Clear 24 1012 46 10000 0.72 67 20:36 11.06.2022
1605 Clouds 26 1012 44 10000 1.2 72 19:46 11.06.2022
1606 Clouds 27 1012 40 10000 1.03 88 19:19 11.06.2022
1607 Clouds 30 1012 34 10000 0.45 242 18:33 11.06.2022
1608 Clouds 27 1013 41 10000 1.58 103 17:50 11.06.2022
1609 Clouds 30 1014 10 10000 1.69 102 17:26 11.06.2022
1610 Clouds 28 1014 36 10000 1.69 102 16:52 11.06.2022
1611 Clouds 31 1014 9 10000 1.51 103 16:26 11.06.2022
1612 Clear 31 1014 9 10000 1.73 115 15:28 11.06.2022
1613 Clear 29 1014 32 10000 2 117 13:53 11.06.2022
1614 Clear 28 1015 33 10000 2.11 101 12:37 11.06.2022
1615 Clear 29 987 36 10000 2.02 103 10:46 11.06.2022
1616 Clear 28 987 40 10000 1.79 103 09:48 11.06.2022
1617 Clear 27 987 46 10000 1.62 102 08:51 11.06.2022
1618 Clear 24 987 36 10000 1.57 99 06:47 11.06.2022
1619 Clear 20 1016 47 10000 1.32 85 06:24 11.06.2022
1620 Clear 17 1013 66 10000 0.47 67 03:46 11.06.2022
1621 Clouds 17 1013 63 10000 1 124 01:52 11.06.2022
1622 Clouds 17 1013 63 10000 1.08 123 01:27 11.06.2022
1623 Clouds 19 1013 58 10000 1.74 123 23:29 10.06.2022
1624 Clouds 20 1013 56 10000 1.98 117 22:31 10.06.2022
1625 Clouds 20 1013 53 10000 1.98 117 21:50 10.06.2022
1626 Clouds 22 1012 49 10000 1.9 119 20:39 10.06.2022
1627 Clouds 22 1012 49 10000 2.39 117 20:21 10.06.2022
1628 Clouds 25 1012 43 10000 3.09 108 19:19 10.06.2022
1629 Clouds 24 1014 53 10000 3.09 108 18:55 10.06.2022
1630 Clouds 28 1014 17 10000 3.72 101 17:55 10.06.2022
1631 Clouds 28 1014 17 10000 3.72 101 17:32 10.06.2022
1632 Clouds 28 1014 17 10000 4.26 88 16:36 10.06.2022
1633 Clouds 28 1014 18 10000 4.09 82 15:40 10.06.2022
1634 Clear 29 1015 16 10000 3.97 90 14:29 10.06.2022
1635 Clear 30 1013 36 10000 0.45 199 13:19 10.06.2022
1636 Clear 30 1013 38 10000 0.45 195 11:59 10.06.2022
1637 Clear 28 986 42 10000 3.12 137 10:51 10.06.2022
1638 Clear 27 986 48 10000 2.91 123 09:57 10.06.2022
1639 Clear 27 1013 52 10000 0.45 313 08:58 10.06.2022
1640 Clear 23 1003 63 10000 0.45 238 07:50 10.06.2022
1641 Clear 20 1003 71 10000 2.48 99 06:47 10.06.2022
1642 Clear 19 1003 70 10000 0.45 0 06:28 10.06.2022
1643 Clear 17 1003 77 10000 1.81 80 04:53 10.06.2022
1644 Clouds 19 1011 65 10000 1.84 73 01:59 10.06.2022
1645 Clouds 19 1011 64 10000 2.07 80 01:36 10.06.2022
1646 Clouds 19 1011 64 10000 2.07 80 01:36 10.06.2022
1647 Clouds 20 1011 56 10000 0.89 329 23:57 09.06.2022
1648 Clouds 22 1010 51 10000 0.45 284 22:30 09.06.2022
1649 Clouds 20 1013 66 10000 2.56 82 21:43 09.06.2022
1650 Clouds 24 983 60 10000 2.32 82 21:24 09.06.2022
1651 Clouds 21 1012 60 10000 2.32 82 20:36 09.06.2022
1652 Clouds 21 1013 64 10000 2.04 83 19:41 09.06.2022
1653 Clouds 23 1012 58 10000 2.01 79 18:36 09.06.2022
1654 Clouds 24 1012 51 10000 1.03 157 17:28 09.06.2022
1655 Clouds 23 1013 52 10000 2.24 156 16:28 09.06.2022
1656 Clouds 24 1013 50 10000 3.64 118 14:45 09.06.2022
1657 Clouds 26 1013 44 10000 3.45 92 14:24 09.06.2022
1658 Clouds 27 1013 36 10000 3.34 128 13:30 09.06.2022
1659 Clouds 27 1013 36 10000 3.34 128 12:50 09.06.2022
1660 Clouds 26 1013 38 10000 3.16 142 11:20 09.06.2022
1661 Clouds 25 1013 41 10000 3.33 137 09:55 09.06.2022
1662 Clouds 25 1013 41 10000 3.33 137 09:55 09.06.2022
1663 Clouds 27 983 41 10000 3.33 137 09:36 09.06.2022
1664 Clouds 26 983 48 10000 2.56 135 08:27 09.06.2022
1665 Clouds 24 1010 61 10000 0.45 154 07:23 09.06.2022
1666 Clouds 18 1001 80 10000 1.83 130 03:29 09.06.2022
1667 Clouds 20 1001 66 10000 2.17 136 00:32 09.06.2022
1668 Clouds 20 1001 66 10000 2.37 134 22:59 08.06.2022
1669 Clouds 20 1001 64 10000 2.55 125 22:30 08.06.2022
1670 Clouds 20 1001 63 10000 2.55 125 21:59 08.06.2022
1671 Clouds 21 1001 60 10000 2.55 125 21:31 08.06.2022
1672 Clouds 23 1010 50 10000 2.13 115 20:24 08.06.2022
1673 Clouds 25 1010 43 10000 1.72 132 19:40 08.06.2022
1674 Clouds 23 1013 54 10000 1.72 132 18:48 08.06.2022
1675 Clouds 27 1013 23 10000 2.75 140 17:35 08.06.2022
1676 Clouds 28 1013 22 10000 2.97 134 15:52 08.06.2022
1677 Clouds 28 1013 18 10000 2.72 125 14:31 08.06.2022
1678 Clouds 25 1014 39 10000 2.58 137 12:46 08.06.2022
1679 Clouds 24 1015 45 10000 2.71 143 11:35 08.06.2022
1680 Clouds 22 1015 52 10000 2.56 148 10:37 08.06.2022
1681 Clouds 20 1015 59 10000 2.03 152 09:28 08.06.2022
1682 Clouds 20 1015 59 10000 2.03 152 08:52 08.06.2022
1683 Clouds 19 1015 63 10000 1.87 156 06:43 08.06.2022
1684 Clouds 20 985 100 10000 1.7 144 04:35 08.06.2022
1685 Clouds 18 1004 71 10000 1.77 146 00:58 08.06.2022
1686 Clouds 19 1004 68 10000 1.57 139 23:32 07.06.2022
1687 Clouds 20 1004 66 10000 1.57 139 22:51 07.06.2022
1688 Clouds 20 1004 64 10000 1.57 139 22:33 07.06.2022
1689 Clouds 21 1004 61 10000 1.42 138 21:37 07.06.2022
1690 Clouds 20 1013 62 10000 1.12 125 21:18 07.06.2022
1691 Clouds 23 1016 43 10000 1.12 125 20:37 07.06.2022
1692 Clouds 21 1016 56 10000 0.86 109 19:49 07.06.2022
1693 Clouds 23 1016 49 10000 0.86 271 18:25 07.06.2022
1694 Clouds 23 1016 48 10000 2.07 262 17:31 07.06.2022
1695 Clouds 23 1016 48 10000 2.05 262 16:44 07.06.2022
1696 Clouds 23 1016 48 10000 2.73 250 15:58 07.06.2022
1697 Clouds 26 1016 27 10000 2.24 219 15:30 07.06.2022
1698 Clouds 23 1016 45 10000 2.27 219 14:56 07.06.2022
1699 Clouds 27 1016 26 10000 2.27 219 14:38 07.06.2022
1700 Clouds 24 1017 39 10000 2.1 169 13:33 07.06.2022
1701 Clouds 25 1017 39 10000 2.11 168 12:54 07.06.2022
1702 Clouds 24 1017 39 10000 1.91 154 11:49 07.06.2022
1703 Clouds 23 1018 44 10000 1.77 130 10:27 07.06.2022
1704 Clouds 22 989 48 10000 1.77 110 08:53 07.06.2022
1705 Clouds 21 1016 61 10000 0.45 156 07:35 07.06.2022
1706 Clouds 19 1007 69 10000 0.97 82 06:39 07.06.2022
1707 Clouds 14 1007 83 10000 0.3 56 04:39 07.06.2022
1708 Clouds 15 1007 76 10000 0.72 79 01:27 07.06.2022
1709 Clouds 15 1007 75 10000 0.85 95 23:52 06.06.2022
1710 Clouds 16 1007 73 10000 1.08 85 22:54 06.06.2022
1711 Clouds 16 1007 73 10000 1.4 70 22:29 06.06.2022
1712 Clouds 18 1016 65 10000 1.47 60 20:47 06.06.2022
1713 Clouds 21 1016 54 10000 2.08 51 19:28 06.06.2022
1714 Clouds 22 1016 46 10000 0.45 231 18:49 06.06.2022
1715 Clouds 23 1018 32 10000 2.67 51 18:21 06.06.2022
1716 Clouds 23 1018 31 10000 2.93 50 17:24 06.06.2022
1717 Clouds 25 1019 32 10000 3.07 49 16:18 06.06.2022
1718 Clouds 23 1019 40 10000 3.07 55 14:59 06.06.2022
1719 Clear 23 1019 41 10000 3.3 47 14:29 06.06.2022
1720 Clear 22 1019 42 10000 3.46 40 13:21 06.06.2022
1721 Clear 22 1020 44 10000 3.38 35 12:35 06.06.2022
1722 Clear 22 1020 44 10000 3.38 35 11:50 06.06.2022
1723 Clear 20 1020 49 10000 3.54 29 10:21 06.06.2022
1724 Clear 22 990 54 10000 3.25 24 09:24 06.06.2022
1725 Clear 17 1020 61 10000 2.95 23 08:31 06.06.2022
1726 Clear 19 1017 68 10000 0.45 291 07:28 06.06.2022
1727 Clear 14 1017 87 10000 2.19 5 04:43 06.06.2022
1728 Clear 15 1007 87 10000 0.45 109 02:27 06.06.2022
1729 Clear 16 1007 82 10000 2.12 6 00:57 06.06.2022
1730 Clear 16 1016 81 10000 0.45 248 00:35 06.06.2022
1731 Clear 16 1016 79 10000 0.45 269 23:28 05.06.2022
1732 Clear 16 1016 79 10000 2.78 351 22:33 05.06.2022
1733 Clear 15 1018 78 10000 2.39 342 20:40 05.06.2022
1734 Clouds 20 1015 65 10000 0.45 58 19:26 05.06.2022
1735 Clouds 21 1015 66 10000 0.45 53 18:26 05.06.2022
1736 Clouds 21 1015 67 10000 0.45 55 17:50 05.06.2022
1737 Clouds 19 1018 64 10000 3.41 36 17:23 05.06.2022
1738 Clouds 19 1018 64 10000 3.41 36 16:49 05.06.2022
1739 Clouds 19 1018 64 10000 3.71 38 15:50 05.06.2022
1740 Clouds 16 1017 82 10000 2.25 17 14:22 05.06.2022
1741 Rain 16 1017 87 10000 3.55 22 12:34 05.06.2022
1742 Rain 16 1017 87 10000 3.55 22 11:35 05.06.2022
1743 Clouds 19 1006 69 10000 0.89 309 10:25 05.06.2022
1744 Clouds 19 1006 67 10000 0.45 323 09:58 05.06.2022
1745 Clouds 19 1015 66 10000 0.45 200 08:25 05.06.2022
1746 Clouds 18 1005 67 10000 1.28 303 06:48 05.06.2022
1747 Clouds 17 1005 70 10000 2.03 148 05:20 05.06.2022
1748 Clouds 16 1006 70 10000 2.13 140 02:58 05.06.2022
1749 Clouds 16 1006 73 10000 2.83 143 01:30 05.06.2022
1750 Clouds 15 1007 74 10000 2.82 149 23:49 04.06.2022
1751 Clouds 17 1008 66 10000 2.89 136 21:39 04.06.2022
1752 Clouds 21 1017 53 10000 2.56 114 19:49 04.06.2022
1753 Clouds 24 1017 47 10000 0.45 321 17:59 04.06.2022
1754 Clouds 23 1019 32 10000 2.61 91 16:22 04.06.2022
1755 Clouds 24 1019 32 10000 2.61 91 15:54 04.06.2022
1756 Clouds 25 1020 29 10000 2.45 97 14:36 04.06.2022
1757 Clouds 24 1020 46 10000 0.89 305 11:51 04.06.2022
1758 Clouds 22 1022 44 10000 2.46 98 10:57 04.06.2022
1759 Clouds 23 1021 48 10000 0.45 136 10:22 04.06.2022
1760 Clouds 24 1021 51 10000 0.45 56 09:41 04.06.2022
1761 Clouds 21 994 53 10000 1.81 121 08:40 04.06.2022
1762 Clouds 19 1013 67 10000 0.45 208 07:38 04.06.2022
1763 Clear 14 1022 84 10000 1.3 118 04:33 04.06.2022
1764 Clear 14 1022 84 10000 1.3 118 04:33 04.06.2022
1765 Clear 14 1013 84 10000 1.07 89 00:56 04.06.2022
1766 Clear 14 1013 82 10000 0.28 93 23:35 03.06.2022
1767 Clear 15 1012 78 10000 1.17 81 22:30 03.06.2022
1768 Clear 16 1021 68 10000 1.49 80 20:52 03.06.2022
1769 Clear 17 1012 65 10000 1.67 73 20:27 03.06.2022
1770 Clear 22 1021 48 10000 0.89 5 17:58 03.06.2022
1771 Clear 24 1021 47 10000 0.45 349 16:47 03.06.2022
1772 Clear 24 1021 48 10000 0.45 89 15:18 03.06.2022
1773 Clouds 23 1022 48 10000 0.89 336 12:56 03.06.2022
1774 Clouds 21 1021 60 10000 0.89 16 10:54 03.06.2022
1775 Clouds 19 1021 67 10000 0.89 324 09:37 03.06.2022
1776 Clouds 18 1021 73 10000 0.89 88 08:32 03.06.2022
1777 Clouds 15 1012 84 10000 0.89 61 07:26 03.06.2022
1778 Clouds 15 1011 86 10000 0.45 108 06:31 03.06.2022
1779 Clouds 15 1010 86 10000 0.45 191 05:19 03.06.2022
1780 Clouds 17 1007 86 10000 4.25 304 00:25 03.06.2022
1781 Rain 17 1006 87 10000 0.45 191 22:41 02.06.2022
1782 Rain 18 1007 89 10000 0.45 113 21:34 02.06.2022
1783 Clouds 22 987 82 10000 3.59 250 20:22 02.06.2022
1784 Rain 20 1016 82 10000 3.59 250 19:43 02.06.2022
1785 Clouds 25 1013 65 10000 2.17 249 19:23 02.06.2022
1786 Rain 28 1016 35 10000 2.58 202 16:47 02.06.2022
1787 Clouds 28 1016 36 10000 2.82 190 16:27 02.06.2022
1788 Clouds 27 1017 46 10000 2.78 164 13:56 02.06.2022
1789 Clear 27 1017 45 10000 1.15 167 13:29 02.06.2022
1790 Clear 28 1016 60 10000 0.45 330 11:22 02.06.2022
1791 Clear 26 1016 64 10000 0.89 330 10:20 02.06.2022
1792 Clear 22 1018 66 10000 1.8 50 09:27 02.06.2022
1793 Clouds 20 1018 74 10000 2.05 36 08:26 02.06.2022
1794 Clouds 18 1018 84 10000 2.45 5 06:59 02.06.2022
1795 Clouds 17 1018 100 10000 1.9 327 04:40 02.06.2022
1796 Clouds 18 1015 84 10000 1.74 295 02:30 02.06.2022
1797 Clouds 18 1006 84 10000 1.59 273 23:43 01.06.2022
1798 Clouds 18 1006 84 10000 1.59 273 23:43 01.06.2022
1799 Clouds 18 1006 84 10000 1.59 273 23:43 01.06.2022
1800 Clouds 18 1006 84 10000 1.59 273 23:43 01.06.2022
1801 Clouds 19 1014 82 10000 2 263 22:23 01.06.2022
1802 Clouds 19 1014 79 10000 2 263 21:32 01.06.2022
1803 Clouds 19 1014 75 10000 2.07 245 20:39 01.06.2022
1804 Clouds 21 1014 69 10000 1 143 19:53 01.06.2022
1805 Clouds 24 1014 56 10000 1.22 177 18:58 01.06.2022
1806 Clouds 25 1016 50 10000 1.94 157 17:40 01.06.2022
1807 Clouds 26 1016 50 10000 2.61 151 16:33 01.06.2022
1808 Clouds 26 1016 51 10000 2.64 123 14:52 01.06.2022
1809 Clouds 24 1017 55 10000 2.35 100 13:44 01.06.2022
1810 Clouds 22 1018 58 10000 2.44 83 12:25 01.06.2022
1811 Clouds 20 1019 63 10000 2.97 67 09:36 01.06.2022
1812 Clouds 16 1019 65 10000 2.92 54 08:29 01.06.2022
1813 Clouds 16 1017 76 10000 2.85 40 07:21 01.06.2022
1814 Clouds 12 1020 100 10000 2.02 32 04:59 01.06.2022
1815 Clear 14 1018 87 10000 2.16 29 00:20 01.06.2022
1816 Clear 11 1021 82 10000 2.22 30 22:59 31.05.2022
1817 Clear 14 1018 87 10000 2.22 30 22:33 31.05.2022
1818 Clear 14 1017 86 10000 2.69 38 21:45 31.05.2022
1819 Clear 15 1018 87 10000 2.69 14 20:45 31.05.2022
1820 Clouds 16 1017 85 10000 2.81 10 19:53 31.05.2022
1821 Clouds 17 1017 79 10000 0.45 313 18:45 31.05.2022
1822 Clouds 17 1019 100 10000 2.69 5 17:49 31.05.2022
1823 Clouds 17 1019 100 10000 2.69 5 17:49 31.05.2022
1824 Clouds 17 1019 100 10000 2.83 7 16:48 31.05.2022
1825 Clouds 17 1019 100 10000 3.39 3 15:40 31.05.2022
1826 Clouds 20 1018 47 10000 4.77 5 13:38 31.05.2022
1827 Clouds 19 1018 50 10000 4.87 7 12:19 31.05.2022
1828 Clouds 16 1018 82 10000 0.89 96 10:52 31.05.2022
1829 Clouds 16 1007 85 10000 0.45 44 08:41 31.05.2022
1830 Clouds 16 1006 85 10000 0.45 6 06:57 31.05.2022
1831 Clear 15 1015 84 10000 2.55 354 04:46 31.05.2022
1832 Clouds 16 1005 87 10000 3.53 327 23:53 30.05.2022
1833 Clouds 15 1006 87 10000 2.78 305 23:25 30.05.2022
1834 Clouds 16 1004 87 10000 2.78 305 22:44 30.05.2022
1835 Clouds 17 1004 86 10000 0.45 191 21:51 30.05.2022
1836 Clouds 17 1004 86 10000 1.83 237 21:32 30.05.2022
1837 Clouds 18 1003 86 10000 2.53 174 19:51 30.05.2022
1838 Clouds 19 1002 84 10000 3.74 177 18:34 30.05.2022
1839 Clouds 19 1002 83 9119 0.89 224 17:23 30.05.2022
1840 Clouds 19 1002 83 9119 0.45 129 16:39 30.05.2022
1841 Clouds 17 1002 85 10000 0.45 199 13:44 30.05.2022
1842 Clouds 17 1012 84 10000 3.79 124 12:19 30.05.2022
1843 Clouds 14 1003 85 10000 0.45 243 10:26 30.05.2022
1844 Rain 14 1003 86 7298 0.45 285 09:19 30.05.2022
1845 Clouds 14 985 100 10000 3.72 112 06:28 30.05.2022
1846 Clouds 15 1004 85 10000 0.45 142 05:38 30.05.2022
1847 Clouds 15 986 80 10000 2.87 116 01:32 30.05.2022
1848 Clouds 15 1014 58 10000 0.45 343 22:49 29.05.2022
1849 Clouds 15 1014 59 10000 2.06 82 22:31 29.05.2022
1850 Clouds 15 1013 61 10000 1.93 66 20:51 29.05.2022
1851 Clouds 16 1013 53 10000 1.86 121 19:30 29.05.2022
1852 Clouds 18 1015 36 10000 1.86 121 18:35 29.05.2022
1853 Clouds 19 1015 33 10000 0.85 265 16:51 29.05.2022
1854 Clouds 20 1015 33 10000 2.12 273 15:47 29.05.2022
1855 Clouds 21 1015 31 10000 2.79 266 14:56 29.05.2022
1856 Clouds 19 1014 38 10000 3.1 263 13:46 29.05.2022
1857 Clouds 18 985 41 10000 3.53 244 11:31 29.05.2022
1858 Clouds 16 985 44 10000 3.31 243 10:37 29.05.2022
1859 Clouds 17 1013 58 10000 0.45 103 08:36 29.05.2022
1860 Clouds 11 1003 79 10000 2.79 226 05:22 29.05.2022
1861 Clouds 11 1003 76 10000 0.45 72 04:41 29.05.2022
1862 Clouds 11 1002 81 10000 4.47 234 02:24 29.05.2022
1863 Clouds 10 1001 84 10000 4.63 244 23:48 28.05.2022
1864 Clouds 10 1001 84 10000 0.45 264 23:25 28.05.2022
1865 Clouds 11 1002 80 10000 2.73 267 22:21 28.05.2022
1866 Clear 13 1001 69 10000 2.47 242 21:19 28.05.2022
1867 Clear 13 1001 69 10000 2.47 242 21:19 28.05.2022
1868 Clouds 15 1000 58 10000 1.34 114 19:21 28.05.2022
1869 Clouds 14 1011 61 10000 2.97 287 18:45 28.05.2022
1870 Clouds 17 1011 38 10000 4.23 280 17:34 28.05.2022
1871 Clouds 18 1010 38 10000 5.61 257 16:22 28.05.2022
1872 Clouds 18 980 37 10000 5.61 257 15:38 28.05.2022
1873 Clouds 19 1009 44 10000 5.7 268 13:42 28.05.2022
1874 Clouds 17 980 40 10000 6.21 269 12:43 28.05.2022
1875 Clouds 17 981 37 10000 6.25 268 11:54 28.05.2022
1876 Clouds 18 999 59 10000 0.89 247 10:43 28.05.2022
1877 Clouds 17 1008 62 10000 0.89 118 09:56 28.05.2022
1878 Clouds 14 999 77 10000 0.89 123 08:39 28.05.2022
1879 Clouds 12 1000 85 10000 0.45 184 06:53 28.05.2022
1880 Clouds 11 998 86 10000 0.45 99 05:24 28.05.2022
1881 Rain 10 998 87 10000 0.89 157 02:27 28.05.2022
1882 Rain 11 998 87 10000 0.45 124 00:18 28.05.2022
1883 Rain 11 999 88 6125 0.89 121 22:49 27.05.2022
1884 Rain 14 998 88 10000 0.89 231 21:35 27.05.2022
1885 Clouds 20 977 100 5275 6.05 264 20:46 27.05.2022
1886 Clouds 20 977 65 10000 4.78 235 20:21 27.05.2022
1887 Clouds 20 995 58 10000 0.89 186 19:38 27.05.2022
1888 Clouds 20 996 58 10000 5.01 233 19:20 27.05.2022
1889 Clouds 21 999 53 10000 0.45 230 17:24 27.05.2022
1890 Clouds 21 980 62 10000 5.99 244 15:57 27.05.2022
1891 Clouds 18 1011 59 10000 5.47 246 14:57 27.05.2022
1892 Clouds 21 1000 50 10000 0.45 112 13:40 27.05.2022
1893 Clouds 22 983 46 10000 6.3 266 12:20 27.05.2022
1894 Clouds 22 1011 47 10000 0.89 130 11:31 27.05.2022
1895 Clouds 22 1002 45 10000 0.89 78 10:43 27.05.2022
1896 Clouds 20 1002 52 10000 0.89 162 09:59 27.05.2022
1897 Clouds 20 1013 43 10000 6.53 266 09:30 27.05.2022
1898 Clouds 17 1003 73 10000 0.89 171 07:39 27.05.2022
1899 Clouds 17 1003 73 10000 0.89 171 07:39 27.05.2022
1900 Clouds 14 1004 78 10000 0.45 115 04:58 27.05.2022
1901 Clouds 15 1002 72 10000 0.45 96 01:38 27.05.2022
1902 Clouds 15 1002 66 10000 0.45 138 23:23 26.05.2022
1903 Clear 15 1002 67 10000 0.45 272 22:22 26.05.2022
1904 Clear 16 1002 62 10000 4.5 253 21:27 26.05.2022
1905 Clouds 19 1010 51 10000 0.45 70 19:35 26.05.2022
1906 Clouds 19 1010 50 10000 0.45 100 18:51 26.05.2022
1907 Clouds 21 1010 48 10000 0.89 93 17:36 26.05.2022
1908 Clouds 21 1001 48 10000 0.45 86 16:30 26.05.2022
1909 Clouds 21 1001 48 10000 0.89 80 15:28 26.05.2022
1910 Clouds 20 982 46 10000 7.66 278 14:19 26.05.2022
1911 Clouds 19 1000 64 10000 0.45 130 12:18 26.05.2022
1912 Clouds 18 1001 72 10000 0.89 139 11:20 26.05.2022
1913 Rain 13 1000 85 10000 0.45 102 09:39 26.05.2022
1914 Rain 14 999 85 10000 0.45 114 08:48 26.05.2022
1915 Clouds 11 980 94 10000 5.19 216 05:43 26.05.2022
1916 Clouds 17 1000 61 10000 5.51 203 02:51 26.05.2022
1917 Clouds 18 1002 54 10000 4.43 164 23:57 25.05.2022
1918 Clouds 19 1012 52 10000 0.45 174 22:53 25.05.2022
1919 Clouds 15 1014 70 10000 3.72 186 21:42 25.05.2022
1920 Clouds 16 1015 59 10000 4 195 20:49 25.05.2022
1921 Clouds 17 1015 54 10000 2.64 170 19:45 25.05.2022
1922 Clouds 18 1015 51 10000 2.58 186 18:48 25.05.2022
1923 Clouds 22 1016 21 10000 3.55 202 17:24 25.05.2022
1924 Clouds 23 1016 18 10000 3.55 202 16:34 25.05.2022
1925 Clouds 21 1016 36 10000 3.5 199 15:36 25.05.2022
1926 Clouds 21 1016 34 10000 3.17 197 14:50 25.05.2022
1927 Clouds 21 1017 33 10000 2.89 194 14:32 25.05.2022
1928 Clouds 21 1017 32 10000 2.08 167 13:23 25.05.2022
1929 Clouds 21 1017 32 10000 2.08 167 13:23 25.05.2022
1930 Clouds 21 1017 33 10000 1.73 157 11:50 25.05.2022
1931 Clouds 22 988 35 10000 1.35 179 10:42 25.05.2022
1932 Clouds 21 988 39 10000 1.35 222 09:45 25.05.2022
1933 Clear 16 1017 50 10000 1.28 250 07:42 25.05.2022
1934 Clear 14 1015 54 10000 0.45 290 05:57 25.05.2022
1935 Clear 10 1014 73 10000 1.53 264 02:44 25.05.2022
1936 Clouds 11 1013 68 10000 1.56 269 23:50 24.05.2022
1937 Clouds 12 1013 65 10000 1.43 287 22:59 24.05.2022
1938 Clouds 12 1013 65 10000 1.43 287 22:59 24.05.2022
1939 Clouds 12 1013 66 10000 1.2 299 21:58 24.05.2022
1940 Clouds 12 1012 66 10000 1.2 299 21:37 24.05.2022
1941 Clouds 12 1012 65 10000 1.12 316 21:19 24.05.2022
1942 Clouds 16 1011 50 10000 1.13 354 19:27 24.05.2022
1943 Clouds 18 1014 32 10000 2 13 18:29 24.05.2022
1944 Clouds 16 1014 46 10000 3.03 16 16:40 24.05.2022
1945 Clouds 17 1014 42 10000 4.24 23 15:52 24.05.2022
1946 Clouds 18 1013 38 10000 4.31 26 14:41 24.05.2022
1947 Clear 21 1011 33 10000 0.45 356 13:47 24.05.2022
1948 Clear 20 1012 34 10000 0.45 329 12:31 24.05.2022
1949 Clear 19 1012 35 10000 0.89 348 09:52 24.05.2022
1950 Clear 17 1011 45 10000 0.45 312 08:57 24.05.2022
1951 Clear 17 1011 47 10000 0.45 17 08:38 24.05.2022
1952 Clouds 13 1002 66 10000 0.45 48 06:41 24.05.2022
1953 Clouds 8 1010 85 10000 2.56 325 03:41 24.05.2022
1954 Clouds 9 1001 74 10000 2.55 331 01:47 24.05.2022
1955 Clouds 10 1001 70 10000 2.53 332 00:34 24.05.2022
1956 Clouds 11 1000 72 10000 2.53 344 22:24 23.05.2022
1957 Clouds 11 1000 72 10000 2.53 344 21:53 23.05.2022
1958 Clouds 11 1000 71 10000 2.31 345 20:49 23.05.2022
1959 Clouds 13 1008 67 10000 1.36 49 19:55 23.05.2022
1960 Clouds 15 1008 65 10000 1.94 64 19:24 23.05.2022
1961 Clouds 17 1008 57 10000 1.94 64 18:41 23.05.2022
1962 Clouds 17 1008 57 10000 1.94 64 18:41 23.05.2022
1963 Clouds 17 1009 42 10000 2.2 57 17:56 23.05.2022
1964 Clouds 19 1007 51 10000 0.45 181 16:40 23.05.2022
1965 Clouds 17 998 57 10000 3.1 354 14:20 23.05.2022
1966 Clouds 16 1007 66 10000 0.45 219 11:57 23.05.2022
1967 Clouds 17 1007 64 10000 3.75 9 10:58 23.05.2022
1968 Clouds 16 1007 61 10000 0.45 63 09:48 23.05.2022
1969 Clouds 16 1007 68 10000 3.74 343 08:47 23.05.2022
1970 Clouds 12 1007 84 10000 0.45 39 07:37 23.05.2022
1971 Clouds 11 998 87 10000 0.45 136 06:41 23.05.2022
1972 Clouds 10 997 88 10000 2.66 325 04:40 23.05.2022
1973 Clouds 10 996 89 10000 2.41 324 02:18 23.05.2022
1974 Rain 11 996 89 10000 2.52 350 01:33 23.05.2022
1975 Rain 11 995 90 10000 3 339 23:22 22.05.2022
1976 Clouds 11 995 89 10000 3 339 22:33 22.05.2022
1977 Clouds 11 995 89 10000 3.33 343 21:53 22.05.2022
1978 Clouds 11 995 89 10000 0.45 139 20:50 22.05.2022
1979 Clouds 11 995 90 10000 0.45 230 20:23 22.05.2022
1980 Clouds 11 994 90 10000 0.89 131 19:42 22.05.2022
1981 Clouds 11 994 90 10000 0.45 176 18:52 22.05.2022
1982 Clouds 11 995 89 10000 0.45 323 18:22 22.05.2022
1983 Clouds 11 993 88 10000 0.45 92 17:26 22.05.2022
1984 Clouds 12 993 87 10000 0.45 168 15:59 22.05.2022
1985 Rain 11 992 89 10000 0.89 22 14:48 22.05.2022
1986 Clouds 11 992 90 10000 0.89 157 13:22 22.05.2022
1987 Clouds 12 991 80 10000 0.89 227 12:48 22.05.2022
1988 Clouds 13 991 76 10000 0.89 149 11:32 22.05.2022
1989 Clouds 13 991 73 10000 0.89 164 09:41 22.05.2022
1990 Clouds 12 972 100 10000 7.16 286 08:21 22.05.2022
1991 Clouds 12 972 100 10000 7.29 282 07:21 22.05.2022
1992 Clouds 12 993 75 10000 0.89 181 05:22 22.05.2022
1993 Clear 14 993 67 10000 0.45 151 01:26 22.05.2022
1994 Clear 15 993 66 10000 1.34 183 00:39 22.05.2022
1995 Clear 15 993 66 10000 0.45 144 23:50 21.05.2022
1996 Clear 16 993 66 10000 0.89 147 22:26 21.05.2022
1997 Clear 17 994 63 10000 0.45 114 21:41 21.05.2022
1998 Clear 17 975 81 10000 6.12 301 20:48 21.05.2022
1999 Clouds 15 1004 77 10000 9.01 304 20:21 21.05.2022
2000 Clouds 16 1002 81 10000 10.29 291 19:25 21.05.2022
2001 Clouds 21 1002 96 10000 9.18 270 17:47 21.05.2022
2002 Rain 20 1002 100 8061 7.68 267 15:44 21.05.2022
2003 Clouds 21 975 100 10000 5.96 246 14:37 21.05.2022
2004 Rain 19 1003 86 10000 0.45 140 13:41 21.05.2022
2005 Rain 19 1004 88 10000 4.78 236 12:41 21.05.2022
2006 Clouds 17 977 89 6110 5.77 256 11:58 21.05.2022
2007 Clouds 20 1006 72 10000 3.36 264 10:23 21.05.2022
2008 Clouds 20 1006 72 10000 3.34 264 10:23 21.05.2022
2009 Clouds 18 1007 84 10000 3.55 274 09:41 21.05.2022
2010 Clouds 21 978 84 10000 3.55 274 08:52 21.05.2022
2011 Clouds 20 997 68 10000 0.45 121 07:53 21.05.2022
2012 Clouds 17 998 69 10000 0.45 127 03:48 21.05.2022
2013 Clouds 16 1009 61 10000 3.99 247 23:50 20.05.2022
2014 Clouds 16 1010 62 10000 3.79 247 22:42 20.05.2022
2015 Clouds 16 1010 62 10000 3.79 247 22:42 20.05.2022
2016 Clouds 16 1010 63 10000 3.3 246 22:23 20.05.2022
2017 Clouds 18 1011 60 10000 3.3 246 21:40 20.05.2022
2018 Clouds 19 1011 55 10000 3.34 252 20:54 20.05.2022
2019 Clouds 18 1012 59 10000 3.24 243 19:57 20.05.2022
2020 Clouds 20 1012 61 10000 3.26 241 19:24 20.05.2022
2021 Clouds 21 1012 58 10000 3.26 241 18:36 20.05.2022
2022 Clouds 24 1013 42 10000 0.89 177 16:53 20.05.2022
2023 Clouds 24 1013 45 10000 3.99 260 15:58 20.05.2022
2024 Clouds 24 1014 44 10000 0.45 147 15:40 20.05.2022
2025 Clouds 24 1015 43 10000 0.45 215 14:29 20.05.2022
2026 Clouds 24 1015 44 10000 0.45 218 13:54 20.05.2022
2027 Clouds 19 1009 71 10000 0.45 200 11:22 20.05.2022
2028 Rain 15 1011 84 10000 0.97 143 09:51 20.05.2022
2029 Clouds 15 1010 66 10000 0.45 150 08:41 20.05.2022
2030 Clouds 14 1010 58 10000 1.99 310 06:46 20.05.2022
2031 Clouds 14 1010 54 10000 2.82 292 06:21 20.05.2022
2032 Clouds 12 990 73 10000 2.62 275 03:53 20.05.2022
2033 Clouds 12 1010 53 10000 2.73 274 00:24 20.05.2022
2034 Clouds 14 1010 43 10000 0.45 269 22:44 19.05.2022
2035 Clouds 15 1010 39 10000 0.45 198 21:53 19.05.2022
2036 Clouds 15 1011 39 10000 0.45 170 21:24 19.05.2022
2037 Clouds 15 991 35 10000 2.36 315 20:58 19.05.2022
2038 Clouds 16 1020 33 10000 0.45 245 20:21 19.05.2022
2039 Clouds 17 1010 32 10000 0.45 66 19:34 19.05.2022
2040 Clouds 19 1021 27 10000 4.6 317 17:52 19.05.2022
2041 Clouds 20 1022 27 10000 5.28 311 16:22 19.05.2022
2042 Clouds 19 1022 34 10000 5.47 314 14:52 19.05.2022
2043 Clouds 21 1020 38 10000 0.45 221 14:21 19.05.2022
2044 Clouds 19 993 40 10000 4.97 325 12:23 19.05.2022
2045 Clouds 19 1022 48 10000 0.89 199 10:40 19.05.2022
2046 Clouds 17 1023 55 10000 0.45 318 08:57 19.05.2022
2047 Clear 12 1022 69 10000 0.45 96 07:41 19.05.2022
2048 Clear 8 1013 81 10000 0.89 67 04:38 19.05.2022
2049 Clear 9 1012 79 10000 0.45 214 01:57 19.05.2022
2050 Clear 10 1012 81 10000 0.45 260 23:49 18.05.2022
2051 Clear 10 1012 82 10000 0.45 251 22:46 18.05.2022
2052 Clear 10 1012 79 10000 0.89 59 21:47 18.05.2022
2053 Clear 11 1011 77 10000 0.45 98 21:24 18.05.2022
2054 Clouds 11 1011 78 10000 0.45 196 20:23 18.05.2022
2055 Clouds 11 1010 78 10000 0.45 252 19:32 18.05.2022
2056 Clouds 13 1009 71 10000 1.34 60 18:20 18.05.2022
2057 Clouds 12 1018 74 10000 1.34 357 17:41 18.05.2022
2058 Clouds 12 1018 75 10000 0.89 108 17:22 18.05.2022
2059 Clouds 11 1009 82 10000 0.89 124 15:59 18.05.2022
2060 Clouds 11 1009 82 10000 0.89 124 15:59 18.05.2022
2061 Clouds 11 1008 83 10000 0.45 121 15:38 18.05.2022
2062 Clouds 9 1008 88 10000 0.45 198 14:30 18.05.2022
2063 Clouds 9 1008 88 10000 0.45 198 14:30 18.05.2022
2064 Clouds 9 1007 89 10000 0.45 85 12:59 18.05.2022
2065 Rain 9 1007 89 10000 0.45 87 12:39 18.05.2022
2066 Rain 8 1006 91 10000 0.45 120 11:33 18.05.2022
2067 Rain 8 1006 91 10000 0.45 358 10:49 18.05.2022
2068 Clouds 8 1006 79 10000 0.45 105 08:29 18.05.2022
2069 Clouds 7 1005 81 10000 0.89 344 07:28 18.05.2022
2070 Clear 7 1004 74 10000 0.89 119 04:33 18.05.2022
2071 Clouds 7 1014 63 10000 3.45 326 00:52 18.05.2022
2072 Clouds 10 984 56 10000 3.46 319 00:18 18.05.2022
2073 Clouds 12 1002 46 10000 0.45 49 21:24 17.05.2022
2074 Clouds 12 1011 47 10000 0.45 142 20:57 17.05.2022
2075 Clouds 11 1013 45 10000 3.61 312 19:45 17.05.2022
2076 Clouds 15 1013 36 10000 3.84 318 19:25 17.05.2022
2077 Clouds 16 1013 28 10000 5.18 322 17:49 17.05.2022
2078 Clouds 17 1013 27 10000 5.96 320 16:58 17.05.2022
2079 Clouds 18 1013 24 10000 6.29 314 16:24 17.05.2022
2080 Clouds 19 1013 20 10000 6.64 311 14:56 17.05.2022
2081 Clouds 20 982 21 10000 7.2 308 14:29 17.05.2022
2082 Clouds 19 1011 35 10000 0.89 216 13:30 17.05.2022
2083 Clouds 19 1012 36 10000 0.89 148 10:43 17.05.2022
2084 Clouds 16 1004 44 10000 0.45 86 08:55 17.05.2022
2085 Clouds 14 1004 51 10000 0.45 93 07:57 17.05.2022
2086 Clouds 10 986 44 10000 3.75 269 06:27 17.05.2022
2087 Clouds 7 1015 66 10000 2.46 273 01:59 17.05.2022
2088 Clouds 10 1006 56 10000 0.45 284 23:59 16.05.2022
2089 Clouds 11 1006 51 10000 0.45 15 22:40 16.05.2022
2090 Clouds 12 1006 51 10000 2.59 347 21:31 16.05.2022
2091 Clouds 14 1006 42 10000 0.45 27 20:43 16.05.2022
2092 Clouds 16 1005 41 10000 0.89 59 19:19 16.05.2022
2093 Clouds 17 1016 41 10000 4.38 330 17:34 16.05.2022
2094 Clouds 18 986 37 10000 4.73 321 15:36 16.05.2022
2095 Clouds 18 986 34 10000 5.13 327 13:48 16.05.2022
2096 Clouds 19 1005 42 10000 1.34 239 12:44 16.05.2022
2097 Clear 18 1015 46 10000 0.89 246 10:38 16.05.2022
2098 Clear 15 1006 53 10000 0.89 24 08:32 16.05.2022
2099 Clear 11 1006 73 10000 0.89 8 06:30 16.05.2022
2100 Clouds 10 987 100 10000 3.33 295 01:44 16.05.2022
2101 Clouds 12 986 99 10000 3.73 294 22:52 15.05.2022
2102 Clouds 13 986 100 10000 3.73 297 22:25 15.05.2022
2103 Clouds 13 986 72 10000 3.73 297 21:38 15.05.2022
2104 Clouds 11 1016 70 10000 3.89 303 20:53 15.05.2022
2105 Clouds 16 1014 50 10000 4.96 306 18:52 15.05.2022
2106 Clouds 17 1013 47 10000 5.35 303 17:29 15.05.2022
2107 Clouds 19 1011 45 10000 0.89 264 14:58 15.05.2022
2108 Clouds 18 983 46 10000 6.33 313 13:46 15.05.2022
2109 Clouds 18 1002 54 10000 0.89 224 12:19 15.05.2022
2110 Clouds 17 1002 57 10000 0.89 84 11:27 15.05.2022
2111 Clouds 16 1003 66 10000 0.45 127 09:57 15.05.2022
2112 Clouds 12 1003 80 10000 0.45 177 07:25 15.05.2022
2113 Clouds 11 1003 81 10000 4.99 288 06:56 15.05.2022
2114 Clouds 10 1003 82 10000 0.45 289 03:40 15.05.2022
2115 Clouds 12 1003 74 10000 0.89 217 00:42 15.05.2022
2116 Clouds 12 984 100 10000 4.32 280 23:37 14.05.2022
2117 Clouds 14 1002 66 10000 0.45 58 22:39 14.05.2022
2118 Clear 14 1002 65 10000 0.45 94 21:26 14.05.2022
2119 Clouds 14 1002 62 10000 0.45 281 20:28 14.05.2022
2120 Clouds 16 1001 57 10000 0.89 291 19:21 14.05.2022
2121 Clouds 16 1001 54 10000 0.89 154 18:59 14.05.2022
2122 Clouds 17 1001 50 10000 0.89 61 17:53 14.05.2022
2123 Clouds 19 1011 48 10000 4.37 319 16:23 14.05.2022
2124 Clouds 19 1009 54 10000 0.45 124 14:40 14.05.2022
2125 Clouds 19 1000 53 10000 0.89 223 14:22 14.05.2022
2126 Clouds 18 1000 58 10000 0.45 28 11:48 14.05.2022
2127 Clouds 18 1000 58 10000 0.45 257 10:45 14.05.2022
2128 Clouds 19 1000 58 10000 0.45 145 10:19 14.05.2022
2129 Clouds 18 981 76 10000 4.77 345 09:25 14.05.2022
2130 Clouds 17 999 71 10000 0.45 197 07:34 14.05.2022
2131 Clouds 13 1000 81 10000 1.69 257 04:49 14.05.2022
2132 Clouds 14 1002 69 10000 0.45 211 01:42 14.05.2022
2133 Clouds 13 1003 66 10000 0.92 248 23:28 13.05.2022
2134 Clouds 14 1002 65 10000 0.95 246 22:55 13.05.2022
2135 Clouds 14 1002 63 10000 1.57 233 22:21 13.05.2022
2136 Clouds 17 984 65 10000 1.84 224 20:59 13.05.2022
2137 Clouds 17 1012 57 10000 1.84 224 20:38 13.05.2022
2138 Clouds 17 1012 57 10000 2.31 213 20:20 13.05.2022
2139 Clouds 18 984 62 10000 2.1 220 19:18 13.05.2022
2140 Clouds 17 1014 56 10000 1.89 251 17:47 13.05.2022
2141 Clouds 17 1015 56 10000 2.2 277 17:23 13.05.2022
2142 Clouds 18 1015 51 10000 3.65 282 15:47 13.05.2022
2143 Clouds 17 1016 53 10000 3.58 282 14:45 13.05.2022
2144 Clouds 20 1014 47 10000 0.89 186 12:54 13.05.2022
2145 Clouds 20 1014 50 10000 0.45 74 11:56 13.05.2022
2146 Clouds 19 1015 53 10000 0.45 135 10:19 13.05.2022
2147 Clouds 16 987 44 10000 4.68 302 09:29 13.05.2022
2148 Clouds 17 1014 63 10000 0.45 239 07:52 13.05.2022
2149 Clouds 15 1014 70 10000 0.45 116 07:26 13.05.2022
2150 Clouds 12 1005 76 10000 0.45 330 05:31 13.05.2022
2151 Clouds 16 1003 85 10000 0.89 337 01:21 13.05.2022
2152 Clouds 16 984 100 10000 4.04 292 23:23 12.05.2022
2153 Rain 16 1002 87 10000 4.04 292 22:34 12.05.2022
2154 Clouds 17 1001 88 10000 5.39 271 21:26 12.05.2022
2155 Rain 18 999 85 10000 0.89 61 19:51 12.05.2022
2156 Clouds 24 1008 53 10000 8.05 248 18:27 12.05.2022
2157 Clouds 28 1008 18 10000 8.36 242 16:45 12.05.2022
2158 Clear 28 1010 19 10000 7.65 242 14:57 12.05.2022
2159 Clouds 26 1011 43 10000 7.65 244 13:50 12.05.2022
2160 Clouds 27 982 47 10000 6.95 235 11:55 12.05.2022
2161 Clouds 19 1013 60 10000 5.41 225 10:32 12.05.2022
2162 Clouds 18 1013 60 10000 5.16 224 08:53 12.05.2022
2163 Clouds 17 1013 59 10000 5.15 224 08:35 12.05.2022
2164 Clouds 17 985 62 10000 3.93 226 07:25 12.05.2022
2165 Clouds 11 1015 74 10000 3.34 231 04:32 12.05.2022
2166 Clouds 13 1016 60 10000 3.28 241 01:30 12.05.2022
2167 Clouds 15 1013 47 10000 0.45 110 23:36 11.05.2022
2168 Clouds 14 1013 53 10000 3.08 234 22:21 11.05.2022
2169 Clouds 13 1013 54 10000 2.88 229 21:26 11.05.2022
2170 Clouds 13 1013 54 10000 2.88 229 21:26 11.05.2022
2171 Clouds 17 985 41 10000 2.43 235 20:20 11.05.2022
2172 Clouds 19 1016 28 10000 2.81 272 17:37 11.05.2022
2173 Clouds 19 1016 25 10000 3.8 293 16:27 11.05.2022
2174 Clouds 21 1016 22 10000 3.82 297 14:48 11.05.2022
2175 Clouds 21 1017 23 10000 3.86 298 14:25 11.05.2022
2176 Clouds 18 1017 33 10000 3.41 297 13:25 11.05.2022
2177 Clouds 20 1015 32 10000 0.45 335 11:48 11.05.2022
2178 Clouds 13 988 41 10000 2.82 318 09:30 11.05.2022
2179 Clouds 10 989 45 10000 2.94 300 06:36 11.05.2022
2180 Clouds 10 989 100 10000 1.36 293 02:27 11.05.2022
2181 Clouds 9 1009 53 10000 1.74 15 22:58 10.05.2022
2182 Clouds 10 1009 51 10000 2.21 18 22:30 10.05.2022
2183 Clouds 10 1018 49 10000 2.21 18 21:41 10.05.2022
2184 Clouds 11 1018 44 10000 0.45 333 20:47 10.05.2022
2185 Clouds 12 1021 47 10000 3.61 35 18:57 10.05.2022
2186 Clouds 13 1020 39 10000 4.23 11 17:38 10.05.2022
2187 Clouds 15 1021 34 10000 4.41 354 16:35 10.05.2022
2188 Clouds 17 1021 34 10000 0.45 1 13:31 10.05.2022
2189 Clouds 17 1022 34 10000 0.45 28 11:54 10.05.2022
2190 Clouds 16 993 33 10000 3.08 337 11:34 10.05.2022
2191 Clouds 16 1022 35 10000 0.45 126 10:56 10.05.2022
2192 Clouds 15 1023 35 10000 1.34 63 09:47 10.05.2022
2193 Clear 14 1024 43 10000 0.89 1 08:18 10.05.2022
2194 Clear 10 1024 67 10000 0.89 67 06:20 10.05.2022
2195 Clouds 7 1027 60 10000 1.26 7 02:23 10.05.2022
2196 Clouds 7 1027 60 10000 2.16 34 23:53 09.05.2022
2197 Clouds 11 1024 44 10000 0.45 326 22:36 09.05.2022
2198 Clouds 9 1027 58 10000 2.76 34 21:39 09.05.2022
2199 Clouds 13 1023 44 10000 0.45 326 20:21 09.05.2022
2200 Clouds 16 1022 36 10000 0.45 67 18:26 09.05.2022
2201 Clouds 15 1025 34 10000 4.51 8 17:26 09.05.2022
2202 Clouds 15 1025 31 10000 4.98 5 16:19 09.05.2022
2203 Clouds 15 1025 31 10000 4.98 5 15:47 09.05.2022
2204 Clouds 19 1023 31 10000 1.34 28 14:36 09.05.2022
2205 Clouds 18 1023 34 10000 0.89 50 13:58 09.05.2022
2206 Clouds 17 1023 37 10000 0.89 64 13:22 09.05.2022
2207 Clouds 17 1023 42 10000 1.34 25 11:53 09.05.2022
2208 Clouds 17 1023 53 10000 0.89 38 10:48 09.05.2022
2209 Clouds 13 1025 51 10000 5.83 21 10:23 09.05.2022
2210 Clouds 10 1024 83 10000 4.95 13 07:57 09.05.2022
2211 Clouds 13 1020 88 10000 0.89 325 05:53 09.05.2022
2212 Clouds 11 990 86 10000 2.17 280 00:59 09.05.2022
2213 Clouds 15 1019 72 10000 0.45 47 23:28 08.05.2022
2214 Clouds 15 1019 71 10000 3.15 242 22:32 08.05.2022
2215 Clear 14 1019 73 10000 2.98 240 21:20 08.05.2022
2216 Clouds 15 1019 72 10000 2.98 238 20:23 08.05.2022
2217 Clouds 17 1018 65 10000 2.92 228 19:33 08.05.2022
2218 Clouds 19 1018 60 10000 3.16 241 18:35 08.05.2022
2219 Clouds 19 1018 58 10000 3.98 249 17:39 08.05.2022
2220 Clouds 19 1019 61 10000 0.45 11 15:46 08.05.2022
2221 Clouds 21 991 45 10000 4.5 247 15:22 08.05.2022
2222 Rain 19 1021 50 10000 4.42 239 12:46 08.05.2022
2223 Rain 18 1022 53 10000 4.36 235 10:59 08.05.2022
2224 Clouds 20 993 57 10000 3.9 243 10:22 08.05.2022
2225 Clouds 19 993 57 10000 3.9 243 09:51 08.05.2022
2226 Clouds 15 992 59 10000 3.6 234 07:43 08.05.2022
2227 Clouds 13 1020 59 10000 0.45 185 05:22 08.05.2022
2228 Clouds 14 1020 56 10000 0.45 131 03:21 08.05.2022
2229 Clouds 14 1021 62 10000 3.86 195 00:42 08.05.2022
2230 Clouds 16 993 59 10000 3.96 186 23:55 07.05.2022
2231 Clouds 15 1021 52 10000 4.23 176 22:59 07.05.2022
2232 Clouds 15 1021 52 10000 4.23 176 22:35 07.05.2022
2233 Clouds 15 1021 52 10000 3.84 167 21:55 07.05.2022
2234 Clouds 16 1021 48 10000 4.23 152 21:20 07.05.2022
2235 Clouds 16 1021 48 10000 1.97 168 19:59 07.05.2022
2236 Clouds 18 993 52 10000 1.73 167 18:41 07.05.2022
2237 Clouds 19 993 42 10000 3.65 221 16:19 07.05.2022
2238 Clouds 17 1023 40 10000 4.08 207 14:46 07.05.2022
2239 Clouds 19 995 41 10000 4.89 180 11:21 07.05.2022
2240 Clouds 17 995 45 10000 4.63 180 09:39 07.05.2022
2241 Clouds 15 995 53 10000 4.01 176 08:28 07.05.2022
2242 Clouds 11 995 58 10000 3.6 172 06:44 07.05.2022
2243 Clouds 10 994 63 10000 3.01 164 05:41 07.05.2022
2244 Clouds 10 994 64 10000 3 158 03:54 07.05.2022
2245 Clouds 11 1024 53 10000 3.04 152 23:39 06.05.2022
2246 Clouds 12 1024 48 10000 0.45 131 22:33 06.05.2022
2247 Clouds 12 1024 47 10000 0.45 215 21:47 06.05.2022
2248 Clouds 14 1024 43 10000 0.45 180 20:37 06.05.2022
2249 Clouds 12 1026 53 10000 3.54 142 19:42 06.05.2022
2250 Clouds 13 1026 53 10000 3.77 134 19:19 06.05.2022
2251 Clouds 15 1025 49 10000 3.91 133 18:24 06.05.2022
2252 Clouds 16 1026 42 10000 3.66 143 16:57 06.05.2022
2253 Clouds 17 1026 38 10000 3.47 146 15:47 06.05.2022
2254 Clouds 17 1026 37 10000 3.3 147 14:58 06.05.2022
2255 Clouds 16 1027 38 10000 3.15 147 13:31 06.05.2022
2256 Clouds 16 1027 38 10000 3.15 147 12:41 06.05.2022
2257 Clear 15 1028 39 10000 3.12 146 11:49 06.05.2022
2258 Clear 15 1028 41 10000 2.9 147 10:34 06.05.2022
2259 Clear 15 998 44 10000 2.67 148 09:46 06.05.2022
2260 Clear 13 998 50 10000 2.52 148 08:43 06.05.2022
2261 Clear 11 1027 54 10000 0.45 180 07:26 06.05.2022
2262 Clear 7 1026 57 10000 2.48 138 05:48 06.05.2022
2263 Clouds 7 1026 53 10000 2.02 126 02:51 06.05.2022
2264 Clouds 7 1026 54 10000 2.1 123 01:31 06.05.2022
2265 Clouds 7 1025 59 10000 2.12 114 22:32 05.05.2022
2266 Clouds 8 1025 59 10000 2.42 108 21:22 05.05.2022
2267 Clouds 10 1025 53 10000 2.45 98 20:26 05.05.2022
2268 Clouds 10 1027 49 10000 2.73 88 18:35 05.05.2022
2269 Clouds 13 1026 35 10000 3.29 76 16:35 05.05.2022
2270 Clouds 13 1026 34 10000 3.37 71 14:51 05.05.2022
2271 Clear 13 1026 33 10000 3.46 60 13:24 05.05.2022
2272 Clear 15 1024 32 10000 0.89 330 12:49 05.05.2022
2273 Clouds 13 996 35 10000 3.82 57 10:48 05.05.2022
2274 Clouds 11 996 36 10000 3.91 55 09:40 05.05.2022
2275 Clouds 9 1024 56 10000 0.45 63 07:35 05.05.2022
2276 Clouds 5 1023 65 10000 0.45 265 05:19 05.05.2022
2277 Clouds 5 1023 64 10000 0.45 325 05:19 05.05.2022
2278 Clouds 5 1021 61 10000 3.56 30 01:59 05.05.2022
2279 Clouds 6 1021 60 10000 3.75 28 01:29 05.05.2022
2280 Clouds 7 1021 55 10000 0.45 351 23:52 04.05.2022
2281 Clear 9 1020 53 10000 0.45 325 22:42 04.05.2022
2282 Clear 9 1019 50 10000 0.45 32 21:50 04.05.2022
2283 Clear 10 1019 51 10000 0.45 48 21:29 04.05.2022
2284 Clouds 11 1017 41 10000 0.45 2 20:27 04.05.2022
2285 Clouds 11 989 47 10000 4.9 21 19:53 04.05.2022
2286 Clouds 10 1019 41 10000 5.13 9 19:18 04.05.2022
2287 Clouds 12 1018 36 10000 5.88 2 18:22 04.05.2022
2288 Clouds 12 1018 35 10000 5.86 2 17:51 04.05.2022
2289 Clouds 14 1017 37 10000 6.42 350 15:42 04.05.2022
2290 Clouds 15 1017 38 10000 6.3 347 15:23 04.05.2022
2291 Clouds 15 1016 39 10000 5.95 354 14:21 04.05.2022
2292 Clouds 15 1016 43 10000 6.21 359 13:35 04.05.2022
2293 Clouds 17 1014 42 10000 0.89 19 12:33 04.05.2022
2294 Clouds 15 1014 50 10000 0.89 5 10:41 04.05.2022
2295 Clouds 16 1013 54 10000 0.89 4 09:44 04.05.2022
2296 Clouds 15 1013 59 10000 0.89 336 08:47 04.05.2022
2297 Clouds 14 1013 59 10000 0.89 35 08:47 04.05.2022
2298 Clouds 12 1012 66 10000 0.45 56 06:47 04.05.2022
2299 Clouds 12 982 86 10000 2.41 289 02:59 04.05.2022
2300 Clouds 13 982 81 10000 3.04 279 00:38 04.05.2022
2301 Clouds 13 1010 63 10000 2.78 245 22:40 03.05.2022
2302 Clouds 12 1010 68 10000 2.57 229 21:46 03.05.2022
2303 Clouds 12 1010 67 10000 2.47 226 20:54 03.05.2022
2304 Clouds 14 1010 63 10000 3.79 236 19:59 03.05.2022
2305 Rain 14 1012 66 10000 4.09 236 18:54 03.05.2022
2306 Clouds 18 1010 48 10000 4.78 224 18:21 03.05.2022
2307 Clouds 17 1012 51 10000 3.9 221 16:44 03.05.2022
2308 Clouds 17 1011 53 10000 0.45 333 15:38 03.05.2022
2309 Clouds 18 1013 41 10000 4.25 246 12:47 03.05.2022
2310 Clouds 20 984 44 10000 4.55 234 12:27 03.05.2022
2311 Clouds 19 985 48 10000 4.97 232 10:57 03.05.2022
2312 Clouds 17 986 48 10000 4.59 233 09:35 03.05.2022
2313 Clouds 13 1015 57 10000 3.52 219 07:33 03.05.2022
2314 Clouds 14 1013 57 10000 3.04 205 06:45 03.05.2022
2315 Clouds 10 1014 62 10000 1.74 248 01:47 03.05.2022
2316 Clouds 14 1015 47 10000 1.96 212 22:39 02.05.2022
2317 Clouds 15 1015 43 10000 0.45 209 21:54 02.05.2022
2318 Clouds 15 1015 44 10000 0.45 242 21:23 02.05.2022
2319 Clouds 14 1017 54 10000 2.94 163 18:46 02.05.2022
2320 Clouds 15 1017 50 10000 3.02 167 18:25 02.05.2022
2321 Clouds 15 1017 50 10000 3.02 167 17:37 02.05.2022
2322 Clouds 19 988 41 10000 3.09 187 16:23 02.05.2022
2323 Clouds 17 1018 38 10000 3.26 191 15:31 02.05.2022
2324 Clouds 17 1018 37 10000 3.51 195 13:53 02.05.2022
2325 Clouds 17 1019 37 10000 3.32 191 12:27 02.05.2022
2326 Clouds 16 1020 38 10000 3.17 191 10:51 02.05.2022
2327 Clouds 15 991 44 10000 2.79 196 09:30 02.05.2022
2328 Clouds 15 1020 48 10000 2.15 203 07:52 02.05.2022
2329 Clouds 10 1020 56 10000 2.08 207 04:36 02.05.2022
2330 Clouds 9 1020 59 10000 2.03 202 00:25 02.05.2022
2331 Clouds 9 1020 60 10000 2.03 202 23:52 01.05.2022
2332 Clouds 9 1021 63 10000 1.92 201 22:39 01.05.2022
2333 Clouds 9 1021 61 10000 1.87 168 21:26 01.05.2022
2334 Clouds 10 1020 55 10000 1.75 146 20:19 01.05.2022
2335 Clouds 13 1020 48 10000 1.4 107 18:59 01.05.2022
2336 Clouds 15 1020 42 10000 1.4 107 18:39 01.05.2022
2337 Clouds 17 1020 35 10000 0.45 134 17:38 01.05.2022
2338 Clouds 17 1021 34 10000 0.45 346 16:24 01.05.2022
2339 Clouds 15 1022 34 10000 1.7 57 15:38 01.05.2022
2340 Clouds 15 1022 34 10000 1.41 70 13:52 01.05.2022
2341 Clouds 17 1023 37 10000 0.89 343 11:28 01.05.2022
2342 Clouds 13 1024 39 10000 1.82 62 09:32 01.05.2022
2343 Clouds 15 1023 48 10000 0.45 119 08:42 01.05.2022
2344 Clouds 5 1023 84 10000 0.89 73 03:44 01.05.2022
2345 Clouds 6 1022 76 10000 1.63 65 00:29 01.05.2022
2346 Clouds 7 1022 69 10000 1.98 37 21:51 30.04.2022
2347 Clouds 9 1022 66 10000 1.7 39 21:18 30.04.2022
2348 Clouds 11 1022 57 10000 2.62 47 19:45 30.04.2022
2349 Clouds 14 1021 47 10000 0.45 44 18:28 30.04.2022
2350 Clouds 16 1021 39 10000 0.89 350 16:50 30.04.2022
2351 Clouds 16 1021 40 10000 0.45 325 15:48 30.04.2022
2352 Clouds 16 1022 44 10000 0.45 93 14:53 30.04.2022
2353 Clouds 15 1022 44 10000 0.45 349 13:20 30.04.2022
2354 Clouds 16 1022 51 10000 0.45 323 11:34 30.04.2022
2355 Clouds 16 1022 55 10000 0.89 10 10:49 30.04.2022
2356 Clouds 14 1023 56 10000 0.45 46 09:48 30.04.2022
2357 Clouds 11 1023 76 10000 1.11 85 06:48 30.04.2022
2358 Rain 8 1025 86 10000 0.42 257 02:55 30.04.2022
2359 Clouds 11 995 69 10000 0.97 124 23:53 29.04.2022
2360 Clouds 12 995 67 10000 1.35 117 22:34 29.04.2022
2361 Clouds 12 1023 60 10000 1.35 117 21:54 29.04.2022
2362 Clouds 12 995 65 10000 1.32 105 20:51 29.04.2022
2363 Clouds 13 995 61 10000 1.53 73 19:47 29.04.2022
2364 Clouds 15 1022 45 10000 1.94 48 18:36 29.04.2022
2365 Clouds 13 1024 47 10000 2.08 27 17:25 29.04.2022
2366 Clouds 14 1024 44 10000 2.54 11 15:50 29.04.2022
2367 Clouds 16 1023 42 10000 0.89 312 14:23 29.04.2022
2368 Clouds 16 1024 43 10000 0.45 352 13:22 29.04.2022
2369 Clouds 15 1025 44 10000 0.89 43 11:50 29.04.2022
2370 Clouds 10 1027 59 10000 2.24 29 08:53 29.04.2022
2371 Clouds 10 1025 62 10000 0.45 325 07:28 29.04.2022
2372 Clouds 10 1025 62 10000 0.45 325 07:28 29.04.2022
2373 Clouds 9 1025 67 10000 0.45 347 06:46 29.04.2022
2374 Clouds 7 1025 71 10000 0.45 72 05:44 29.04.2022
2375 Clouds 8 1024 66 10000 1.71 43 00:46 29.04.2022
2376 Clouds 9 1024 61 10000 1.66 55 23:34 28.04.2022
2377 Clouds 10 1024 59 10000 1.66 55 22:44 28.04.2022
2378 Clouds 10 1024 54 10000 1.76 64 21:47 28.04.2022
2379 Clouds 11 1023 51 10000 2.13 60 21:22 28.04.2022
2380 Clouds 11 1023 52 10000 2.13 60 20:35 28.04.2022
2381 Clouds 12 1023 50 10000 2.64 46 19:46 28.04.2022
2382 Clouds 13 1022 47 10000 2.94 36 19:23 28.04.2022
2383 Clouds 11 1024 49 10000 2.94 36 18:36 28.04.2022
2384 Clouds 16 1021 39 10000 0.45 10 17:26 28.04.2022
2385 Clouds 17 1022 38 10000 0.45 335 16:41 28.04.2022
2386 Clouds 15 1023 36 10000 3.04 21 16:19 28.04.2022
2387 Clouds 17 1022 40 10000 0.89 322 15:29 28.04.2022
2388 Clouds 15 1024 36 10000 2.96 9 14:20 28.04.2022
2389 Clouds 16 1023 39 10000 0.45 38 12:44 28.04.2022
2390 Clouds 14 1023 44 10000 0.45 39 11:59 28.04.2022
2391 Clouds 16 1023 43 10000 0.89 22 10:46 28.04.2022
2392 Clouds 15 1023 44 10000 0.89 46 09:56 28.04.2022
2393 Clouds 12 1022 65 10000 0.45 82 08:31 28.04.2022
2394 Clouds 11 1022 68 10000 0.89 332 07:19 28.04.2022
2395 Clear 10 1021 77 10000 0.89 38 05:56 28.04.2022
2396 Clear 10 1021 76 10000 1.59 4 05:38 28.04.2022
2397 Clear 10 1021 71 10000 0.45 356 04:39 28.04.2022
2398 Clouds 11 1021 66 10000 1.55 10 00:30 28.04.2022
2399 Clouds 11 1020 63 10000 2.09 23 22:39 27.04.2022
2400 Clouds 11 1020 61 10000 2.36 17 21:55 27.04.2022
2401 Clouds 11 1020 59 10000 1.87 4 21:18 27.04.2022
2402 Clouds 11 1020 60 10000 1.87 4 20:37 27.04.2022
2403 Clouds 14 1019 51 10000 1.03 337 19:38 27.04.2022
2404 Clouds 14 1019 52 10000 1.25 342 19:18 27.04.2022
2405 Clouds 15 1018 48 10000 0.45 31 18:22 27.04.2022
2406 Clouds 16 1018 43 10000 0.45 328 16:58 27.04.2022
2407 Clouds 16 1018 50 10000 0.45 37 14:33 27.04.2022
2408 Clouds 17 1018 52 10000 0.89 29 12:23 27.04.2022
2409 Clouds 17 1018 54 10000 0.45 291 11:20 27.04.2022
2410 Clouds 12 989 54 10000 3.77 308 09:20 27.04.2022
2411 Clouds 11 1016 80 10000 0.45 289 07:18 27.04.2022
2412 Clouds 10 1015 87 10000 3.45 284 04:30 27.04.2022
2413 Clouds 10 1014 87 10000 0.45 98 01:32 27.04.2022
2414 Clouds 11 1014 87 10000 0.45 230 00:37 27.04.2022
2415 Clouds 11 1013 88 10000 0.45 162 23:25 26.04.2022
2416 Clouds 11 1013 89 10000 0.89 136 22:58 26.04.2022
2417 Clouds 11 1013 90 10000 0.45 231 22:39 26.04.2022
2418 Rain 11 1013 91 10000 0.89 233 21:35 26.04.2022
2419 Rain 11 1013 91 10000 0.45 242 20:41 26.04.2022
2420 Rain 11 1012 91 10000 0.45 300 19:53 26.04.2022
2421 Rain 11 1011 91 10000 0.89 354 19:32 26.04.2022
2422 Clouds 12 1011 90 10000 0.89 227 18:44 26.04.2022
2423 Rain 13 1010 90 10000 0.45 233 17:59 26.04.2022
2424 Rain 15 1009 83 10000 0.45 223 16:49 26.04.2022
2425 Clouds 13 1010 73 10000 5.8 299 13:59 26.04.2022
2426 Clouds 16 1008 71 10000 0.89 296 13:32 26.04.2022
2427 Clouds 15 1008 78 10000 0.45 269 11:55 26.04.2022
2428 Clouds 13 1008 78 10000 5.94 293 10:37 26.04.2022
2429 Clouds 12 1007 89 10000 4.45 276 09:25 26.04.2022
2430 Rain 12 1006 90 10000 0.45 240 07:22 26.04.2022
2431 Rain 12 1004 91 10000 0.45 277 04:23 26.04.2022
2432 Rain 14 1005 87 8494 0.45 224 01:25 26.04.2022
2433 Clouds 15 1005 75 10000 0.45 162 00:26 26.04.2022
2434 Clouds 16 1005 69 10000 0.45 217 22:33 25.04.2022
2435 Clouds 16 1005 70 10000 2.13 171 21:40 25.04.2022
2436 Clouds 14 1005 74 10000 1.98 185 20:39 25.04.2022
2437 Clouds 14 1006 79 10000 2.09 207 18:55 25.04.2022
2438 Clouds 15 1006 74 10000 2.75 206 17:54 25.04.2022
2439 Clouds 17 1007 69 10000 3.48 198 16:55 25.04.2022
2440 Clouds 16 1008 71 10000 4.3 194 15:29 25.04.2022
2441 Clouds 16 1008 71 10000 4.3 194 14:38 25.04.2022
2442 Rain 16 1008 67 10000 4.67 212 13:32 25.04.2022
2443 Clouds 17 1008 60 10000 5.45 208 11:38 25.04.2022
2444 Clouds 17 1008 56 10000 6.73 191 10:23 25.04.2022
2445 Clouds 16 1008 62 10000 5.92 198 08:39 25.04.2022
2446 Clouds 11 1007 76 10000 5.22 157 06:39 25.04.2022
2447 Clear 10 1008 80 10000 3.48 181 03:47 25.04.2022
2448 Clear 10 1009 74 10000 3.08 173 00:43 25.04.2022
2449 Clear 10 1008 75 10000 3.11 172 23:51 24.04.2022
2450 Clear 10 1008 76 10000 3.03 169 22:41 24.04.2022
2451 Clear 10 1008 75 10000 2.65 165 22:20 24.04.2022
2452 Clear 10 1009 73 10000 2.55 182 21:26 24.04.2022
2453 Clear 11 1009 70 10000 2.55 182 20:48 24.04.2022
2454 Clear 11 1009 68 10000 2.41 180 20:29 24.04.2022
2455 Clear 12 1009 64 10000 2.41 180 19:45 24.04.2022
2456 Clear 17 1008 51 10000 0.45 342 18:20 24.04.2022
2457 Clear 19 1008 45 10000 0.45 84 17:27 24.04.2022
2458 Clear 16 1010 43 10000 3.34 237 16:58 24.04.2022
2459 Clear 16 1010 43 10000 3.34 237 16:32 24.04.2022
2460 Clear 16 1010 41 10000 3.56 245 15:54 24.04.2022
2461 Clear 16 1010 41 10000 3.74 253 14:58 24.04.2022
2462 Clouds 16 1010 43 10000 3.53 264 13:51 24.04.2022
2463 Clouds 15 1010 45 10000 3.61 264 13:24 24.04.2022
2464 Clouds 14 1010 46 10000 3.69 261 11:56 24.04.2022
2465 Clouds 13 1010 48 10000 3.85 262 11:27 24.04.2022
2466 Clouds 14 1008 63 10000 0.89 254 09:55 24.04.2022
2467 Clouds 13 1007 71 10000 0.89 90 08:51 24.04.2022
2468 Clouds 10 1006 90 10000 0.89 248 06:18 24.04.2022
2469 Clouds 10 1005 91 10000 0.45 240 03:37 24.04.2022
2470 Rain 11 1005 86 10000 2.86 300 01:18 24.04.2022
2471 Clouds 11 1005 79 10000 0.45 151 23:57 23.04.2022
2472 Clouds 11 1005 78 10000 0.45 113 23:25 23.04.2022
2473 Clouds 11 1005 77 10000 0.89 199 22:46 23.04.2022
2474 Clouds 12 1005 74 10000 0.45 264 21:49 23.04.2022
2475 Clouds 12 1005 73 10000 0.89 193 21:31 23.04.2022
2476 Clouds 14 1005 67 10000 0.45 51 20:27 23.04.2022
2477 Clouds 15 1005 60 10000 0.45 228 19:21 23.04.2022
2478 Clouds 15 1005 60 10000 0.45 102 18:55 23.04.2022
2479 Clouds 15 1005 59 10000 0.89 341 18:32 23.04.2022
2480 Clouds 16 1005 55 10000 0.89 124 17:48 23.04.2022
2481 Clouds 16 1005 50 10000 1.34 192 16:47 23.04.2022
2482 Clouds 16 1006 52 10000 5.94 170 15:54 23.04.2022
2483 Clouds 17 1008 43 10000 7.55 165 13:33 23.04.2022
2484 Clouds 15 1009 47 10000 7.7 159 11:57 23.04.2022
2485 Clouds 12 1009 76 10000 1.34 104 10:37 23.04.2022
2486 Clouds 9 1010 88 10000 0.89 189 08:27 23.04.2022
2487 Rain 7 1010 92 10000 0.89 126 05:27 23.04.2022
2488 Clouds 9 1010 86 10000 0.89 244 03:32 23.04.2022
2489 Clouds 10 1012 89 10000 0.45 141 23:38 22.04.2022
2490 Clouds 10 1012 89 10000 0.45 215 23:20 22.04.2022
2491 Clouds 10 1012 88 10000 0.45 254 21:58 22.04.2022
2492 Clouds 11 1012 87 10000 0.45 47 21:39 22.04.2022
2493 Clouds 10 1013 87 10000 0.45 319 20:35 22.04.2022
2494 Clouds 11 1013 86 10000 3.37 110 19:27 22.04.2022
2495 Clouds 11 1013 86 10000 0.45 123 18:57 22.04.2022
2496 Clouds 11 1013 87 10000 3.12 115 18:26 22.04.2022
2497 Clouds 11 1013 86 10000 0.45 243 17:24 22.04.2022
2498 Clouds 11 1014 86 10000 0.45 37 15:59 22.04.2022
2499 Clouds 11 1014 86 10000 0.45 129 15:30 22.04.2022
2500 Clouds 10 1014 87 10000 0.45 139 14:38 22.04.2022
2501 Clouds 9 1014 90 10000 0.45 80 13:41 22.04.2022
2502 Clouds 8 1015 91 10000 0.45 70 12:47 22.04.2022
2503 Rain 8 1014 92 10000 0.89 219 11:23 22.04.2022
2504 Clouds 8 1014 91 10000 0.45 173 10:56 22.04.2022
2505 Clouds 8 1014 92 10000 0.45 91 10:34 22.04.2022
2506 Clouds 7 1014 92 10000 0.45 25 09:57 22.04.2022
2507 Rain 7 1013 93 10000 5.48 152 09:21 22.04.2022
2508 Rain 7 1013 93 10000 0.45 224 08:42 22.04.2022
2509 Rain 6 1012 94 10000 5.83 134 06:38 22.04.2022
2510 Rain 6 1012 94 10000 0.45 109 01:24 22.04.2022
2511 Clouds 6 1012 93 10000 0.89 114 23:33 21.04.2022
2512 Clouds 6 1012 92 10000 0.45 147 22:43 21.04.2022
2513 Clouds 6 1012 90 10000 0.45 211 21:36 21.04.2022
2514 Clouds 7 1012 86 10000 3.44 131 20:30 21.04.2022
2515 Clouds 7 1011 84 10000 0.89 139 18:49 21.04.2022
2516 Clouds 7 1010 82 10000 0.89 197 18:28 21.04.2022
2517 Clouds 8 1010 79 10000 0.45 173 17:19 21.04.2022
2518 Clouds 8 1009 83 10000 0.45 170 15:25 21.04.2022
2519 Clouds 7 1009 86 10000 0.45 135 14:52 21.04.2022
2520 Clouds 7 1009 87 10000 0.45 234 14:18 21.04.2022
2521 Clouds 7 1009 85 10000 0.45 40 13:21 21.04.2022
2522 Clouds 7 1008 86 10000 0.45 121 12:22 21.04.2022
2523 Clouds 7 1007 88 10000 0.45 225 09:33 21.04.2022
2524 Clouds 6 1007 91 10000 0.45 123 08:46 21.04.2022
2525 Clouds 5 1007 93 10000 3.8 189 06:44 21.04.2022
2526 Clouds 5 1007 93 10000 0.45 240 03:41 21.04.2022
2527 Clouds 5 1007 93 10000 2.94 191 03:20 21.04.2022
2528 Clouds 5 1007 94 10000 2.94 191 02:44 21.04.2022
2529 Clouds 5 1007 94 10000 0.45 142 00:34 21.04.2022
2530 Clouds 5 1007 93 10000 2.78 248 23:25 20.04.2022
2531 Clouds 5 1007 93 10000 2.78 248 22:59 20.04.2022
2532 Clouds 5 1007 93 10000 2.78 248 22:59 20.04.2022
2533 Clouds 5 1008 93 10000 0.45 235 22:34 20.04.2022
2534 Rain 6 1008 93 10000 2.88 260 21:36 20.04.2022
2535 Rain 6 1008 92 10000 2.87 261 20:44 20.04.2022
2536 Rain 6 1008 92 10000 2.87 261 20:44 20.04.2022
2537 Rain 6 1008 92 10000 2.87 261 20:44 20.04.2022
2538 Rain 6 1009 92 10000 1.75 254 20:21 20.04.2022
2539 Clouds 6 1009 91 10000 0.45 196 19:39 20.04.2022
2540 Rain 7 1008 89 10000 1.79 268 18:45 20.04.2022
2541 Clouds 9 1008 77 10000 1.69 275 17:49 20.04.2022
2542 Clouds 10 1008 72 10000 0.45 129 16:39 20.04.2022
2543 Clouds 10 1008 66 10000 2.61 274 14:58 20.04.2022
2544 Clouds 10 1008 69 10000 0.45 139 12:22 20.04.2022
2545 Clouds 10 1008 69 10000 0.89 220 11:40 20.04.2022
2546 Clouds 9 1008 75 10000 0.45 264 10:39 20.04.2022
2547 Clouds 8 1008 74 10000 4.08 271 09:28 20.04.2022
2548 Clouds 7 1009 77 10000 0.45 247 08:27 20.04.2022
2549 Clouds 7 1008 78 10000 0.45 201 07:44 20.04.2022
2550 Clouds 6 1008 82 10000 0.45 63 05:29 20.04.2022
2551 Clouds 6 1007 86 10000 3.53 272 01:35 20.04.2022
2552 Clouds 6 1007 86 10000 0.45 196 00:21 20.04.2022
2553 Clouds 6 1008 88 10000 0.45 208 22:44 19.04.2022
2554 Clouds 6 1008 88 10000 0.89 255 22:23 19.04.2022
2555 Clouds 6 1007 89 10000 0.89 248 21:46 19.04.2022
2556 Clouds 6 1007 90 10000 2.64 306 20:57 19.04.2022
2557 Rain 6 1008 90 10000 0.45 110 20:37 19.04.2022
2558 Clouds 6 1008 88 10000 0.89 118 19:32 19.04.2022
2559 Clouds 7 1008 87 10000 3.68 326 18:27 19.04.2022
2560 Clouds 7 1008 82 10000 0.89 7 16:50 19.04.2022
2561 Clouds 7 1008 81 10000 0.89 14 16:25 19.04.2022
2562 Clouds 8 1008 80 10000 0.45 154 15:57 19.04.2022
2563 Clouds 8 1008 78 10000 0.45 185 14:44 19.04.2022
2564 Clouds 7 1009 81 10000 0.89 265 12:53 19.04.2022
2565 Clouds 7 1009 82 10000 0.45 249 12:31 19.04.2022
2566 Clouds 6 1009 84 10000 0.89 146 11:27 19.04.2022
2567 Clouds 6 1009 86 10000 0.89 47 09:31 19.04.2022
2568 Clouds 4 1009 91 10000 0.45 245 07:43 19.04.2022
2569 Clouds 3 1009 92 10000 0.45 151 04:24 19.04.2022
2570 Clouds 4 1010 84 10000 0.89 117 01:24 19.04.2022
2571 Clouds 5 1010 80 10000 0.45 0 23:44 18.04.2022
2572 Clouds 5 1011 72 10000 0.45 251 21:57 18.04.2022
2573 Clouds 5 1011 71 10000 0.45 243 21:25 18.04.2022
2574 Clouds 5 1011 71 10000 0.45 245 20:39 18.04.2022
2575 Clouds 5 1011 70 10000 0.45 90 19:59 18.04.2022
2576 Clouds 6 1011 68 10000 1.88 357 19:32 18.04.2022
2577 Clouds 6 1011 67 10000 0.45 20 18:43 18.04.2022
2578 Clouds 6 1011 64 10000 0.45 46 17:40 18.04.2022
2579 Clouds 6 1011 65 10000 0.45 357 17:19 18.04.2022
2580 Clouds 6 1011 64 10000 0.45 22 16:38 18.04.2022
2581 Clouds 6 1011 68 10000 0.89 314 15:30 18.04.2022
2582 Clouds 6 1012 70 10000 0.89 338 14:22 18.04.2022
2583 Clouds 4 1012 82 10000 0.45 354 12:54 18.04.2022
2584 Clouds 4 1012 80 10000 0.89 24 12:23 18.04.2022
2585 Clouds 4 1012 82 10000 0.45 113 10:46 18.04.2022
2586 Clouds 4 1013 82 10000 0.89 243 09:32 18.04.2022
2587 Clouds 2 1013 87 10000 0.45 351 08:46 18.04.2022
2588 Clouds 1 1013 90 10000 3.31 342 06:52 18.04.2022
2589 Clouds 1 1015 91 10000 0.45 341 02:29 18.04.2022
2590 Clouds 2 1016 87 10000 0.45 272 23:21 17.04.2022
2591 Clouds 2 1016 88 10000 0.89 38 22:36 17.04.2022
2592 Clouds 2 1017 86 10000 0.45 23 21:34 17.04.2022
2593 Clouds 2 1017 84 10000 0.45 33 20:51 17.04.2022
2594 Clouds 3 1017 83 10000 0.89 20 20:19 17.04.2022
2595 Clouds 4 1017 79 10000 0.45 12 18:45 17.04.2022
2596 Clouds 5 1017 80 10000 0.45 44 17:26 17.04.2022
2597 Clouds 5 1017 79 10000 0.89 41 15:34 17.04.2022
2598 Clouds 5 1017 81 10000 0.89 45 14:45 17.04.2022
2599 Clouds 5 1017 76 10000 1.34 38 13:29 17.04.2022
2600 Clouds 5 1017 80 10000 1.79 29 12:45 17.04.2022
2601 Rain 4 1017 93 8113 0.45 37 10:51 17.04.2022
2602 Rain 4 1017 95 8075 0.45 228 10:29 17.04.2022
2603 Rain 2 1018 94 8075 0.89 36 09:51 17.04.2022
2604 Rain 4 1018 95 9251 0.89 243 09:20 17.04.2022
2605 Rain 2 1017 95 9251 0.45 163 08:31 17.04.2022
2606 Rain 3 1016 94 5326 0.45 2 05:33 17.04.2022
2607 Clouds 4 1017 83 10000 0.45 83 01:52 17.04.2022
2608 Clouds 5 1017 79 10000 0.45 226 00:41 17.04.2022
2609 Clouds 5 1017 75 10000 0.89 240 23:30 16.04.2022
2610 Clouds 6 1017 77 10000 0.45 239 21:47 16.04.2022
2611 Clouds 6 1017 79 10000 4.75 338 20:54 16.04.2022
2612 Clouds 6 1016 80 10000 1.79 49 19:24 16.04.2022
2613 Clouds 6 1016 83 10000 1.34 23 18:43 16.04.2022
2614 Clouds 6 1015 84 10000 1.34 357 17:20 16.04.2022
2615 Clouds 7 1015 80 10000 2.68 21 15:51 16.04.2022
2616 Clouds 7 1014 83 10000 0.89 80 14:58 16.04.2022
2617 Clouds 7 1014 84 10000 1.79 21 14:37 16.04.2022
2618 Clouds 7 1013 89 10000 1.34 42 13:49 16.04.2022
2619 Clouds 8 1013 88 10000 1.79 36 12:43 16.04.2022
2620 Clouds 10 1014 74 10000 5.15 353 11:33 16.04.2022
2621 Clouds 10 1014 74 10000 5.15 353 10:33 16.04.2022
2622 Clouds 12 1011 78 10000 0.89 19 09:37 16.04.2022
2623 Clouds 13 1011 76 10000 0.89 31 08:51 16.04.2022
2624 Clouds 11 1011 83 10000 0.45 130 07:21 16.04.2022
2625 Clouds 11 1010 81 10000 0.89 251 04:58 16.04.2022
2626 Clouds 13 1014 100 10000 3.71 285 01:23 16.04.2022
2627 Clouds 11 1013 80 10000 4.03 294 23:45 15.04.2022
2628 Clouds 12 1013 80 10000 4.51 293 22:48 15.04.2022
2629 Rain 15 1013 40 10000 4.4 295 22:28 15.04.2022
2630 Clouds 16 1010 44 10000 4.53 273 21:21 15.04.2022
2631 Clouds 16 1011 43 10000 4.53 273 20:38 15.04.2022
2632 Clouds 16 1011 41 10000 3.63 214 19:43 15.04.2022
2633 Clouds 17 1011 37 10000 3.44 200 18:58 15.04.2022
2634 Clouds 19 1011 34 10000 0.45 196 18:26 15.04.2022
2635 Clouds 18 1013 27 10000 3.35 204 17:57 15.04.2022
2636 Clouds 19 1014 26 10000 3.75 216 17:24 15.04.2022
2637 Clouds 19 1014 26 10000 4.54 219 16:24 15.04.2022
2638 Clouds 19 1014 26 10000 4.54 219 15:42 15.04.2022
2639 Clouds 19 1014 26 10000 4.54 219 15:41 15.04.2022
2640 Clouds 20 1016 25 10000 4.39 210 13:55 15.04.2022
2641 Clouds 18 1016 35 10000 4.03 204 12:50 15.04.2022
2642 Clouds 17 1017 36 10000 3.72 203 12:21 15.04.2022
2643 Clouds 17 1017 36 10000 3.72 203 11:42 15.04.2022
2644 Clouds 15 1018 39 10000 3.47 202 10:46 15.04.2022
2645 Clouds 14 1018 42 10000 2.99 202 09:59 15.04.2022
2646 Clouds 13 989 46 10000 2.59 201 09:22 15.04.2022
2647 Clouds 12 989 40 10000 2.14 205 08:37 15.04.2022
2648 Clouds 9 1018 53 10000 1.62 205 06:47 15.04.2022
2649 Clouds 6 1018 63 10000 1.49 225 04:42 15.04.2022
2650 Clouds 6 1019 66 10000 0.21 238 00:32 15.04.2022
2651 Clouds 7 1010 65 10000 1.1 11 23:20 14.04.2022
2652 Clouds 7 1010 63 10000 1.1 11 22:44 14.04.2022
2653 Clouds 7 1010 62 10000 1.44 6 22:25 14.04.2022
2654 Clouds 7 1010 61 10000 1.28 14 21:39 14.04.2022
2655 Clouds 11 1010 45 10000 2.16 5 19:24 14.04.2022
2656 Clouds 13 1010 40 10000 0.45 26 18:38 14.04.2022
2657 Clouds 14 1018 35 10000 0.45 71 17:45 14.04.2022
2658 Clouds 15 1019 35 10000 0.89 30 16:49 14.04.2022
2659 Clouds 15 1018 39 10000 1.34 10 15:50 14.04.2022
2660 Clouds 13 1019 45 10000 1.34 43 13:52 14.04.2022
2661 Clouds 12 1019 49 10000 1.34 356 13:19 14.04.2022
2662 Clouds 11 1010 55 10000 2.24 28 12:32 14.04.2022
2663 Clouds 9 1011 69 10000 0.89 20 11:36 14.04.2022
2664 Clouds 8 1019 72 10000 0.89 15 10:57 14.04.2022
2665 Clouds 8 1010 74 10000 1.34 41 10:29 14.04.2022
2666 Clouds 7 1010 77 10000 1.34 22 09:26 14.04.2022
2667 Clouds 7 1010 77 10000 0.89 35 07:54 14.04.2022
2668 Clouds 6 1008 80 10000 0.89 33 05:35 14.04.2022
2669 Clouds 6 1008 90 10000 1.34 38 00:22 14.04.2022
2670 Clouds 6 1008 90 10000 1.34 14 22:37 13.04.2022
2671 Clouds 6 1008 90 10000 1.34 353 21:42 13.04.2022
2672 Clouds 6 1008 90 10000 0.89 35 20:35 13.04.2022
2673 Clouds 6 1008 90 10000 1.34 9 19:46 13.04.2022
2674 Clouds 6 1007 89 10000 2.24 25 18:36 13.04.2022
2675 Clouds 6 1006 90 10000 1.79 35 17:24 13.04.2022
2676 Clouds 6 1006 90 10000 1.34 16 16:49 13.04.2022
2677 Clouds 6 1006 90 10000 1.79 27 15:44 13.04.2022
2678 Clouds 6 1005 89 10000 1.79 36 15:21 13.04.2022
2679 Clouds 6 1005 90 10000 1.79 43 14:34 13.04.2022
2680 Clouds 6 1005 89 10000 2.24 358 13:37 13.04.2022
2681 Clouds 6 1005 89 10000 1.79 35 12:45 13.04.2022
2682 Clouds 5 1004 89 10000 1.34 26 11:25 13.04.2022
2683 Clouds 5 1004 92 10000 2.24 22 09:53 13.04.2022
2684 Clouds 5 1003 91 10000 1.79 54 08:44 13.04.2022
2685 Clouds 5 1003 88 10000 1.34 52 07:38 13.04.2022
2686 Clouds 5 1002 84 10000 0.89 21 06:46 13.04.2022
2687 Clouds 5 1002 84 10000 1.34 69 06:23 13.04.2022
2688 Clouds 6 1003 77 10000 2.68 30 00:28 13.04.2022
2689 Clouds 6 1003 76 10000 1.34 37 23:55 12.04.2022
2690 Clouds 6 1003 75 10000 1.79 12 22:31 12.04.2022
2691 Clouds 6 1004 77 10000 0.45 5 21:47 12.04.2022
2692 Clouds 6 1004 78 10000 1.34 31 20:44 12.04.2022
2693 Clouds 6 1004 78 10000 1.79 37 20:18 12.04.2022
2694 Clouds 7 1004 72 10000 0.45 119 19:39 12.04.2022
2695 Clouds 7 1003 68 10000 0.89 44 18:52 12.04.2022
2696 Clouds 8 1003 59 10000 1.34 27 17:37 12.04.2022
2697 Clouds 10 1002 52 10000 1.34 16 16:34 12.04.2022
2698 Clouds 10 1002 51 10000 0.89 22 15:33 12.04.2022
2699 Clouds 10 1002 51 10000 1.34 23 14:33 12.04.2022
2700 Clouds 10 1001 51 10000 0.89 108 13:40 12.04.2022
2701 Clouds 10 1001 50 10000 1.79 25 13:20 12.04.2022
2702 Clouds 10 1001 48 10000 2.24 41 11:47 12.04.2022
2703 Clouds 10 1001 48 10000 1.34 22 11:28 12.04.2022
2704 Clouds 7 1001 60 10000 0.89 286 09:32 12.04.2022
2705 Clouds 6 1001 63 10000 0.45 302 08:32 12.04.2022
2706 Clouds 5 1001 65 10000 0.45 285 06:33 12.04.2022
2707 Clouds 4 1001 67 10000 0.45 246 05:38 12.04.2022
2708 Clouds 5 1002 63 10000 0.45 228 01:48 12.04.2022
2709 Clouds 7 1002 57 10000 0.45 264 23:20 11.04.2022
2710 Clouds 7 1002 56 10000 0.45 53 21:51 11.04.2022
2711 Clouds 8 1002 57 10000 4.9 329 21:18 11.04.2022
2712 Clouds 8 1003 62 10000 0.89 329 20:30 11.04.2022
2713 Clouds 8 1003 64 10000 0.89 35 19:58 11.04.2022
2714 Clouds 8 1003 62 10000 4.3 355 19:25 11.04.2022
2715 Clouds 9 1003 60 10000 0.45 16 18:52 11.04.2022
2716 Clouds 9 1002 60 10000 0.45 43 17:57 11.04.2022
2717 Clouds 10 1002 61 10000 0.45 118 17:30 11.04.2022
2718 Clouds 10 1002 56 10000 1.79 6 16:25 11.04.2022
2719 Clouds 10 1002 59 10000 1.34 7 14:40 11.04.2022
2720 Clouds 11 1001 58 10000 1.34 22 13:19 11.04.2022
2721 Clouds 10 982 54 10000 5.73 347 12:36 11.04.2022
2722 Clouds 10 1011 64 10000 1.34 20 11:42 11.04.2022
2723 Clouds 10 1010 68 10000 1.34 14 10:34 11.04.2022
2724 Clouds 8 1010 74 10000 1.79 4 09:34 11.04.2022
2725 Clouds 6 1001 85 10000 0.89 45 07:24 11.04.2022
2726 Clouds 4 1001 92 10000 0.45 33 02:36 11.04.2022
2727 Clouds 7 1000 75 10000 0.89 338 22:58 10.04.2022
2728 Clouds 7 1000 73 10000 0.89 358 22:26 10.04.2022
2729 Clouds 7 1000 79 10000 0.89 24 21:35 10.04.2022
2730 Clouds 6 1000 81 10000 0.89 1 20:39 10.04.2022
2731 Clouds 7 1000 83 10000 3.64 9 19:46 10.04.2022
2732 Clouds 7 1000 81 10000 0.45 340 19:25 10.04.2022
2733 Clouds 7 1000 78 10000 0.89 3 18:45 10.04.2022
2734 Clouds 7 999 82 10000 0.45 54 17:56 10.04.2022
2735 Clouds 7 999 82 10000 0.45 56 17:56 10.04.2022
2736 Clouds 7 999 82 10000 0.45 339 17:37 10.04.2022
2737 Clouds 7 999 84 10000 0.89 352 16:33 10.04.2022
2738 Clouds 9 999 73 10000 0.89 350 15:37 10.04.2022
2739 Clouds 9 999 68 10000 1.34 5 14:25 10.04.2022
2740 Clouds 10 1008 70 10000 0.89 28 12:35 10.04.2022
2741 Clouds 10 1008 69 10000 0.89 17 12:35 10.04.2022
2742 Clouds 9 1008 74 10000 0.89 17 11:56 10.04.2022
2743 Clouds 9 999 78 10000 0.89 22 11:29 10.04.2022
2744 Clouds 9 999 81 10000 0.45 18 10:56 10.04.2022
2745 Clouds 8 999 84 10000 0.45 276 09:58 10.04.2022
2746 Clouds 8 999 86 10000 0.45 55 09:38 10.04.2022
2747 Clouds 7 998 86 10000 0.89 38 08:23 10.04.2022
2748 Clouds 6 998 89 10000 0.45 36 07:35 10.04.2022
2749 Clouds 6 996 89 10000 0.89 2 05:50 10.04.2022
2750 Clouds 8 994 90 10000 0.45 23 02:25 10.04.2022
2751 Clouds 9 992 90 10000 0.45 64 00:29 10.04.2022
2752 Clouds 10 992 90 10000 0.89 272 23:49 09.04.2022
2753 Clouds 11 990 90 10000 0.45 140 22:48 09.04.2022
2754 Clouds 10 989 93 10000 2.67 267 21:35 09.04.2022
2755 Clouds 10 989 93 10000 2.14 216 20:49 09.04.2022
2756 Clouds 10 989 94 10000 1.46 204 20:26 09.04.2022
2757 Clouds 11 988 92 10000 2.44 257 19:42 09.04.2022
2758 Clouds 11 988 86 10000 1.76 230 18:58 09.04.2022
2759 Clouds 11 988 84 10000 1.5 195 18:20 09.04.2022
2760 Clouds 12 988 82 10000 1.5 195 17:39 09.04.2022
2761 Clouds 12 988 82 10000 1.5 195 17:39 09.04.2022
2762 Clouds 13 988 79 10000 1.88 199 16:50 09.04.2022
2763 Clouds 13 988 74 10000 0.45 320 15:55 09.04.2022
2764 Clouds 13 989 73 10000 2.23 191 15:30 09.04.2022
2765 Clouds 13 989 71 10000 0.45 313 14:44 09.04.2022
2766 Clouds 13 998 70 10000 0.45 355 14:22 09.04.2022
2767 Clouds 12 989 74 10000 2.75 191 13:18 09.04.2022
2768 Clouds 12 989 73 10000 2.75 191 12:41 09.04.2022
2769 Clouds 11 990 73 10000 0.45 125 11:22 09.04.2022
2770 Clouds 11 990 70 10000 0.89 155 10:21 09.04.2022
2771 Clouds 10 999 74 10000 0.89 178 09:37 09.04.2022
2772 Clouds 9 990 80 10000 0.89 158 08:53 09.04.2022
2773 Clouds 7 1001 84 10000 5.65 178 06:56 09.04.2022
2774 Clouds 6 992 84 10000 2.74 217 01:32 09.04.2022
2775 Clouds 7 992 84 10000 3.59 246 23:30 08.04.2022
2776 Clouds 7 992 85 10000 4.03 249 21:58 08.04.2022
2777 Clouds 7 991 83 10000 3.8 257 21:29 08.04.2022
2778 Clouds 8 991 82 10000 3.8 257 20:38 08.04.2022
2779 Clouds 9 989 89 10000 0.45 146 19:20 08.04.2022
2780 Clouds 10 989 86 10000 0.45 65 18:29 08.04.2022
2781 Clouds 11 988 79 10000 3.31 247 17:46 08.04.2022
2782 Clouds 12 997 72 10000 0.89 216 17:22 08.04.2022
2783 Clouds 12 997 76 10000 0.45 166 16:47 08.04.2022
2784 Clouds 8 987 90 10000 3.03 263 15:56 08.04.2022
2785 Clouds 9 997 85 10000 1.34 246 15:25 08.04.2022
2786 Rain 10 996 84 10000 1.79 245 14:26 08.04.2022
2787 Rain 13 995 78 10000 0.89 327 13:45 08.04.2022
2788 Rain 13 986 71 10000 0.89 286 13:27 08.04.2022
2789 Clouds 14 985 64 10000 0.45 193 11:54 08.04.2022
2790 Clouds 13 986 70 10000 0.89 219 10:33 08.04.2022
2791 Clouds 12 986 74 10000 0.45 267 09:37 08.04.2022
2792 Clouds 10 986 83 10000 0.45 108 08:34 08.04.2022
2793 Clouds 6 967 100 10000 3.97 180 06:47 08.04.2022
2794 Clouds 6 968 100 10000 3.82 171 04:58 08.04.2022
2795 Clouds 10 989 74 10000 0.89 109 01:26 08.04.2022
2796 Clouds 10 989 73 10000 0.45 144 00:22 08.04.2022
2797 Clouds 12 989 65 10000 0.45 89 22:59 07.04.2022
2798 Clouds 12 989 63 10000 0.45 199 22:39 07.04.2022
2799 Clouds 12 989 59 10000 1.34 197 22:20 07.04.2022
2800 Clouds 12 988 55 10000 0.89 201 21:49 07.04.2022
2801 Clouds 13 991 46 10000 0.89 95 20:58 07.04.2022
2802 Clouds 14 990 42 10000 0.45 220 20:30 07.04.2022
2803 Clouds 17 989 41 10000 0.89 184 18:29 07.04.2022
2804 Clouds 19 999 38 10000 0.45 88 17:25 07.04.2022
2805 Clouds 20 990 38 10000 0.45 190 16:44 07.04.2022
2806 Clouds 21 999 36 10000 0.89 205 16:21 07.04.2022
2807 Clouds 20 991 40 10000 0.45 196 14:42 07.04.2022
2808 Clouds 21 1001 41 10000 0.89 148 13:42 07.04.2022
2809 Clouds 20 993 42 10000 0.89 116 12:46 07.04.2022
2810 Clouds 17 975 41 10000 6.21 197 11:30 07.04.2022
2811 Clouds 16 1004 55 10000 0.45 331 09:37 07.04.2022
2812 Clouds 13 996 64 10000 0.89 130 08:38 07.04.2022
2813 Clouds 7 996 82 10000 3.25 182 06:42 07.04.2022
2814 Clouds 7 996 82 10000 2.66 212 02:51 07.04.2022
2815 Clouds 7 997 85 10000 3.1 203 02:20 07.04.2022
2816 Clouds 8 997 83 10000 2.97 204 00:26 07.04.2022
2817 Clouds 9 999 82 10000 2.79 200 22:49 06.04.2022
2818 Clouds 9 998 80 10000 2.87 204 22:26 06.04.2022
2819 Clouds 10 998 79 10000 3.06 213 21:34 06.04.2022
2820 Clouds 9 998 81 10000 3.06 213 20:36 06.04.2022
2821 Clouds 9 998 80 10000 2.85 211 19:53 06.04.2022
2822 Clouds 11 997 74 10000 2.7 216 18:51 06.04.2022
2823 Clouds 12 997 71 10000 0.45 192 18:25 06.04.2022
2824 Clouds 13 1006 68 10000 3.85 250 17:35 06.04.2022
2825 Clouds 12 1006 70 10000 0.45 106 16:38 06.04.2022
2826 Clouds 12 998 69 10000 0.45 122 15:48 06.04.2022
2827 Clouds 13 997 67 10000 0.89 306 14:57 06.04.2022
2828 Clouds 12 996 65 10000 0.89 309 13:24 06.04.2022
2829 Clouds 12 996 62 10000 1.79 245 12:26 06.04.2022
2830 Clouds 10 996 74 10000 0.89 228 10:47 06.04.2022
2831 Clouds 9 996 76 10000 0.89 241 10:25 06.04.2022
2832 Clouds 8 997 80 10000 0.45 124 09:40 06.04.2022
2833 Clouds 6 996 85 10000 0.45 183 08:32 06.04.2022
2834 Clouds 5 997 87 10000 0.45 87 07:49 06.04.2022
2835 Clouds 4 995 92 10000 0.45 121 03:53 06.04.2022
2836 Clouds 5 994 90 10000 4.64 267 23:52 05.04.2022
2837 Clouds 5 994 88 10000 0.89 359 22:57 05.04.2022
2838 Clouds 6 993 87 10000 0.45 106 21:20 05.04.2022
2839 Clouds 6 993 86 10000 0.45 272 20:26 05.04.2022
2840 Clouds 6 993 87 10000 0.89 158 19:42 05.04.2022
2841 Clouds 5 973 100 10000 6.55 240 18:18 05.04.2022
2842 Clouds 7 992 59 10000 0.89 284 16:54 05.04.2022
2843 Clouds 7 1002 59 10000 0.45 227 15:56 05.04.2022
2844 Clouds 7 1002 60 10000 0.89 195 15:34 05.04.2022
2845 Clouds 6 1002 70 10000 0.89 219 14:36 05.04.2022
2846 Clouds 6 994 68 10000 0.89 253 13:35 05.04.2022
2847 Clouds 5 1004 71 10000 0.89 213 11:51 05.04.2022
2848 Clouds 5 1004 71 10000 0.89 213 11:51 05.04.2022
2849 Clouds 4 995 69 10000 0.89 250 11:32 05.04.2022
2850 Clouds 4 975 76 10000 6.68 209 09:59 05.04.2022
2851 Clouds 3 975 89 10000 6.21 204 08:54 05.04.2022
2852 Clouds 0 976 100 10000 5.4 193 06:58 05.04.2022
2853 Clear -1 979 100 10000 4.1 214 01:55 05.04.2022
2854 Clear 0 981 100 10000 3.57 226 22:42 04.04.2022
2855 Clear 0 981 100 10000 3.41 227 22:24 04.04.2022
2856 Clear 1 981 100 10000 3.26 235 21:21 04.04.2022
2857 Clear 1 982 100 10000 3.26 235 20:49 04.04.2022
2858 Clouds 2 982 75 10000 3.04 246 19:57 04.04.2022
2859 Clouds 2 982 69 10000 3.59 256 19:26 04.04.2022
2860 Clouds 3 982 61 10000 3.59 256 18:33 04.04.2022
2861 Clouds 5 982 55 10000 4.89 270 16:36 04.04.2022
2862 Clouds 5 1003 47 10000 0.89 246 15:44 04.04.2022
2863 Clouds 6 1003 47 10000 0.89 246 15:25 04.04.2022
2864 Clouds 6 1012 49 10000 0.45 260 14:46 04.04.2022
2865 Clouds 6 1003 49 10000 1.34 296 13:30 04.04.2022
2866 Clear 6 1003 44 10000 0.89 254 11:55 04.04.2022
2867 Clear 6 1012 43 10000 0.89 233 11:29 04.04.2022
2868 Clouds 3 1003 72 10000 0.45 177 08:54 04.04.2022
2869 Clouds -1 1000 84 10000 0.89 251 04:45 04.04.2022
2870 Clouds 1 999 80 10000 0.89 239 01:28 04.04.2022
2871 Clouds 1 997 86 10000 4.63 318 22:43 03.04.2022
2872 Clouds 1 998 90 10000 0.45 265 21:46 03.04.2022
2873 Clouds 1 996 92 10000 0.45 217 20:57 03.04.2022
2874 Clouds 1 996 92 10000 0.45 264 19:51 03.04.2022
2875 Clouds 1 995 91 89 0.45 356 18:33 03.04.2022
2876 Clouds 1 994 91 90 0.45 81 17:47 03.04.2022
2877 Clouds 2 993 90 891 0.89 54 16:59 03.04.2022
2878 Clouds 1 993 91 892 0.89 36 16:41 03.04.2022
2879 Clouds 2 993 91 3006 1.34 11 14:52 03.04.2022
2880 Clouds 2 992 89 6727 0.89 12 13:55 03.04.2022
2881 Clouds 3 992 87 10000 0.89 23 12:46 03.04.2022
2882 Clouds 2 991 92 9641 0.89 37 11:29 03.04.2022
2883 Clouds 2 991 90 10000 0.89 36 09:38 03.04.2022
2884 Clouds 2 990 90 9627 0.45 68 08:36 03.04.2022
2885 Clouds 2 990 88 10000 0.45 59 05:42 03.04.2022
2886 Clouds 2 989 88 10000 0.45 312 02:53 03.04.2022
2887 Clouds 3 988 89 10000 0.89 219 23:21 02.04.2022
2888 Clouds 3 988 89 10000 0.89 243 22:18 02.04.2022
2889 Clouds 3 988 89 10000 0.45 108 21:47 02.04.2022
2890 Clouds 3 988 89 7990 0.45 235 21:19 02.04.2022
2891 Clouds 4 987 88 3905 0.89 250 20:29 02.04.2022
2892 Clouds 4 985 89 10000 0.89 259 18:23 02.04.2022
2893 Clouds 4 985 90 10000 0.89 258 17:53 02.04.2022
2894 Clouds 5 984 89 10000 0.45 257 16:30 02.04.2022
2895 Clouds 5 983 88 10000 0.45 255 15:22 02.04.2022
2896 Clouds 5 983 88 10000 1.34 261 14:51 02.04.2022
2897 Clouds 5 983 87 10000 0.89 248 13:56 02.04.2022
2898 Clouds 4 982 87 10000 0.89 87 13:19 02.04.2022
2899 Clouds 5 982 87 10000 0.45 43 11:39 02.04.2022
2900 Clouds 5 962 94 10000 2.23 356 09:31 02.04.2022
2901 Clouds 4 990 89 10000 0.45 69 06:56 02.04.2022
2902 Clouds 5 983 90 10000 0.89 14 03:55 02.04.2022
2903 Clouds 6 985 90 10000 0.45 327 00:25 02.04.2022
2904 Clouds 6 985 90 10000 0.89 352 23:45 01.04.2022
2905 Clouds 6 985 90 10000 0.89 339 21:55 01.04.2022
2906 Clouds 6 986 89 10000 0.45 356 20:53 01.04.2022
2907 Clouds 6 986 89 10000 0.45 40 20:31 01.04.2022
2908 Clouds 6 986 89 10000 1.34 16 19:38 01.04.2022
2909 Clouds 7 986 88 10000 0.89 25 18:52 01.04.2022
2910 Clouds 8 986 88 10000 0.89 29 17:59 01.04.2022
2911 Clouds 8 967 91 10000 3.29 7 17:35 01.04.2022
2912 Clouds 11 967 79 10000 1.58 329 15:43 01.04.2022
2913 Clouds 11 967 100 10000 1.12 255 14:39 01.04.2022
2914 Clouds 11 987 86 10000 0.45 329 13:35 01.04.2022
2915 Clouds 11 986 85 10000 1.85 182 12:33 01.04.2022
2916 Clouds 11 986 85 10000 1.85 182 11:44 01.04.2022
2917 Clouds 10 986 87 10000 0.45 134 10:19 01.04.2022
2918 Clouds 9 986 88 10000 0.45 143 09:30 01.04.2022
2919 Clouds 7 996 88 10000 0.45 340 06:55 01.04.2022
2920 Clouds 7 997 88 10000 0.45 18 04:54 01.04.2022
2921 Clouds 7 997 88 10000 0.89 52 04:36 01.04.2022
2922 Clouds 7 990 89 10000 0.89 65 01:59 01.04.2022
2923 Clouds 6 992 90 10000 0.89 357 00:44 01.04.2022
2924 Clouds 8 992 90 10000 0.45 354 21:55 31.03.2022
2925 Clouds 8 992 90 10000 0.89 24 21:33 31.03.2022
2926 Clouds 9 992 90 10000 0.89 352 20:30 31.03.2022
2927 Clouds 9 992 90 10000 0.45 33 19:50 31.03.2022
2928 Clouds 10 992 88 10000 0.89 359 18:51 31.03.2022
2929 Clouds 12 992 83 10000 0.89 30 17:50 31.03.2022
2930 Clouds 14 991 76 10000 1.34 32 16:39 31.03.2022
2931 Clouds 15 1001 69 10000 0.89 342 15:46 31.03.2022
2932 Clouds 17 1001 62 10000 0.89 30 15:20 31.03.2022
2933 Clouds 18 991 55 10000 0.45 300 14:37 31.03.2022
2934 Clouds 14 1001 73 10000 0.45 117 12:30 31.03.2022
2935 Clouds 13 992 75 10000 0.45 253 11:26 31.03.2022
2936 Clouds 8 993 88 10000 0.45 75 09:47 31.03.2022
2937 Clouds 6 993 88 10000 2.44 113 08:20 31.03.2022
2938 Clouds 5 994 89 10000 1.97 113 05:42 31.03.2022
2939 Clouds 5 996 93 10000 1.13 165 23:58 30.03.2022
2940 Clouds 4 996 93 10000 1.09 229 22:44 30.03.2022
2941 Clouds 5 996 93 10000 1.34 238 21:39 30.03.2022
2942 Clouds 6 996 93 10000 0.45 353 20:54 30.03.2022
2943 Clouds 6 996 92 10000 2.75 247 20:20 30.03.2022
2944 Clouds 6 996 92 10000 2.75 247 20:20 30.03.2022
2945 Clouds 7 996 91 10000 2.91 245 19:28 30.03.2022
2946 Clouds 8 996 87 10000 3.63 246 18:28 30.03.2022
2947 Clouds 8 995 86 10000 3.63 246 17:47 30.03.2022
2948 Clouds 8 995 87 10000 3.68 240 16:57 30.03.2022
2949 Clouds 8 995 88 10000 0.45 212 16:33 30.03.2022
2950 Clouds 9 995 85 10000 3.9 229 15:24 30.03.2022
2951 Clouds 9 995 84 10000 0.45 276 13:42 30.03.2022
2952 Clouds 9 995 84 10000 0.89 259 12:47 30.03.2022
2953 Clouds 11 995 68 10000 3.86 252 11:27 30.03.2022
2954 Clouds 11 995 68 10000 3.86 252 11:27 30.03.2022
2955 Clouds 10 995 69 10000 0.45 284 10:23 30.03.2022
2956 Clouds 10 995 71 10000 1.85 293 09:23 30.03.2022
2957 Clouds 9 1004 72 10000 2.32 275 07:32 30.03.2022
2958 Clouds 7 1002 80 10000 1.49 270 05:40 30.03.2022
2959 Clouds 7 1003 78 10000 2.22 277 03:39 30.03.2022
2960 Clouds 7 1003 81 10000 1.98 278 00:41 30.03.2022
2961 Clouds 9 1003 84 10000 3.01 270 22:25 29.03.2022
2962 Clouds 9 1003 85 10000 3.01 270 21:44 29.03.2022
2963 Clouds 10 1003 80 10000 3.02 277 20:52 29.03.2022
2964 Clouds 11 1003 78 10000 0.45 199 19:53 29.03.2022
2965 Clouds 12 1002 77 10000 0.89 110 18:55 29.03.2022
2966 Clouds 12 1002 74 10000 0.45 209 18:19 29.03.2022
2967 Clouds 13 1002 72 10000 0.89 251 17:21 29.03.2022
2968 Clouds 13 1002 72 10000 0.89 251 17:21 29.03.2022
2969 Clouds 14 1002 71 10000 0.89 252 16:56 29.03.2022
2970 Clouds 13 1002 75 10000 0.45 303 15:57 29.03.2022
2971 Clouds 12 1004 100 10000 5.66 274 14:48 29.03.2022
2972 Clouds 14 1003 72 10000 2.68 256 13:53 29.03.2022
2973 Clouds 14 1005 65 10000 7.16 285 12:47 29.03.2022
2974 Clouds 14 1005 54 10000 6.64 260 11:31 29.03.2022
2975 Clouds 15 1004 44 10000 0.89 279 10:27 29.03.2022
2976 Clouds 11 1006 58 10000 5.9 256 09:23 29.03.2022
2977 Clouds 8 1007 52 10000 5.23 248 06:55 29.03.2022
2978 Clouds 9 1008 49 10000 5.66 247 03:47 29.03.2022
2979 Clouds 11 1009 48 10000 7.1 250 23:49 28.03.2022
2980 Clouds 11 1010 44 10000 7.33 249 22:59 28.03.2022
2981 Clouds 11 1010 43 10000 7.33 249 22:39 28.03.2022
2982 Clouds 12 1008 39 10000 0.89 234 22:19 28.03.2022
2983 Clouds 12 1008 38 10000 0.45 173 20:47 28.03.2022
2984 Clouds 12 1011 36 10000 6.99 249 19:59 28.03.2022
2985 Clouds 12 1012 36 10000 7.19 253 19:40 28.03.2022
2986 Clouds 12 1012 36 10000 7.2 253 18:51 28.03.2022
2987 Clouds 13 1012 36 10000 7.68 255 18:18 28.03.2022
2988 Clouds 13 1013 34 10000 8.18 254 17:28 28.03.2022
2989 Clouds 12 1013 35 10000 8.46 251 15:38 28.03.2022
2990 Clouds 12 1016 36 10000 8.58 247 14:24 28.03.2022
2991 Clouds 13 1015 34 10000 1.79 234 13:26 28.03.2022
2992 Clouds 11 1017 36 10000 0.89 239 11:53 28.03.2022
2993 Clouds 7 1019 39 10000 0.89 220 10:35 28.03.2022
2994 Clouds 4 1021 46 10000 0.89 214 09:21 28.03.2022
2995 Clouds 3 1021 50 10000 1.34 193 08:45 28.03.2022
2996 Clouds 2 1013 54 10000 0.45 158 08:21 28.03.2022
2997 Clouds 1 1013 57 10000 0.89 215 07:23 28.03.2022
2998 Clouds -1 1015 54 10000 0.45 247 02:44 28.03.2022
2999 Clouds 1 1015 47 10000 0.89 192 22:38 27.03.2022
3000 Clouds 1 1014 46 10000 0.45 316 21:48 27.03.2022
3001 Clouds 1 1014 43 10000 0.45 230 21:28 27.03.2022
3002 Clouds 2 1014 43 10000 0.45 218 20:41 27.03.2022
3003 Clouds 2 1014 44 10000 0.45 35 19:43 27.03.2022
3004 Clouds 3 1012 41 10000 0.89 29 18:45 27.03.2022
3005 Clouds 3 1012 40 10000 0.89 359 18:24 27.03.2022
3006 Clouds 4 1011 38 10000 2.24 36 17:37 27.03.2022
3007 Clouds 5 1010 36 10000 1.79 236 15:51 27.03.2022
3008 Clouds 5 1009 39 10000 0.89 230 13:59 27.03.2022
3009 Clouds 5 1009 39 10000 1.34 66 13:25 27.03.2022
3010 Clouds 2 1009 51 10000 0.89 249 11:41 27.03.2022
3011 Clouds 2 1008 50 10000 2.24 22 09:49 27.03.2022
3012 Clouds 1 1006 72 10000 1.79 48 07:47 27.03.2022
3013 Clouds 3 1003 60 10000 0.89 42 04:49 27.03.2022
3014 Clouds 5 1001 49 10000 2.24 16 00:26 27.03.2022
3015 Clouds 6 1000 71 10000 2.24 41 22:52 26.03.2022
3016 Clouds 7 999 74 10000 0.89 356 22:25 26.03.2022
3017 Clouds 9 999 68 10000 1.79 26 21:31 26.03.2022
3018 Clouds 9 998 75 10000 0.89 273 19:38 26.03.2022
3019 Clouds 9 999 77 10000 0.89 224 18:44 26.03.2022
3020 Clouds 9 999 83 10000 0.89 282 17:44 26.03.2022
3021 Clouds 10 999 84 10000 0.45 284 16:46 26.03.2022
3022 Clouds 11 979 77 10000 8.25 289 15:43 26.03.2022
3023 Clouds 16 999 43 10000 1.34 261 13:57 26.03.2022
3024 Clouds 15 1011 43 10000 9.06 268 13:36 26.03.2022
3025 Clouds 16 1001 45 10000 1.34 269 12:18 26.03.2022
3026 Clouds 14 1003 50 10000 1.34 228 10:49 26.03.2022
3027 Clouds 12 1006 51 10000 0.89 236 09:19 26.03.2022
3028 Clear 6 1007 64 10000 0.89 252 06:56 26.03.2022
3029 Clear 4 1008 69 10000 0.89 282 05:31 26.03.2022
3030 Clear 5 1010 66 10000 0.45 213 02:34 26.03.2022
3031 Clouds 6 1012 70 10000 0.45 274 22:47 25.03.2022
3032 Clouds 5 1013 70 10000 2.55 274 20:58 25.03.2022
3033 Clear 5 1013 70 10000 2.33 280 20:26 25.03.2022
3034 Clear 6 1013 68 10000 2.23 287 19:19 25.03.2022
3035 Clear 6 1013 65 10000 1.97 303 18:35 25.03.2022
3036 Clear 8 1013 57 10000 1.68 325 17:30 25.03.2022
3037 Clear 10 1021 48 10000 0.45 319 16:27 25.03.2022
3038 Clear 11 1022 44 10000 0.45 330 15:34 25.03.2022
3039 Clouds 10 1022 52 10000 0.89 350 13:32 25.03.2022
3040 Clouds 10 1022 57 10000 0.89 11 11:25 25.03.2022
3041 Clouds 8 1021 68 10000 0.45 296 09:37 25.03.2022
3042 Clouds 7 1021 71 10000 0.45 333 08:50 25.03.2022
3043 Clouds 5 1012 80 10000 0.45 85 07:42 25.03.2022
3044 Clouds 4 1011 83 10000 0.45 76 06:59 25.03.2022
3045 Clouds 2 1007 91 10000 3.91 66 02:37 25.03.2022
3046 Clouds 3 1006 90 38 0.89 37 22:59 24.03.2022
3047 Clouds 3 1006 89 59 2.99 324 22:19 24.03.2022
3048 Clouds 3 1006 91 167 0.45 187 20:52 24.03.2022
3049 Rain 3 1006 91 2649 0.89 211 19:49 24.03.2022
3050 Clouds 3 1007 89 8025 0.45 201 18:45 24.03.2022
3051 Clouds 5 1007 72 3936 1.34 268 17:36 24.03.2022
3052 Clouds 5 1007 75 1668 0.89 244 17:36 24.03.2022
3053 Clouds 7 1007 56 10000 0.89 222 16:28 24.03.2022
3054 Clouds 9 1007 46 10000 0.89 257 14:52 24.03.2022
3055 Clouds 9 1016 46 10000 0.89 230 14:22 24.03.2022
3056 Clouds 9 1007 47 10000 1.34 86 13:34 24.03.2022
3057 Clear 10 1016 45 10000 1.34 265 12:24 24.03.2022
3058 Clear 10 1016 48 10000 1.34 43 11:27 24.03.2022
3059 Clear 9 1016 54 10000 0.89 73 09:27 24.03.2022
3060 Clear 9 1016 56 10000 0.89 1 08:34 24.03.2022
3061 Clear 6 1006 58 10000 0.45 134 05:30 24.03.2022
3062 Clear 6 1006 58 10000 0.45 134 05:30 24.03.2022
3063 Clouds 7 1019 58 10000 2.45 255 23:59 23.03.2022
3064 Clouds 8 1021 58 10000 2.09 257 22:19 23.03.2022
3065 Clear 9 1021 54 10000 1.69 261 21:21 23.03.2022
3066 Clear 9 1022 53 10000 1.42 265 19:56 23.03.2022
3067 Clear 9 1022 54 10000 1.02 289 19:25 23.03.2022
3068 Clear 11 1023 49 10000 0.81 325 17:48 23.03.2022
3069 Clear 13 1023 42 10000 1.09 355 17:18 23.03.2022
3070 Clear 16 1024 36 10000 0.45 20 15:25 23.03.2022
3071 Clear 14 1026 36 10000 2.47 346 14:47 23.03.2022
3072 Clear 13 1028 40 10000 2.49 347 13:30 23.03.2022
3073 Clear 12 1029 47 10000 2.42 336 10:50 23.03.2022
3074 Clear 11 1000 60 10000 2.25 321 08:21 23.03.2022
3075 Clear 3 1021 68 10000 1.82 309 05:50 23.03.2022
3076 Clear 3 1033 100 10000 1.95 297 01:59 23.03.2022
3077 Clear 6 1032 60 10000 2 274 00:25 23.03.2022
3078 Clear 6 1032 60 10000 1.99 274 00:25 23.03.2022
3079 Clear 9 1032 50 10000 1.63 258 21:36 22.03.2022
3080 Clear 7 1032 51 10000 1.15 251 20:57 22.03.2022
3081 Clear 8 1024 50 10000 0.68 254 19:59 22.03.2022
3082 Clear 8 1024 50 10000 0.33 262 19:25 22.03.2022
3083 Clear 9 1024 49 10000 0.34 316 18:46 22.03.2022
3084 Clear 10 1033 42 10000 0.51 12 17:43 22.03.2022
3085 Clear 14 1036 35 10000 1.03 17 16:37 22.03.2022
3086 Clear 11 1036 42 10000 1.52 24 15:40 22.03.2022
3087 Clear 12 1036 39 10000 2.16 29 15:19 22.03.2022
3088 Clear 12 1036 39 10000 2.16 29 14:42 22.03.2022
3089 Clear 12 1036 38 10000 2.38 30 13:42 22.03.2022
3090 Clear 11 1037 41 10000 2.34 37 11:52 22.03.2022
3091 Clear 10 1038 45 10000 2.47 39 10:53 22.03.2022
3092 Clear 10 1036 60 10000 2.56 36 08:43 22.03.2022
3093 Clear 6 1036 72 10000 2.59 34 07:21 22.03.2022
3094 Clear 5 1026 78 10000 0.89 17 03:55 22.03.2022
3095 Clear 5 1026 79 10000 0.45 41 03:55 22.03.2022
3096 Clear 5 1038 100 10000 3.12 12 00:46 22.03.2022
3097 Clear 6 1037 100 10000 3.61 7 22:46 21.03.2022
3098 Clear 8 1005 87 10000 3.51 6 21:25 21.03.2022
3099 Clear 8 1037 75 10000 3.51 6 20:43 21.03.2022
3100 Clear 10 1005 69 10000 3.53 5 20:21 21.03.2022
3101 Clear 10 1005 61 10000 3.53 5 19:35 21.03.2022
3102 Clear 10 1005 61 10000 3.53 5 19:35 21.03.2022
3103 Clear 10 1037 61 10000 3.53 5 19:35 21.03.2022
3104 Clear 7 1037 70 10000 3.39 5 18:47 21.03.2022
3105 Clear 8 1037 65 10000 3.23 2 17:35 21.03.2022
3106 Clear 9 1037 60 10000 3.11 3 16:59 21.03.2022
3107 Clear 13 1034 45 10000 0.89 49 16:26 21.03.2022
3108 Clear 13 1034 44 10000 0.89 37 15:37 21.03.2022
3109 Clear 13 1035 44 10000 1.34 38 14:29 21.03.2022
3110 Clear 12 1036 45 10000 1.34 12 12:58 21.03.2022
3111 Clear 11 1036 44 10000 1.34 25 11:57 21.03.2022
3112 Clear 11 1036 44 10000 0.89 0 11:20 21.03.2022
3113 Clear 8 1037 57 10000 1.79 29 09:42 21.03.2022
3114 Clear 5 1028 65 10000 0.89 34 07:22 21.03.2022
3115 Clear 2 1028 73 10000 0.45 105 05:42 21.03.2022
3116 Clouds 4 1038 57 10000 0.45 45 00:46 21.03.2022
3117 Clouds 2 1040 64 10000 3.07 352 22:56 20.03.2022
3118 Clouds 3 1041 62 10000 2.9 352 22:22 20.03.2022
3119 Clear 3 1041 65 10000 2.88 354 21:31 20.03.2022
3120 Clear 3 1041 65 10000 2.88 354 21:31 20.03.2022
3121 Clear 5 1038 45 10000 0.45 276 20:48 20.03.2022
3122 Clear 5 1038 44 10000 2.9 355 20:27 20.03.2022
3123 Clear 6 1038 43 10000 0.45 325 19:43 20.03.2022
3124 Clear 6 1029 41 10000 2.49 350 19:19 20.03.2022
3125 Clear 5 1041 54 10000 2.55 358 17:43 20.03.2022
3126 Clear 8 1029 37 10000 2.64 3 17:24 20.03.2022
3127 Clear 10 1039 33 10000 0.45 64 15:57 20.03.2022
3128 Clear 10 1040 34 10000 0.89 33 14:38 20.03.2022
3129 Clear 10 1040 37 10000 1.34 10 13:31 20.03.2022
3130 Clear 6 1043 52 10000 3.62 12 11:51 20.03.2022
3131 Clear 4 1044 59 10000 3.15 15 09:58 20.03.2022
3132 Clear 4 1042 60 10000 1.34 4 08:19 20.03.2022
3133 Clear 0 1032 69 10000 0.89 52 05:49 20.03.2022
3134 Clear 1 1033 66 10000 0.45 36 03:18 20.03.2022
3135 Clear 2 1033 55 10000 0.45 38 00:51 20.03.2022
3136 Clear 2 1012 79 10000 2.09 3 23:37 19.03.2022
3137 Clear 1 1042 47 10000 0.45 291 21:58 19.03.2022
3138 Clear 1 1043 47 10000 1.69 7 21:25 19.03.2022
3139 Clear 2 1033 43 10000 1.6 18 19:22 19.03.2022
3140 Clear 3 1033 41 10000 1.8 18 18:30 19.03.2022
3141 Clear 5 1033 33 10000 0.45 68 17:45 19.03.2022
3142 Clear 5 1044 41 10000 1.98 12 16:46 19.03.2022
3143 Clear 6 1042 31 10000 0.89 358 15:22 19.03.2022
3144 Clear 4 1044 29 10000 2.51 8 13:40 19.03.2022
3145 Clear 3 1044 31 10000 2.34 17 12:42 19.03.2022
3146 Clear 3 1044 32 10000 2.32 22 12:19 19.03.2022
3147 Clear 6 1043 34 10000 0.45 62 11:42 19.03.2022
3148 Clear 3 1044 44 10000 0.89 4 08:57 19.03.2022
3149 Clear -3 1043 66 10000 1.41 9 04:42 19.03.2022
3150 Clear -4 1043 70 10000 0.56 34 02:32 19.03.2022
3151 Clouds -4 1034 68 10000 0.85 59 23:50 18.03.2022
3152 Clouds -3 1034 66 10000 0.91 74 22:43 18.03.2022
3153 Clouds -3 1034 65 10000 1 76 22:20 18.03.2022
3154 Clouds -2 1034 60 10000 1.19 71 20:25 18.03.2022
3155 Clouds -2 1034 59 10000 1.19 71 20:25 18.03.2022
3156 Clouds -2 1034 59 10000 1.19 71 20:25 18.03.2022
3157 Clouds -1 1034 56 10000 1.4 74 19:24 18.03.2022
3158 Clouds -1 1034 53 10000 1.83 71 18:35 18.03.2022
3159 Clouds 2 1034 44 10000 0.89 47 16:53 18.03.2022
3160 Clouds 2 1043 42 10000 0.45 247 16:18 18.03.2022
3161 Clouds 4 1043 40 10000 0.89 334 14:26 18.03.2022
3162 Clouds 4 1044 40 10000 1.34 311 13:36 18.03.2022
3163 Clouds 2 1044 48 10000 0.89 38 11:29 18.03.2022
3164 Clouds 0 1044 56 10000 0.89 307 09:52 18.03.2022
3165 Clouds -1 1044 60 10000 0.89 312 08:45 18.03.2022
3166 Clouds -5 1034 71 10000 0.45 343 06:45 18.03.2022
3167 Clear -5 1033 70 10000 0.45 330 04:39 18.03.2022
3168 Clear -3 1031 61 10000 0.45 6 00:55 18.03.2022
3169 Clear -3 1032 58 10000 0.45 345 23:52 17.03.2022
3170 Clear -3 1032 58 10000 0.45 345 23:52 17.03.2022
3171 Clear -2 1031 56 10000 0.89 9 22:44 17.03.2022
3172 Clear -2 1031 56 10000 1.34 324 22:18 17.03.2022
3173 Clear -1 1031 53 10000 0.45 27 21:27 17.03.2022
3174 Clear -1 1031 51 10000 0.45 330 20:52 17.03.2022
3175 Clear -1 1030 51 10000 3.55 50 20:19 17.03.2022
3176 Clear -1 1030 50 10000 0.45 2 19:37 17.03.2022
3177 Clouds 0 1030 48 10000 0.89 342 18:51 17.03.2022
3178 Clouds 1 1029 44 10000 0.89 345 17:28 17.03.2022
3179 Clouds 2 1038 41 10000 0.89 329 16:19 17.03.2022
3180 Clouds 2 1038 41 10000 0.89 329 16:19 17.03.2022
3181 Clouds 2 1038 40 10000 0.89 345 15:42 17.03.2022
3182 Clouds 2 1038 41 10000 1.34 355 14:58 17.03.2022
3183 Clouds 2 1038 42 10000 0.89 354 13:28 17.03.2022
3184 Clouds 2 1038 43 10000 1.34 37 12:44 17.03.2022
3185 Clouds 1 1038 45 10000 1.34 82 11:32 17.03.2022
3186 Clouds 1 1038 46 10000 0.89 4 10:41 17.03.2022
3187 Clear 0 1038 49 10000 0.89 91 08:46 17.03.2022
3188 Clear -1 1038 52 10000 0.45 72 08:18 17.03.2022
3189 Clear -5 1028 74 10000 0.45 321 05:49 17.03.2022
3190 Clear -5 1027 78 10000 3.32 57 04:24 17.03.2022
3191 Clouds -4 1026 80 10000 3.75 76 00:24 17.03.2022
3192 Clear -3 1025 75 10000 3.59 81 22:52 16.03.2022
3193 Clear -3 1025 74 10000 3.25 86 22:33 16.03.2022
3194 Clear -3 1025 72 10000 3.25 86 21:55 16.03.2022
3195 Clear -2 1025 66 10000 2.89 95 20:40 16.03.2022
3196 Clear 0 1024 62 10000 3.65 93 19:23 16.03.2022
3197 Clear 0 1024 61 10000 0.89 325 18:42 16.03.2022
3198 Clear 1 1023 58 10000 0.45 102 17:45 16.03.2022
3199 Clear 1 1023 57 10000 0.89 347 17:27 16.03.2022
3200 Clear 3 1032 49 10000 0.89 327 15:56 16.03.2022
3201 Clear 4 1031 40 10000 0.89 339 14:38 16.03.2022
3202 Clear 5 1031 43 10000 0.89 119 13:35 16.03.2022
3203 Clear 5 1031 47 10000 0.89 314 12:18 16.03.2022
3204 Clear 4 1031 50 10000 0.45 88 11:23 16.03.2022
3205 Clear 3 1022 48 10000 0.45 302 10:28 16.03.2022
3206 Clear 3 1022 54 10000 0.89 109 09:55 16.03.2022
3207 Clouds -3 1030 83 10000 0.89 180 06:47 16.03.2022
3208 Clouds -2 1021 74 10000 0.89 125 02:29 16.03.2022
3209 Clouds 0 1021 75 10000 4.18 116 22:54 15.03.2022
3210 Clouds 0 1021 74 10000 0.89 151 22:33 15.03.2022
3211 Clouds 0 1021 74 10000 0.89 151 22:33 15.03.2022
3212 Clouds 2 1021 74 10000 0.45 167 20:51 15.03.2022
3213 Clouds 3 1020 75 10000 0.45 218 19:34 15.03.2022
3214 Clouds 7 1028 64 10000 0.45 8 17:41 15.03.2022
3215 Clouds 6 1030 60 10000 3.19 72 16:34 15.03.2022
3216 Clouds 7 1030 53 10000 2.54 38 15:26 15.03.2022
3217 Clouds 7 1030 53 10000 2.54 38 14:47 15.03.2022
3218 Clouds 7 1031 51 10000 2.49 17 13:55 15.03.2022
3219 Clouds 6 1031 51 10000 2.61 8 12:46 15.03.2022
3220 Clouds 6 1032 58 10000 2.71 6 11:32 15.03.2022
3221 Clear 6 1000 62 10000 3.07 348 09:54 15.03.2022
3222 Clear 3 1000 65 10000 3.22 337 08:49 15.03.2022
3223 Clear 4 1021 65 10000 0.89 262 07:52 15.03.2022
3224 Clear 3 1021 65 10000 0.89 248 07:34 15.03.2022
3225 Clear 0 1021 77 10000 0.45 234 05:42 15.03.2022
3226 Clouds 2 1022 66 10000 3.26 302 23:58 14.03.2022
3227 Clouds 2 1022 64 10000 0.45 255 23:25 14.03.2022
3228 Clouds 2 1023 65 10000 0.45 254 22:30 14.03.2022
3229 Clouds 2 1023 65 10000 3.26 299 21:35 14.03.2022
3230 Clouds 3 1022 63 10000 0.45 261 20:54 14.03.2022
3231 Clouds 3 1022 61 10000 0.45 262 20:20 14.03.2022
3232 Clouds 2 1002 74 10000 3.04 288 19:21 14.03.2022
3233 Clouds 4 1022 59 10000 2.82 287 17:55 14.03.2022
3234 Clouds 5 1022 56 10000 2.74 291 17:24 14.03.2022
3235 Clouds 6 1031 51 10000 0.89 244 16:18 14.03.2022
3236 Clouds 7 1032 48 10000 0.45 50 14:41 14.03.2022
3237 Clouds 6 1033 52 10000 0.45 115 12:51 14.03.2022
3238 Clouds 4 1034 60 10000 0.45 184 10:54 14.03.2022
3239 Clouds 2 1025 64 10000 0.45 45 09:55 14.03.2022
3240 Clouds 2 1026 65 10000 0.45 115 09:22 14.03.2022
3241 Clouds 2 1026 64 10000 0.89 59 08:56 14.03.2022
3242 Clouds 1 1025 69 10000 0.45 69 07:34 14.03.2022
3243 Clear 0 1025 76 10000 2.27 303 05:46 14.03.2022
3244 Clouds -1 1024 81 10000 1.97 310 01:55 14.03.2022
3245 Clouds -1 1024 84 10000 1.79 302 01:29 14.03.2022
3246 Clouds -1 1024 84 10000 1.32 272 22:52 13.03.2022
3247 Clouds -1 1024 84 10000 0.65 198 21:31 13.03.2022
3248 Clouds -1 1023 83 10000 0.65 199 20:56 13.03.2022
3249 Clouds -1 1023 83 10000 0.72 146 20:31 13.03.2022
3250 Clouds 0 1022 83 10000 0.72 146 19:59 13.03.2022
3251 Clouds 0 1023 82 10000 0.72 146 19:37 13.03.2022
3252 Clouds 0 1023 83 10000 0.88 103 19:18 13.03.2022
3253 Clouds 0 1022 83 10000 1.06 82 18:35 13.03.2022
3254 Clouds 0 1022 83 10000 1.52 79 17:46 13.03.2022
3255 Clouds 0 1022 83 10000 0.45 344 17:20 13.03.2022
3256 Clouds 0 1021 82 10000 2.35 56 16:30 13.03.2022
3257 Clouds 0 1021 82 10000 2.35 56 15:47 13.03.2022
3258 Clouds 0 1021 81 10000 0.45 330 14:56 13.03.2022
3259 Clouds 0 1020 80 10000 0.45 309 13:45 13.03.2022
3260 Clouds 0 1020 79 10000 0.45 320 12:55 13.03.2022
3261 Clouds 1 1020 82 10000 0.45 31 11:52 13.03.2022
3262 Clouds 0 1020 82 10000 0.45 36 11:32 13.03.2022
3263 Clouds 0 1019 84 10000 0.45 321 10:47 13.03.2022
3264 Clouds 0 1019 87 10000 0.45 319 10:22 13.03.2022
3265 Clouds -1 1019 87 10000 0.45 310 09:40 13.03.2022
3266 Clouds -1 1018 86 10000 0.89 329 08:46 13.03.2022
3267 Clouds -1 1018 88 10000 1.34 343 07:41 13.03.2022
3268 Clouds -1 1016 91 10000 0.45 131 05:41 13.03.2022
3269 Clouds -1 1015 92 1096 0.45 347 02:43 13.03.2022
3270 Clouds -1 1014 92 1014 0.45 23 23:56 12.03.2022
3271 Clouds 0 1014 89 842 2.27 343 22:27 12.03.2022
3272 Clouds 1 1014 79 10000 2.71 353 20:34 12.03.2022
3273 Clouds 1 1014 74 10000 0.45 12 19:47 12.03.2022
3274 Clouds 1 1015 74 10000 0.45 47 18:58 12.03.2022
3275 Clouds 2 1015 71 10000 0.89 14 18:22 12.03.2022
3276 Clouds 3 1014 56 10000 0.45 38 17:31 12.03.2022
3277 Clouds 3 1014 56 10000 0.45 47 16:23 12.03.2022
3278 Clouds 3 1014 56 10000 0.45 355 16:23 12.03.2022
3279 Clouds 4 1014 49 10000 1.34 355 15:22 12.03.2022
3280 Clouds 5 1015 47 10000 0.45 105 14:28 12.03.2022
3281 Clouds 2 1026 40 10000 4.59 320 12:45 12.03.2022
3282 Clouds 2 1027 40 10000 4.39 313 11:56 12.03.2022
3283 Clouds 5 1025 39 10000 0.45 227 11:34 12.03.2022
3284 Clouds 2 996 39 10000 4.33 311 10:52 12.03.2022
3285 Clouds 4 1026 44 10000 0.89 234 09:44 12.03.2022
3286 Clouds 2 1027 50 10000 0.45 324 08:55 12.03.2022
3287 Clouds -2 1027 63 10000 0.45 200 07:19 12.03.2022
3288 Clouds -5 1029 80 10000 1.76 317 02:34 12.03.2022
3289 Clear -5 1030 73 10000 1.49 13 23:52 11.03.2022
3290 Clear -4 1030 70 10000 1.93 29 22:52 11.03.2022
3291 Clear -5 1030 72 10000 2.3 34 21:35 11.03.2022
3292 Clear -4 1031 65 10000 2.76 37 20:54 11.03.2022
3293 Clear -4 1031 64 10000 3.04 42 20:28 11.03.2022
3294 Clear -3 1031 60 10000 3.04 42 19:42 11.03.2022
3295 Clouds -1 1030 56 10000 3.52 40 18:51 11.03.2022
3296 Clouds 0 1030 51 10000 0.45 351 17:28 11.03.2022
3297 Clouds 0 1030 44 10000 1.79 339 16:27 11.03.2022
3298 Clouds 1 1030 41 10000 0.89 46 15:53 11.03.2022
3299 Clouds 1 1030 37 10000 1.34 34 14:19 11.03.2022
3300 Clouds 1 1030 34 10000 1.79 30 12:43 11.03.2022
3301 Clouds 0 1030 36 10000 1.79 350 12:20 11.03.2022
3302 Clouds -1 1030 38 10000 1.79 350 11:40 11.03.2022
3303 Clouds -4 1030 45 10000 1.79 343 09:39 11.03.2022
3304 Clouds -4 1030 48 10000 1.34 1 08:40 11.03.2022
3305 Clouds -5 1030 55 10000 1.34 355 07:49 11.03.2022
3306 Clouds -7 1030 63 10000 0.89 10 06:59 11.03.2022
3307 Clouds -8 1030 63 10000 1.34 20 05:20 11.03.2022
3308 Clouds -7 1030 58 10000 0.89 18 02:45 11.03.2022
3309 Clouds -5 1030 54 10000 0.45 293 22:51 10.03.2022
3310 Clear -5 1030 53 10000 0.45 343 22:27 10.03.2022
3311 Clear -5 1030 51 10000 0.89 343 21:26 10.03.2022
3312 Clear -5 1031 52 10000 0.89 46 20:39 10.03.2022
3313 Clear -4 1030 48 10000 0.89 7 19:22 10.03.2022
3314 Clouds -4 1030 45 10000 0.89 0 18:30 10.03.2022
3315 Clouds -3 1029 44 10000 0.89 359 16:53 10.03.2022
3316 Clouds -2 1029 43 10000 1.34 312 15:36 10.03.2022
3317 Clouds -1 1029 43 10000 1.79 352 14:19 10.03.2022
3318 Clouds -2 1029 47 10000 1.34 353 12:43 10.03.2022
3319 Clouds -3 1029 47 10000 1.34 30 11:33 10.03.2022
3320 Clouds -4 1029 57 10000 1.79 32 09:54 10.03.2022
3321 Clouds -4 1029 66 10000 0.45 355 08:40 10.03.2022
3322 Clouds -7 1028 79 10000 0.89 4 05:48 10.03.2022
3323 Clouds -5 1026 75 10000 0.45 305 03:22 10.03.2022
3324 Clouds -3 1024 89 10000 0.89 337 00:22 10.03.2022
3325 Clouds -3 1024 86 10000 0.45 324 22:43 09.03.2022
3326 Clouds -3 1023 81 7145 0.45 16 21:48 09.03.2022
3327 Clouds -3 1023 80 10000 0.89 41 20:53 09.03.2022
3328 Clouds -2 1022 84 10000 4.04 37 19:23 09.03.2022
3329 Clouds -2 1021 88 10000 0.45 63 17:29 09.03.2022
3330 Clouds -1 1021 93 10000 3.69 26 16:48 09.03.2022
3331 Clouds -1 1020 90 10000 0.45 321 15:41 09.03.2022
3332 Clouds 0 1020 74 10000 0.89 33 14:24 09.03.2022
3333 Clouds 0 1020 75 10000 0.89 15 13:38 09.03.2022
3334 Clouds 1 1020 72 10000 0.89 16 12:20 09.03.2022
3335 Clouds 0 1020 76 10000 0.89 358 11:46 09.03.2022
3336 Clouds 0 1019 78 10000 1.34 34 10:54 09.03.2022
3337 Clouds -2 1019 83 10000 0.89 39 09:25 09.03.2022
3338 Clouds -2 1019 85 10000 0.89 19 08:43 09.03.2022
3339 Clouds -3 1018 84 8635 0.89 8 05:56 09.03.2022
3340 Clouds -3 1017 81 10000 0.89 317 00:58 09.03.2022
3341 Clouds -2 1017 78 10000 1.34 7 23:46 08.03.2022
3342 Clouds -2 1017 76 6546 0.89 350 22:45 08.03.2022
3343 Clouds -2 1016 76 10000 0.89 5 21:46 08.03.2022
3344 Clouds -2 1016 76 10000 0.89 347 21:19 08.03.2022
3345 Clouds -1 1016 74 10000 0.89 332 20:18 08.03.2022
3346 Clouds -1 1016 79 10000 0.89 18 18:55 08.03.2022
3347 Clouds -1 1015 77 10000 0.89 357 17:58 08.03.2022
3348 Clouds 0 1014 74 10000 1.34 27 16:37 08.03.2022
3349 Clouds 1 1013 68 10000 1.34 20 14:24 08.03.2022
3350 Clouds 1 1013 71 10000 0.89 16 13:23 08.03.2022
3351 Clouds 2 1012 75 10000 1.34 23 12:20 08.03.2022
3352 Clouds 2 1012 74 10000 0.89 4 11:41 08.03.2022
3353 Clouds 0 1012 92 3211 0.89 46 10:27 08.03.2022
3354 Clouds 0 1012 91 2510 0.45 71 08:30 08.03.2022
3355 Clouds 0 1012 92 210 0.45 340 05:49 08.03.2022
3356 Clouds -1 1012 89 10000 2.83 311 01:49 08.03.2022
3357 Clouds 0 1012 84 10000 2.49 323 22:41 07.03.2022
3358 Clouds 0 1012 76 10000 2.32 326 21:36 07.03.2022
3359 Clouds 0 1012 77 10000 2.05 326 20:55 07.03.2022
3360 Clouds 0 1012 77 10000 1.91 327 20:26 07.03.2022
3361 Clouds 0 1012 76 10000 1.91 327 19:41 07.03.2022
3362 Clouds 0 1012 78 2131 0.45 39 18:47 07.03.2022
3363 Clouds 1 1012 75 10000 0.45 342 17:58 07.03.2022
3364 Clouds 1 1012 70 10000 0.89 32 16:56 07.03.2022
3365 Clouds 1 1012 69 10000 0.89 56 16:30 07.03.2022
3366 Clouds 1 1011 61 10000 0.45 329 14:40 07.03.2022
3367 Clouds 1 1012 63 10000 0.45 4 12:33 07.03.2022
3368 Clouds 2 1012 63 10000 0.89 24 10:45 07.03.2022
3369 Clouds 2 1012 64 10000 0.89 236 10:24 07.03.2022
3370 Clouds -2 1016 100 10000 3.02 280 06:35 07.03.2022
3371 Clouds -2 1019 95 10000 2.96 251 00:23 07.03.2022
3372 Clouds -2 1019 96 10000 2.96 251 23:41 06.03.2022
3373 Clouds 0 1017 69 10000 2.78 245 22:58 06.03.2022
3374 Clouds 0 1017 69 10000 2.54 242 22:24 06.03.2022
3375 Clear 0 1018 70 10000 2.26 246 20:56 06.03.2022
3376 Clear 0 1018 70 10000 2.1 251 20:28 06.03.2022
3377 Clouds 0 1019 71 10000 1.97 260 19:29 06.03.2022
3378 Clouds 0 1019 70 10000 1.9 261 18:25 06.03.2022
3379 Clouds 0 1019 70 10000 1.98 268 17:22 06.03.2022
3380 Clouds 0 1019 75 10000 1.98 268 16:44 06.03.2022
3381 Clouds 0 1019 75 10000 1.98 268 16:44 06.03.2022
3382 Clouds 1 1020 75 10000 2.47 261 16:18 06.03.2022
3383 Clouds 1 1020 62 10000 0.45 211 14:57 06.03.2022
3384 Clouds 2 1020 62 10000 2.87 259 14:38 06.03.2022
3385 Clouds 1 1022 100 10000 2.52 260 13:36 06.03.2022
3386 Clouds 2 1021 62 10000 1.85 288 12:35 06.03.2022
3387 Clouds 1 1022 71 10000 1.93 299 11:21 06.03.2022
3388 Clouds 1 1022 73 10000 1.96 299 10:28 06.03.2022
3389 Clouds 0 1022 81 10000 1.71 320 08:32 06.03.2022
3390 Clouds 0 1022 76 10000 1.71 320 07:45 06.03.2022
3391 Clouds -1 1022 77 10000 1.74 337 06:22 06.03.2022
3392 Clouds 0 1021 81 10000 2.15 8 00:55 06.03.2022
3393 Clouds 0 1021 81 10000 2.53 9 00:33 06.03.2022
3394 Clouds 0 1021 80 10000 2.73 9 23:26 05.03.2022
3395 Clouds 0 1021 80 10000 2.73 9 22:57 05.03.2022
3396 Clouds 0 1021 79 10000 2.84 10 22:23 05.03.2022
3397 Clouds 1 1020 75 10000 0.45 330 21:23 05.03.2022
3398 Clouds 1 1020 73 10000 0.89 18 19:49 05.03.2022
3399 Clouds 1 1019 74 10000 0.45 47 18:56 05.03.2022
3400 Clouds 1 1019 76 10000 0.45 300 18:27 05.03.2022
3401 Clouds 1 1018 78 10000 0.89 13 16:52 05.03.2022
3402 Clouds 1 1017 75 10000 0.89 22 15:40 05.03.2022
3403 Clouds 1 1017 71 10000 4.45 353 14:52 05.03.2022
3404 Clouds 1 1017 71 10000 4.45 353 14:33 05.03.2022
3405 Clouds 2 1017 71 10000 0.89 352 13:22 05.03.2022
3406 Clouds 1 1017 73 10000 1.34 30 11:49 05.03.2022
3407 Clouds 1 1017 73 10000 0.89 34 11:19 05.03.2022
3408 Clouds 1 1016 71 10000 0.89 33 10:20 05.03.2022
3409 Clouds 1 1016 74 10000 0.45 92 09:26 05.03.2022
3410 Clouds 0 1015 77 10000 0.45 350 07:51 05.03.2022
3411 Clouds 0 1014 79 10000 0.89 25 05:43 05.03.2022
3412 Clouds 0 1013 79 10000 0.45 336 03:49 05.03.2022
3413 Clouds 0 1013 80 10000 0.45 36 23:38 04.03.2022
3414 Clouds 0 1013 81 10000 0.89 37 22:42 04.03.2022
3415 Clouds 0 1013 81 10000 1.34 32 22:23 04.03.2022
3416 Clouds 0 1012 80 10000 1.34 346 20:57 04.03.2022
3417 Clouds 0 1012 81 10000 1.34 46 20:27 04.03.2022
3418 Clouds 0 1012 83 10000 0.89 48 19:36 04.03.2022
3419 Clouds 0 1012 82 10000 0.89 102 18:45 04.03.2022
3420 Clouds 1 1012 81 10000 1.34 44 17:48 04.03.2022
3421 Clouds 1 1012 81 10000 0.89 29 17:28 04.03.2022
3422 Clouds 3 1011 76 10000 0.45 58 15:30 04.03.2022
3423 Clouds 2 1011 79 10000 0.89 354 14:33 04.03.2022
3424 Clouds 4 1010 74 10000 0.89 3 13:26 04.03.2022
3425 Clouds 4 1011 78 10000 0.89 50 11:46 04.03.2022
3426 Clouds 3 1010 82 10000 0.89 334 10:54 04.03.2022
3427 Clouds 3 1010 84 10000 0.89 13 09:58 04.03.2022
3428 Clouds 2 1010 88 938 0.45 31 08:40 04.03.2022
3429 Clouds 1 1010 90 264 0.89 37 07:38 04.03.2022
3430 Clouds 1 1009 91 3988 0.89 52 04:31 04.03.2022
3431 Clouds 2 1009 91 10000 0.89 15 00:38 04.03.2022
3432 Clouds 2 1010 92 423 0.45 19 22:28 03.03.2022
3433 Clouds 1 1010 92 423 0.45 58 21:50 03.03.2022
3434 Clouds 2 1010 92 3293 0.45 27 21:29 03.03.2022
3435 Clouds 1 1010 92 10000 3.08 351 20:18 03.03.2022
3436 Clouds 1 1010 92 10000 0.45 70 18:55 03.03.2022
3437 Clouds 1 1010 92 10000 0.45 29 18:24 03.03.2022
3438 Clouds 1 1010 92 10000 0.45 57 17:31 03.03.2022
3439 Clouds 1 1010 92 10000 0.45 34 16:25 03.03.2022
3440 Clouds 2 1010 92 10000 0.89 349 15:24 03.03.2022
3441 Clouds 2 1010 91 10000 0.89 41 14:43 03.03.2022
3442 Clouds 2 1010 91 10000 0.45 50 14:20 03.03.2022
3443 Clouds 2 1010 91 10000 0.45 50 14:20 03.03.2022
3444 Clouds 2 1010 91 10000 0.45 50 14:20 03.03.2022
3445 Clouds 2 1010 91 10000 0.45 38 12:23 03.03.2022
3446 Clouds 1 1010 92 10000 0.45 18 10:48 03.03.2022
3447 Clouds 1 1010 92 10000 0.45 346 09:41 03.03.2022
3448 Clouds 1 1011 94 10000 0.45 350 07:50 03.03.2022
3449 Clouds 1 1011 94 10000 0.45 7 06:37 03.03.2022
3450 Clouds 0 1014 100 1302 2.22 15 03:21 03.03.2022
3451 Clouds 0 1016 100 49 2.3 39 23:39 02.03.2022
3452 Clouds 1 1014 94 49 0.45 352 22:53 02.03.2022
3453 Clouds 2 1014 94 24 0.45 15 21:35 02.03.2022
3454 Clouds 2 1015 94 24 0.45 359 20:55 02.03.2022
3455 Clouds 2 1015 94 25 0.45 332 20:24 02.03.2022
3456 Clouds 2 1016 94 25 2.77 46 19:37 02.03.2022
3457 Clouds 2 1016 94 25 2.77 46 18:54 02.03.2022
3458 Clouds 2 1016 94 22 0.45 335 18:26 02.03.2022
3459 Clouds 2 1016 94 22 0.45 8 17:36 02.03.2022
3460 Clouds 2 1017 93 22 0.45 347 16:51 02.03.2022
3461 Clouds 2 1017 92 160 0.45 349 14:59 02.03.2022
3462 Clouds 3 1018 93 8872 0.89 327 13:30 02.03.2022
3463 Clouds 2 1019 93 6773 0.89 333 12:45 02.03.2022
3464 Clouds 2 1019 93 3428 0.45 96 11:59 02.03.2022
3465 Clouds 2 1020 93 5036 0.89 72 11:25 02.03.2022
3466 Clouds 2 1020 93 10000 0.45 67 10:30 02.03.2022
3467 Clouds 2 1020 93 10000 0.45 67 10:30 02.03.2022
3468 Clouds 1 1021 93 8694 0.45 329 09:31 02.03.2022
3469 Clouds 1 1021 94 251 4.09 53 07:59 02.03.2022
3470 Clouds 0 1022 94 86 0.45 13 07:23 02.03.2022
3471 Clouds 1 1023 93 388 0.45 5 03:56 02.03.2022
3472 Clouds 1 1025 91 712 3.69 33 00:39 02.03.2022
3473 Clouds 1 1025 90 10000 0.45 51 22:53 01.03.2022
3474 Clouds 1 1025 90 10000 0.45 355 22:35 01.03.2022
3475 Clouds 1 1026 90 10000 3.3 41 21:25 01.03.2022
3476 Clouds 1 1026 89 10000 0.89 354 20:37 01.03.2022
3477 Clouds 1 1027 90 10000 0.45 339 20:18 01.03.2022
3478 Clouds 1 1026 91 10000 0.45 342 18:52 01.03.2022
3479 Clouds 1 1026 91 10000 1.34 9 18:21 01.03.2022
3480 Clouds 1 1026 90 10000 0.45 354 17:37 01.03.2022
3481 Clouds 1 1026 90 10000 0.45 20 16:35 01.03.2022
3482 Clouds 1 1026 90 10000 0.45 20 16:35 01.03.2022
3483 Clouds 1 1027 90 10000 0.45 357 15:45 01.03.2022
3484 Clouds 1 1027 90 10000 0.45 64 14:41 01.03.2022
3485 Clouds 1 1027 90 10000 0.45 8 14:23 01.03.2022
3486 Clouds 1 1027 89 10000 0.89 326 13:26 01.03.2022
3487 Clouds 1 1027 89 2516 0.89 41 12:35 01.03.2022
3488 Clouds 1 1027 90 10000 0.45 12 12:35 01.03.2022
3489 Clouds 0 1028 91 3369 0.89 23 10:38 01.03.2022
3490 Clouds 0 1028 91 2937 0.45 47 09:25 01.03.2022
3491 Clouds -1 1028 92 243 0.89 17 07:55 01.03.2022
3492 Clouds -1 1029 93 165 0.45 1 06:27 01.03.2022
3493 Clouds 0 1029 76 213 0.89 341 02:48 01.03.2022
3494 Clouds 1 1030 70 10000 0.89 346 00:40 01.03.2022
3495 Clouds 1 1030 69 10000 0.89 5 23:35 28.02.2022
3496 Clouds 1 1030 68 10000 0.89 334 22:28 28.02.2022
3497 Clouds 1 1030 67 10000 0.89 343 21:43 28.02.2022
3498 Clouds 1 1030 65 10000 0.89 15 20:32 28.02.2022
3499 Clouds 1 1030 75 10000 0.45 23 19:42 28.02.2022
3500 Clouds 2 1031 75 10000 0.89 40 18:49 28.02.2022
3501 Clouds 2 1031 65 10000 0.89 22 17:33 28.02.2022
3502 Clouds 3 1032 70 10000 5.75 22 16:54 28.02.2022
3503 Clouds 4 1031 62 10000 5.68 19 15:58 28.02.2022
3504 Clouds 6 1031 52 10000 5.64 19 14:32 28.02.2022
3505 Clouds 3 1032 36 10000 6.21 21 13:48 28.02.2022
3506 Clouds 3 1032 35 10000 6.12 22 12:53 28.02.2022
3507 Clouds 3 1032 36 10000 5.9 23 11:59 28.02.2022
3508 Clouds 3 1031 60 10000 0.89 347 11:18 28.02.2022
3509 Clouds 3 1032 61 10000 0.89 29 10:22 28.02.2022
3510 Clouds 2 1032 69 10000 0.89 0 09:41 28.02.2022
3511 Clouds 0 1032 75 10000 0.89 358 08:51 28.02.2022
3512 Clouds 0 1032 79 10000 0.89 343 07:57 28.02.2022
3513 Clouds -2 1031 91 10000 0.45 346 05:53 28.02.2022
3514 Clouds -1 1031 92 10000 3.64 34 04:30 28.02.2022
3515 Clouds -1 1031 92 10000 3.24 42 04:30 28.02.2022
3516 Clouds -1 1031 92 10000 3.24 42 04:30 28.02.2022
3517 Clouds 0 1030 88 10000 0.45 341 00:42 28.02.2022
3518 Clouds 1 1030 84 10000 0.45 75 22:38 27.02.2022
3519 Clouds 0 1030 83 10000 2.58 34 21:58 27.02.2022
3520 Clouds 1 1030 81 10000 3.2 23 21:36 27.02.2022
3521 Clouds 1 1030 78 10000 3.2 23 20:41 27.02.2022
3522 Clouds 1 1030 75 10000 3.25 11 20:18 27.02.2022
3523 Clouds 2 1030 71 10000 3.25 11 19:36 27.02.2022
3524 Clouds 2 1030 70 10000 3.03 357 19:18 27.02.2022
3525 Clouds 3 1030 63 10000 0.45 356 17:57 27.02.2022
3526 Clouds 4 1030 60 10000 2.61 340 17:34 27.02.2022
3527 Clouds 4 1029 54 10000 0.89 66 16:22 27.02.2022
3528 Clouds 2 1031 66 10000 3.29 352 14:28 27.02.2022
3529 Clouds 2 1031 72 10000 3.3 356 12:35 27.02.2022
3530 Clouds 2 1031 72 10000 3.59 357 11:46 27.02.2022
3531 Clouds 5 1030 55 10000 0.89 16 10:36 27.02.2022
3532 Clouds 5 1030 56 10000 0.89 40 09:58 27.02.2022
3533 Clouds 5 1030 60 10000 0.45 17 09:23 27.02.2022
3534 Clouds 3 1022 58 10000 0.89 350 08:44 27.02.2022
3535 Clouds 2 1022 69 10000 2.77 344 05:45 27.02.2022
3536 Clouds 2 1021 70 10000 2.27 333 03:35 27.02.2022
3537 Clouds 3 1021 61 10000 0.45 73 23:52 26.02.2022
3538 Clouds 4 1009 16 10000 2.7 354 22:42 26.02.2022
3539 Clouds 5 1020 53 10000 0.45 11 21:27 26.02.2022
3540 Clouds 5 1019 52 10000 0.45 131 20:41 26.02.2022
3541 Clouds 5 1019 53 10000 0.45 222 19:55 26.02.2022
3542 Clouds 5 1008 93 10000 3.14 350 19:33 26.02.2022
3543 Clouds 5 1007 75 10000 2.67 349 18:33 26.02.2022
3544 Clouds 6 1007 64 10000 2.98 354 17:36 26.02.2022
3545 Clouds 6 1017 45 10000 4.02 360 16:39 26.02.2022
3546 Clouds 8 1025 36 10000 6 10 15:37 26.02.2022
3547 Clouds 8 1025 39 10000 6 10 15:18 26.02.2022
3548 Clouds 8 1025 36 10000 6 10 14:41 26.02.2022
3549 Clouds 8 1025 42 10000 7 20 13:51 26.02.2022
3550 Clouds 8 1025 36 10000 5 360 12:53 26.02.2022
3551 Clouds 8 1025 39 10000 6 360 11:52 26.02.2022
3552 Clouds 6 1024 64 10000 6 360 11:25 26.02.2022
3553 Clouds 5 1021 73 10000 5 10 09:44 26.02.2022
3554 Clouds 4 1020 84 10000 3.13 360 08:28 26.02.2022
3555 Clouds 2 1017 87 10000 4.02 340 06:31 26.02.2022
3556 Clouds 2 1012 80 9000 1 240 23:52 25.02.2022
3557 Clouds 2 1010 80 7000 1 240 22:34 25.02.2022
3558 Clouds 2 1010 81 10000 0 0 21:32 25.02.2022
3559 Clouds 2 1010 80 10000 0 0 20:51 25.02.2022
3560 Clouds 2 999 93 10000 0 0 20:25 25.02.2022
3561 Clouds 2 1009 73 9000 1 210 17:57 25.02.2022
3562 Clouds 5 1010 62 10000 2 230 16:55 25.02.2022
3563 Clouds 6 1010 64 10000 3.13 230 15:55 25.02.2022
3564 Clouds 7 1010 56 10000 2 220 15:23 25.02.2022
3565 Clouds 7 1010 56 10000 2 200 14:55 25.02.2022
3566 Clouds 7 1015 57 10000 3.13 200 14:27 25.02.2022
3567 Clouds 7 1015 55 10000 3.13 170 13:30 25.02.2022
3568 Clouds 7 1016 56 10000 4.02 210 12:21 25.02.2022
3569 Clouds 5 1012 63 10000 3.13 180 11:22 25.02.2022
3570 Clouds 5 1013 73 10000 2 200 10:23 25.02.2022
3571 Clouds 4 1013 76 10000 2 160 09:46 25.02.2022
3572 Clouds 3 1013 80 10000 2 160 08:41 25.02.2022
3573 Clouds 2 1014 90 8000 2 150 07:31 25.02.2022
3574 Clouds 2 1014 87 6000 2 150 05:42 25.02.2022
3575 Clouds 2 1015 90 6000 2 170 02:46 25.02.2022
3576 Clouds 3 1017 91 7000 1 0 22:47 24.02.2022
3577 Clouds 3 1018 91 7000 1 0 21:51 24.02.2022
3578 Clouds 3 1018 91 8000 1 0 21:30 24.02.2022
3579 Clouds 3 1018 84 9000 1 150 20:47 24.02.2022
3580 Clouds 3 1018 83 10000 1 160 19:32 24.02.2022
3581 Clouds 3 1018 80 10000 2 160 18:21 24.02.2022
3582 Clouds 4 1017 75 10000 1 0 17:58 24.02.2022
3583 Clouds 4 1017 75 10000 1 200 17:33 24.02.2022
3584 Clouds 4 1017 74 10000 0 0 16:28 24.02.2022
3585 Clouds 5 1017 76 10000 1 150 15:44 24.02.2022
3586 Clouds 5 1017 72 10000 0 0 14:51 24.02.2022
3587 Clouds 5 1023 75 10000 1 0 14:19 24.02.2022
3588 Clouds 5 1017 75 10000 2 360 13:39 24.02.2022
3589 Clouds 5 1017 75 10000 2 360 13:39 24.02.2022
3590 Clouds 4 1016 88 10000 3.13 320 12:27 24.02.2022
3591 Clouds 3 1013 95 10000 2 320 10:39 24.02.2022
3592 Clouds 3 1003 33 4706 2.42 319 08:46 24.02.2022
3593 Clouds 3 1002 33 5000 2.75 314 08:22 24.02.2022
3594 Rain 2 1014 86 6000 1 280 05:50 24.02.2022
3595 Clouds 2 1012 82 10000 2 220 00:32 24.02.2022
3596 Rain 2 1011 81 7000 2 230 22:29 23.02.2022
3597 Rain 3 1011 74 10000 2 240 20:52 23.02.2022
3598 Rain 3 1011 70 10000 3.13 240 20:30 23.02.2022
3599 Rain 4 1010 67 10000 2 180 19:44 23.02.2022
3600 Rain 4 1010 64 10000 2 190 18:31 23.02.2022
3601 Rain 4 1009 62 10000 2 210 17:21 23.02.2022
3602 Clear 6 1009 54 10000 5 250 14:34 23.02.2022
3603 Clear 6 1008 49 10000 4.02 270 12:37 23.02.2022
3604 Clouds 6 1008 53 10000 5 270 11:23 23.02.2022
3605 Clouds 4 1005 55 10000 5 280 10:25 23.02.2022
3606 Clouds 3 1008 60 10000 5 290 08:56 23.02.2022
3607 Clear 2 1007 69 10000 5 280 07:57 23.02.2022
3608 Clouds 2 1004 79 10000 3.13 260 03:47 23.02.2022
3609 Clear 4 1003 66 10000 5 290 00:19 23.02.2022
3610 Clear 4 1001 79 10000 5 280 23:34 22.02.2022
3611 Clear 4 1003 64 10000 5 270 22:28 22.02.2022
3612 Clear 4 1002 61 10000 4.02 260 21:48 22.02.2022
3613 Clouds 4 1002 62 10000 5 260 21:24 22.02.2022
3614 Clouds 4 1002 62 10000 4.02 270 20:47 22.02.2022
3615 Clouds 4 1001 64 10000 4.02 270 20:28 22.02.2022
3616 Clear 4 1001 61 10000 5 270 19:34 22.02.2022
3617 Clouds 5 1001 58 10000 6 270 18:58 22.02.2022
3618 Clouds 7 1001 57 10000 6 280 17:36 22.02.2022
3619 Clouds 7 1001 57 10000 6 280 17:18 22.02.2022
3620 Clear 8 1000 58 10000 6 260 16:36 22.02.2022
3621 Clear 9 999 51 10000 6 250 15:37 22.02.2022
3622 Clear 10 1005 48 10000 7.15 250 14:42 22.02.2022
3623 Clear 10 998 45 10000 5 240 11:41 22.02.2022
3624 Clear 8 995 45 10000 4.02 250 10:24 22.02.2022
3625 Clear 4 998 80 10000 2 250 07:43 22.02.2022
3626 Clear 4 998 83 10000 2 260 07:25 22.02.2022
3627 Clouds 5 996 84 10000 3.13 220 02:51 22.02.2022
3628 Rain 5 994 81 10000 5 260 00:44 22.02.2022
3629 Rain 7 995 63 10000 4.02 230 22:38 21.02.2022
3630 Rain 8 995 57 10000 6 220 21:24 21.02.2022
3631 Clear 8 995 55 10000 5 210 19:36 21.02.2022
3632 Clear 8 995 54 10000 0.89 137 18:39 21.02.2022
3633 Clear 8 995 60 10000 5 210 16:40 21.02.2022
3634 Clear 8 996 48 10000 6 220 14:24 21.02.2022
3635 Clear 8 996 48 10000 6 220 13:55 21.02.2022
3636 Clear 7 997 56 10000 6 210 12:57 21.02.2022
3637 Clear 7 997 54 10000 6 210 12:21 21.02.2022
3638 Clear 6 996 53 10000 7.15 220 10:32 21.02.2022
3639 Clouds 3 997 69 10000 5 210 07:52 21.02.2022
3640 Clouds 4 1000 62 10000 5 250 00:36 21.02.2022
3641 Clear 4 1002 60 10000 4.02 230 22:39 20.02.2022
3642 Clear 4 1002 59 10000 5 230 21:51 20.02.2022
3643 Clear 4 1002 56 10000 4.02 230 21:25 20.02.2022
3644 Clear 4 1003 56 10000 4.02 230 20:45 20.02.2022
3645 Clear 3 1003 56 10000 4.02 220 19:59 20.02.2022
3646 Clear 3 1004 57 10000 3.13 210 18:57 20.02.2022
3647 Clear 4 1004 54 10000 3.13 220 18:37 20.02.2022
3648 Clear 4 1004 52 10000 3.13 220 17:56 20.02.2022
3649 Clear 5 1010 51 10000 5 240 17:24 20.02.2022
3650 Clear 6 1005 56 10000 6 250 15:29 20.02.2022
3651 Clear 7 1005 56 10000 7.15 240 14:20 20.02.2022
3652 Clouds 7 1012 52 10000 6 250 12:49 20.02.2022
3653 Clouds 7 1006 55 10000 7.15 260 11:56 20.02.2022
3654 Clear 6 1003 60 10000 7.15 270 10:21 20.02.2022
3655 Clear 6 1006 63 10000 7.15 270 09:51 20.02.2022
3656 Clear 2 1006 71 10000 5 260 06:30 20.02.2022
3657 Clear 4 1003 59 10000 8.05 260 00:33 20.02.2022
3658 Clear 5 1002 58 10000 7.15 260 23:39 19.02.2022
3659 Clear 6 1002 54 10000 10 270 22:25 19.02.2022
3660 Clear 6 1002 53 10000 9 260 21:52 19.02.2022
3661 Clear 6 1001 55 10000 8 250 20:45 19.02.2022
3662 Clear 6 1000 58 10000 8.05 250 19:36 19.02.2022
3663 Clear 6 1000 62 10000 5 240 18:41 19.02.2022
3664 Clear 6 999 68 10000 5 240 17:59 19.02.2022
3665 Clear 6 999 70 10000 4.02 230 17:32 19.02.2022
3666 Clear 8 998 63 10000 7.15 230 15:59 19.02.2022
3667 Rain 8 1004 62 10000 7.15 230 14:55 19.02.2022
3668 Rain 7 1004 66 10000 6 230 13:58 19.02.2022
3669 Rain 5 998 67 10000 6 230 11:58 19.02.2022
3670 Clear 5 998 60 10000 6 220 11:24 19.02.2022
3671 Rain 4 998 60 10000 7.15 200 09:00 19.02.2022
3672 Rain 3 999 70 10000 7 210 06:48 19.02.2022
3673 Clear 0 1003 85 10000 3.13 220 00:50 19.02.2022
3674 Clear 1 1003 82 10000 2 220 22:33 18.02.2022
3675 Clear 2 1003 82 10000 4.02 250 21:26 18.02.2022
3676 Clear 2 1003 82 10000 4.02 250 20:24 18.02.2022
3677 Clear 2 1002 82 10000 4.02 250 19:50 18.02.2022
3678 Clear 3 1001 82 10000 3.13 250 18:37 18.02.2022
3679 Clear 3 1001 82 10000 3.13 250 18:18 18.02.2022
3680 Clouds 4 1000 80 10000 4.02 280 17:18 18.02.2022
3681 Clouds 6 998 74 10000 5 290 14:19 18.02.2022
3682 Clouds 6 997 76 10000 6 270 13:45 18.02.2022
3683 Clouds 6 997 71 10000 0.89 242 12:48 18.02.2022
3684 Clouds 6 995 80 10000 6 290 11:57 18.02.2022
3685 Clouds 5 995 73 10000 6 270 10:42 18.02.2022
3686 Clouds 2 991 81 10000 4.02 280 07:21 18.02.2022
3687 Clear 2 989 85 10000 5 290 05:52 18.02.2022
3688 Clear 2 989 85 10000 6 290 05:34 18.02.2022
3689 Clouds 5 984 80 10000 5 240 21:59 17.02.2022
3690 Clouds 5 984 78 10000 6 240 21:38 17.02.2022
3691 Clear 6 984 81 10000 6 240 20:43 17.02.2022
3692 Clear 6 983 80 10000 6 240 19:55 17.02.2022
3693 Clouds 6 983 79 10000 0.45 249 19:22 17.02.2022
3694 Rain 6 982 80 10000 6 230 18:29 17.02.2022
3695 Rain 6 984 83 10000 5 220 17:30 17.02.2022
3696 Rain 5 985 87 9000 7.15 210 15:51 17.02.2022
3697 Rain 5 986 86 9000 6 200 14:29 17.02.2022
3698 Rain 6 987 78 10000 0.89 157 13:30 17.02.2022
3699 Rain 7 989 74 10000 5 200 11:48 17.02.2022
3700 Clouds 5 991 89 7000 5 190 09:58 17.02.2022
3701 Mist 3 995 90 3300 0.45 231 06:44 17.02.2022
3702 Mist 1 1003 91 2900 3.13 190 23:23 16.02.2022
3703 Mist 1 1003 91 3600 3.13 200 22:28 16.02.2022
3704 Mist 1 1006 90 4400 4.02 210 20:22 16.02.2022
3705 Mist 1 1006 90 4800 3.13 180 18:56 16.02.2022
3706 Mist 1 1007 87 5000 3.13 210 17:56 16.02.2022
3707 Mist 1 1007 86 5000 2 170 16:44 16.02.2022
3708 Clouds 2 1008 82 9000 2 200 15:21 16.02.2022
3709 Clouds 2 1009 81 9000 3.13 200 13:40 16.02.2022
3710 Clouds 1 1007 82 10000 4.02 210 12:24 16.02.2022
3711 Clouds 1 1010 84 10000 2 210 11:45 16.02.2022
3712 Clouds 1 1011 82 10000 2 180 10:34 16.02.2022
3713 Clouds 1 1011 83 10000 2 180 09:34 16.02.2022
3714 Clouds 0 1011 84 10000 2 170 06:43 16.02.2022
3715 Clouds -1 1014 80 10000 2 160 00:37 16.02.2022
3716 Clouds 1 1015 73 10000 2 170 22:34 15.02.2022
3717 Clouds 1 1015 73 10000 3.13 180 21:50 15.02.2022
3718 Clouds 1 1013 70 10000 4.02 190 21:29 15.02.2022
3719 Clouds 2 1015 70 10000 3.13 180 20:57 15.02.2022
3720 Clouds 2 1015 73 10000 3.13 180 20:19 15.02.2022
3721 Clouds 1 1015 73 10000 3.13 170 19:33 15.02.2022
3722 Clear 2 1015 67 10000 2 140 18:24 15.02.2022
3723 Clear 2 1015 66 10000 2 140 17:52 15.02.2022
3724 Clear 3 1014 66 10000 2 140 17:26 15.02.2022
3725 Clear 4 1021 58 10000 3.13 170 15:36 15.02.2022
3726 Clear 5 1021 59 10000 4.02 170 13:49 15.02.2022
3727 Clear 5 1022 57 10000 4.02 170 13:25 15.02.2022
3728 Clear 5 1014 53 10000 4.02 170 11:41 15.02.2022
3729 Clear 5 1014 53 10000 4.02 170 11:41 15.02.2022
3730 Clear 3 1016 65 10000 3.13 170 09:54 15.02.2022
3731 Clear -3 1015 84 10000 3.13 140 07:00 15.02.2022
3732 Clear -3 1015 84 10000 3.13 150 06:36 15.02.2022
3733 Clear -1 1017 69 10000 2 180 23:34 14.02.2022
3734 Clear -1 1018 68 10000 2 170 21:55 14.02.2022
3735 Clear -1 1018 68 10000 2 190 20:51 14.02.2022
3736 Clear 0 1016 66 10000 3.13 170 19:46 14.02.2022
3737 Clear 0 1016 65 10000 3.13 170 19:26 14.02.2022
3738 Clear 1 1018 64 10000 4.02 190 18:23 14.02.2022
3739 Clear 1 1017 57 10000 3.13 190 17:27 14.02.2022
3740 Clear 2 1016 56 10000 4.02 200 16:26 14.02.2022
3741 Clear 4 1024 50 10000 5.81 210 14:42 14.02.2022
3742 Clear 5 1024 56 10000 6 230 13:34 14.02.2022
3743 Clear 5 1024 58 10000 6 210 12:56 14.02.2022
3744 Clear 3 1015 59 10000 6 220 11:55 14.02.2022
3745 Clear 3 1018 65 10000 5 230 11:18 14.02.2022
3746 Clear 1 1015 74 10000 5 220 09:19 14.02.2022
3747 Clear -2 1018 90 10000 3.13 220 07:33 14.02.2022
3748 Clear -2 1018 91 10000 3.13 220 07:33 14.02.2022
3749 Clear -2 1019 79 10000 3.13 220 06:32 14.02.2022
3750 Clear -1 1021 82 10000 4.02 200 22:43 13.02.2022
3751 Clear -1 1021 82 10000 4.02 200 22:25 13.02.2022
3752 Clear -1 1021 81 10000 4.02 190 21:48 13.02.2022
3753 Clear -1 1021 80 10000 4.02 200 20:42 13.02.2022
3754 Clear -1 1022 80 10000 4.02 190 19:51 13.02.2022
3755 Clear 0 1022 77 10000 4.02 190 18:56 13.02.2022
3756 Clear 0 1023 77 10000 3.13 190 18:38 13.02.2022
3757 Clear 1 1023 68 10000 3.13 220 16:39 13.02.2022
3758 Clouds 2 1030 64 10000 5 220 15:42 13.02.2022
3759 Clouds 3 1024 61 10000 6 220 14:37 13.02.2022
3760 Clouds 5 1025 63 10000 5 230 12:52 13.02.2022
3761 Clouds 3 1032 65 10000 5 220 12:33 13.02.2022
3762 Clear 1 1023 74 10000 4.02 240 10:38 13.02.2022
3763 Clear 1 1026 74 10000 5 240 09:49 13.02.2022
3764 Clear -2 1027 94 10000 3.13 230 07:54 13.02.2022
3765 Clear -2 1028 82 10000 3.13 240 00:49 13.02.2022
3766 Clear -2 1026 81 10000 3.13 270 00:20 13.02.2022
3767 Clear -2 1025 84 10000 3.13 270 22:34 12.02.2022
3768 Clear -2 1024 84 10000 4.02 280 21:40 12.02.2022
3769 Clear -2 1024 84 10000 4.02 260 20:55 12.02.2022
3770 Clear -2 1023 84 10000 3.13 290 19:56 12.02.2022
3771 Clear 0 1025 80 10000 4.02 300 18:54 12.02.2022
3772 Clear 0 1025 80 10000 4.02 300 18:54 12.02.2022
3773 Clear 0 1022 77 10000 3.13 310 18:35 12.02.2022
3774 Clouds 1 1024 79 10000 5 300 17:38 12.02.2022
3775 Clouds 1 1021 79 10000 5 300 16:44 12.02.2022
3776 Clouds 2 1022 77 10000 7.15 310 15:52 12.02.2022
3777 Clouds 2 1028 77 10000 7.15 300 15:20 12.02.2022
3778 Clouds 2 1021 83 8000 4.02 290 14:25 12.02.2022
3779 Clouds 2 1019 82 10000 7.15 310 11:26 12.02.2022
3780 Rain 1 1018 85 10000 7.15 320 10:29 12.02.2022
3781 Clouds 1 1014 85 10000 5 310 09:36 12.02.2022
3782 Clouds 0 1014 89 7000 4.92 320 08:46 12.02.2022
3783 Mist 0 1011 90 5000 3.13 330 06:52 12.02.2022
3784 Mist 0 1010 92 5000 6 10 04:44 12.02.2022
3785 Clouds 0 1015 93 2000 2 80 02:19 12.02.2022
3786 Rain 2 1011 79 10000 2 140 23:20 11.02.2022
3787 Clear 2 1011 81 10000 2 140 22:20 11.02.2022
3788 Snow 2 1011 84 6000 1 0 21:18 11.02.2022
3789 Snow 2 1011 84 7000 1 130 20:26 11.02.2022
3790 Clear 2 1010 82 10000 0 0 19:28 11.02.2022
3791 Clouds 3 1011 80 10000 1 310 18:29 11.02.2022
3792 Clear 3 1011 75 10000 1 0 17:26 11.02.2022
3793 Clouds 5 1010 73 10000 4.02 330 16:37 11.02.2022
3794 Clouds 7 1015 68 10000 5 300 15:18 11.02.2022
3795 Clouds 7 1015 70 10000 5 300 14:37 11.02.2022
3796 Clouds 7 1015 70 10000 5 300 14:19 11.02.2022
3797 Clouds 6 1009 76 10000 7 310 13:40 11.02.2022
3798 Clouds 6 1007 77 10000 5 290 12:45 11.02.2022
3799 Clouds 6 1008 78 10000 4.02 270 10:49 11.02.2022
3800 Rain 5 1006 75 10000 7.15 260 09:31 11.02.2022
3801 Rain 5 1005 73 10000 5 240 08:31 11.02.2022
3802 Rain 4 1006 80 10000 4.02 240 07:40 11.02.2022
3803 Clouds 3 1015 87 9000 4.02 230 02:40 11.02.2022
3804 Clouds 3 1016 89 9000 3.13 230 02:20 11.02.2022
3805 Clouds 3 1009 89 7000 1 250 23:41 10.02.2022
3806 Mist 2 1011 88 5000 3.13 240 21:55 10.02.2022
3807 Clouds 2 1011 91 6000 3.13 240 21:35 10.02.2022
3808 Clouds 3 1011 87 7000 3.13 240 20:48 10.02.2022
3809 Clouds 3 1012 87 9000 5 250 19:49 10.02.2022
3810 Clear 3 1012 87 10000 4.02 240 19:20 10.02.2022
3811 Clear 4 1012 85 10000 4.02 250 17:43 10.02.2022
3812 Clouds 4 1010 85 10000 4.02 260 17:20 10.02.2022
3813 Clouds 4 1012 86 10000 4.02 250 16:30 10.02.2022
3814 Clouds 5 1017 80 10000 4.02 270 15:37 10.02.2022
3815 Clouds 6 1010 76 10000 4.02 260 15:18 10.02.2022
3816 Clouds 5 1009 82 10000 4.02 260 14:33 10.02.2022
3817 Clouds 6 1011 82 10000 0.89 253 13:33 10.02.2022
3818 Clouds 6 1009 78 10000 5 270 12:53 10.02.2022
3819 Clouds 6 1009 79 10000 6 270 11:48 10.02.2022
3820 Clouds 6 1009 79 10000 6 270 11:28 10.02.2022
3821 Clouds 5 1010 82 10000 6 270 10:21 10.02.2022
3822 Clouds 5 1007 80 10000 6 270 09:27 10.02.2022
3823 Clouds 4 1009 85 10000 6 260 07:57 10.02.2022
3824 Clouds 4 1010 90 4700 5 260 05:53 10.02.2022
3825 Clouds 2 1011 86 8000 4.02 240 01:58 10.02.2022
3826 Rain 2 1011 82 10000 4.02 250 00:51 10.02.2022
3827 Rain 2 1011 82 10000 4.02 250 00:29 10.02.2022
3828 Rain 2 1012 78 10000 3.13 240 23:28 09.02.2022
3829 Clouds 2 1012 75 10000 4.02 260 22:38 09.02.2022
3830 Clouds 2 1012 74 10000 3.13 250 21:56 09.02.2022
3831 Clouds 2 1013 77 10000 2 250 21:32 09.02.2022
3832 Clear 2 1012 73 10000 4 270 20:53 09.02.2022
3833 Clear 2 1012 72 10000 4.02 270 20:31 09.02.2022
3834 Clouds 3 1012 72 10000 4.02 290 19:59 09.02.2022
3835 Clouds 3 1012 72 10000 5 290 19:38 09.02.2022
3836 Clear 3 1010 72 10000 5 300 17:39 09.02.2022
3837 Clear 3 1009 71 10000 6 300 16:53 09.02.2022
3838 Clouds 4 1016 65 10000 7 300 15:54 09.02.2022
3839 Clouds 5 1015 65 10000 9 310 14:42 09.02.2022
3840 Clouds 4 1015 75 10000 7.15 310 12:30 09.02.2022
3841 Clouds 3 1004 80 10000 7.15 310 11:19 09.02.2022
3842 Clouds 3 1004 91 10000 7.15 300 10:30 09.02.2022
3843 Clouds 3 1005 79 10000 6 300 09:40 09.02.2022
3844 Clouds 3 1007 78 10000 6 300 09:19 09.02.2022
3845 Clouds 2 1006 86 10000 5 290 07:55 09.02.2022
3846 Clouds 1 1005 86 6000 4.02 270 05:30 09.02.2022
3847 Clouds 1 1005 86 6000 4.02 270 05:30 09.02.2022
3848 Snow 0 1003 87 10000 3.13 250 03:50 09.02.2022
3849 Snow 0 1001 90 10000 3.13 250 00:53 09.02.2022
3850 Clouds 0 1006 81 10000 4.02 260 23:34 08.02.2022
3851 Clear 0 1004 79 10000 4.02 260 22:50 08.02.2022
3852 Clouds 1 1006 78 10000 4.02 260 22:22 08.02.2022
3853 Snow 1 1005 75 10000 4.02 260 21:49 08.02.2022
3854 Clouds 1 1005 75 10000 4.02 260 21:21 08.02.2022
3855 Clouds 1 1005 71 10000 3.13 260 20:45 08.02.2022
3856 Clouds 1 1006 68 10000 4.02 270 19:46 08.02.2022
3857 Clouds 1 1006 67 10000 3.13 280 18:48 08.02.2022
3858 Clouds 1 1006 67 10000 4 290 17:43 08.02.2022
3859 Clouds 1 1008 68 10000 6 310 16:30 08.02.2022
3860 Clouds 2 1005 61 10000 6 300 15:30 08.02.2022
3861 Clouds 2 1003 72 10000 6 320 14:38 08.02.2022
3862 Clouds 2 1003 72 10000 6 320 13:24 08.02.2022
3863 Clouds 2 1007 66 10000 6 340 11:38 08.02.2022
3864 Clouds 2 1006 70 10000 5 320 10:23 08.02.2022
3865 Clouds 1 1006 74 10000 5 320 09:45 08.02.2022
3866 Snow 1 1002 80 10000 4.02 340 07:53 08.02.2022
3867 Snow 1 1000 80 10000 5 340 05:41 08.02.2022
3868 Snow 1 999 84 10000 4.02 330 04:39 08.02.2022
3869 Snow 1 999 84 10000 4.02 330 04:21 08.02.2022
3870 Snow 1 998 84 10000 4.02 330 03:36 08.02.2022
3871 Snow 1 998 84 10000 4.02 330 03:18 08.02.2022
3872 Snow 1 998 84 10000 3.13 340 02:59 08.02.2022
3873 Rain 1 998 84 9000 4.02 350 02:36 08.02.2022
3874 Rain 1 997 84 9000 4.02 350 02:18 08.02.2022
3875 Clouds 1 999 87 9000 4.92 350 01:44 08.02.2022
3876 Rain 2 999 87 8000 0.89 47 01:24 08.02.2022
3877 Rain 2 998 87 8000 4.02 350 00:54 08.02.2022
3878 Rain 1 996 88 4800 2 290 23:55 07.02.2022
3879 Mist 1 995 88 4800 1 270 23:37 07.02.2022
3880 Mist 2 997 86 5000 0 0 23:18 07.02.2022
3881 Mist 1 996 90 5000 0.89 270 22:19 07.02.2022
3882 Mist 1 1002 90 5000 0 0 21:55 07.02.2022
3883 Mist 1 1002 90 5000 1 230 21:29 07.02.2022
3884 Snow 1 1002 89 6000 0 0 20:56 07.02.2022
3885 Snow 1 1002 86 6000 0 0 20:38 07.02.2022
3886 Snow 1 996 86 7000 1 290 19:49 07.02.2022
3887 Snow 1 1001 86 7000 1 290 19:31 07.02.2022
3888 Clouds 2 995 83 10000 2 210 17:52 07.02.2022
3889 Clear 2 994 83 10000 2 220 16:52 07.02.2022
3890 Clear 3 994 78 10000 2 220 15:49 07.02.2022
3891 Clear 4 999 73 10000 4.02 210 14:48 07.02.2022
3892 Rain 3 998 72 10000 3.13 200 13:28 07.02.2022
3893 Rain 3 991 63 10000 4.02 220 12:42 07.02.2022
3894 Rain 3 991 71 10000 4.02 220 11:57 07.02.2022
3895 Rain 3 991 72 10000 4.02 200 11:34 07.02.2022
3896 Rain 2 993 82 10000 0.45 121 10:49 07.02.2022
3897 Rain 2 991 80 10000 4.02 190 10:29 07.02.2022
3898 Rain 1 991 81 10000 4.02 190 09:53 07.02.2022
3899 Snow 2 994 84 9000 4.02 210 09:18 07.02.2022
3900 Snow 2 994 84 10000 0.45 233 08:24 07.02.2022
3901 Snow 1 992 80 10000 3.13 200 06:52 07.02.2022
3902 Snow 1 992 72 10000 4.92 200 06:33 07.02.2022
3903 Clouds 1 1002 83 10000 4 200 02:56 07.02.2022
3904 Clouds 2 1005 75 10000 5 220 00:42 07.02.2022
3905 Clouds 1 1005 83 10000 4 220 23:42 06.02.2022
3906 Clouds 1 1006 68 10000 4 220 22:47 06.02.2022
3907 Clouds 1 1006 68 10000 4 220 21:51 06.02.2022
3908 Clouds 2 1000 68 10000 4.02 210 21:26 06.02.2022
3909 Clouds 2 1000 68 10000 4.02 220 20:52 06.02.2022
3910 Clouds 2 1008 68 10000 4.92 220 20:28 06.02.2022
3911 Clouds 2 1001 58 10000 4.02 220 19:32 06.02.2022
3912 Clouds 2 1001 68 10000 4.02 220 18:38 06.02.2022
3913 Clouds 2 1002 68 10000 4.02 240 17:54 06.02.2022
3914 Clear 2 1002 69 10000 5.81 250 16:53 06.02.2022
3915 Clear 2 1002 68 10000 4.92 250 16:32 06.02.2022
3916 Clear 3 999 66 10000 6 240 15:47 06.02.2022
3917 Clear 3 1010 64 10000 5.81 240 15:26 06.02.2022
3918 Clouds 3 1004 72 10000 0.45 257 14:27 06.02.2022
3919 Snow 3 1005 76 8000 1.34 284 13:24 06.02.2022
3920 Rain 3 1001 79 10000 5.81 250 12:45 06.02.2022
3921 Rain 2 1003 71 10000 5.81 260 11:19 06.02.2022
3922 Clear 2 1006 77 10000 0.45 231 09:48 06.02.2022
3923 Clear 1 1005 90 10000 0.89 221 08:47 06.02.2022
3924 Clear 1 1006 80 10000 0.89 213 07:36 06.02.2022
3925 Clear 1 1005 80 10000 0.45 237 05:29 06.02.2022
3926 Clear 1 1005 79 10000 0.89 256 02:26 06.02.2022
3927 Clear 1 1005 79 10000 0.45 264 01:20 06.02.2022
3928 Clear 0 1003 80 10000 4.92 260 00:24 06.02.2022
3929 Clear 0 1003 82 10000 4.92 270 22:18 05.02.2022
3930 Clouds 1 1002 81 10000 4.92 270 20:48 05.02.2022
3931 Clouds 1 1004 84 10000 5.81 270 20:23 05.02.2022
3932 Clear 1 1002 84 10000 4.92 260 19:44 05.02.2022
3933 Clouds 1 1003 88 8000 0.45 250 18:48 05.02.2022
3934 Snow 0 1001 78 4500 4.02 240 17:37 05.02.2022
3935 Snow 0 1001 73 8000 4.92 220 16:33 05.02.2022
3936 Snow 0 1003 74 10000 0.89 151 15:31 05.02.2022
3937 Snow 0 1003 74 10000 0.89 243 13:58 05.02.2022
3938 Snow -1 1002 73 6000 4.02 200 12:46 05.02.2022
3939 Snow -1 1002 73 6000 4.02 200 12:46 05.02.2022
3940 Snow -1 1005 74 10000 0.45 267 11:47 05.02.2022
3941 Snow -2 1005 77 10000 0.45 194 10:46 05.02.2022
3942 Snow -3 1006 78 10000 3.13 170 09:51 05.02.2022
3943 Snow -3 1006 78 5000 0.45 118 09:23 05.02.2022
3944 Clouds -4 1007 75 10000 0.45 106 07:32 05.02.2022
3945 Clouds -4 1007 72 10000 0.45 358 06:55 05.02.2022
3946 Clear -6 1015 86 10000 1 0 02:43 05.02.2022
3947 Clouds -9 1015 90 8000 0 0 01:18 05.02.2022
3948 Mist -10 1015 94 5000 0 0 00:36 05.02.2022
3949 Mist -11 1015 92 4200 0.89 130 23:33 04.02.2022
3950 Mist -11 1016 92 4600 0.89 0 22:50 04.02.2022
3951 Mist -10 1016 85 4500 0.89 250 21:36 04.02.2022
3952 Mist -10 1016 92 4300 0.89 220 21:18 04.02.2022
3953 Mist -9 1016 85 4600 0.89 220 20:40 04.02.2022
3954 Smoke -9 1016 85 5000 0 0 19:29 04.02.2022
3955 Clear -5 1016 63 10000 2 330 16:50 04.02.2022
3956 Clear -2 1015 54 10000 3 320 15:33 04.02.2022
3957 Clear -2 1015 54 10000 4 330 14:51 04.02.2022
3958 Clear -3 1016 58 10000 3.13 330 12:43 04.02.2022
3959 Clear -3 1016 58 10000 4.02 310 11:46 04.02.2022
3960 Clear -4 1006 68 10000 3.13 320 10:59 04.02.2022
3961 Clear -5 1016 73 10000 3.13 310 10:22 04.02.2022
3962 Clear -8 1006 85 10000 3.13 300 08:31 04.02.2022
3963 Clear -8 1006 85 10000 3.13 290 04:45 04.02.2022
3964 Clouds -6 1015 85 10000 4.02 300 02:38 04.02.2022
3965 Clouds -4 1009 71 10000 0.89 227 23:56 03.02.2022
3966 Clouds -4 1009 70 10000 4.92 310 22:52 03.02.2022
3967 Snow -3 1009 68 10000 0.45 126 21:58 03.02.2022
3968 Snow -3 1009 69 10000 0.45 71 21:37 03.02.2022
3969 Clouds -3 1009 71 10000 0.45 125 20:22 03.02.2022
3970 Clouds -3 1009 72 10000 0.45 41 19:46 03.02.2022
3971 Clouds -3 1009 73 10000 0.89 235 19:20 03.02.2022
3972 Clouds -3 1008 77 10000 1.34 220 17:59 03.02.2022
3973 Clouds -2 1006 86 10000 0.89 113 17:19 03.02.2022
3974 Clouds -1 1006 78 10000 1.34 230 15:34 03.02.2022
3975 Snow -1 1003 82 9000 4.92 310 13:50 03.02.2022
3976 Snow 0 1004 81 9000 0.45 115 12:22 03.02.2022
3977 Snow 1 1008 84 10000 4.02 270 08:56 03.02.2022
3978 Clouds 1 1001 87 9000 0.45 262 07:43 03.02.2022
3979 Clouds 0 997 75 10000 1.79 180 00:49 03.02.2022
3980 Clouds 0 1004 86 10000 3 200 00:22 03.02.2022
3981 Clouds 0 1003 89 10000 3 190 22:39 02.02.2022
3982 Clouds 0 1003 89 10000 4 200 21:46 02.02.2022
3983 Clouds 0 1003 89 10000 4 200 21:28 02.02.2022
3984 Snow 0 997 83 10000 4.02 190 20:27 02.02.2022
3985 Snow 0 997 83 10000 4.02 180 19:46 02.02.2022
3986 Clear 0 997 80 10000 4.02 170 18:56 02.02.2022
3987 Clear 0 997 80 10000 3.13 170 18:24 02.02.2022
3988 Clear 0 995 77 10000 4.02 170 17:20 02.02.2022
3989 Snow 0 995 77 10000 4.02 170 16:56 02.02.2022
3990 Snow 1 996 74 10000 3.13 170 15:23 02.02.2022
3991 Clouds 1 1002 63 10000 4.02 170 12:30 02.02.2022
3992 Clouds 1 997 65 10000 0.45 228 11:48 02.02.2022
3993 Clouds 0 1003 63 10000 3.13 170 11:30 02.02.2022
3994 Clouds 0 1003 52 10000 3.13 170 11:30 02.02.2022
3995 Clear -3 1004 71 10000 3.13 180 08:30 02.02.2022
3996 Clear -4 1005 71 10000 3.13 220 01:46 02.02.2022
3997 Clear -3 1006 63 10000 3 220 22:29 01.02.2022
3998 Clear -2 1006 59 10000 2 240 20:51 01.02.2022
3999 Snow -1 1006 55 10000 3 240 19:23 01.02.2022
4000 Snow -1 1007 59 10000 3 240 16:57 01.02.2022
4001 Snow -1 1006 59 10000 4 250 16:19 01.02.2022
4002 Clear -1 1005 73 10000 5.81 260 12:57 01.02.2022
4003 Clouds -1 995 81 10000 4.92 250 11:57 01.02.2022
4004 Clear -2 995 86 10000 4.02 260 08:51 01.02.2022
4005 Clouds -1 1001 74 10000 6 260 02:20 01.02.2022
4006 Clear -1 1000 80 10000 6 250 23:37 31.01.2022
4007 Snow -1 990 90 10000 8.05 260 22:33 31.01.2022
4008 Clear -1 989 74 10000 7 260 21:34 31.01.2022
4009 Clouds 0 993 74 10000 0.89 243 20:34 31.01.2022
4010 Clouds 0 993 74 10000 0.89 231 19:52 31.01.2022
4011 Snow 0 992 70 10000 0.45 221 18:31 31.01.2022
4012 Clouds 0 992 70 10000 0.89 254 17:55 31.01.2022
4013 Clouds 0 990 75 10000 0.89 256 16:58 31.01.2022
4014 Snow 0 991 75 10000 0.45 159 16:21 31.01.2022
4015 Snow -1 988 78 9000 5.81 280 14:50 31.01.2022
4016 Clouds 0 988 75 9000 1.34 274 13:29 31.01.2022
4017 Snow 0 986 74 10000 8.94 280 12:37 31.01.2022
4018 Clouds 0 987 77 10000 0.89 241 10:59 31.01.2022
4019 Snow 0 986 67 10000 8.05 280 10:38 31.01.2022
4020 Clouds 0 985 73 5000 8.05 270 09:36 31.01.2022
4021 Snow 0 984 72 9000 8.94 280 08:54 31.01.2022
4022 Clouds -1 984 83 7000 7.15 270 08:20 31.01.2022
4023 Snow 0 985 85 8000 0.89 328 07:29 31.01.2022
4024 Snow 0 983 84 9000 8.05 270 05:24 31.01.2022
4025 Clouds 1 984 87 10000 0.89 234 00:23 31.01.2022
4026 Snow 0 983 88 8000 4.92 230 22:33 30.01.2022
4027 Snow 0 983 85 4300 4.02 220 21:45 30.01.2022
4028 Snow 1 983 84 9000 4.02 230 21:24 30.01.2022
4029 Clouds 1 985 85 10000 4.92 240 20:51 30.01.2022
4030 Clouds 1 985 86 10000 4.92 240 20:30 30.01.2022
4031 Clouds 1 985 86 10000 5.81 250 19:55 30.01.2022
4032 Snow 1 986 86 6000 0.45 230 18:51 30.01.2022
4033 Clouds 2 992 78 10000 0.45 229 18:22 30.01.2022
4034 Clouds 2 984 73 10000 4.02 220 17:30 30.01.2022
4035 Clear 2 986 77 10000 0.45 185 16:42 30.01.2022
4036 Clear 2 986 77 10000 4.92 240 16:22 30.01.2022
4037 Clear 3 986 76 10000 0.45 139 15:54 30.01.2022
4038 Clear 3 986 76 10000 0.45 139 15:54 30.01.2022
4039 Clouds 3 987 79 10000 0.45 142 15:32 30.01.2022
4040 Clouds 3 987 78 10000 5.81 250 14:47 30.01.2022
4041 Clouds 4 987 75 10000 0.45 212 13:37 30.01.2022
4042 Clouds 4 987 78 10000 0.45 212 12:41 30.01.2022
4043 Clouds 1 988 86 10000 0.45 221 10:38 30.01.2022
4044 Snow 1 988 84 10000 0.45 140 09:57 30.01.2022
4045 Clouds 0 988 81 10000 0.45 269 09:21 30.01.2022
4046 Snow -2 989 85 900 0.89 58 07:57 30.01.2022
4047 Snow -2 997 73 10000 0.89 241 02:44 30.01.2022
4048 Snow -2 999 74 10000 0.89 228 01:52 30.01.2022
4049 Clear -3 1002 73 10000 0.89 197 23:45 29.01.2022
4050 Clouds -3 1004 73 10000 0.89 210 22:48 29.01.2022
4051 Clouds -2 1006 71 10000 3.13 240 21:28 29.01.2022
4052 Clouds -2 1006 71 10000 3.13 240 20:50 29.01.2022
4053 Clouds -1 1003 78 10000 4.92 270 19:47 29.01.2022
4054 Clouds -1 1003 78 10000 4.92 270 19:29 29.01.2022
4055 Clouds -1 1008 73 10000 1.34 257 18:39 29.01.2022
4056 Clouds -1 1006 68 10000 4.92 280 17:42 29.01.2022
4057 Clouds 0 1008 68 10000 0.45 252 16:43 29.01.2022
4058 Snow 0 1007 74 10000 0.45 31 15:20 29.01.2022
4059 Clouds 0 1005 74 10000 7.15 300 13:47 29.01.2022
4060 Clouds 0 1005 75 10000 7.15 300 13:26 29.01.2022
4061 Clouds 0 1005 75 10000 8.05 300 12:42 29.01.2022
4062 Snow 0 1006 81 9000 0.89 288 11:38 29.01.2022
4063 Snow 0 1006 78 9000 0.89 242 10:25 29.01.2022
4064 Clouds 0 1004 86 2500 0.89 316 07:24 29.01.2022
4065 Clouds 1 999 86 9000 1.34 206 01:37 29.01.2022
4066 Clouds 0 996 84 10000 5.81 290 00:31 29.01.2022
4067 Clouds 0 996 84 10000 5.81 290 00:31 29.01.2022
4068 Snow 0 996 88 8000 7.15 280 23:22 28.01.2022
4069 Snow 1 997 90 7000 0.45 189 22:42 28.01.2022
4070 Snow 0 995 88 7000 4.92 270 22:18 28.01.2022
4071 Snow 1 996 89 9000 0.45 248 20:40 28.01.2022
4072 Snow 1 996 89 9000 0.45 210 19:51 28.01.2022
4073 Rain 1 994 84 6000 3.13 230 18:49 28.01.2022
4074 Clouds 1 994 84 10000 4.02 230 17:46 28.01.2022
4075 Snow 1 996 86 10000 0.45 84 15:45 28.01.2022
4076 Clouds 3 995 71 10000 5.81 250 14:18 28.01.2022
4077 Clouds 3 995 78 10000 4.92 230 12:35 28.01.2022
4078 Snow 2 996 79 10000 4.02 230 11:38 28.01.2022
4079 Snow 1 997 83 9000 4.92 240 10:22 28.01.2022
4080 Clouds 1 997 84 10000 4.02 230 09:45 28.01.2022
4081 Clouds 1 999 87 10000 0.45 183 07:40 28.01.2022
4082 Clouds 0 997 88 7000 4.92 230 05:24 28.01.2022
4083 Clouds 0 1000 90 5000 0.45 254 03:47 28.01.2022
4084 Snow 0 1001 86 6000 0.45 300 02:23 28.01.2022
4085 Clouds 0 1002 87 8000 0.89 177 01:34 28.01.2022
4086 Snow 1 1003 84 9000 4.92 230 23:33 27.01.2022
4087 Clouds 1 1004 84 10000 0.45 188 21:50 27.01.2022
4088 Clouds 1 1004 84 10000 0.45 221 21:30 27.01.2022
4089 Clouds 1 1004 84 10000 0.45 221 21:30 27.01.2022
4090 Clouds 0 1004 87 10000 0.45 89 20:53 27.01.2022
4091 Clouds 1 1005 87 10000 4.02 240 19:30 27.01.2022
4092 Clouds 0 1006 90 6000 3.13 250 17:56 27.01.2022
4093 Snow -1 1007 89 3300 1.79 230 15:30 27.01.2022
4094 Snow -1 1007 82 3500 3.13 220 13:37 27.01.2022
4095 Clouds -1 1008 81 9000 0.45 210 12:46 27.01.2022
4096 Clouds -2 1009 76 9000 3.13 190 10:46 27.01.2022
4097 Snow -4 1007 72 10000 1.79 200 09:19 27.01.2022
4098 Snow -4 1007 68 10000 1.79 200 08:37 27.01.2022
4099 Clear -7 1016 86 10000 0.89 0 05:59 27.01.2022
4100 Clouds -5 1017 93 8000 0 0 02:57 27.01.2022
4101 Snow -4 1018 74 9000 0 0 23:33 26.01.2022
4102 Snow -3 1018 68 10000 1 0 22:25 26.01.2022
4103 Snow -5 1012 83 10000 1 20 21:36 26.01.2022
4104 Snow -3 1019 68 10000 2 360 20:41 26.01.2022
4105 Snow -3 1019 68 10000 2 360 20:22 26.01.2022
4106 Clouds -2 1013 69 10000 1.79 320 19:20 26.01.2022
4107 Clouds -2 1012 75 10000 1.79 290 18:45 26.01.2022
4108 Clouds -2 1013 67 10000 0.45 19 17:51 26.01.2022
4109 Clouds -2 1013 67 10000 0.45 63 17:23 26.01.2022
4110 Clouds -2 1018 66 10000 0.89 343 16:31 26.01.2022
4111 Clouds -2 1012 68 10000 0.89 23 15:49 26.01.2022
4112 Clouds -2 1011 79 10000 0.45 31 13:58 26.01.2022
4113 Clouds -1 1012 81 10000 0.45 61 11:48 26.01.2022
4114 Clouds -2 1017 90 10000 4.02 20 10:28 26.01.2022
4115 Clouds -2 1017 82 9000 0.45 352 09:46 26.01.2022
4116 Mist -3 1010 86 4400 1.34 15 07:44 26.01.2022
4117 Snow -4 1009 86 3700 0.45 256 03:31 26.01.2022
4118 Clouds -5 1011 85 2300 1.79 260 23:57 25.01.2022
4119 Clouds -5 1012 85 4800 3.13 260 22:57 25.01.2022
4120 Clouds -6 1012 84 6000 3.13 270 22:21 25.01.2022
4121 Clouds -6 1012 81 7000 3.13 260 21:58 25.01.2022
4122 Clouds -6 1013 82 9000 4.02 250 20:46 25.01.2022
4123 Clouds -7 1013 84 9000 3.13 250 20:23 25.01.2022
4124 Snow -7 1013 83 8000 4.02 250 19:50 25.01.2022
4125 Snow -7 1012 77 5000 3.13 250 18:32 25.01.2022
4126 Snow -7 1012 75 6000 4.02 260 17:43 25.01.2022
4127 Clouds -7 1015 74 10000 3.13 250 16:35 25.01.2022
4128 Snow -7 1015 71 10000 3.13 240 15:49 25.01.2022
4129 Clear -7 1015 71 10000 3.13 240 15:31 25.01.2022
4130 Clear -6 1015 71 10000 0.45 226 14:57 25.01.2022
4131 Clear -6 1016 71 10000 3.13 250 13:40 25.01.2022
4132 Clouds -8 1016 71 10000 3.13 260 10:42 25.01.2022
4133 Clouds -8 1016 85 9000 3.13 270 08:37 25.01.2022
4134 Clouds -8 1026 79 10000 3 300 07:29 25.01.2022
4135 Clouds -8 1026 79 9000 3 320 06:47 25.01.2022
4136 Clouds -7 1027 73 7000 4 340 04:22 25.01.2022
4137 Clouds -7 1029 86 10000 5 350 23:37 24.01.2022
4138 Clouds -6 1029 73 10000 5 350 23:18 24.01.2022
4139 Clouds -6 1030 73 10000 4 350 22:59 24.01.2022
4140 Clouds -6 1030 73 10000 6 360 22:41 24.01.2022
4141 Clouds -6 1030 79 9000 4 350 21:52 24.01.2022
4142 Clouds -6 1030 73 10000 4 350 21:28 24.01.2022
4143 Clouds -5 1031 68 10000 6 350 20:29 24.01.2022
4144 Clouds -5 1031 74 10000 4 350 19:39 24.01.2022
4145 Clouds -5 1031 74 10000 6 350 19:20 24.01.2022
4146 Clouds -5 1021 81 10000 5.81 350 17:45 24.01.2022
4147 Clouds -5 1031 81 10000 5.81 350 17:23 24.01.2022
4148 Clouds -5 1021 81 10000 5.81 350 17:23 24.01.2022
4149 Clouds -5 1024 81 10000 0.45 58 16:40 24.01.2022
4150 Clouds -5 1021 81 10000 5.81 360 16:18 24.01.2022
4151 Clouds -4 1030 82 10000 1.34 39 14:28 24.01.2022
4152 Clouds -5 1031 86 10000 1.34 40 12:40 24.01.2022
4153 Clouds -4 1024 86 10000 1.34 28 12:22 24.01.2022
4154 Clouds -6 1025 90 10000 0.89 354 10:25 24.01.2022
4155 Clouds -6 1025 94 10000 0.45 326 09:47 24.01.2022
4156 Clouds -8 1026 87 6000 0.45 61 08:24 24.01.2022
4157 Clouds -8 1026 84 7000 0.89 2 04:50 24.01.2022
4158 Clouds -6 1030 89 10000 3 350 01:29 24.01.2022
4159 Clouds -5 1030 80 10000 5 20 00:35 24.01.2022
4160 Clouds -5 1030 80 10000 4 40 23:49 23.01.2022
4161 Clouds -5 1030 86 10000 6 20 22:27 23.01.2022
4162 Clouds -5 1029 86 10000 5 30 21:44 23.01.2022
4163 Clouds -5 1029 86 10000 6 20 21:24 23.01.2022
4164 Clouds -4 1029 80 10000 5 30 20:30 23.01.2022
4165 Clouds -4 1028 80 10000 5 50 19:21 23.01.2022
4166 Clouds -4 1028 80 10000 6 60 18:44 23.01.2022
4167 Clouds -4 1027 80 10000 6 10 17:28 23.01.2022
4168 Clouds -4 1026 79 10000 4.92 10 16:38 23.01.2022
4169 Clouds -4 1024 73 10000 5.81 10 14:56 23.01.2022
4170 Clouds -3 1024 76 10000 0.89 307 14:19 23.01.2022
4171 Clouds -3 1016 76 10000 0.45 62 12:51 23.01.2022
4172 Clouds -3 1021 79 10000 0.45 39 12:22 23.01.2022
4173 Clouds -3 1021 79 10000 0.45 332 11:51 23.01.2022
4174 Clouds -3 1021 79 9000 0.45 114 11:18 23.01.2022
4175 Clouds -4 1021 82 10000 0.45 257 10:27 23.01.2022
4176 Clouds -5 1020 80 7000 0.45 35 09:40 23.01.2022
4177 Snow -5 1013 83 9000 0.45 36 08:51 23.01.2022
4178 Clouds -5 1016 94 10000 0.89 37 05:55 23.01.2022
4179 Snow -5 1005 86 7000 1.79 230 01:46 23.01.2022
4180 Snow -5 1007 87 7000 1.79 210 01:25 23.01.2022
4181 Snow -5 1007 84 8000 1.79 240 00:23 23.01.2022
4182 Clouds -5 1007 84 10000 3.13 250 23:35 22.01.2022
4183 Clouds -5 1007 80 10000 0.89 272 22:34 22.01.2022
4184 Clouds -4 1007 77 10000 3.13 280 21:19 22.01.2022
4185 Clouds -4 1006 78 10000 0.45 306 19:49 22.01.2022
4186 Snow -3 1006 80 10000 4.02 310 18:45 22.01.2022
4187 Clouds -3 1005 78 10000 0.45 262 17:56 22.01.2022
4188 Clouds -4 1005 78 10000 1.79 300 17:35 22.01.2022
4189 Clear -4 1004 77 10000 3.13 320 16:55 22.01.2022
4190 Clouds -3 1003 86 4900 1.79 280 15:49 22.01.2022
4191 Snow -2 1002 87 1400 0.45 57 14:57 22.01.2022
4192 Snow -2 1002 84 450 0.89 47 13:39 22.01.2022
4193 Snow -1 1001 78 7000 0.45 246 12:48 22.01.2022
4194 Snow -1 1001 80 9000 4.92 260 12:28 22.01.2022
4195 Clouds -1 1000 73 10000 0.45 195 10:56 22.01.2022
4196 Snow -2 999 86 10000 0.89 274 10:28 22.01.2022
4197 Clouds -2 999 85 10000 0.45 213 09:57 22.01.2022
4198 Clouds -2 998 74 10000 4.92 270 08:51 22.01.2022
4199 Clouds -3 997 78 10000 4.92 260 07:29 22.01.2022
4200 Clouds -2 998 78 10000 0.45 248 04:52 22.01.2022
4201 Clouds -2 998 78 10000 0.45 248 04:52 22.01.2022
4202 Snow -2 997 84 4400 0.45 338 01:34 22.01.2022
4203 Clouds -2 995 73 10000 8.05 260 23:35 21.01.2022
4204 Clouds -1 997 73 10000 0.89 225 22:20 21.01.2022
4205 Clouds -1 997 73 10000 0.45 301 20:20 21.01.2022
4206 Clouds -1 994 70 10000 8.94 260 18:36 21.01.2022
4207 Snow -1 996 76 9000 1.34 249 17:28 21.01.2022
4208 Snow -2 994 73 8000 8.05 250 15:30 21.01.2022
4209 Snow -2 996 75 7000 0.89 196 13:29 21.01.2022
4210 Snow -2 987 92 10000 8.05 250 12:38 21.01.2022
4211 Snow -2 996 80 1300 1.34 186 11:27 21.01.2022
4212 Snow -2 996 75 4100 0.89 242 10:19 21.01.2022
4213 Snow -3 996 79 10000 0.89 229 08:24 21.01.2022
4214 Clouds -3 992 68 10000 5 240 04:49 21.01.2022
4215 Clouds -3 992 68 10000 5 240 04:49 21.01.2022
4216 Clouds 0 995 78 10000 4.02 240 23:35 20.01.2022
4217 Clear 0 995 79 10000 4.92 230 22:24 20.01.2022
4218 Clouds 0 995 79 10000 4.02 220 21:43 20.01.2022
4219 Clouds 0 996 82 10000 4.02 230 20:43 20.01.2022
4220 Snow 0 996 82 10000 4.92 230 19:20 20.01.2022
4221 Snow 0 996 86 9000 4.92 230 18:44 20.01.2022
4222 Snow 0 999 84 5000 0.45 234 17:29 20.01.2022
4223 Snow 1 999 68 10000 0.89 106 15:43 20.01.2022
4224 Snow 2 1000 66 10000 0.45 242 15:19 20.01.2022
4225 Clouds 2 999 62 10000 4.92 230 13:41 20.01.2022
4226 Clouds 2 1007 52 10000 0.89 260 12:35 20.01.2022
4227 Clouds 2 1000 66 10000 0.89 224 11:50 20.01.2022
4228 Clear 1 1002 69 10000 4.92 230 10:40 20.01.2022
4229 Clear -1 1000 80 10000 4.92 230 09:37 20.01.2022
4230 Clear -2 1003 89 10000 0.45 190 08:32 20.01.2022
4231 Clouds -2 1006 83 10000 0.89 222 05:32 20.01.2022
4232 Clouds -2 1009 74 10000 3.13 220 23:28 19.01.2022
4233 Clouds -3 1011 80 10000 1.79 230 22:24 19.01.2022
4234 Clouds -2 1012 77 10000 4.92 260 21:23 19.01.2022
4235 Clouds -2 1010 78 10000 5.81 270 20:49 19.01.2022
4236 Clouds -2 1011 78 10000 4.92 260 19:45 19.01.2022
4237 Clouds -1 1011 67 10000 3.13 250 18:29 19.01.2022
4238 Clouds -1 1014 73 10000 1.79 240 17:45 19.01.2022
4239 Clouds -1 1014 72 10000 0.89 279 16:48 19.01.2022
4240 Snow -1 1013 72 10000 5.81 300 14:42 19.01.2022
4241 Clouds -1 1021 66 10000 0.45 163 12:43 19.01.2022
4242 Clear -1 1016 61 10000 0.45 263 11:41 19.01.2022
4243 Clear -4 1016 80 10000 0.45 285 10:23 19.01.2022
4244 Clear -5 1017 76 10000 3.13 280 09:34 19.01.2022
4245 Clear -8 1015 78 10000 4.02 310 06:45 19.01.2022
4246 Clear -6 1015 68 10000 4.92 330 02:41 19.01.2022
4247 Clouds -5 1014 64 10000 8.05 340 23:20 18.01.2022
4248 Clouds -4 1013 63 10000 8.05 340 22:19 18.01.2022
4249 Snow -4 1012 63 10000 7.15 350 20:58 18.01.2022
4250 Snow -3 1013 62 10000 2.68 46 19:54 18.01.2022
4251 Clouds -3 1012 62 10000 1.34 13 19:36 18.01.2022
4252 Snow -3 1010 59 10000 8.05 340 18:51 18.01.2022
4253 Clouds -3 1010 60 10000 1.79 31 17:58 18.01.2022
4254 Snow -2 1010 63 10000 1.34 42 16:50 18.01.2022
4255 Clouds -3 1008 62 10000 1.79 138 15:41 18.01.2022
4256 Clouds -3 1008 62 10000 0.89 71 15:21 18.01.2022
4257 Snow -2 1005 55 10000 0.89 11 12:33 18.01.2022
4258 Clouds -3 1000 65 10000 8.94 330 10:47 18.01.2022
4259 Snow -4 998 78 10000 8.05 320 08:59 18.01.2022
4260 Clouds -4 1001 69 10000 0.89 98 07:51 18.01.2022
4261 Snow -2 994 89 1300 1.79 44 02:34 18.01.2022
4262 Snow 0 991 79 10000 0.45 354 23:38 17.01.2022
4263 Snow 0 991 74 9000 0.45 132 22:26 17.01.2022
4264 Clouds 0 990 76 10000 0.89 248 21:34 17.01.2022
4265 Snow 0 990 82 10000 0.89 124 20:24 17.01.2022
4266 Rain 1 987 85 10000 0.45 231 18:30 17.01.2022
4267 Snow 1 986 87 9000 0.89 279 17:25 17.01.2022
4268 Snow 1 987 87 5000 0.45 302 16:35 17.01.2022
4269 Snow 0 986 84 6000 5.81 240 15:19 17.01.2022
4270 Snow 1 986 84 5000 7.15 240 14:55 17.01.2022
4271 Snow 2 991 73 10000 0.89 257 13:22 17.01.2022
4272 Rain 2 991 74 10000 0.89 122 12:55 17.01.2022
4273 Clouds 1 993 81 10000 0.89 184 11:49 17.01.2022
4274 Snow 1 995 82 10000 1.34 222 10:21 17.01.2022
4275 Clouds 1 994 78 10000 0.89 229 10:21 17.01.2022
4276 Snow 1 995 75 10000 0.89 149 09:34 17.01.2022
4277 Clouds 0 998 83 10000 0.45 225 07:24 17.01.2022
4278 Snow -1 1003 74 10000 0.89 127 02:59 17.01.2022
4279 Clear -3 1003 80 10000 3.13 230 00:55 17.01.2022
4280 Clear -3 1008 82 10000 0.89 248 22:22 16.01.2022
4281 Clouds -3 1007 79 10000 3.13 230 20:35 16.01.2022
4282 Clear -2 1010 77 10000 1.79 230 18:51 16.01.2022
4283 Clear -2 1011 74 10000 1.79 220 17:59 16.01.2022
4284 Clear -1 1011 70 10000 3.13 260 16:59 16.01.2022
4285 Clouds -1 1009 65 10000 4.02 270 16:31 16.01.2022
4286 Clouds 0 1012 62 10000 5.81 290 14:31 16.01.2022
4287 Clouds 1 1012 59 10000 0.89 236 13:45 16.01.2022
4288 Clouds 1 1012 61 10000 0.45 262 12:46 16.01.2022
4289 Clouds 1 1010 59 10000 5.81 290 11:41 16.01.2022
4290 Clouds 1 1011 60 10000 7.15 300 10:53 16.01.2022
4291 Clouds 1 1013 63 10000 0.89 270 09:59 16.01.2022
4292 Clouds 1 1013 63 10000 0.89 306 09:40 16.01.2022
4293 Clouds 1 1011 63 10000 4.92 300 09:22 16.01.2022
4294 Clouds 1 1010 63 10000 7.15 300 07:25 16.01.2022
4295 Clouds 2 1010 65 10000 0.45 94 00:38 16.01.2022
4296 Clouds 1 1010 70 10000 0.89 356 23:34 15.01.2022
4297 Clouds 2 1008 66 10000 0.89 286 21:23 15.01.2022
4298 Clear 2 1008 66 10000 0.89 34 20:56 15.01.2022
4299 Clear 2 1008 68 10000 0.89 214 20:36 15.01.2022
4300 Clear 2 1007 61 10000 1.34 175 19:28 15.01.2022
4301 Clear 2 1006 68 10000 1.34 290 18:28 15.01.2022
4302 Clear 2 1005 71 10000 0.89 251 16:52 15.01.2022
4303 Snow 2 1004 71 9000 0.45 257 15:38 15.01.2022
4304 Clouds 2 1002 70 10000 1.79 256 13:35 15.01.2022
4305 Clouds 3 1001 67 10000 0.89 222 11:46 15.01.2022
4306 Clouds 2 1000 66 10000 1.34 226 09:49 15.01.2022
4307 Clouds 1 998 67 10000 1.34 281 05:26 15.01.2022
4308 Clouds 2 994 58 10000 2.24 316 23:40 14.01.2022
4309 Clouds 1 993 71 10000 1.34 86 21:19 14.01.2022
4310 Clouds 1 991 70 10000 11.18 310 20:37 14.01.2022
4311 Clouds 1 992 78 9000 1.34 43 19:56 14.01.2022
4312 Clouds 2 990 74 10000 1.34 180 18:43 14.01.2022
4313 Clouds 4 989 76 10000 1.34 250 17:52 14.01.2022
4314 Rain 4 989 78 9000 1.34 263 16:43 14.01.2022
4315 Clouds 4 989 78 9000 1.34 252 16:43 14.01.2022
4316 Clouds 4 988 86 10000 1.34 238 15:33 14.01.2022
4317 Clouds 3 990 87 8000 2.68 281 14:28 14.01.2022
4318 Clouds 4 991 80 10000 1.79 255 12:59 14.01.2022
4319 Clouds 4 994 76 10000 1.34 211 11:53 14.01.2022
4320 Clouds 4 995 76 10000 0.89 330 10:40 14.01.2022
4321 Clouds 3 998 79 10000 1.34 303 08:53 14.01.2022
4322 Clouds 2 997 87 10000 8.05 280 07:32 14.01.2022
4323 Clouds 2 1002 81 10000 8.94 290 02:27 14.01.2022
4324 Clouds 1 1003 88 10000 8.05 280 00:22 14.01.2022
4325 Clouds 1 1008 86 9000 0.89 111 21:47 13.01.2022
4326 Clouds 1 1008 85 9000 0.89 246 21:29 13.01.2022
4327 Mist -1 1009 87 4700 0.89 240 19:47 13.01.2022
4328 Mist -1 1009 92 4700 0.45 284 19:29 13.01.2022
4329 Mist -1 1010 86 3600 0.45 290 18:40 13.01.2022
4330 Clouds -3 1011 85 6000 0.45 230 16:53 13.01.2022
4331 Clouds -3 1012 80 5000 0.45 224 15:39 13.01.2022
4332 Clouds -3 1012 80 5000 0.89 214 15:21 13.01.2022
4333 Snow -4 1014 83 3200 0.89 161 13:29 13.01.2022
4334 Clouds -8 1017 84 9000 0.45 233 10:49 13.01.2022
4335 Clouds -10 1018 81 8000 0.45 225 09:23 13.01.2022
4336 Clouds -12 1019 85 8000 0.45 210 08:29 13.01.2022
4337 Mist -13 1026 90 4700 0.45 209 07:58 13.01.2022
4338 Mist -14 1026 90 4500 4.02 260 07:19 13.01.2022
4339 Clear -15 1027 96 10000 3 250 05:21 13.01.2022
4340 Clear -15 1027 89 10000 3.13 260 03:48 13.01.2022
4341 Clouds -15 1029 92 6000 0.45 265 01:38 13.01.2022
4342 Clear -15 1029 93 7000 0.45 82 23:53 12.01.2022
4343 Clear -15 1029 89 10000 0.45 91 23:34 12.01.2022
4344 Clear -14 1029 89 10000 0.89 247 22:22 12.01.2022
4345 Clear -15 1029 89 10000 4.02 320 21:43 12.01.2022
4346 Clear -15 1029 89 10000 4.02 320 21:18 12.01.2022
4347 Clear -14 1029 89 10000 1.34 48 20:44 12.01.2022
4348 Clouds -14 1028 89 10000 0.45 41 18:48 12.01.2022
4349 Clouds -14 1028 89 10000 0.89 62 17:54 12.01.2022
4350 Clouds -14 1028 88 10000 0.89 19 16:43 12.01.2022
4351 Clear -12 1028 73 10000 0.45 126 14:49 12.01.2022
4352 Clouds -12 1028 72 5000 0.45 126 13:40 12.01.2022
4353 Clouds -12 1028 71 8000 0.89 357 12:57 12.01.2022
4354 Clouds -14 1029 86 10000 0.89 48 09:26 12.01.2022
4355 Clouds -14 1029 85 10000 0.89 71 07:57 12.01.2022
4356 Clouds -14 1029 88 9000 1.34 40 07:33 12.01.2022
4357 Clouds -12 1022 89 3600 0.89 12 02:20 12.01.2022
4358 Clouds -11 1022 89 10000 0.45 57 23:26 11.01.2022
4359 Clouds -10 1022 82 9000 0.89 84 22:25 11.01.2022
4360 Clouds -10 1022 82 9000 0.89 3 21:58 11.01.2022
4361 Clouds -9 1021 85 8000 0.89 54 20:39 11.01.2022
4362 Snow -8 1021 86 4800 1.34 38 19:31 11.01.2022
4363 Clouds -8 1020 90 10000 0.89 11 17:53 11.01.2022
4364 Snow -6 1020 85 9000 0.89 34 16:39 11.01.2022
4365 Clouds -6 1020 85 9000 0.89 357 16:18 11.01.2022
4366 Clouds -4 1019 90 4700 0.89 7 14:50 11.01.2022
4367 Snow -4 1019 87 1800 0.45 57 14:32 11.01.2022
4368 Clouds -4 1026 85 9000 1.34 50 13:48 11.01.2022
4369 Clouds -4 1026 85 9000 1.34 29 13:25 11.01.2022
4370 Snow -3 1025 89 9000 1.34 63 12:25 11.01.2022
4371 Snow -4 1026 90 9000 0.89 45 10:31 11.01.2022
4372 Clouds -5 1018 94 3100 0.89 51 07:50 11.01.2022
4373 Clouds -5 1016 83 10000 0.89 27 03:51 11.01.2022
4374 Snow -5 1015 83 10000 0.45 68 00:27 11.01.2022
4375 Clouds -5 1014 86 10000 0.89 4 23:39 10.01.2022
4376 Clouds -5 1014 90 10000 0.89 5 22:20 10.01.2022
4377 Clouds -5 1011 90 10000 5.81 350 21:57 10.01.2022
4378 Clouds -5 1013 90 10000 1.34 67 21:33 10.01.2022
4379 Clouds -5 1010 90 9000 4.92 10 20:58 10.01.2022
4380 Clouds -5 1010 90 9000 4.92 10 20:36 10.01.2022
4381 Clouds -5 1013 90 9000 0.89 326 20:18 10.01.2022
4382 Clouds -5 1012 90 10000 0.89 4 19:37 10.01.2022
4383 Clouds -5 1012 90 10000 0.45 24 19:18 10.01.2022
4384 Clouds -4 1012 88 10000 1.34 13 18:46 10.01.2022
4385 Clouds -4 1007 90 10000 4.92 340 16:48 10.01.2022
4386 Clouds -4 1009 90 10000 3.13 330 16:20 10.01.2022
4387 Clouds -3 1008 90 10000 0.89 41 14:42 10.01.2022
4388 Clouds -3 1007 94 9000 0.89 96 12:50 10.01.2022
4389 Clouds -3 1003 95 10000 4.02 330 11:55 10.01.2022
4390 Clouds -2 1006 92 10000 4.92 320 10:48 10.01.2022
4391 Clouds -2 1002 95 9000 3.13 320 09:33 10.01.2022
4392 Clouds -2 1003 99 9000 4.02 310 05:51 10.01.2022
4393 Clouds -1 1001 99 6000 4.92 300 02:30 10.01.2022
4394 Snow -1 997 100 6000 1.79 280 01:20 10.01.2022
4395 Snow -1 1000 99 5000 1.79 260 00:19 10.01.2022
4396 Clouds -1 1000 99 6000 1.79 230 22:44 09.01.2022
4397 Snow -1 999 99 4700 0.89 0 21:57 09.01.2022
4398 Clouds -1 999 99 1900 0.89 0 21:37 09.01.2022
4399 Snow -1 999 99 1900 0.89 0 21:37 09.01.2022
4400 Snow -1 999 99 1300 0.89 0 21:18 09.01.2022
4401 Snow -1 999 99 3600 0.89 0 20:45 09.01.2022
4402 Clouds -1 999 99 1700 0.89 0 20:26 09.01.2022
4403 Snow -1 999 94 2400 1.79 130 19:38 09.01.2022
4404 Snow -1 999 94 2400 1.79 130 19:20 09.01.2022
4405 Snow -1 999 94 4500 1.79 130 18:37 09.01.2022
4406 Snow -1 999 95 2200 0.45 207 17:48 09.01.2022
4407 Mist -1 999 95 2200 1.79 140 17:29 09.01.2022
4408 Mist -1 999 95 2600 3.13 130 16:43 09.01.2022
4409 Mist -1 999 97 1700 3.13 130 15:42 09.01.2022
4410 Snow -2 999 99 1700 3.13 130 15:42 09.01.2022
4411 Snow -1 1000 99 2000 3.13 130 14:58 09.01.2022
4412 Snow -2 999 98 3000 0.45 58 14:24 09.01.2022
4413 Snow -1 1000 96 1600 3.13 120 13:48 09.01.2022
4414 Snow -2 1001 95 4900 0.45 198 11:56 09.01.2022
4415 Snow -2 1001 94 3200 0.45 46 11:26 09.01.2022
4416 Clouds -2 1002 93 9000 3.13 130 09:55 09.01.2022
4417 Snow -3 1003 93 10000 0.45 79 08:59 09.01.2022
4418 Snow -3 1004 93 5000 0.45 153 06:56 09.01.2022
4419 Snow -2 1008 72 10000 3.13 140 01:29 09.01.2022
4420 Snow -2 1008 73 10000 0.45 193 00:37 09.01.2022
4421 Snow -2 1009 79 10000 3.13 140 23:34 08.01.2022
4422 Clouds -2 1009 78 10000 0.45 283 22:48 08.01.2022
4423 Clouds -2 1010 73 10000 0.89 181 21:28 08.01.2022
4424 Clouds -1 1011 69 10000 0.89 189 20:43 08.01.2022
4425 Clouds -1 1011 72 10000 0.45 156 20:22 08.01.2022
4426 Clouds -1 1012 69 10000 0.45 108 19:22 08.01.2022
4427 Clouds -1 1013 73 10000 0.45 144 17:31 08.01.2022
4428 Clouds -1 1013 71 10000 0.45 57 16:45 08.01.2022
4429 Clouds -1 1014 75 10000 0.45 156 15:33 08.01.2022
4430 Clear -1 1021 74 10000 4.02 170 13:58 08.01.2022
4431 Clouds 0 1015 69 10000 0.45 152 11:40 08.01.2022
4432 Clear -1 1016 73 10000 0.45 164 10:33 08.01.2022
4433 Clear -2 1017 74 10000 3.13 180 09:57 08.01.2022
4434 Clear -2 1017 77 10000 3.13 180 09:33 08.01.2022
4435 Clear -6 1008 93 10000 0 0 05:51 08.01.2022
4436 Clear -5 1015 94 10000 2 230 01:41 08.01.2022
4437 Clear -4 1014 88 10000 3 220 23:31 07.01.2022
4438 Clear -4 1014 87 10000 3 230 21:49 07.01.2022
4439 Clear -4 1012 81 10000 3.13 260 20:32 07.01.2022
4440 Clear -3 1015 79 10000 0.45 212 19:27 07.01.2022
4441 Clear -3 1015 79 10000 0.45 212 19:27 07.01.2022
4442 Clear -2 1014 77 10000 0.45 252 18:49 07.01.2022
4443 Clear -2 1014 76 10000 0.45 238 18:21 07.01.2022
4444 Clear -3 1011 78 10000 3.13 260 17:23 07.01.2022
4445 Clear -1 1020 74 10000 0.45 207 14:55 07.01.2022
4446 Clouds 0 1012 67 10000 0.89 114 13:52 07.01.2022
4447 Clouds -1 1012 65 10000 0.89 254 12:51 07.01.2022
4448 Clear -1 1011 58 10000 1.34 257 11:22 07.01.2022
4449 Clouds 0 1011 90 1400 0.45 217 04:25 07.01.2022
4450 Clouds 1 1002 85 10000 0.89 251 02:46 07.01.2022
4451 Clouds 2 1002 83 10000 0.89 319 01:48 07.01.2022
4452 Clouds 1 1002 86 10000 7.15 270 01:48 07.01.2022
4453 Clouds 1 1002 86 10000 0.45 348 01:25 07.01.2022
4454 Clouds 1 1001 90 10000 0.45 262 00:30 07.01.2022
4455 Clear 2 1000 87 10000 5.81 270 22:33 06.01.2022
4456 Rain 2 996 91 10000 4.92 250 20:43 06.01.2022
4457 Clouds 2 996 91 10000 4.92 240 19:58 06.01.2022
4458 Rain 2 996 91 10000 4.02 240 19:36 06.01.2022
4459 Rain 2 999 90 10000 3.13 240 17:51 06.01.2022
4460 Rain 2 998 86 10000 0.45 207 17:21 06.01.2022
4461 Rain 2 998 85 10000 3.13 230 16:31 06.01.2022
4462 Rain 3 998 80 10000 0.45 195 15:43 06.01.2022
4463 Clear 3 998 80 10000 0.45 162 15:20 06.01.2022
4464 Clear 3 997 80 10000 0.45 134 14:19 06.01.2022
4465 Rain 3 997 81 10000 0.89 210 13:33 06.01.2022
4466 Clear 4 997 78 10000 4.92 280 12:20 06.01.2022
4467 Clouds 3 997 82 10000 0.89 247 11:29 06.01.2022
4468 Clouds 3 996 86 10000 0.45 227 09:56 06.01.2022
4469 Clouds 4 991 95 10000 4.92 280 06:37 06.01.2022
4470 Rain 5 991 99 7000 0.45 16 00:27 06.01.2022
4471 Clouds 5 991 96 8000 0 0 23:22 05.01.2022
4472 Clouds 5 998 99 10000 0.89 0 22:42 05.01.2022
4473 Clouds 5 991 95 10000 3.13 70 22:18 05.01.2022
4474 Clouds 5 991 95 10000 0.45 327 21:23 05.01.2022
4475 Clouds 5 999 98 10000 0.45 62 20:30 05.01.2022
4476 Rain 5 999 98 10000 0.45 9 20:30 05.01.2022
4477 Rain 6 992 94 10000 1.79 90 19:28 05.01.2022
4478 Clouds 6 992 94 8000 1.79 120 17:56 05.01.2022
4479 Rain 7 992 87 10000 0 0 16:56 05.01.2022
4480 Clouds 8 993 82 10000 1.79 290 15:46 05.01.2022
4481 Clear 8 992 83 10000 1.79 260 14:54 05.01.2022
4482 Clear 9 991 82 10000 0.45 224 13:33 05.01.2022
4483 Clouds 10 991 80 10000 0.45 218 11:59 05.01.2022
4484 Clouds 9 989 80 10000 0.45 223 08:21 05.01.2022
4485 Clouds 6 988 95 10000 0.45 137 06:37 05.01.2022
4486 Clouds 6 988 95 10000 0.45 137 06:37 05.01.2022
4487 Rain 4 990 99 10000 4.02 170 01:20 05.01.2022
4488 Rain 4 992 94 10000 0.89 163 23:41 04.01.2022
4489 Rain 4 992 94 10000 3.13 160 23:19 04.01.2022
4490 Rain 4 994 91 10000 4.02 190 21:32 04.01.2022
4491 Rain 4 995 92 10000 0.45 118 20:27 04.01.2022
4492 Clear 3 994 98 10000 3 200 18:35 04.01.2022
4493 Clouds 4 998 99 10000 1.79 190 17:19 04.01.2022
4494 Clouds 4 998 95 9000 1.79 180 16:31 04.01.2022
4495 Clouds 5 995 89 10000 3 250 14:58 04.01.2022
4496 Clouds 6 995 88 10000 3 250 14:37 04.01.2022
4497 Clouds 6 995 87 10000 4.92 270 13:55 04.01.2022
4498 Clouds 6 997 87 10000 0.89 107 11:44 04.01.2022
4499 Clouds 6 994 86 10000 5.81 280 10:21 04.01.2022
4500 Clouds 5 994 97 10000 0.45 279 08:49 04.01.2022
4501 Clouds 5 993 100 7000 4.02 270 06:28 04.01.2022
4502 Clouds 6 990 95 10000 4.92 300 00:42 04.01.2022
4503 Clouds 6 990 95 10000 4.92 300 23:49 03.01.2022
4504 Clouds 6 989 91 10000 5.81 300 22:21 03.01.2022
4505 Clouds 6 989 91 10000 5.81 290 21:38 03.01.2022
4506 Clouds 7 989 87 10000 7.15 300 20:40 03.01.2022
4507 Clouds 7 990 84 10000 0.89 217 18:55 03.01.2022
4508 Clouds 7 990 84 10000 1.34 257 18:30 03.01.2022
4509 Clouds 7 987 91 10000 7.15 280 17:20 03.01.2022
4510 Clouds 7 989 91 10000 1.79 275 16:31 03.01.2022
4511 Clouds 8 986 75 10000 8.05 260 14:31 03.01.2022
4512 Clouds 8 986 81 10000 8.05 260 12:52 03.01.2022
4513 Clear 8 987 81 10000 8.94 260 11:50 03.01.2022
4514 Clouds 7 991 91 10000 0.89 308 10:38 03.01.2022
4515 Clouds 6 992 91 10000 0.89 272 09:27 03.01.2022
4516 Clouds 5 992 95 10000 0.45 118 07:52 03.01.2022
4517 Rain 1 997 95 9000 0.89 192 02:56 03.01.2022
4518 Snow 0 1003 88 10000 0.89 225 23:23 02.01.2022
4519 Snow -1 1004 88 10000 0.45 205 22:56 02.01.2022
4520 Snow -2 1006 91 10000 0.89 120 21:52 02.01.2022
4521 Snow -2 1005 95 10000 1.79 170 20:50 02.01.2022
4522 Snow -2 1005 95 9000 1.79 200 20:29 02.01.2022
4523 Snow -2 1009 89 2000 4.02 220 19:31 02.01.2022
4524 Snow -1 1007 78 10000 3.13 200 18:55 02.01.2022
4525 Snow -1 1008 74 10000 3.13 210 17:56 02.01.2022
4526 Snow -1 1008 71 10000 1.79 210 17:38 02.01.2022
4527 Snow -1 1008 68 10000 1.79 210 17:19 02.01.2022
4528 Clear -1 1009 61 10000 1.79 240 16:27 02.01.2022
4529 Snow -1 1009 49 10000 1.79 270 14:41 02.01.2022
4530 Clear 0 1020 46 10000 0.45 194 13:25 02.01.2022
4531 Clear -1 1020 47 10000 0.45 94 12:31 02.01.2022
4532 Clear -1 1011 50 10000 4.02 310 11:36 02.01.2022
4533 Clear -1 1014 58 10000 0.45 34 10:53 02.01.2022
4534 Clear -2 1011 58 10000 4.92 320 09:55 02.01.2022
4535 Clouds -3 1010 81 10000 5.81 340 07:29 02.01.2022
4536 Clouds 1 1009 82 10000 0.89 23 02:20 02.01.2022
4537 Clouds 3 1006 90 10000 1.34 2 23:40 01.01.2022
4538 Clouds 3 1003 91 10000 7.15 340 23:22 01.01.2022
4539 Clouds 4 1004 91 10000 1.34 35 22:23 01.01.2022
4540 Clouds 4 1001 93 10000 8.05 320 21:44 01.01.2022
4541 Clouds 5 1003 91 10000 0.89 247 20:56 01.01.2022
4542 Clouds 4 1002 94 7000 0.45 92 19:59 01.01.2022
4543 Clouds 5 1002 91 10000 0.45 218 19:30 01.01.2022
4544 Clouds 5 1001 94 8000 0.89 116 18:20 01.01.2022
4545 Clouds 6 1001 91 10000 0.89 269 16:43 01.01.2022
4546 Clouds 6 998 91 10000 4.92 290 16:20 01.01.2022
4547 Clouds 6 998 95 10000 7.15 290 15:27 01.01.2022
4548 Clouds 6 992 93 10000 5 290 13:59 01.01.2022
4549 Drizzle 6 997 95 9000 7.15 300 12:50 01.01.2022
4550 Drizzle 6 997 95 9000 7.15 300 11:58 01.01.2022
4551 Clouds 6 997 95 10000 7.15 300 11:23 01.01.2022
4552 Clouds 6 997 100 9000 5.81 300 10:40 01.01.2022
4553 Clouds 6 997 100 5000 5.81 300 09:46 01.01.2022
4554 Clouds 6 999 95 10000 0.89 217 08:26 01.01.2022
4555 Clouds 6 998 95 10000 0.89 232 07:54 01.01.2022
4556 Clouds 6 995 100 10000 7.15 310 07:34 01.01.2022
4557 Clouds 7 997 98 7000 0.45 240 06:41 01.01.2022
4558 Mist 5 996 97 4000 0.89 191 04:38 01.01.2022
4559 Mist 4 997 98 4500 0.45 252 02:44 01.01.2022
4560 Rain 3 999 98 4100 0.45 199 23:39 31.12.2021
4561 Rain 3 1001 98 4700 0.45 222 21:53 31.12.2021
4562 Rain 2 999 100 1800 1.79 220 20:39 31.12.2021
4563 Mist 2 1002 98 1900 1.79 220 19:31 31.12.2021
4564 Mist 2 1002 98 1900 1.79 220 19:31 31.12.2021
4565 Rain 2 1010 100 550 2 220 18:41 31.12.2021
4566 Fog 2 1004 99 700 0.45 235 17:43 31.12.2021
4567 Fog 2 1004 99 750 0.45 235 17:19 31.12.2021
4568 Fog 2 1004 99 800 0.45 229 16:40 31.12.2021
4569 Fog 2 1004 99 700 0.45 229 15:57 31.12.2021
4570 Fog 2 1004 99 550 0.89 0 15:29 31.12.2021
4571 Fog 2 1004 99 550 0.89 0 15:29 31.12.2021
4572 Fog 2 1004 99 750 3.13 240 14:57 31.12.2021
4573 Fog 2 1004 99 1200 0.45 246 14:30 31.12.2021
4574 Mist 2 1004 99 1400 3.13 250 13:37 31.12.2021
4575 Fog 2 1005 99 800 1.79 250 12:49 31.12.2021
4576 Fog 1 1005 99 550 3.13 230 11:52 31.12.2021
4577 Fog 1 1005 99 350 1.79 230 11:33 31.12.2021
4578 Fog 0 1006 99 450 1.79 230 10:38 31.12.2021
4579 Fog 0 1006 99 450 1.79 230 10:38 31.12.2021
4580 Fog 0 1006 99 450 1.79 230 10:38 31.12.2021
4581 Fog 0 1006 99 450 1.79 230 10:38 31.12.2021
4582 Fog 0 1006 99 400 1.79 230 10:20 31.12.2021
4583 Fog 0 1006 99 550 0.45 198 09:33 31.12.2021
4584 Fog -1 1006 99 900 1.79 220 08:47 31.12.2021
4585 Mist -1 1006 94 2400 1.79 220 07:32 31.12.2021
4586 Mist -4 1006 90 5000 3.13 220 23:36 30.12.2021
4587 Clouds -4 1007 90 6000 3.13 220 22:38 30.12.2021
4588 Clouds -4 1007 90 6000 3.13 220 22:20 30.12.2021
4589 Clouds -4 1007 90 7000 3.13 210 21:37 30.12.2021
4590 Snow -4 1007 90 7000 3.13 220 20:48 30.12.2021
4591 Snow -4 1007 90 7000 3.13 220 20:28 30.12.2021
4592 Snow -4 1007 90 7000 3.13 220 19:48 30.12.2021
4593 Snow -4 1008 90 6000 3.13 210 18:51 30.12.2021
4594 Clouds -4 1008 90 8000 3.13 220 18:20 30.12.2021
4595 Snow -4 1011 91 4200 0.45 249 16:34 30.12.2021
4596 Snow -4 1008 90 8000 3.13 230 15:52 30.12.2021
4597 Snow -4 1008 90 5000 3.13 200 14:41 30.12.2021
4598 Clouds -4 1008 90 10000 3.13 220 14:19 30.12.2021
4599 Snow -4 1008 90 9000 3.13 210 13:23 30.12.2021
4600 Clouds -4 1008 90 10000 1.79 230 11:34 30.12.2021
4601 Clouds -4 1009 90 9000 1.79 230 10:27 30.12.2021
4602 Mist -5 1009 100 4200 3.13 240 09:27 30.12.2021
4603 Mist -5 1018 96 5000 2 250 06:55 30.12.2021
4604 Mist -5 1016 96 5000 0 0 04:25 30.12.2021
4605 Mist -5 1016 96 5000 0 0 03:40 30.12.2021
4606 Mist -5 1001 96 5000 1 0 00:42 30.12.2021
4607 Mist -5 1006 95 5000 0.89 0 23:35 29.12.2021
4608 Mist -5 1008 94 5000 0.89 0 22:30 29.12.2021
4609 Mist -6 1015 98 4700 0.89 0 21:53 29.12.2021
4610 Clouds -6 1008 98 6000 0.89 220 20:56 29.12.2021
4611 Clouds -6 1014 98 6000 0.89 0 20:18 29.12.2021
4612 Mist -6 1014 94 5000 0.89 100 19:30 29.12.2021
4613 Clouds -5 1007 90 9000 0.89 90 18:26 29.12.2021
4614 Clouds -5 1014 90 10000 1.79 60 17:29 29.12.2021
4615 Clouds -5 1007 90 10000 0.89 70 16:58 29.12.2021
4616 Clouds -5 1007 90 10000 0.89 60 16:19 29.12.2021
4617 Clouds -5 1013 87 10000 1.79 30 14:46 29.12.2021
4618 Clouds -5 1012 86 10000 0.45 35 12:49 29.12.2021
4619 Clouds -5 1012 86 10000 0.89 0 12:27 29.12.2021
4620 Snow -5 1005 90 10000 0.45 84 10:38 29.12.2021
4621 Clouds -6 1005 87 10000 0.45 76 08:37 29.12.2021
4622 Clouds -6 1005 94 10000 0.45 0 06:48 29.12.2021
4623 Clouds -7 1005 90 10000 0.45 334 06:27 29.12.2021
4624 Clouds -7 1005 90 10000 0.45 358 05:50 29.12.2021
4625 Clouds -7 1005 90 10000 0.45 8 03:46 29.12.2021
4626 Clouds -7 1007 90 10000 0.45 68 00:28 29.12.2021
4627 Clouds -7 1006 90 10000 0.89 8 23:56 28.12.2021
4628 Snow -7 1007 90 10000 1.34 327 22:50 28.12.2021
4629 Snow -7 1007 83 10000 0.45 346 22:24 28.12.2021
4630 Snow -7 1008 83 9000 0.89 349 21:54 28.12.2021
4631 Snow -7 1008 87 6000 0.45 291 20:54 28.12.2021
4632 Snow -7 1009 86 6000 0.45 84 19:50 28.12.2021
4633 Snow -7 1009 85 6000 0.89 67 18:50 28.12.2021
4634 Snow -7 1009 82 8000 0.45 310 18:23 28.12.2021
4635 Snow -7 1010 81 10000 0.45 233 16:35 28.12.2021
4636 Snow -6 1011 72 10000 0.45 9 15:52 28.12.2021
4637 Snow -6 1011 72 10000 0.45 61 15:27 28.12.2021
4638 Snow -6 1011 72 10000 0.45 37 14:53 28.12.2021
4639 Snow -6 1018 78 10000 0.89 318 14:21 28.12.2021
4640 Clear -6 1011 78 10000 0.89 17 13:54 28.12.2021
4641 Snow -6 1018 78 10000 1.34 1 13:33 28.12.2021
4642 Snow -6 1019 79 10000 0.89 327 12:55 28.12.2021
4643 Snow -6 1012 79 10000 0.89 342 12:18 28.12.2021
4644 Clouds -7 1013 86 10000 0.45 15 09:30 28.12.2021
4645 Clouds -7 1013 94 10000 0.89 76 07:33 28.12.2021
4646 Clouds -7 1014 99 10000 0.45 327 03:31 28.12.2021
4647 Mist -7 1015 97 4800 0.45 81 23:37 27.12.2021
4648 Mist -7 1015 99 5000 4.92 80 22:20 27.12.2021
4649 Mist -6 1015 95 3400 0.45 163 21:30 27.12.2021
4650 Mist -6 1015 95 2400 0.45 50 20:32 27.12.2021
4651 Mist -6 1015 95 2100 4.02 90 19:47 27.12.2021
4652 Fog -6 1015 99 1300 0.45 123 18:57 27.12.2021
4653 Fog -6 1015 98 1000 0.45 126 17:51 27.12.2021
4654 Fog -6 1015 99 1100 3.13 90 17:28 27.12.2021
4655 Mist -6 1014 95 5000 0.45 198 15:54 27.12.2021
4656 Mist -6 1021 95 5000 0.89 0 14:56 27.12.2021
4657 Snow -6 1014 99 4700 0.89 0 14:21 27.12.2021
4658 Mist -7 1012 100 2300 1.79 200 12:49 27.12.2021
4659 Snow -6 1021 98 4600 0.45 92 10:37 27.12.2021
4660 Mist -6 1022 98 4400 0.45 217 10:18 27.12.2021
4661 Clouds -7 1011 100 6000 1.79 150 08:42 27.12.2021
4662 Clouds -7 1011 100 6000 1.79 150 08:42 27.12.2021
4663 Clouds -6 1014 91 8000 0.89 0 07:34 27.12.2021
4664 Clouds -6 1012 90 10000 0.45 255 02:29 27.12.2021
4665 Clouds -7 1008 90 10000 3.13 280 00:57 27.12.2021
4666 Clouds -7 1008 90 10000 1.79 260 23:43 26.12.2021
4667 Clouds -7 1011 89 10000 0.45 250 23:18 26.12.2021
4668 Clear -6 1010 89 10000 0.45 261 21:33 26.12.2021
4669 Clear -6 1006 85 10000 4.02 250 19:54 26.12.2021
4670 Clear -5 1008 85 10000 0.89 225 18:29 26.12.2021
4671 Clear -5 1005 85 10000 3.13 230 17:51 26.12.2021
4672 Clear -4 1007 78 10000 0.45 240 15:35 26.12.2021
4673 Clear -3 1013 71 10000 1.34 243 13:43 26.12.2021
4674 Clear -3 1013 71 10000 0.45 272 13:21 26.12.2021
4675 Clear -3 1013 71 10000 0.89 302 12:35 26.12.2021
4676 Clear -4 1006 76 10000 0.89 214 11:18 26.12.2021
4677 Clear -7 1004 85 10000 4.92 260 09:30 26.12.2021
4678 Clear -8 1006 88 10000 0.89 211 08:45 26.12.2021
4679 Clear -8 1006 90 10000 4.02 250 08:23 26.12.2021
4680 Clear -7 1005 89 10000 0.45 253 01:45 26.12.2021
4681 Clear -6 1004 85 10000 3.13 260 00:39 26.12.2021
4682 Clear -7 1001 79 10000 3.13 260 23:35 25.12.2021
4683 Clear -6 1000 79 10000 3.13 270 22:29 25.12.2021
4684 Clear -5 1003 80 10000 1.79 220 21:30 25.12.2021
4685 Clear -5 1003 72 10000 0.45 256 20:18 25.12.2021
4686 Clear -5 1000 67 10000 3.13 290 19:18 25.12.2021
4687 Clear -5 1002 68 10000 0.89 83 18:37 25.12.2021
4688 Clear -4 1001 62 10000 3.13 250 16:50 25.12.2021
4689 Clear -3 1000 64 10000 3.13 270 15:34 25.12.2021
4690 Clear -2 996 58 10000 4.02 310 14:23 25.12.2021
4691 Clear 0 997 62 10000 0.45 240 12:21 25.12.2021
4692 Snow 0 996 81 10000 0.45 78 10:46 25.12.2021
4693 Clouds 1 995 82 10000 0.89 259 09:49 25.12.2021
4694 Rain 1 992 93 10000 0.89 191 07:27 25.12.2021
4695 Clouds 1 987 94 9000 0.45 250 01:40 25.12.2021
4696 Snow 0 987 94 5000 0.45 190 00:21 25.12.2021
4697 Snow -2 996 93 5000 4.02 230 21:59 24.12.2021
4698 Clouds -4 990 92 10000 0.45 147 19:27 24.12.2021
4699 Clouds -4 990 92 10000 0.45 72 18:56 24.12.2021
4700 Snow -5 992 85 5000 0.45 90 16:49 24.12.2021
4701 Snow -5 993 85 10000 0.45 119 15:50 24.12.2021
4702 Snow -5 993 85 9000 0.89 119 15:25 24.12.2021
4703 Snow -5 993 79 10000 0.45 87 14:35 24.12.2021
4704 Snow -6 994 85 10000 0.45 69 13:57 24.12.2021
4705 Snow -6 994 85 10000 0.89 95 13:32 24.12.2021
4706 Snow -6 995 79 10000 0.45 140 12:45 24.12.2021
4707 Snow -6 997 79 5000 0.45 80 11:45 24.12.2021
4708 Snow -6 997 79 5000 0.89 141 11:24 24.12.2021
4709 Snow -7 998 79 10000 0.89 174 10:36 24.12.2021
4710 Snow -8 1000 85 10000 0.89 99 09:22 24.12.2021
4711 Snow -9 1001 85 10000 0.45 193 08:19 24.12.2021
4712 Snow -10 1002 81 10000 0.89 163 07:42 24.12.2021
4713 Clear -11 1006 78 10000 3.13 190 00:47 24.12.2021
4714 Clear -11 1007 81 10000 4.02 190 23:50 23.12.2021
4715 Clouds -12 1007 85 10000 4.02 210 22:54 23.12.2021
4716 Clouds -12 1007 85 10000 3.13 200 22:26 23.12.2021
4717 Clouds -12 1018 85 10000 4.02 200 21:50 23.12.2021
4718 Clouds -13 1004 85 9000 3 210 20:53 23.12.2021
4719 Clear -12 1010 85 10000 4.02 220 19:30 23.12.2021
4720 Clouds -12 1010 85 9000 4.02 210 18:28 23.12.2021
4721 Clouds -12 1014 92 9000 3.13 220 17:46 23.12.2021
4722 Clouds -11 1015 85 9000 0.45 245 16:27 23.12.2021
4723 Clouds -11 1015 78 9000 0.45 237 15:54 23.12.2021
4724 Clear -10 1015 78 10000 0.45 266 15:30 23.12.2021
4725 Clouds -10 1023 78 10000 0.89 311 14:42 23.12.2021
4726 Clear -9 1023 78 10000 0.45 245 13:49 23.12.2021
4727 Clear -9 1016 72 10000 0.45 214 11:59 23.12.2021
4728 Snow -11 1017 85 9000 0.45 261 10:36 23.12.2021
4729 Snow -12 1015 85 8000 4.02 280 09:34 23.12.2021
4730 Snow -12 1018 85 9000 0.45 237 08:58 23.12.2021
4731 Snow -13 1017 84 10000 3.13 270 06:20 23.12.2021
4732 Snow -11 1017 85 3900 0.45 280 03:28 23.12.2021
4733 Snow -10 1013 72 5000 4.92 330 22:54 22.12.2021
4734 Snow -10 1013 72 7000 5.81 320 22:22 22.12.2021
4735 Snow -10 1016 78 8000 0.45 91 21:48 22.12.2021
4736 Snow -10 1013 78 8000 5.81 310 21:26 22.12.2021
4737 Snow -10 1016 85 10000 0.45 265 20:41 22.12.2021
4738 Snow -10 1016 78 9000 0.45 229 19:59 22.12.2021
4739 Snow -10 1016 72 8000 0.89 227 18:57 22.12.2021
4740 Snow -9 1015 67 10000 0.89 31 17:39 22.12.2021
4741 Snow -9 1012 72 10000 5.81 300 16:34 22.12.2021
4742 Clouds -9 1011 72 10000 4.92 290 15:24 22.12.2021
4743 Clouds -9 1014 72 10000 0.89 12 12:59 22.12.2021
4744 Clouds -9 1021 72 10000 0.89 43 11:58 22.12.2021
4745 Clouds -10 1014 66 10000 0.89 174 09:53 22.12.2021
4746 Snow -11 1014 78 10000 0.89 52 08:58 22.12.2021
4747 Clouds -12 1013 85 10000 0.45 152 07:22 22.12.2021
4748 Clouds -11 1012 85 10000 0.45 100 05:40 22.12.2021
4749 Clouds -12 1012 85 10000 0.89 229 05:21 22.12.2021
4750 Clear -12 1012 85 10000 0.45 244 04:43 22.12.2021
4751 Clear -12 1009 85 10000 0.45 14 03:56 22.12.2021
4752 Clear -12 1009 92 10000 0.89 121 03:31 22.12.2021
4753 Clouds -11 1008 85 10000 2 280 23:57 21.12.2021
4754 Clouds -11 1018 85 10000 0.45 103 22:49 21.12.2021
4755 Snow -11 1008 85 10000 0.45 253 22:27 21.12.2021
4756 Snow -10 1008 79 9000 0.45 243 21:43 21.12.2021
4757 Clouds -11 1010 78 10000 0.89 255 20:53 21.12.2021
4758 Snow -11 1001 85 10000 4 290 20:20 21.12.2021
4759 Snow -10 1010 72 10000 0.45 235 20:20 21.12.2021
4760 Snow -10 1010 72 10000 0.45 262 19:41 21.12.2021
4761 Snow -10 1010 66 10000 0.45 190 18:36 21.12.2021
4762 Clouds -10 1010 66 10000 0.45 241 17:59 21.12.2021
4763 Clear -10 1010 69 10000 0.89 232 17:40 21.12.2021
4764 Clear -10 1009 66 10000 0.45 263 15:46 21.12.2021
4765 Clouds -10 1015 61 10000 0.89 218 14:29 21.12.2021
4766 Clouds -10 1008 61 10000 0.89 245 13:42 21.12.2021
4767 Clouds -9 1014 61 10000 0.89 110 12:39 21.12.2021
4768 Clouds -9 1014 61 10000 0.89 45 10:52 21.12.2021
4769 Snow -9 1013 66 9000 0.45 53 09:57 21.12.2021
4770 Clouds -9 1006 61 10000 1.34 47 09:18 21.12.2021
4771 Snow -7 1005 78 2100 0.45 182 07:45 21.12.2021
4772 Snow -7 1004 79 9000 0.89 48 07:24 21.12.2021
4773 Snow -6 999 85 10000 4.92 320 04:37 21.12.2021
4774 Snow -5 1001 85 7000 0.45 107 02:31 21.12.2021
4775 Snow -4 999 79 8000 0.45 50 23:55 20.12.2021
4776 Snow -3 999 86 9000 0.45 39 22:44 20.12.2021
4777 Snow -3 999 86 9000 0.45 219 22:25 20.12.2021
4778 Snow -3 998 86 9000 0.45 17 21:27 20.12.2021
4779 Snow -3 995 86 2400 3.13 350 20:55 20.12.2021
4780 Snow -2 997 89 4600 0.45 31 20:24 20.12.2021
4781 Snow -3 997 92 4200 0.45 91 19:38 20.12.2021
4782 Snow -3 997 92 4200 0.45 91 19:38 20.12.2021
4783 Snow -3 997 92 4200 0.45 42 19:19 20.12.2021
4784 Snow -2 996 86 2500 0.89 334 18:33 20.12.2021
4785 Snow -2 996 92 1100 0.45 57 17:51 20.12.2021
4786 Snow -1 995 92 1400 3.13 10 16:47 20.12.2021
4787 Snow 0 995 80 10000 0.45 346 16:18 20.12.2021
4788 Snow 0 994 86 10000 4.02 290 15:40 20.12.2021
4789 Clouds 0 994 86 10000 0.45 242 14:26 20.12.2021
4790 Rain 1 993 80 10000 0.45 215 12:40 20.12.2021
4791 Snow 0 990 83 10000 4.92 300 10:50 20.12.2021
4792 Snow 0 990 86 10000 4.92 300 09:40 20.12.2021
4793 Snow 0 990 95 10000 4.92 290 08:50 20.12.2021
4794 Snow 0 992 92 10000 0.45 168 08:32 20.12.2021
4795 Snow 0 992 86 10000 0.45 254 07:35 20.12.2021
4796 Snow 0 992 95 5000 0.45 120 06:39 20.12.2021
4797 Clouds 0 987 95 10000 4.02 300 00:26 20.12.2021
4798 Snow 1 990 93 8000 0.45 281 22:58 19.12.2021
4799 Snow 1 990 95 10000 0.45 169 22:40 19.12.2021
4800 Clouds 1 989 93 10000 0.45 216 21:32 19.12.2021
4801 Snow 1 989 90 10000 4.02 290 20:42 19.12.2021
4802 Snow 1 989 90 10000 0.45 298 20:23 19.12.2021
4803 Rain 2 989 91 10000 0.45 153 19:41 19.12.2021
4804 Clouds 2 989 91 10000 1.34 245 18:42 19.12.2021
4805 Clouds 3 989 91 9000 0.45 172 17:53 19.12.2021
4806 Rain 3 989 93 9000 0.89 44 17:34 19.12.2021
4807 Clouds 3 986 95 10000 5.81 280 16:41 19.12.2021
4808 Clouds 3 986 95 10000 7.15 280 15:56 19.12.2021
4809 Clouds 3 989 95 8000 1.34 235 15:24 19.12.2021
4810 Rain 3 989 95 10000 0.89 305 14:45 19.12.2021
4811 Clouds 3 989 91 10000 1.34 273 13:32 19.12.2021
4812 Clouds 3 989 95 10000 0.89 280 12:59 19.12.2021
4813 Clouds 3 990 95 9000 0.45 273 12:29 19.12.2021
4814 Rain 2 992 100 8000 0.45 145 11:37 19.12.2021
4815 Snow 1 992 95 5000 0.45 149 10:50 19.12.2021
4816 Rain 2 1000 100 7000 0.89 225 10:22 19.12.2021
4817 Rain 2 994 95 2300 0.45 235 08:50 19.12.2021
4818 Drizzle 1 996 100 3400 1.79 259 06:45 19.12.2021
4819 Snow 1 1003 93 10000 0.45 265 01:52 19.12.2021
4820 Drizzle 0 1001 100 6000 4.92 240 00:54 19.12.2021
4821 Snow 0 1004 95 9000 4.02 240 23:18 18.12.2021
4822 Snow 0 1008 92 9000 0.45 180 22:24 18.12.2021
4823 Clouds 0 1008 95 10000 4.02 250 21:44 18.12.2021
4824 Clouds 0 1008 95 10000 4.02 250 21:25 18.12.2021
4825 Clouds -1 1009 95 10000 0.45 99 20:26 18.12.2021
4826 Clouds -1 1010 95 10000 0.45 209 19:35 18.12.2021
4827 Snow -1 1011 90 7000 0.45 213 18:24 18.12.2021
4828 Clouds 0 1011 86 10000 0.45 116 17:49 18.12.2021
4829 Clouds 0 1012 80 10000 0.45 134 16:48 18.12.2021
4830 Snow 0 1012 74 10000 0.45 241 16:20 18.12.2021
4831 Clouds 0 1010 90 10000 4.92 300 14:54 18.12.2021
4832 Clouds 0 1010 86 10000 4.02 320 13:45 18.12.2021
4833 Clouds 0 1013 86 10000 0.45 29 11:57 18.12.2021
4834 Snow 0 1014 90 9000 0.45 22 09:54 18.12.2021
4835 Snow 0 1014 90 1100 0.45 80 09:31 18.12.2021
4836 Snow 0 1014 90 7000 0.89 48 08:36 18.12.2021
4837 Clouds 0 1013 86 10000 0.89 330 06:28 18.12.2021
4838 Snow 1 1008 86 10000 4.92 340 01:45 18.12.2021
4839 Clouds 1 1007 90 10000 4.02 350 23:49 17.12.2021
4840 Rain 1 1006 90 10000 4.02 340 22:39 17.12.2021
4841 Clouds 1 1006 90 10000 4.92 350 21:31 17.12.2021
4842 Clouds 2 1009 86 10000 0.89 44 20:43 17.12.2021
4843 Rain 2 1009 91 10000 0.89 2 19:56 17.12.2021
4844 Clouds 2 1008 86 10000 0.89 344 18:40 17.12.2021
4845 Clouds 2 1008 91 10000 0.45 46 17:50 17.12.2021
4846 Clouds 2 1007 86 8000 4.92 320 16:53 17.12.2021
4847 Clouds 2 1007 88 10000 3.13 320 16:27 17.12.2021
4848 Clouds 3 1007 86 10000 0.89 301 15:49 17.12.2021
4849 Clouds 2 1008 87 10000 0.45 273 14:43 17.12.2021
4850 Clouds 2 1008 89 7000 0.45 60 13:51 17.12.2021
4851 Clouds 4 1008 85 10000 0.89 20 12:36 17.12.2021
4852 Clouds 3 1008 93 10000 0.45 10 10:42 17.12.2021
4853 Clouds 3 1008 93 9000 0.45 13 09:47 17.12.2021
4854 Clouds 3 1006 93 10000 5.81 310 08:32 17.12.2021
4855 Clouds 3 1006 93 10000 5.81 310 07:38 17.12.2021
4856 Clouds 3 1009 94 10000 0.45 69 04:41 17.12.2021
4857 Clouds 4 1008 94 9000 4.02 290 00:28 17.12.2021
4858 Clouds 4 1009 98 6000 4.02 290 22:25 16.12.2021
4859 Clouds 4 1009 98 6000 4.02 290 21:55 16.12.2021
4860 Clouds 4 1009 98 6000 4.02 290 21:36 16.12.2021
4861 Mist 4 1009 94 5000 4.02 290 20:40 16.12.2021
4862 Mist 4 1012 92 3700 0.45 163 19:52 16.12.2021
4863 Mist 3 1012 96 3200 0.89 242 18:45 16.12.2021
4864 Mist 3 1012 98 4700 0.45 251 18:26 16.12.2021
4865 Mist 3 1011 98 4900 4.02 280 17:35 16.12.2021
4866 Rain 3 1011 98 5000 4.02 260 16:23 16.12.2021
4867 Rain 3 1013 94 3200 0.45 245 15:22 16.12.2021
4868 Mist 2 1014 96 4700 4.92 260 13:44 16.12.2021
4869 Rain 2 1015 94 5000 0.45 74 11:48 16.12.2021
4870 Rain 1 1013 97 5000 0.89 241 11:18 16.12.2021
4871 Clouds 1 1016 94 6000 0.45 359 10:39 16.12.2021
4872 Clouds 1 1016 94 7000 0.89 73 09:39 16.12.2021
4873 Mist 0 1016 99 5000 3.13 250 06:23 16.12.2021
4874 Mist 0 1017 98 5000 3.13 290 03:19 16.12.2021
4875 Clouds 0 1020 93 7000 1.79 310 23:36 15.12.2021
4876 Clouds 0 1020 93 6000 1.79 320 22:49 15.12.2021
4877 Mist 0 1020 93 4500 1.79 330 22:19 15.12.2021
4878 Mist 0 1020 95 5000 0.89 86 21:31 15.12.2021
4879 Mist 0 1020 95 5000 3.13 320 20:32 15.12.2021
4880 Mist -1 1020 75 4200 0.45 338 19:53 15.12.2021
4881 Clouds -1 1018 99 6000 1.79 340 18:41 15.12.2021
4882 Mist -1 1016 100 4500 3.13 320 18:18 15.12.2021
4883 Clouds -1 1015 100 6000 3.13 330 17:40 15.12.2021
4884 Mist -1 1017 99 5000 3.13 340 16:57 15.12.2021
4885 Clouds -1 1024 95 8000 3.13 340 15:47 15.12.2021
4886 Clouds -1 1015 95 9000 3.13 330 15:29 15.12.2021
4887 Clouds -1 1017 91 10000 3.13 350 14:44 15.12.2021
4888 Clouds -1 1024 87 10000 3 320 13:27 15.12.2021
4889 Clouds 0 1017 88 10000 3.13 330 10:58 15.12.2021
4890 Clouds 0 1017 88 10000 4.02 330 09:31 15.12.2021
4891 Clouds 0 1016 96 6000 3.13 350 07:47 15.12.2021
4892 Mist 0 1015 96 3800 4.02 330 02:40 15.12.2021
4893 Mist 1 1015 96 4800 3.13 330 23:44 14.12.2021
4894 Mist 1 1016 96 4300 1.79 330 22:52 14.12.2021
4895 Mist 1 1015 96 5000 1.79 20 22:34 14.12.2021
4896 Clouds 1 1017 73 7000 0.45 325 21:24 14.12.2021
4897 Clouds 1 1023 96 10000 0.45 219 19:44 14.12.2021
4898 Clouds 1 1017 96 10000 0.45 79 19:21 14.12.2021
4899 Snow 1 1017 96 7000 0.45 112 18:34 14.12.2021
4900 Snow 1 1023 95 9000 0.45 26 17:50 14.12.2021
4901 Rain 1 1017 96 7000 0.45 313 16:43 14.12.2021
4902 Clouds 1 1017 96 6000 0.45 335 15:52 14.12.2021
4903 Mist 1 1016 96 4700 0.45 332 13:33 14.12.2021
4904 Snow 1 1016 96 9000 0.45 345 12:41 14.12.2021
4905 Clouds 1 1023 96 8000 0.45 288 11:24 14.12.2021
4906 Snow 1 1023 96 7000 4.02 10 10:27 14.12.2021
4907 Snow 1 1023 96 6000 0.45 346 09:53 14.12.2021
4908 Snow 0 1023 100 2700 0.45 21 08:29 14.12.2021
4909 Snow 0 1023 100 3800 0.45 320 07:59 14.12.2021
4910 Snow 0 1022 100 4800 0.45 42 06:27 14.12.2021
4911 Rain 1 1021 96 6000 0.45 355 23:39 13.12.2021
4912 Mist 1 1021 96 4400 0.45 16 21:57 13.12.2021
4913 Mist 1 1021 96 4800 0.89 40 21:34 13.12.2021
4914 Mist 1 1021 96 4800 0.89 40 21:34 13.12.2021
4915 Mist 1 1021 96 5000 0.89 70 20:50 13.12.2021
4916 Clouds 1 1021 96 6000 1.79 80 19:59 13.12.2021
4917 Mist 1 1021 96 5000 0.45 14 19:27 13.12.2021
4918 Mist 1 1015 96 4900 0.45 36 17:27 13.12.2021
4919 Mist 1 1021 96 4900 1.79 60 17:27 13.12.2021
4920 Rain 1 1020 96 4800 3.13 50 16:23 13.12.2021
4921 Rain 1 1020 96 3900 0.45 334 15:43 13.12.2021
4922 Rain 1 1020 96 3900 0.45 334 15:43 13.12.2021
4923 Rain 1 1019 96 4500 1.79 100 13:52 13.12.2021
4924 Rain 1 1019 96 2700 0.45 238 13:18 13.12.2021
4925 Rain 1 1019 96 4000 0.45 11 12:36 13.12.2021
4926 Mist 1 1020 96 4300 0.45 283 11:40 13.12.2021
4927 Rain 1 1020 96 5000 0.45 310 11:19 13.12.2021
4928 Rain 1 1020 96 6000 0.45 136 10:21 13.12.2021
4929 Mist 1 1014 96 5000 0.45 70 08:28 13.12.2021
4930 Snow 1 1012 93 3300 0.45 319 05:37 13.12.2021
4931 Mist 1 1013 93 4000 0.45 143 03:32 13.12.2021
4932 Mist 1 1014 93 1800 0.45 78 23:39 12.12.2021
4933 Rain 1 1022 100 1700 0.45 95 21:52 12.12.2021
4934 Mist 0 1022 100 1400 4 110 20:45 12.12.2021
4935 Mist 1 1022 100 3300 0.89 122 19:33 12.12.2021
4936 Fog 2 1022 46 500 0.89 125 17:46 12.12.2021
4937 Fog 2 1022 42 750 0.45 92 16:28 12.12.2021
4938 Fog 2 1022 46 1300 0.45 304 15:51 12.12.2021
4939 Fog 2 1022 46 750 0.89 127 15:26 12.12.2021
4940 Fog 3 1022 46 650 0.45 335 14:37 12.12.2021
4941 Fog 3 1013 46 300 0.45 124 13:34 12.12.2021
4942 Fog 3 1013 46 300 0.45 11 12:37 12.12.2021
4943 Fog 4 1016 58 450 0.45 338 11:44 12.12.2021
4944 Fog 4 1016 63 350 0.45 289 11:25 12.12.2021
4945 Fog 4 1016 63 350 0.89 212 10:39 12.12.2021
4946 Fog 4 1017 71 750 0.45 88 09:44 12.12.2021
4947 Fog 5 1016 76 500 0.89 184 08:38 12.12.2021
4948 Fog 6 1015 76 900 0.89 41 06:34 12.12.2021
4949 Mist 6 1013 100 1700 1.79 120 05:27 12.12.2021
4950 Clouds 6 1015 73 9000 0.45 87 03:58 12.12.2021
4951 Clouds 6 1013 73 10000 0.45 181 00:36 12.12.2021
4952 Clouds 7 1012 71 9000 0.45 82 22:24 11.12.2021
4953 Clouds 7 1011 73 9000 0.89 117 21:52 11.12.2021
4954 Clouds 7 1011 73 6000 0.45 179 21:22 11.12.2021
4955 Mist 7 1010 71 5000 0.89 17 19:40 11.12.2021
4956 Mist 7 1009 68 4300 0.89 137 18:53 11.12.2021
4957 Mist 6 1009 73 3300 0.89 241 18:30 11.12.2021
4958 Rain 6 1008 68 4500 0.89 120 17:37 11.12.2021
4959 Rain 5 1008 68 7000 0.45 345 15:55 11.12.2021
4960 Rain 6 1007 59 7000 0.89 82 15:35 11.12.2021
4961 Rain 6 1007 68 9000 0.89 103 13:46 11.12.2021
4962 Clouds 6 1007 97 8000 0.89 37 11:55 11.12.2021
4963 Rain 7 1007 97 4500 1.79 116 09:57 11.12.2021
4964 Clouds 7 1007 96 8000 1.34 68 09:34 11.12.2021
4965 Rain 7 1007 96 10000 0.45 116 02:41 11.12.2021
4966 Clouds 7 1007 95 10000 0.89 133 00:42 11.12.2021
4967 Clouds 7 1006 95 10000 0.89 252 23:24 10.12.2021
4968 Rain 8 1006 91 10000 0.45 120 21:57 10.12.2021
4969 Rain 8 1006 93 10000 0.45 59 21:37 10.12.2021
4970 Clouds 7 1006 95 10000 0.89 129 19:23 10.12.2021
4971 Clouds 7 1006 96 10000 0.89 105 18:57 10.12.2021
4972 Rain 7 1012 97 9000 0.89 145 17:21 10.12.2021
4973 Clouds 7 1012 96 7000 0.45 28 16:30 10.12.2021
4974 Mist 7 1006 95 5000 0.89 286 15:42 10.12.2021
4975 Clouds 6 1013 96 6000 0.89 132 15:22 10.12.2021
4976 Clouds 6 1013 96 6000 0.89 199 13:52 10.12.2021
4977 Mist 6 1012 96 5000 0.89 175 13:27 10.12.2021
4978 Mist 5 1013 96 5000 0.45 147 12:47 10.12.2021
4979 Clouds 5 1014 96 8000 0.89 182 11:34 10.12.2021
4980 Clouds 5 1015 96 9000 0.45 127 10:38 10.12.2021
4981 Clouds 5 1015 97 8000 0.89 32 09:19 10.12.2021
4982 Mist 4 1009 99 4600 0.45 231 07:21 10.12.2021
4983 Fog 3 1009 99 750 3.13 100 02:51 10.12.2021
4984 Fog 2 1010 99 750 3.13 80 00:57 10.12.2021
4985 Drizzle 2 1010 99 1100 0.45 321 23:37 09.12.2021
4986 Drizzle 2 1010 98 1300 0.45 79 22:40 09.12.2021
4987 Drizzle 2 1010 98 1600 0.45 31 22:19 09.12.2021
4988 Drizzle 2 1010 98 1400 0.45 343 21:20 09.12.2021
4989 Drizzle 2 1010 97 2800 0.45 61 20:34 09.12.2021
4990 Mist 1 1009 98 1200 0.45 338 19:22 09.12.2021
4991 Mist 1 1009 98 1200 4.02 50 18:50 09.12.2021
4992 Mist 1 1009 98 2400 3.13 60 17:57 09.12.2021
4993 Mist 1 1015 98 2300 0.89 344 17:27 09.12.2021
4994 Mist 1 1009 98 2500 0.45 343 16:57 09.12.2021
4995 Mist 1 1009 98 3300 0.45 351 15:59 09.12.2021
4996 Drizzle 1 1009 95 1100 0.45 356 14:51 09.12.2021
4997 Drizzle 1 1008 95 1400 0.45 1 13:39 09.12.2021
4998 Drizzle 1 1008 95 1400 0.45 346 12:47 09.12.2021
4999 Drizzle 0 1014 98 1000 3.13 30 11:25 09.12.2021
5000 Fog 0 1014 98 900 3.13 30 09:45 09.12.2021
5001 Rain 0 1005 97 5000 4 20 06:51 09.12.2021
5002 Rain 0 1005 98 6000 4.02 20 03:46 09.12.2021
5003 Rain 0 1004 98 7000 4.02 20 23:46 08.12.2021
5004 Rain 0 1004 98 7000 4.02 30 23:26 08.12.2021
5005 Rain 0 1004 98 2400 4.92 30 22:50 08.12.2021
5006 Rain 0 1004 98 2500 4.92 30 21:46 08.12.2021
5007 Rain 0 1004 98 2600 4.92 30 21:28 08.12.2021
5008 Rain 0 1004 98 2500 4.02 20 20:18 08.12.2021
5009 Mist 0 1004 98 1300 4.02 20 19:37 08.12.2021
5010 Mist 0 1004 98 1100 4.02 20 18:53 08.12.2021
5011 Mist 0 1010 98 1300 4.92 30 17:47 08.12.2021
5012 Mist 0 1009 95 1400 5.81 30 15:58 08.12.2021
5013 Mist 0 1009 95 1600 5.81 40 15:29 08.12.2021
5014 Mist 0 1009 95 1400 5.81 40 14:50 08.12.2021
5015 Rain 0 1009 95 9000 5.81 20 12:32 08.12.2021
5016 Rain 0 1003 95 9000 0.89 183 10:32 08.12.2021
5017 Rain 0 1004 95 6000 0.89 183 09:30 08.12.2021
5018 Mist 0 1004 94 5000 0.45 42 07:29 08.12.2021
5019 Mist -1 1004 97 2600 0.89 323 04:57 08.12.2021
5020 Mist 0 1004 95 3400 0.89 11 23:34 07.12.2021
5021 Mist 0 1004 95 4400 0.89 18 21:55 07.12.2021
5022 Snow 0 1004 98 7000 1.34 3 21:23 07.12.2021
5023 Rain 0 1003 98 6000 0.89 24 20:24 07.12.2021
5024 Rain 0 1009 98 4900 1.34 27 18:47 07.12.2021
5025 Rain 0 1009 99 4200 0.89 18 17:53 07.12.2021
5026 Snow 0 1009 99 9000 4.92 10 17:20 07.12.2021
5027 Rain 0 1009 99 6000 0.45 55 16:31 07.12.2021
5028 Drizzle 0 1009 99 9000 0.89 37 15:34 07.12.2021
5029 Rain 1 1009 97 9000 0.89 24 14:30 07.12.2021
5030 Rain 1 1008 97 9000 0.89 49 12:56 07.12.2021
5031 Rain 1 1008 97 9000 0.89 49 12:56 07.12.2021
5032 Rain 1 1008 99 7000 1.34 12 11:52 07.12.2021
5033 Snow 1 1009 97 10000 0.89 22 10:36 07.12.2021
5034 Clouds 2 1003 97 10000 1.79 360 08:39 07.12.2021
5035 Clouds 2 1002 97 8000 0.45 53 06:20 07.12.2021
5036 Mist 2 1002 97 5000 1.79 250 05:37 07.12.2021
5037 Fog 1 1007 99 750 0.89 100 23:49 06.12.2021
5038 Rain 1 1001 100 1500 1.79 90 22:58 06.12.2021
5039 Rain 1 1001 100 1400 1.79 90 22:37 06.12.2021
5040 Rain 1 1002 99 2800 3.13 90 21:52 06.12.2021
5041 Mist 1 1002 99 3300 4.02 90 20:34 06.12.2021
5042 Rain 1 1002 99 4100 0.45 348 19:56 06.12.2021
5043 Rain 1 1002 99 3800 4.02 90 19:21 06.12.2021
5044 Rain 1 1003 99 3100 4.02 80 18:28 06.12.2021
5045 Rain 1 1010 99 3300 0.45 56 17:40 06.12.2021
5046 Mist 1 1010 99 3300 0.45 56 17:40 06.12.2021
5047 Rain 1 1010 99 3600 0.45 65 16:48 06.12.2021
5048 Mist 1 1010 96 3400 4.02 90 15:39 06.12.2021
5049 Fog 0 1010 98 400 3.13 100 13:46 06.12.2021
5050 Fog 0 1010 98 450 4.02 110 12:39 06.12.2021
5051 Fog 0 1011 98 500 3.13 110 11:36 06.12.2021
5052 Fog 0 1006 98 1000 0.45 117 08:46 06.12.2021
5053 Mist -1 1005 98 4700 1.79 110 06:40 06.12.2021
5054 Snow -2 1005 93 3800 0.45 110 22:54 05.12.2021
5055 Snow -2 1005 93 5000 0.45 141 21:51 05.12.2021
5056 Snow -2 1005 89 6000 3.13 120 21:19 05.12.2021
5057 Snow -3 1007 84 6000 0.45 134 20:19 05.12.2021
5058 Snow -3 1006 93 6000 3.13 150 19:33 05.12.2021
5059 Snow -3 1005 89 6000 3.13 140 18:47 05.12.2021
5060 Snow -3 1005 89 6000 0.89 194 18:19 05.12.2021
5061 Snow -3 1005 89 6000 0.45 228 17:48 05.12.2021
5062 Snow -2 1005 77 7000 0.45 196 16:47 05.12.2021
5063 Snow -2 1006 79 7000 0.45 212 16:26 05.12.2021
5064 Snow -1 1006 75 8000 0.45 125 15:34 05.12.2021
5065 Clear -1 1005 72 10000 0.45 156 14:37 05.12.2021
5066 Clear 0 1005 69 10000 3.13 120 14:19 05.12.2021
5067 Clear 1 1011 67 10000 0.45 115 13:22 05.12.2021
5068 Clear 1 1011 57 10000 0.45 153 12:40 05.12.2021
5069 Clear 1 1011 65 10000 0.45 252 12:18 05.12.2021
5070 Clear 0 1011 81 10000 0.45 67 11:29 05.12.2021
5071 Clear -1 1004 85 10000 0.45 135 09:59 05.12.2021
5072 Clear -4 1004 92 10000 1.79 150 07:55 05.12.2021
5073 Clear -3 1005 86 10000 0.89 0 03:27 05.12.2021
5074 Clouds -3 1003 82 7000 0 0 23:45 04.12.2021
5075 Clouds -2 1005 84 9000 0.89 0 21:55 04.12.2021
5076 Clear -1 1005 81 10000 0.89 0 20:57 04.12.2021
5077 Clouds -2 1005 83 9000 1.79 180 19:55 04.12.2021
5078 Clouds -2 1006 83 8000 1.79 180 19:32 04.12.2021
5079 Mist -2 1006 86 5000 1.79 170 18:20 04.12.2021
5080 Clouds -3 1006 85 8000 0 0 17:38 04.12.2021
5081 Clear -2 1006 82 7000 0 0 16:49 04.12.2021
5082 Clear -1 1006 81 7000 0 0 16:30 04.12.2021
5083 Clear 0 1006 74 9000 0 0 15:22 04.12.2021
5084 Clear 1 1013 66 10000 0.45 103 11:50 04.12.2021
5085 Clear 1 1006 80 10000 1.79 230 11:32 04.12.2021
5086 Clear 0 1003 86 10000 1.79 260 10:44 04.12.2021
5087 Clear -3 1004 92 10000 3.13 230 08:47 04.12.2021
5088 Clouds -4 1005 86 9000 1.79 240 06:26 04.12.2021
5089 Clear -3 1006 86 10000 0.45 225 04:42 04.12.2021
5090 Clear -2 1005 85 10000 0.89 151 00:24 04.12.2021
5091 Clear -2 1005 85 10000 0.45 162 23:26 03.12.2021
5092 Clear -2 1005 85 10000 0.45 162 23:26 03.12.2021
5093 Clouds -2 1003 83 10000 4.02 260 22:46 03.12.2021
5094 Clouds 0 1004 82 10000 0.45 240 21:26 03.12.2021
5095 Clouds -1 1004 86 10000 0.89 252 20:52 03.12.2021
5096 Snow 0 1002 85 10000 0.89 282 19:50 03.12.2021
5097 Clouds 1 1002 82 10000 0.45 44 18:34 03.12.2021
5098 Clouds 1 1001 82 10000 0.89 239 17:59 03.12.2021
5099 Snow 1 1005 86 3100 0.45 188 15:36 03.12.2021
5100 Snow 2 996 82 9000 0.45 53 12:54 03.12.2021
5101 Clouds 2 995 87 9000 1.34 351 11:49 03.12.2021
5102 Clouds 3 993 83 10000 4.02 270 10:55 03.12.2021
5103 Clouds 2 993 87 10000 0.89 250 08:26 03.12.2021
5104 Clear 2 990 95 10000 0.89 0 07:42 03.12.2021
5105 Clear 2 993 81 10000 3.13 170 04:26 03.12.2021
5106 Clear 2 993 84 10000 0.89 0 00:48 03.12.2021
5107 Clouds 3 994 84 10000 1.79 250 23:47 02.12.2021
5108 Clear 2 1001 84 10000 1.79 240 22:24 02.12.2021
5109 Clear 3 1002 84 10000 3.13 230 21:35 02.12.2021
5110 Clear 2 1001 84 10000 3.13 240 20:40 02.12.2021
5111 Clear 2 993 83 10000 1.79 240 19:43 02.12.2021
5112 Clear 3 993 80 10000 4.02 220 18:33 02.12.2021
5113 Clear 4 992 69 10000 4.02 200 15:52 02.12.2021
5114 Clear 4 992 69 10000 4.02 200 15:28 02.12.2021
5115 Clear 4 992 68 10000 3.13 200 14:48 02.12.2021
5116 Clear 4 992 67 10000 3.13 210 12:53 02.12.2021
5117 Clear 4 992 67 10000 3.13 230 12:19 02.12.2021
5118 Clear 3 993 67 10000 4.92 200 10:38 02.12.2021
5119 Rain 2 993 66 10000 4.02 190 08:59 02.12.2021
5120 Snow 0 993 66 10000 4.02 170 05:34 02.12.2021
5121 Clouds -2 998 68 10000 0.45 230 00:55 02.12.2021
5122 Clear -4 998 78 10000 1.79 200 23:30 01.12.2021
5123 Clear -3 998 78 10000 0.89 0 22:25 01.12.2021
5124 Clouds -3 998 76 10000 1.79 230 21:36 01.12.2021
5125 Clear -2 997 63 10000 3.13 250 19:58 01.12.2021
5126 Clouds -2 998 69 10000 3.13 270 19:34 01.12.2021
5127 Clouds -1 997 60 10000 0.45 44 17:50 01.12.2021
5128 Clouds -1 997 59 10000 0.45 90 16:58 01.12.2021
5129 Clouds 0 996 73 10000 0.45 85 15:20 01.12.2021
5130 Clouds 1 993 83 10000 0.45 298 13:49 01.12.2021
5131 Clouds 1 993 80 10000 0.89 282 13:30 01.12.2021
5132 Snow 1 989 84 10000 0.89 241 10:43 01.12.2021
5133 Snow 1 989 82 10000 1.34 253 09:32 01.12.2021
5134 Snow 1 988 89 10000 4.92 270 08:36 01.12.2021
5135 Clouds 0 988 86 10000 3.13 250 07:38 01.12.2021
5136 Clouds 0 987 87 10000 0.45 102 07:19 01.12.2021
5137 Snow -1 987 85 3500 0.45 281 03:47 01.12.2021
5138 Snow -1 988 83 6000 0.45 233 02:34 01.12.2021
5139 Clear -1 987 80 10000 3.13 220 23:56 30.11.2021
5140 Clear -1 987 78 10000 3.13 220 23:28 30.11.2021
5141 Clouds 0 990 76 10000 3.13 230 21:55 30.11.2021
5142 Clouds 0 990 70 10000 0.89 51 20:46 30.11.2021
5143 Clouds 0 990 70 10000 0.89 336 20:19 30.11.2021
5144 Clouds 1 990 72 10000 0.89 250 19:38 30.11.2021
5145 Clear 1 990 79 10000 0.89 125 18:42 30.11.2021
5146 Clouds 1 990 76 10000 0.89 254 17:21 30.11.2021
5147 Clouds 2 991 62 10000 4.92 260 15:44 30.11.2021
5148 Clouds 2 996 59 10000 0.89 213 14:23 30.11.2021
5149 Clouds 2 989 64 10000 1.34 244 13:28 30.11.2021
5150 Clouds 3 989 63 10000 0.45 184 12:52 30.11.2021
5151 Clouds 3 989 62 10000 1.79 279 11:50 30.11.2021
5152 Clouds 3 989 63 10000 1.34 270 11:25 30.11.2021
5153 Clouds 3 989 66 10000 1.79 232 10:34 30.11.2021
5154 Clouds 3 989 62 10000 0.89 250 08:53 30.11.2021
5155 Clouds 3 989 62 10000 1.34 249 08:31 30.11.2021
5156 Clouds 3 989 65 10000 0.89 252 07:48 30.11.2021
5157 Clouds 3 985 73 10000 2.24 239 02:41 30.11.2021
5158 Clouds 3 984 74 10000 1.79 244 01:43 30.11.2021
5159 Clouds 3 983 76 10000 1.79 251 00:33 30.11.2021
5160 Clouds 3 981 78 10000 9.83 270 23:25 29.11.2021
5161 Clouds 3 983 82 10000 1.34 300 22:57 29.11.2021
5162 Clouds 3 983 82 10000 0.45 211 22:34 29.11.2021
5163 Clouds 3 982 87 10000 0.89 320 21:44 29.11.2021
5164 Clouds 5 988 83 10000 0.89 235 21:18 29.11.2021
5165 Clouds 5 981 91 10000 1.79 255 20:41 29.11.2021
5166 Clouds 6 981 91 10000 0.89 207 19:56 29.11.2021
5167 Clouds 6 980 92 10000 0.45 263 19:37 29.11.2021
5168 Clouds 8 975 98 10000 0.89 120 18:52 29.11.2021
5169 Clouds 8 985 89 10000 6.4 279 18:26 29.11.2021
5170 Clouds 8 985 90 10000 4.08 264 17:20 29.11.2021
5171 Rain 8 986 94 10000 2.04 239 16:32 29.11.2021
5172 Rain 8 986 94 10000 2.04 239 15:52 29.11.2021
5173 Rain 9 986 94 10000 1.3 210 14:43 29.11.2021
5174 Rain 9 987 91 10000 1.9 172 13:36 29.11.2021
5175 Rain 9 987 90 10000 2.28 162 12:42 29.11.2021
5176 Clouds 10 989 85 10000 3.9 161 11:41 29.11.2021
5177 Clouds 10 990 86 10000 4.45 151 10:58 29.11.2021
5178 Rain 9 992 100 6000 4 130 09:36 29.11.2021
5179 Clouds 8 994 100 7000 3 130 06:22 29.11.2021
5180 Mist 8 996 100 3800 3 130 03:46 29.11.2021
5181 Fog 7 998 100 1000 3 130 00:43 29.11.2021
5182 Fog 7 999 100 450 4 120 23:44 28.11.2021
5183 Fog 7 999 100 450 4 120 23:24 28.11.2021
5184 Mist 6 1000 100 1400 4 120 21:52 28.11.2021
5185 Mist 6 1000 100 1500 3 120 21:23 28.11.2021
5186 Fog 6 1000 100 700 3 120 20:35 28.11.2021
5187 Fog 5 1001 100 600 3 120 19:28 28.11.2021
5188 Rain 5 1002 100 650 3 130 18:35 28.11.2021
5189 Fog 4 1001 100 650 4 120 17:56 28.11.2021
5190 Fog 4 1001 100 750 4 130 17:32 28.11.2021
5191 Fog 4 1001 100 550 2 110 16:44 28.11.2021
5192 Fog 4 1001 100 550 2 110 16:22 28.11.2021
5193 Fog 5 1001 100 750 3 100 15:32 28.11.2021
5194 Fog 5 1002 100 550 4 120 14:48 28.11.2021
5195 Fog 4 1002 100 350 3 100 13:49 28.11.2021
5196 Fog 4 1003 100 400 3 110 12:51 28.11.2021
5197 Mist 5 1003 100 5000 3 120 11:18 28.11.2021
5198 Fog 4 1003 100 400 2 120 10:22 28.11.2021
5199 Fog 3 1004 100 250 2 110 09:38 28.11.2021
5200 Fog 1 1004 100 300 1 100 07:59 28.11.2021
5201 Mist 1 1003 100 3700 0 0 00:20 28.11.2021
5202 Mist 3 1001 93 5000 2 220 21:20 27.11.2021
5203 Clouds 5 1000 100 6000 1 270 19:47 27.11.2021
5204 Clouds 7 1000 87 9000 2 210 17:57 27.11.2021
5205 Clear 8 998 81 10000 1 0 15:59 27.11.2021
5206 Clear 10 998 76 10000 2 230 14:26 27.11.2021
5207 Clear 11 997 76 10000 3 230 12:58 27.11.2021
5208 Clear 10 996 81 10000 4 220 10:52 27.11.2021
5209 Clouds 9 996 93 10000 4 200 09:53 27.11.2021
5210 Clouds 8 996 100 10000 3 190 08:44 27.11.2021
5211 Clouds 7 995 100 10000 4 160 06:34 27.11.2021
5212 Rain 5 999 93 6000 6 130 01:59 27.11.2021
5213 Rain 6 1001 81 10000 6 130 23:40 26.11.2021
5214 Clouds 7 1003 76 10000 4 140 22:26 26.11.2021
5215 Clouds 6 1003 81 10000 4 140 21:41 26.11.2021
5216 Clouds 6 1003 81 10000 4 140 21:22 26.11.2021
5217 Clouds 7 1004 76 10000 6 150 20:40 26.11.2021
5218 Clouds 7 1005 76 10000 5 150 19:55 26.11.2021
5219 Clouds 6 1006 75 10000 3 150 18:44 26.11.2021
5220 Clear 6 1006 75 10000 4 170 17:24 26.11.2021
5221 Clear 6 1006 81 10000 3 160 16:29 26.11.2021
5222 Clear 7 1008 70 10000 3 180 14:25 26.11.2021
5223 Clear 7 1008 67 10000 0.89 121 13:31 26.11.2021
5224 Clear 5 1004 70 10000 0.89 99 10:43 26.11.2021
5225 Clear 4 1003 87 10000 0.89 196 09:41 26.11.2021
5226 Clouds 2 1003 92 10000 1.34 236 08:50 26.11.2021
5227 Clouds 2 1005 83 10000 0.45 224 08:19 26.11.2021
5228 Clouds 1 1004 85 10000 0.45 256 06:30 26.11.2021
5229 Clouds 1 1004 85 10000 0.45 174 06:29 26.11.2021
5230 Clouds 2 1005 82 10000 0.45 188 04:52 26.11.2021
5231 Clouds 3 1005 81 10000 1.34 239 03:32 26.11.2021
5232 Clouds 3 1008 73 10000 0.45 250 23:30 25.11.2021
5233 Clouds 3 1008 73 10000 1.34 134 22:19 25.11.2021
5234 Clouds 2 1009 77 10000 3.13 180 20:41 25.11.2021
5235 Clouds 2 1010 73 10000 0.45 194 19:21 25.11.2021
5236 Clear 1 1010 74 10000 3.13 170 18:19 25.11.2021
5237 Clear 2 1011 71 10000 3.13 180 17:27 25.11.2021
5238 Clouds 3 1011 61 10000 3.13 190 16:41 25.11.2021
5239 Clouds 3 1012 58 10000 0.89 195 15:58 25.11.2021
5240 Clouds 4 1013 54 10000 0.89 235 14:24 25.11.2021
5241 Clouds 4 1014 62 10000 0.45 225 12:55 25.11.2021
5242 Clouds 4 1014 71 10000 0.45 156 11:55 25.11.2021
5243 Clouds 4 1015 66 10000 3.13 200 10:31 25.11.2021
5244 Clouds 2 1016 75 10000 1.79 230 06:36 25.11.2021
5245 Clouds 2 1016 74 10000 1.79 220 02:54 25.11.2021
5246 Clouds 3 1015 57 10000 3.13 220 23:40 24.11.2021
5247 Clouds 3 1017 63 10000 3.13 220 22:29 24.11.2021
5248 Clouds 3 1017 63 10000 3.13 240 21:48 24.11.2021
5249 Clouds 3 1017 66 10000 4.02 230 21:19 24.11.2021
5250 Clouds 3 1015 61 10000 3.13 230 20:26 24.11.2021
5251 Clouds 3 1016 76 10000 0.45 217 19:20 24.11.2021
5252 Clouds 3 1017 67 10000 3.13 240 18:18 24.11.2021
5253 Clouds 3 1015 70 10000 4.02 240 16:20 24.11.2021
5254 Clouds 3 1017 74 10000 0.45 252 14:57 24.11.2021
5255 Clouds 3 1017 75 10000 3.13 240 14:21 24.11.2021
5256 Clouds 4 1017 78 10000 0.45 163 12:51 24.11.2021
5257 Clouds 3 1018 81 10000 0.45 126 11:22 24.11.2021
5258 Clouds 3 1018 81 10000 3.13 260 10:52 24.11.2021
5259 Clouds 3 1016 94 10000 0.45 229 10:34 24.11.2021
5260 Clouds 1 1017 85 6000 0.45 222 08:35 24.11.2021
5261 Snow 0 1017 88 5000 1.79 240 07:31 24.11.2021
5262 Clouds 0 1016 89 7000 3.13 280 03:59 24.11.2021
5263 Clouds 0 1015 86 7000 0.89 250 01:36 24.11.2021
5264 Clouds 0 1014 82 9000 1.79 100 23:30 23.11.2021
5265 Clouds 0 1014 85 8000 0.89 0 22:37 23.11.2021
5266 Clouds 0 1013 86 6000 0.89 110 21:45 23.11.2021
5267 Snow -1 1013 86 5000 1.79 130 20:21 23.11.2021
5268 Snow 0 1013 87 2400 1.79 100 19:22 23.11.2021
5269 Snow -1 1013 87 3600 1.79 90 18:33 23.11.2021
5270 Snow 0 1018 74 1300 1.79 150 17:23 23.11.2021
5271 Snow 0 1018 74 1300 1.79 150 17:23 23.11.2021
5272 Snow 1 1012 74 9000 1.79 110 16:35 23.11.2021
5273 Clear 1 1012 70 10000 0.89 300 15:25 23.11.2021
5274 Clear 2 1012 62 10000 1.79 310 14:39 23.11.2021
5275 Clouds 2 1013 66 10000 3.13 280 12:50 23.11.2021
5276 Clear 2 1014 81 10000 3.13 280 10:26 23.11.2021
5277 Clear 1 1020 76 10000 3.13 270 09:43 23.11.2021
5278 Clear -2 1013 87 10000 0.89 300 07:42 23.11.2021
5279 Clear -1 1013 68 10000 1.79 10 03:58 23.11.2021
5280 Clear 0 1013 67 10000 1.79 360 03:27 23.11.2021
5281 Clouds 2 1012 64 10000 4.02 40 23:26 22.11.2021
5282 Clouds 2 1012 68 10000 3.13 40 22:56 22.11.2021
5283 Clouds 2 1012 68 10000 0.45 300 22:29 22.11.2021
5284 Clouds 2 1012 71 10000 4.02 30 21:44 22.11.2021
5285 Clouds 3 1011 66 10000 4.02 20 20:56 22.11.2021
5286 Clouds 3 1011 70 10000 0.45 12 20:21 22.11.2021
5287 Clouds 3 1010 73 10000 0.45 12 19:20 22.11.2021
5288 Clouds 4 1010 72 10000 0.45 22 18:40 22.11.2021
5289 Clouds 4 1010 72 10000 0.45 48 17:46 22.11.2021
5290 Clouds 5 1009 68 10000 4.02 10 16:30 22.11.2021
5291 Clouds 6 1014 58 10000 0.45 54 14:28 22.11.2021
5292 Clouds 7 1013 63 10000 0.89 19 12:47 22.11.2021
5293 Clouds 7 1013 75 10000 0.89 50 10:45 22.11.2021
5294 Clouds 7 1007 63 10000 0.45 39 09:56 22.11.2021
5295 Clouds 7 1005 77 10000 0.89 2 08:41 22.11.2021
5296 Clouds 7 1005 68 10000 0.45 277 06:59 22.11.2021
5297 Clouds 9 1001 64 10000 0.89 223 23:39 21.11.2021
5298 Clouds 9 1001 64 10000 0.89 243 22:53 21.11.2021
5299 Clouds 9 1001 64 10000 0.45 151 22:26 21.11.2021
5300 Clouds 9 1000 67 10000 0.89 272 20:42 21.11.2021
5301 Clouds 9 1000 66 10000 0.89 272 20:42 21.11.2021
5302 Clouds 9 1000 67 10000 0.89 294 20:22 21.11.2021
5303 Clouds 9 1000 67 10000 0.89 266 18:30 21.11.2021
5304 Clouds 9 1000 67 10000 0.89 234 17:40 21.11.2021
5305 Clouds 9 1000 68 10000 0.89 259 16:52 21.11.2021
5306 Clouds 10 999 62 10000 0.45 219 14:47 21.11.2021
5307 Clouds 10 999 64 10000 0.89 226 13:54 21.11.2021
5308 Clouds 10 1000 65 10000 0.89 280 12:55 21.11.2021
5309 Clouds 10 1000 68 10000 0.89 236 11:58 21.11.2021
5310 Clouds 10 1000 68 10000 0.89 246 11:36 21.11.2021
5311 Clouds 9 1001 77 10000 0.89 256 10:19 21.11.2021
5312 Clouds 9 1001 72 10000 0.89 294 09:25 21.11.2021
5313 Clouds 9 1001 77 10000 0.89 115 08:31 21.11.2021
5314 Clouds 8 1001 82 10000 0.45 155 07:50 21.11.2021
5315 Clouds 7 1001 83 10000 0.89 273 06:23 21.11.2021
5316 Clouds 7 1001 83 10000 0.45 203 05:37 21.11.2021
5317 Clouds 6 1002 77 10000 0.89 230 03:21 21.11.2021
5318 Clouds 5 1000 78 10000 4.92 250 02:53 21.11.2021
5319 Clear 5 1003 77 10000 1.34 281 01:25 21.11.2021
5320 Clear 4 1001 74 10000 4.02 260 00:41 21.11.2021
5321 Clear 5 1004 71 10000 0.89 232 21:51 20.11.2021
5322 Clear 5 1002 57 10000 4.92 270 21:30 20.11.2021
5323 Clear 6 1003 59 10000 1.34 252 19:24 20.11.2021
5324 Clear 7 1003 56 10000 0.45 121 18:45 20.11.2021
5325 Clear 8 1002 55 10000 0.89 256 18:19 20.11.2021
5326 Clear 9 1001 49 10000 0.89 257 17:19 20.11.2021
5327 Clear 10 999 45 10000 0.89 203 14:50 20.11.2021
5328 Clear 11 999 45 10000 1.79 285 14:28 20.11.2021
5329 Clouds 12 998 43 10000 1.34 223 13:33 20.11.2021
5330 Clouds 12 996 57 10000 2.24 232 11:24 20.11.2021
5331 Clouds 11 993 76 10000 8.94 300 09:55 20.11.2021
5332 Clouds 11 996 84 10000 1.34 248 08:32 20.11.2021
5333 Clouds 10 995 85 10000 1.34 227 05:30 20.11.2021
5334 Clouds 10 996 87 5000 0.89 236 04:51 20.11.2021
5335 Drizzle 9 996 87 5000 0.45 160 03:25 20.11.2021
5336 Rain 8 999 88 5000 0.45 147 00:42 20.11.2021
5337 Drizzle 8 1000 86 8000 0.89 213 23:45 19.11.2021
5338 Rain 8 1001 84 9000 0.45 208 22:53 19.11.2021
5339 Clouds 7 1001 87 10000 0.45 242 21:23 19.11.2021
5340 Clouds 7 1002 90 7000 0.89 294 20:39 19.11.2021
5341 Clouds 7 1000 88 10000 4.02 260 20:20 19.11.2021
5342 Clouds 7 1002 87 10000 0.89 250 19:43 19.11.2021
5343 Clouds 7 1003 88 8000 0.45 262 18:44 19.11.2021
5344 Drizzle 7 1003 87 7000 0.45 309 17:39 19.11.2021
5345 Clouds 6 1003 91 8000 0.45 231 16:40 19.11.2021
5346 Mist 6 1003 89 4200 0.45 147 14:51 19.11.2021
5347 Mist 4 1005 87 4900 0.45 289 10:57 19.11.2021
5348 Rain 4 1006 89 3100 0.45 165 10:23 19.11.2021
5349 Mist 3 1007 88 3700 0.45 263 08:32 19.11.2021
5350 Clouds 3 1009 81 7000 0.45 214 04:58 19.11.2021
5351 Mist 3 1008 84 5000 3.13 260 03:19 19.11.2021
5352 Mist 3 1010 85 4000 4.02 270 23:53 18.11.2021
5353 Mist 3 1012 84 4200 0.45 215 22:43 18.11.2021
5354 Mist 2 1011 80 3800 3.13 250 20:57 18.11.2021
5355 Mist 2 1011 80 4000 3.13 240 20:39 18.11.2021
5356 Drizzle 2 1013 78 5000 0.89 222 20:19 18.11.2021
5357 Clouds 2 1011 76 7000 4.02 260 19:36 18.11.2021
5358 Clouds 2 1013 70 8000 0.45 255 18:37 18.11.2021
5359 Rain 2 1013 69 9000 0.89 231 17:52 18.11.2021
5360 Clear 2 1013 73 10000 0.45 314 16:47 18.11.2021
5361 Clouds 3 1013 69 10000 0.45 175 15:56 18.11.2021
5362 Clear 3 1014 68 10000 4.02 250 14:40 18.11.2021
5363 Clouds 4 1014 66 10000 4.02 240 12:55 18.11.2021
5364 Clouds 3 1015 78 10000 0.45 238 11:44 18.11.2021
5365 Clouds 3 1015 78 10000 0.89 197 11:25 18.11.2021
5366 Clear 2 1015 76 10000 0.45 136 10:24 18.11.2021
5367 Clear -3 1015 89 9000 3.13 230 08:30 18.11.2021
5368 Clear -5 1015 76 9000 3 240 06:40 18.11.2021
5369 Clear -5 1015 78 8000 2 230 05:44 18.11.2021
5370 Clear -3 1018 71 10000 3.13 220 01:26 18.11.2021
5371 Clear -3 1018 75 10000 0.45 143 23:35 17.11.2021
5372 Clear -3 1018 74 10000 3.13 210 22:40 17.11.2021
5373 Clear -3 1018 73 10000 0.45 129 22:19 17.11.2021
5374 Clear -3 1018 75 10000 3.13 210 22:19 17.11.2021
5375 Clear -2 1019 66 10000 0.89 147 21:35 17.11.2021
5376 Clear -2 1018 70 10000 1.79 180 19:51 17.11.2021
5377 Clear -1 1019 65 10000 0.45 149 17:35 17.11.2021
5378 Clear 0 1019 64 10000 0.89 142 15:56 17.11.2021
5379 Clear 2 1026 61 10000 0.45 100 13:19 17.11.2021
5380 Clear 2 1026 67 10000 0.89 114 12:37 17.11.2021
5381 Clear 1 1020 70 10000 0.89 89 10:54 17.11.2021
5382 Clear -1 1021 82 10000 0.45 243 09:38 17.11.2021
5383 Clear -4 1021 99 9000 0.89 0 07:46 17.11.2021
5384 Clouds -5 1019 97 6000 0 0 07:23 17.11.2021
5385 Mist -5 1021 81 5000 0 0 02:48 17.11.2021
5386 Mist -4 1022 77 3700 0 0 23:58 16.11.2021
5387 Mist -4 1023 78 3400 0 0 22:25 16.11.2021
5388 Mist -3 1023 74 4600 0 0 20:19 16.11.2021
5389 Smoke -3 1024 73 4900 1 230 19:39 16.11.2021
5390 Smoke -2 1024 78 5000 0 0 18:43 16.11.2021
5391 Smoke -2 1026 75 5000 0.89 220 17:56 16.11.2021
5392 Clear -1 1027 75 7000 0.89 230 16:59 16.11.2021
5393 Clear -1 1027 72 7000 1.79 240 16:20 16.11.2021
5394 Clear 0 1027 68 10000 1.79 200 15:43 16.11.2021
5395 Clear 3 1034 58 10000 0.45 188 13:46 16.11.2021
5396 Clouds 1 1029 75 10000 0.45 45 10:27 16.11.2021
5397 Clouds 1 1031 60 10000 0.45 225 09:41 16.11.2021
5398 Clouds 0 1031 69 10000 0.45 221 07:47 16.11.2021
5399 Clouds 0 1031 69 10000 1.79 190 06:43 16.11.2021
5400 Clouds 0 1032 65 10000 0.89 191 23:26 15.11.2021
5401 Clouds 1 1032 63 10000 0.45 107 22:41 15.11.2021
5402 Clouds 1 1032 66 10000 0.89 339 21:57 15.11.2021
5403 Clouds 1 1032 67 10000 0.45 351 21:31 15.11.2021
5404 Clouds 1 1032 67 10000 0.89 199 20:35 15.11.2021
5405 Clouds 1 1031 75 10000 0.45 317 19:18 15.11.2021
5406 Clouds 1 1030 81 10000 0.89 330 17:31 15.11.2021
5407 Clouds 2 1029 80 10000 0.89 353 15:50 15.11.2021
5408 Clouds 2 1029 77 10000 0.89 324 15:32 15.11.2021
5409 Clouds 2 1034 87 8000 5 10 14:18 15.11.2021
5410 Clouds 4 1028 72 10000 0.45 40 12:37 15.11.2021
5411 Clouds 6 1032 78 9000 0.45 349 09:59 15.11.2021
5412 Clouds 5 1032 83 6000 0.45 21 09:19 15.11.2021
5413 Mist 5 1024 85 3800 0.45 51 06:54 15.11.2021
5414 Mist 5 1022 84 5000 0.89 90 00:37 15.11.2021
5415 Clouds 5 1021 87 6000 0 0 22:44 14.11.2021
5416 Clouds 5 1021 85 7000 0.89 0 21:18 14.11.2021
5417 Clouds 5 1021 85 6000 1.79 140 19:18 14.11.2021
5418 Clouds 5 1020 86 6000 1.79 140 18:54 14.11.2021
5419 Mist 5 1021 86 5000 1.79 120 18:36 14.11.2021
5420 Mist 5 1021 86 5000 0.45 181 18:18 14.11.2021
5421 Mist 5 1021 86 5000 1.79 140 17:58 14.11.2021
5422 Mist 5 1020 86 5000 0.45 236 17:39 14.11.2021
5423 Mist 5 1020 86 5000 1.79 130 17:21 14.11.2021
5424 Mist 5 1020 86 5000 1.79 110 16:57 14.11.2021
5425 Mist 5 1020 86 5000 0.45 131 16:39 14.11.2021
5426 Mist 5 1020 86 5000 0.45 132 16:18 14.11.2021
5427 Mist 5 1020 85 5000 0.89 0 15:19 14.11.2021
5428 Clouds 6 1017 94 6000 3 120 14:43 14.11.2021
5429 Clouds 6 1017 94 6000 0.45 131 14:20 14.11.2021
5430 Clouds 6 1017 94 6000 2 130 13:51 14.11.2021
5431 Mist 6 1011 87 5000 2 130 13:26 14.11.2021
5432 Mist 5 1011 93 5000 2 110 12:22 14.11.2021
5433 Mist 4 1027 93 5000 2 130 10:54 14.11.2021
5434 Mist 4 1012 93 4700 2 140 10:31 14.11.2021
5435 Mist 3 1021 84 5000 0.89 157 09:22 14.11.2021
5436 Fog 2 1017 100 600 1.79 120 08:46 14.11.2021
5437 Mist 1 1020 90 4800 1.79 100 04:46 14.11.2021
5438 Mist 1 1019 86 5000 2 100 22:28 13.11.2021
5439 Mist 1 1019 86 4900 3 90 21:59 13.11.2021
5440 Mist 1 1019 85 4300 3 90 21:30 13.11.2021
5441 Fog 2 1019 85 550 3 70 20:26 13.11.2021
5442 Mist 2 1019 84 1500 3 90 18:54 13.11.2021
5443 Fog 2 1019 83 450 0.45 319 18:28 13.11.2021
5444 Fog 2 1019 82 1200 0.45 67 17:32 13.11.2021
5445 Clouds 5 1020 75 9000 0.45 340 15:42 13.11.2021
5446 Clouds 7 1026 67 9000 0.45 14 14:41 13.11.2021
5447 Clear 8 1026 62 10000 1.79 60 13:46 13.11.2021
5448 Clouds 8 1026 67 10000 0.45 352 12:41 13.11.2021
5449 Clear 8 1026 79 10000 0.89 0 11:46 13.11.2021
5450 Clouds 7 1019 79 10000 0.45 76 10:57 13.11.2021
5451 Clouds 7 1019 79 9000 0.89 0 10:29 13.11.2021
5452 Clear 6 1019 84 6000 0 0 09:43 13.11.2021
5453 Mist 5 1019 94 5000 0.45 70 09:22 13.11.2021
5454 Mist 4 1019 99 3100 0.89 210 08:41 13.11.2021
5455 Fog 1 1018 99 1400 0 0 07:25 13.11.2021
5456 Fog 1 1017 85 2500 0 0 04:37 13.11.2021
5457 Mist 3 1016 83 5000 0 0 02:41 13.11.2021
5458 Clouds 3 1018 85 6000 0.89 240 23:33 12.11.2021
5459 Clear 4 1017 76 10000 1.79 320 21:52 12.11.2021
5460 Clouds 6 1016 68 10000 0.45 43 20:35 12.11.2021
5461 Clouds 7 1016 66 10000 0.89 227 19:31 12.11.2021
5462 Clouds 7 1016 66 10000 0.45 264 18:54 12.11.2021
5463 Clouds 7 1021 75 10000 4.02 320 17:36 12.11.2021
5464 Clouds 7 1014 74 10000 0.45 248 15:51 12.11.2021
5465 Clouds 10 1013 77 10000 0.45 196 13:26 12.11.2021
5466 Clouds 9 1013 76 10000 0.45 195 11:23 12.11.2021
5467 Clear 7 1012 76 10000 0.89 220 09:54 12.11.2021
5468 Clear 5 1009 80 10000 3.13 260 08:50 12.11.2021
5469 Clear 0 1011 75 10000 3.13 260 06:35 12.11.2021
5470 Clear 3 1015 64 10000 0.89 194 23:55 11.11.2021
5471 Clouds 3 1016 63 9000 3.13 230 22:49 11.11.2021
5472 Clear 3 1014 59 10000 1.79 250 21:43 11.11.2021
5473 Clear 4 1016 56 10000 0.45 269 20:51 11.11.2021
5474 Clouds 5 1017 53 10000 0.45 101 19:36 11.11.2021
5475 Clouds 5 1017 56 9000 0.45 133 18:25 11.11.2021
5476 Clear 5 1018 64 10000 0.45 204 17:40 11.11.2021
5477 Clear 7 1024 52 10000 0.45 210 15:21 11.11.2021
5478 Clear 8 1019 49 10000 0.45 107 14:38 11.11.2021
5479 Clear 8 1019 48 10000 0.45 249 14:19 11.11.2021
5480 Clear 8 1025 47 10000 0.45 221 13:35 11.11.2021
5481 Clear 8 1020 44 10000 0.89 145 12:26 11.11.2021
5482 Clear 5 1022 51 10000 0.89 232 09:55 11.11.2021
5483 Clear 3 1022 59 10000 0.89 282 08:47 11.11.2021
5484 Clear -1 1022 78 10000 0.45 194 06:45 11.11.2021
5485 Clear 0 1027 60 10000 0.45 219 00:38 11.11.2021
5486 Clear 1 1028 63 10000 1.79 200 22:42 10.11.2021
5487 Clear 2 1028 58 10000 0.45 19 21:53 10.11.2021
5488 Clear 2 1029 55 10000 0.45 134 20:55 10.11.2021
5489 Clear 3 1029 54 10000 0.45 150 19:55 10.11.2021
5490 Clear 3 1029 52 10000 0.45 196 19:35 10.11.2021
5491 Clear 2 1029 53 10000 0.45 211 17:19 10.11.2021
5492 Clear 3 1030 47 10000 0.45 214 15:46 10.11.2021
5493 Clear 5 1036 39 10000 0.45 94 14:24 10.11.2021
5494 Clear 6 1037 42 10000 0.45 225 13:31 10.11.2021
5495 Clear 5 1037 47 10000 0.45 195 12:23 10.11.2021
5496 Clear 1 1027 74 10000 0.89 0 09:18 10.11.2021
5497 Clear 0 1031 79 10000 0.89 0 08:41 10.11.2021
5498 Clear -3 1030 92 10000 1.79 260 06:45 10.11.2021
5499 Clear -3 1031 78 10000 1.79 230 05:58 10.11.2021
5500 Clear -3 1030 75 10000 1.79 300 01:56 10.11.2021
5501 Clouds 0 1028 70 10000 0.45 344 21:59 09.11.2021
5502 Clouds 1 1027 65 10000 0.89 4 20:39 09.11.2021
5503 Clouds 1 1026 64 10000 1.34 32 19:29 09.11.2021
5504 Clouds 1 1025 64 10000 0.45 210 18:48 09.11.2021
5505 Clouds 1 1029 64 10000 1.34 34 16:40 09.11.2021
5506 Clouds 3 1027 50 10000 0.89 83 15:20 09.11.2021
5507 Clouds 4 1026 56 10000 1.79 26 13:31 09.11.2021
5508 Clouds 4 1025 62 10000 0.89 8 12:28 09.11.2021
5509 Clouds 3 1025 74 10000 0.89 308 10:55 09.11.2021
5510 Clouds 4 1017 68 10000 0.89 10 09:44 09.11.2021
5511 Clouds 3 1017 65 10000 0.45 23 08:54 09.11.2021
5512 Clouds 3 1015 86 10000 1.34 11 07:28 09.11.2021
5513 Clouds 7 1012 71 10000 0.89 245 02:35 09.11.2021
5514 Clouds 7 1012 73 10000 0.89 230 01:50 09.11.2021
5515 Clouds 7 1012 72 10000 0.45 245 00:30 09.11.2021
5516 Clouds 7 1012 72 10000 0.45 245 00:30 09.11.2021
5517 Clouds 7 1010 61 10000 5.81 280 00:30 09.11.2021
5518 Clouds 7 1010 61 10000 5.81 280 00:30 09.11.2021
5519 Clouds 7 1009 61 10000 5.81 280 23:29 08.11.2021
5520 Clear 7 1011 63 10000 0.45 146 22:37 08.11.2021
5521 Clouds 8 1010 58 10000 1.34 255 21:31 08.11.2021
5522 Clouds 8 1010 58 10000 0.45 104 20:33 08.11.2021
5523 Clouds 8 1010 66 10000 0.45 86 19:20 08.11.2021
5524 Clouds 8 1009 65 10000 0.45 186 17:39 08.11.2021
5525 Clouds 8 1009 65 10000 0.45 186 17:39 08.11.2021
5526 Clouds 9 1009 55 10000 0.45 56 15:48 08.11.2021
5527 Rain 10 1008 53 10000 0.89 92 14:55 08.11.2021
5528 Clouds 10 1008 54 10000 0.45 214 14:24 08.11.2021
5529 Clouds 10 1008 54 10000 0.45 269 12:48 08.11.2021
5530 Clouds 10 1008 58 10000 0.89 243 11:54 08.11.2021
5531 Clouds 10 1006 76 10000 0.89 221 10:35 08.11.2021
5532 Clouds 7 1006 87 10000 0.45 255 08:56 08.11.2021
5533 Clear 7 1006 79 10000 0.45 266 07:56 08.11.2021
5534 Clear 5 1005 94 10000 0.45 255 06:54 08.11.2021
5535 Clear 7 1005 82 10000 3.13 240 03:35 08.11.2021
5536 Clouds 7 1007 78 10000 3.13 220 23:51 07.11.2021
5537 Clouds 7 1007 79 10000 0.45 249 22:48 07.11.2021
5538 Clouds 7 1008 78 10000 3.13 210 21:24 07.11.2021
5539 Clear 6 1009 82 10000 0.45 177 19:56 07.11.2021
5540 Clear 6 1010 80 10000 0.45 217 18:28 07.11.2021
5541 Clouds 6 1011 79 10000 0.45 205 17:38 07.11.2021
5542 Rain 7 1016 69 9000 0.89 199 16:20 07.11.2021
5543 Rain 9 1012 64 10000 0.45 237 14:47 07.11.2021
5544 Rain 9 1012 63 10000 0.45 198 14:24 07.11.2021
5545 Clear 11 1020 63 10000 0.89 275 11:58 07.11.2021
5546 Clear 11 1014 64 10000 0.45 252 11:18 07.11.2021
5547 Clear 6 1012 75 10000 4.02 260 08:58 07.11.2021
5548 Clouds 5 1017 77 10000 0.89 250 02:49 07.11.2021
5549 Clear 4 1016 75 10000 3.13 260 00:25 07.11.2021
5550 Clear 5 1018 73 10000 0.89 250 22:55 06.11.2021
5551 Clear 5 1016 70 10000 4.02 260 21:49 06.11.2021
5552 Clear 6 1016 69 10000 4.02 260 20:54 06.11.2021
5553 Clear 6 1016 68 10000 4.02 250 19:40 06.11.2021
5554 Clear 7 1018 68 10000 4.02 260 17:30 06.11.2021
5555 Clear 8 1018 66 10000 0.45 173 16:21 06.11.2021
5556 Clouds 11 1022 53 10000 0.89 227 13:39 06.11.2021
5557 Clouds 11 1022 53 10000 0.89 259 12:52 06.11.2021
5558 Clouds 9 1014 75 10000 7.15 280 09:55 06.11.2021
5559 Clear 8 1013 81 10000 5.81 280 08:33 06.11.2021
5560 Clouds 7 1016 86 10000 3.13 290 04:50 06.11.2021
5561 Rain 12 1013 83 10000 0.45 150 23:41 05.11.2021
5562 Rain 13 1013 81 10000 0.45 157 23:19 05.11.2021
5563 Clouds 13 1013 84 10000 4.02 310 22:32 05.11.2021
5564 Clouds 14 1012 91 6000 1.79 320 20:25 05.11.2021
5565 Clouds 14 1012 93 7000 0 0 19:50 05.11.2021
5566 Clouds 14 1012 94 8000 0 0 18:42 05.11.2021
5567 Clouds 14 1012 95 8000 0.89 0 17:42 05.11.2021
5568 Clouds 14 1011 95 9000 0 0 16:37 05.11.2021
5569 Clouds 16 1011 84 10000 1.79 190 14:18 05.11.2021
5570 Clouds 16 1011 86 9000 0.45 144 11:45 05.11.2021
5571 Clouds 14 1011 96 6000 0.45 156 09:22 05.11.2021
5572 Mist 13 1010 99 5000 3.13 170 07:46 05.11.2021
5573 Mist 12 1010 99 5000 1.79 170 05:33 05.11.2021
5574 Mist 11 1010 99 2100 1.79 130 02:27 05.11.2021
5575 Drizzle 10 1017 100 2600 0.45 154 00:54 05.11.2021
5576 Drizzle 10 1011 99 2800 0.45 138 23:45 04.11.2021
5577 Mist 10 1011 97 4100 0.45 151 22:21 04.11.2021
5578 Mist 10 1012 93 4700 0.45 156 21:52 04.11.2021
5579 Mist 10 1018 94 5000 0.89 157 21:19 04.11.2021
5580 Clouds 10 1012 90 10000 0.45 149 20:25 04.11.2021
5581 Clouds 10 1012 90 10000 0.89 151 19:49 04.11.2021
5582 Clouds 10 1012 90 10000 0.45 148 19:22 04.11.2021
5583 Clouds 10 1012 88 9000 0.45 152 18:22 04.11.2021
5584 Clouds 10 1011 96 6000 1.34 155 17:26 04.11.2021
5585 Clouds 10 1011 96 6000 1.34 155 17:26 04.11.2021
5586 Clear 11 1012 85 10000 0.89 144 15:35 04.11.2021
5587 Clear 13 1018 76 10000 0.45 142 13:45 04.11.2021
5588 Clouds 10 1020 88 9000 0.45 149 10:22 04.11.2021
5589 Mist 7 1015 95 3900 0.89 155 08:31 04.11.2021
5590 Clouds 6 1014 92 7000 0.45 154 07:36 04.11.2021
5591 Clouds 6 1014 91 9000 1.79 110 06:38 04.11.2021
5592 Fog 5 1011 90 500 0 0 22:54 03.11.2021
5593 Mist 5 1010 90 3600 0 0 21:57 03.11.2021
5594 Mist 6 1010 90 4100 0 0 21:35 03.11.2021
5595 Mist 6 1010 90 5000 0 0 20:39 03.11.2021
5596 Mist 6 1010 90 5000 0 0 20:39 03.11.2021
5597 Mist 6 1010 90 5000 0 0 20:19 03.11.2021
5598 Clouds 7 1011 87 8000 0 0 19:19 03.11.2021
5599 Clear 8 1010 84 10000 3.13 310 18:26 03.11.2021
5600 Clear 8 1009 87 10000 1.79 320 17:41 03.11.2021
5601 Clear 8 1010 87 10000 4.02 300 17:41 03.11.2021
5602 Clouds 10 1008 78 10000 3.13 270 16:42 03.11.2021
5603 Clouds 11 1007 79 10000 3.13 260 15:47 03.11.2021
5604 Clouds 12 1007 79 10000 3.13 260 15:29 03.11.2021
5605 Clouds 12 1005 94 9000 3.13 230 12:42 03.11.2021
5606 Clouds 11 1005 95 8000 3.13 200 11:28 03.11.2021
5607 Clouds 11 1003 96 8000 3 200 10:49 03.11.2021
5608 Clouds 10 1004 99 8000 0.45 142 09:40 03.11.2021
5609 Clouds 9 1002 99 8000 0.45 148 08:41 03.11.2021
5610 Mist 9 1003 99 4900 0.89 154 07:40 03.11.2021
5611 Mist 8 1002 99 3600 0.45 153 05:45 03.11.2021
5612 Mist 8 1002 99 3900 0.89 159 04:21 03.11.2021
5613 Mist 8 1002 99 5000 1.79 150 00:55 03.11.2021
5614 Drizzle 8 1001 99 6000 0.89 0 22:52 02.11.2021
5615 Clouds 8 1001 99 7000 1.79 190 21:47 02.11.2021
5616 Mist 8 1001 99 4900 0.45 147 20:34 02.11.2021
5617 Mist 8 1001 99 1800 1.79 130 19:56 02.11.2021
5618 Mist 8 1001 99 1300 1.79 110 19:20 02.11.2021
5619 Drizzle 8 1002 99 3200 0.89 0 18:27 02.11.2021
5620 Drizzle 8 1007 99 2500 0.89 90 17:43 02.11.2021
5621 Mist 8 1002 99 3000 1.79 80 16:34 02.11.2021
5622 Mist 7 1007 99 2200 3.13 80 15:48 02.11.2021
5623 Mist 7 1002 99 2600 4.02 80 14:50 02.11.2021
5624 Rain 7 1008 99 3600 0.45 145 13:29 02.11.2021
5625 Rain 7 1008 98 4700 0.45 146 12:46 02.11.2021
5626 Rain 7 1009 98 4000 4.02 70 11:38 02.11.2021
5627 Mist 6 1010 98 3200 0.45 148 10:54 02.11.2021
5628 Rain 6 1010 98 2300 0.45 143 10:31 02.11.2021
5629 Rain 6 1011 94 2800 4.02 100 09:23 02.11.2021
5630 Mist 6 1006 86 2600 0.45 147 07:45 02.11.2021
5631 Rain 6 1007 90 4300 3.13 80 04:39 02.11.2021
5632 Mist 6 1008 80 5000 1.79 100 02:35 02.11.2021
5633 Mist 6 1009 83 5000 1.79 90 23:32 01.11.2021
5634 Rain 7 1010 80 8000 4.02 110 21:28 01.11.2021
5635 Rain 7 1010 79 9000 0.89 151 20:40 01.11.2021
5636 Clouds 7 1010 82 9000 3.13 110 19:58 01.11.2021
5637 Clouds 7 1011 82 10000 0.45 149 19:35 01.11.2021
5638 Clouds 8 1011 75 10000 0.45 146 18:23 01.11.2021
5639 Clouds 8 1011 80 10000 0.89 139 17:35 01.11.2021
5640 Clear 8 1011 76 10000 4.02 120 16:50 01.11.2021
5641 Clear 9 1011 74 10000 0.45 155 15:55 01.11.2021
5642 Clear 10 1017 71 10000 0.89 140 15:26 01.11.2021
5643 Clear 11 1017 60 10000 0.89 137 14:43 01.11.2021
5644 Clear 11 1017 60 10000 0.89 137 14:43 01.11.2021
5645 Clear 11 1017 60 10000 0.45 150 14:23 01.11.2021
5646 Clear 11 1017 59 10000 4.02 100 13:49 01.11.2021
5647 Clear 11 1018 63 10000 4.02 120 12:33 01.11.2021
5648 Clear 9 1020 77 9000 0.45 148 10:36 01.11.2021
5649 Clear 8 1013 85 9000 3.13 140 09:35 01.11.2021
5650 Mist 4 1014 99 3600 3.13 70 07:49 01.11.2021
5651 Mist 2 1013 86 2200 3 80 06:31 01.11.2021
5652 Mist 3 1015 88 5000 3.13 70 03:44 01.11.2021
5653 Clear 5 1017 76 10000 0.89 120 00:37 01.11.2021
5654 Clear 6 1017 69 10000 1.79 160 22:24 31.10.2021
5655 Clear 6 1018 73 10000 1.79 140 20:46 31.10.2021
5656 Clear 8 1018 73 10000 0.89 145 18:57 31.10.2021
5657 Clear 8 1016 70 10000 0.45 155 18:37 31.10.2021
5658 Clear 8 1018 70 10000 3.13 120 17:23 31.10.2021
5659 Clear 10 1024 65 10000 1.79 110 15:48 31.10.2021
5660 Clear 13 1025 48 10000 0.89 155 13:56 31.10.2021
5661 Clear 13 1025 60 10000 0.89 148 12:44 31.10.2021
5662 Clear 12 1021 66 10000 0.89 162 11:38 31.10.2021
5663 Clear 11 1020 70 10000 0.45 149 10:41 31.10.2021
5664 Clear 8 1020 78 10000 3.13 170 09:20 31.10.2021
5665 Mist 3 1027 93 5000 1.79 140 06:59 31.10.2021
5666 Fog 4 1019 99 450 1 110 00:54 31.10.2021
5667 Fog 5 1022 92 650 0 0 22:36 30.10.2021
5668 Clouds 6 1023 90 6000 0.89 0 21:34 30.10.2021
5669 Clear 7 1020 93 10000 0.45 155 20:21 30.10.2021
5670 Clouds 8 1022 89 10000 0.45 160 18:36 30.10.2021
5671 Clouds 8 1029 94 10000 0.45 149 16:53 30.10.2021
5672 Clouds 8 1029 94 10000 0.45 149 16:53 30.10.2021
5673 Mist 6 1029 100 3100 2 150 14:43 30.10.2021
5674 Fog 6 1030 100 1100 3 140 13:39 30.10.2021
5675 Fog 6 1030 100 700 2 160 13:21 30.10.2021
5676 Fog 6 1030 100 500 3 130 11:51 30.10.2021
5677 Fog 6 1030 100 350 2 130 11:32 30.10.2021
5678 Fog 6 1030 100 400 3 130 10:24 30.10.2021
5679 Fog 7 1029 99 400 0.45 156 08:48 30.10.2021
5680 Fog 6 1024 94 1300 0.45 150 06:26 30.10.2021
5681 Mist 6 1022 93 4500 1 0 05:38 30.10.2021
5682 Fog 6 1021 88 2300 0.89 0 23:52 29.10.2021
5683 Fog 8 1023 89 1000 0.45 151 22:37 29.10.2021
5684 Mist 8 1023 90 3400 1.79 110 21:52 29.10.2021
5685 Clear 9 1023 83 9000 0.45 155 20:44 29.10.2021
5686 Clear 10 1022 77 10000 3.13 130 19:49 29.10.2021
5687 Clear 11 1020 76 8000 0 0 18:27 29.10.2021
5688 Clear 13 1027 66 10000 1.79 130 16:51 29.10.2021
5689 Clouds 16 1027 51 10000 0.89 0 14:32 29.10.2021
5690 Clear 15 1021 77 10000 0.89 0 10:57 29.10.2021
5691 Clouds 13 1028 81 10000 0.89 0 10:34 29.10.2021
5692 Fog 7 1020 99 450 0 0 07:25 29.10.2021
5693 Clouds 11 1018 76 10000 1.79 250 00:36 29.10.2021
5694 Clouds 12 1020 70 10000 3.13 300 22:54 28.10.2021
5695 Clouds 12 1019 69 10000 1.79 290 21:52 28.10.2021
5696 Clouds 13 1019 71 10000 3.13 300 20:25 28.10.2021
5697 Clouds 13 1019 66 10000 3.13 310 19:46 28.10.2021
5698 Clouds 13 1018 62 10000 3.13 310 18:18 28.10.2021
5699 Clouds 13 1023 61 10000 3.13 300 16:58 28.10.2021
5700 Clouds 14 1022 57 10000 0.45 154 15:20 28.10.2021
5701 Clouds 14 1022 77 10000 4.92 270 13:43 28.10.2021
5702 Clouds 14 1022 62 10000 5.81 270 13:20 28.10.2021
5703 Clouds 13 1022 66 10000 0.45 154 12:39 28.10.2021
5704 Clouds 9 1017 74 10000 0.45 151 10:54 28.10.2021
5705 Clouds 7 1017 77 9000 0.45 157 09:38 28.10.2021
5706 Clouds 7 1017 78 9000 0.45 149 08:55 28.10.2021
5707 Clouds 6 1015 78 8000 4.02 250 08:28 28.10.2021
5708 Clouds 4 1015 83 7000 4.02 260 04:42 28.10.2021
5709 Clouds 6 1019 81 6000 1.79 220 23:38 27.10.2021
5710 Clouds 6 1019 77 7000 1.79 240 22:30 27.10.2021
5711 Clouds 7 1018 87 7000 1.79 230 21:33 27.10.2021
5712 Clouds 7 1019 77 7000 1.79 230 20:50 27.10.2021
5713 Clouds 7 1019 73 10000 1.79 280 19:52 27.10.2021
5714 Clear 9 1019 61 10000 3.13 300 19:32 27.10.2021
5715 Clouds 9 1019 63 10000 0.89 158 18:39 27.10.2021
5716 Clouds 9 1018 76 10000 0.89 158 16:26 27.10.2021
5717 Clouds 10 1017 70 10000 0.45 149 15:30 27.10.2021
5718 Clouds 11 1017 65 10000 0.45 160 14:39 27.10.2021
5719 Clear 10 1017 68 10000 4.02 240 11:28 27.10.2021
5720 Clear 9 1013 70 10000 3.13 220 10:58 27.10.2021
5721 Clear 5 1013 86 10000 4.02 240 09:45 27.10.2021
5722 Clear 3 1016 94 10000 0.45 150 07:53 27.10.2021
5723 Clear 3 1017 83 10000 4.02 230 06:53 27.10.2021
5724 Clear 4 1018 71 10000 0.45 153 01:45 27.10.2021
5725 Clear 5 1018 68 10000 4.02 220 00:56 27.10.2021
5726 Clear 5 1018 68 10000 4.92 220 00:26 27.10.2021
5727 Clear 5 1019 67 10000 4.02 220 23:41 26.10.2021
5728 Clear 5 1019 64 10000 0.89 150 22:37 26.10.2021
5729 Clear 5 1019 64 10000 0.45 153 21:57 26.10.2021
5730 Clear 6 1019 72 10000 0.45 154 20:27 26.10.2021
5731 Clear 6 1020 69 10000 4.02 180 19:26 26.10.2021
5732 Clear 7 1020 64 10000 4.02 180 18:40 26.10.2021
5733 Clear 7 1020 64 10000 4.02 180 18:40 26.10.2021
5734 Clear 10 1025 43 10000 0.45 159 16:22 26.10.2021
5735 Clear 11 1026 42 10000 0.89 150 14:19 26.10.2021
5736 Clear 9 1019 49 10000 5.81 220 11:34 26.10.2021
5737 Clear 6 1022 58 10000 0.89 158 09:59 26.10.2021
5738 Clear 0 1022 83 10000 3.13 210 07:24 26.10.2021
5739 Clear 1 1024 74 10000 0.89 0 03:37 26.10.2021
5740 Clear 2 1025 75 10000 0.89 0 23:49 25.10.2021
5741 Clear 3 1025 71 10000 0.45 150 22:39 25.10.2021
5742 Clear 3 1025 71 10000 1.79 180 21:55 25.10.2021
5743 Clear 3 1026 70 10000 1.79 180 21:26 25.10.2021
5744 Clear 4 1024 77 10000 1 0 19:45 25.10.2021
5745 Clear 4 1024 76 10000 1 0 19:25 25.10.2021
5746 Clear 4 1024 72 7000 1 0 18:51 25.10.2021
5747 Clear 6 1026 58 10000 1.79 150 17:43 25.10.2021
5748 Clear 9 1032 44 10000 0.89 0 15:38 25.10.2021
5749 Clear 8 1033 48 10000 0.89 0 13:56 25.10.2021
5750 Clear 7 1033 51 10000 0.45 149 12:22 25.10.2021
5751 Clear 4 1024 64 10000 1.79 330 09:58 25.10.2021
5752 Clear 0 1026 94 10000 1.79 210 07:47 25.10.2021
5753 Clear 0 1026 71 10000 1.79 250 05:55 25.10.2021
5754 Clouds 4 1025 62 10000 4.02 320 00:53 25.10.2021
5755 Clouds 4 1025 62 10000 0.45 149 00:35 25.10.2021
5756 Clouds 5 1025 52 10000 4.92 320 23:45 24.10.2021
5757 Clouds 5 1024 51 10000 4.02 320 22:40 24.10.2021
5758 Clouds 5 1024 51 10000 4.02 320 22:20 24.10.2021
5759 Clouds 5 1024 57 10000 3.13 300 21:37 24.10.2021
5760 Clouds 5 1024 57 10000 3.13 300 21:37 24.10.2021
5761 Clouds 5 1024 58 10000 5.81 320 20:42 24.10.2021
5762 Clouds 5 1024 58 10000 0.89 158 19:49 24.10.2021
5763 Clouds 6 1023 64 10000 0.45 149 18:30 24.10.2021
5764 Clouds 6 1023 64 10000 0.45 149 18:30 24.10.2021
5765 Clouds 6 1022 64 10000 0.45 141 17:48 24.10.2021
5766 Clouds 6 1019 79 10000 5.81 300 15:57 24.10.2021
5767 Clouds 7 1019 75 10000 4.92 290 15:20 24.10.2021
5768 Clouds 8 1019 70 10000 0.89 56 13:23 24.10.2021
5769 Clouds 7 1020 87 7000 0.89 66 12:26 24.10.2021
5770 Clouds 7 1025 77 9000 0.45 62 11:36 24.10.2021
5771 Clouds 7 1019 67 10000 0.45 162 10:38 24.10.2021
5772 Clouds 7 1019 67 10000 0.45 162 10:38 24.10.2021
5773 Clouds 6 1018 63 10000 5.81 300 08:39 24.10.2021
5774 Clouds 6 1015 65 10000 0.89 144 02:58 24.10.2021
5775 Clear 7 1014 71 10000 4.02 260 23:51 23.10.2021
5776 Clear 7 1014 65 10000 0.45 160 22:40 23.10.2021
5777 Clear 7 1014 64 10000 0.45 274 20:43 23.10.2021
5778 Clear 6 1011 61 10000 4.02 270 19:26 23.10.2021
5779 Clear 7 1013 60 10000 0.45 278 18:41 23.10.2021
5780 Clear 8 1012 51 10000 0.45 177 17:44 23.10.2021
5781 Clear 10 1011 46 10000 0.45 126 16:45 23.10.2021
5782 Clear 11 1016 43 10000 0.89 258 15:20 23.10.2021
5783 Clear 12 1014 44 10000 0.89 256 13:18 23.10.2021
5784 Clear 8 1004 83 10000 0 0 00:36 23.10.2021
5785 Clouds 9 1002 81 10000 3.09 215 23:28 22.10.2021
5786 Clear 11 1006 56 10000 3.13 210 20:56 22.10.2021
5787 Clear 13 1006 48 10000 4.02 260 18:57 22.10.2021
5788 Clear 12 1005 48 10000 4.02 270 18:20 22.10.2021
5789 Clear 15 1010 38 10000 1.34 209 16:18 22.10.2021
5790 Clear 16 1009 41 10000 0.89 159 14:31 22.10.2021
5791 Clear 17 1003 40 10000 0.89 26 12:41 22.10.2021
5792 Clear 16 1002 43 10000 0.89 256 10:50 22.10.2021
5793 Clear 15 999 51 10000 5.81 260 09:56 22.10.2021
5794 Clear 15 999 51 10000 5.81 260 09:56 22.10.2021
5795 Clear 14 999 54 10000 5.81 250 09:32 22.10.2021
5796 Clear 13 1001 66 10000 0.45 66 07:28 22.10.2021
5797 Clear 15 1000 47 10000 8.05 270 04:59 22.10.2021
5798 Rain 14 999 53 10000 0.45 180 00:31 22.10.2021
5799 Clear 14 999 52 10000 0.89 247 23:48 21.10.2021
5800 Clear 14 999 51 10000 0.45 164 22:22 21.10.2021
5801 Clear 14 999 59 10000 4.92 230 21:18 21.10.2021
5802 Clear 15 999 54 10000 0.89 192 20:21 21.10.2021
5803 Clear 15 999 57 10000 0.89 141 19:30 21.10.2021
5804 Clear 15 999 57 10000 0.89 191 18:52 21.10.2021
5805 Clear 15 999 55 10000 0.45 139 18:27 21.10.2021
5806 Clear 16 999 51 10000 0.89 215 17:42 21.10.2021
5807 Clear 16 999 54 10000 0.89 239 16:26 21.10.2021
5808 Clear 17 1000 53 10000 0.89 142 15:21 21.10.2021
5809 Clear 17 1000 51 10000 0.89 127 14:50 21.10.2021
5810 Clear 18 1001 48 10000 1.34 270 13:27 21.10.2021
5811 Clear 16 1000 52 10000 4.02 210 11:35 21.10.2021
5812 Clear 11 1001 66 10000 4.02 220 09:23 21.10.2021
5813 Clear 10 1005 68 10000 0.45 212 07:32 21.10.2021
5814 Clear 10 1006 61 10000 0.45 301 05:33 21.10.2021
5815 Clear 13 1008 50 10000 4.92 230 23:56 20.10.2021
5816 Clouds 14 1009 47 10000 0.45 175 22:21 20.10.2021
5817 Clouds 14 1009 45 10000 0.45 346 21:45 20.10.2021
5818 Clouds 14 1009 52 10000 1.34 213 20:57 20.10.2021
5819 Clouds 14 1010 54 10000 0.89 141 20:36 20.10.2021
5820 Clear 14 1010 55 10000 0.89 133 19:59 20.10.2021
5821 Clear 14 1009 57 10000 4.92 210 18:59 20.10.2021
5822 Rain 14 1009 57 10000 4.92 210 18:29 20.10.2021
5823 Clear 15 1013 55 10000 0.45 205 15:54 20.10.2021
5824 Clear 14 1015 69 10000 0.89 244 12:50 20.10.2021
5825 Clouds 8 1016 75 10000 4 200 09:30 20.10.2021
5826 Clear 2 1018 72 10000 1 0 05:24 20.10.2021
5827 Clouds 1 1025 71 6000 0 0 00:53 20.10.2021
5828 Clouds 1 1026 96 6000 1 220 00:26 20.10.2021
5829 Clouds 3 1025 82 7000 2 260 22:21 19.10.2021
5830 Clouds 4 1025 80 6000 2 270 21:28 19.10.2021
5831 Clouds 4 1025 75 7000 1 260 20:26 19.10.2021
5832 Clouds 5 1025 65 9000 0.89 270 19:46 19.10.2021
5833 Clear 5 1024 62 10000 0.89 270 19:23 19.10.2021
5834 Clear 7 1024 56 10000 2 280 18:23 19.10.2021
5835 Clear 10 1024 44 10000 5.81 290 16:25 19.10.2021
5836 Clear 11 1023 42 10000 5.81 300 15:25 19.10.2021
5837 Clear 11 1023 44 10000 7.15 310 14:31 19.10.2021
5838 Clear 11 1024 43 10000 0.89 55 13:49 19.10.2021
5839 Clouds 9 1024 57 10000 4.92 310 11:37 19.10.2021
5840 Clear 9 1014 57 10000 4.92 300 10:51 19.10.2021
5841 Clear 5 1014 80 10000 4.02 290 09:35 19.10.2021
5842 Clear 4 1014 86 10000 4.02 290 08:53 19.10.2021
5843 Clear 6 1012 63 10000 4.02 300 00:28 19.10.2021
5844 Clear 5 1012 67 10000 1.79 270 23:56 18.10.2021
5845 Clouds 6 1012 63 10000 3.13 260 23:21 18.10.2021
5846 Clear 6 1012 62 10000 3.13 270 22:54 18.10.2021
5847 Clear 7 1014 66 10000 0.45 81 21:58 18.10.2021
5848 Clear 7 1013 70 10000 0.45 58 20:46 18.10.2021
5849 Clear 7 1013 70 10000 4.02 270 20:20 18.10.2021
5850 Clear 8 1013 68 10000 4.02 250 19:31 18.10.2021
5851 Rain 7 1013 70 10000 3.13 250 18:58 18.10.2021
5852 Clear 10 1018 71 10000 0.45 204 16:30 18.10.2021
5853 Rain 11 1017 63 10000 0.89 237 14:33 18.10.2021
5854 Clear 10 1018 72 10000 0.45 175 11:44 18.10.2021
5855 Clouds 8 1013 59 10000 0.45 267 09:42 18.10.2021
5856 Clear 6 1012 68 10000 3.13 260 06:39 18.10.2021
5857 Clouds 6 1013 65 9000 1.79 240 23:52 17.10.2021
5858 Clouds 7 1014 71 10000 3.13 280 22:23 17.10.2021
5859 Clouds 8 1013 70 10000 3.13 290 21:42 17.10.2021
5860 Clouds 8 1013 71 10000 4.02 300 20:49 17.10.2021
5861 Clouds 9 1013 71 10000 0.45 179 19:56 17.10.2021
5862 Clouds 9 1013 73 10000 3.13 280 19:37 17.10.2021
5863 Clouds 9 1008 77 10000 3.13 300 18:28 17.10.2021
5864 Clouds 10 1013 66 10000 0.45 72 16:38 17.10.2021
5865 Clouds 11 1013 59 10000 0.45 267 14:39 17.10.2021
5866 Clouds 12 1013 57 10000 0.45 85 13:59 17.10.2021
5867 Clouds 12 1013 56 10000 0.45 125 13:30 17.10.2021
5868 Clouds 12 1013 64 10000 0.45 128 11:27 17.10.2021
5869 Clouds 9 1010 75 10000 3.13 290 09:56 17.10.2021
5870 Clouds 7 1013 93 9000 0.45 124 08:29 17.10.2021
5871 Clouds 6 1011 81 9000 3 250 02:57 17.10.2021
5872 Clear 7 1011 78 10000 3 280 00:30 17.10.2021
5873 Clouds 8 1013 77 10000 1.79 270 22:46 16.10.2021
5874 Clouds 10 1012 70 10000 0.45 279 20:36 16.10.2021
5875 Clouds 10 1010 66 10000 3.13 310 19:59 16.10.2021
5876 Clouds 11 1010 64 9000 4.02 270 19:40 16.10.2021
5877 Clouds 10 1011 68 6000 3.13 210 19:18 16.10.2021
5878 Clouds 11 1011 67 8000 3.13 210 18:44 16.10.2021
5879 Clouds 11 1011 67 8000 1.79 280 18:22 16.10.2021
5880 Clear 12 1010 63 10000 1.79 200 17:31 16.10.2021
5881 Clear 14 1015 68 10000 3.13 210 16:18 16.10.2021
5882 Clear 13 1017 58 10000 4.02 220 12:50 16.10.2021
5883 Clear 11 1011 74 10000 4.02 210 11:24 16.10.2021
5884 Clouds 8 1012 75 10000 4.02 210 08:57 16.10.2021
5885 Clear 5 1012 78 10000 1.79 220 04:26 16.10.2021
5886 Clear 6 1014 69 10000 3.13 210 00:29 16.10.2021
5887 Clear 6 1014 67 10000 0.45 168 23:25 15.10.2021
5888 Clear 7 1014 61 10000 0.45 98 22:20 15.10.2021
5889 Clear 8 1014 72 10000 0.45 157 21:40 15.10.2021
5890 Clear 8 1014 71 10000 4.02 190 20:54 15.10.2021
5891 Clear 8 1014 69 10000 3.13 200 20:22 15.10.2021
5892 Clear 9 1014 67 10000 3.13 200 19:19 15.10.2021
5893 Clear 10 1014 61 10000 3.13 210 18:21 15.10.2021
5894 Clear 14 1020 46 10000 0.45 197 15:46 15.10.2021
5895 Clear 14 1021 45 10000 0.89 249 14:18 15.10.2021
5896 Clear 12 1012 50 10000 4.92 230 11:54 15.10.2021
5897 Clear 10 1013 61 10000 4.92 220 10:58 15.10.2021
5898 Clear 9 1013 66 10000 4.02 230 10:22 15.10.2021
5899 Mist 3 1015 81 4100 2 250 07:35 15.10.2021
5900 Fog 3 1015 83 5000 0.89 168 04:26 15.10.2021
5901 Clear 4 1017 82 9000 3.13 230 00:22 15.10.2021
5902 Clear 5 1012 72 10000 2.77 258 22:54 14.10.2021
5903 Clear 5 1012 72 10000 2.79 257 22:18 14.10.2021
5904 Clear 5 1016 77 9000 1.79 230 21:37 14.10.2021
5905 Clear 6 1016 76 10000 3.13 240 20:20 14.10.2021
5906 Clear 6 1016 72 10000 0.89 142 19:43 14.10.2021
5907 Clear 7 1015 69 10000 3.13 250 18:26 14.10.2021
5908 Clear 10 1015 69 10000 4.02 280 16:57 14.10.2021
5909 Clear 10 1020 66 10000 0.45 192 16:21 14.10.2021
5910 Clear 11 1014 68 10000 0.45 180 14:44 14.10.2021
5911 Clouds 11 1014 63 10000 0.89 155 14:24 14.10.2021
5912 Clouds 11 1012 70 10000 0.89 246 12:35 14.10.2021
5913 Clear 9 1012 80 10000 0.45 348 10:46 14.10.2021
5914 Clouds 4 1009 81 10000 4.92 290 07:39 14.10.2021
5915 Clouds 7 1007 74 10000 0.45 206 03:51 14.10.2021
5916 Rain 7 1006 73 10000 0.89 58 00:34 14.10.2021
5917 Rain 7 1008 78 7000 0.45 143 22:32 13.10.2021
5918 Rain 7 1006 73 7000 4.02 330 21:35 13.10.2021
5919 Rain 8 1008 75 10000 3.13 330 20:23 13.10.2021
5920 Rain 8 1008 75 10000 0.45 289 19:19 13.10.2021
5921 Rain 8 1013 74 10000 0.45 268 18:37 13.10.2021
5922 Rain 10 1012 69 10000 0.45 72 15:53 13.10.2021
5923 Rain 10 1012 67 10000 0.45 59 14:46 13.10.2021
5924 Rain 10 1012 68 10000 0.89 45 14:22 13.10.2021
5925 Rain 9 1012 70 10000 0.89 64 12:24 13.10.2021
5926 Rain 9 1012 83 10000 0.45 146 11:35 13.10.2021
5927 Clouds 9 1012 83 10000 0.45 146 11:35 13.10.2021
5928 Clear 8 1011 73 10000 0.45 357 08:57 13.10.2021
5929 Clear 7 1006 77 10000 0.45 4 07:48 13.10.2021
5930 Clear 8 1005 71 10000 3.13 310 02:51 13.10.2021
5931 Clear 8 1005 69 10000 1.79 300 02:19 13.10.2021
5932 Clear 9 1005 64 10000 1.79 330 23:31 12.10.2021
5933 Clear 10 1005 61 10000 4.92 320 22:48 12.10.2021
5934 Clear 10 1005 61 10000 0.45 154 22:23 12.10.2021
5935 Clouds 11 1005 67 8000 1.79 210 20:48 12.10.2021
5936 Clouds 11 1005 67 8000 1.79 190 20:19 12.10.2021
5937 Clouds 11 1005 67 9000 0.89 160 18:57 12.10.2021
5938 Clear 12 1005 63 10000 0.89 140 18:18 12.10.2021
5939 Clear 13 1005 70 10000 0.89 0 16:44 12.10.2021
5940 Clear 13 1003 72 10000 1 0 16:18 12.10.2021
5941 Rain 14 1005 68 10000 1.79 170 14:46 12.10.2021
5942 Rain 14 1006 64 10000 1.79 160 13:44 12.10.2021
5943 Clear 15 1006 64 10000 0.45 223 12:40 12.10.2021
5944 Clear 13 1007 63 10000 3.13 120 10:20 12.10.2021
5945 Rain 9 1007 80 10000 0.45 136 08:49 12.10.2021
5946 Mist 6 1007 72 3500 3 80 07:54 12.10.2021
5947 Rain 5 1009 77 9000 0.89 80 06:40 12.10.2021
5948 Clouds 6 1008 69 9000 3 90 04:33 12.10.2021
5949 Clear 6 1011 76 10000 0.89 80 01:28 12.10.2021
5950 Clouds 6 1010 74 10000 1 0 23:41 11.10.2021
5951 Clouds 7 1010 76 10000 1 80 22:59 11.10.2021
5952 Clouds 7 1011 73 10000 2 80 22:29 11.10.2021
5953 Clouds 7 1009 68 7000 0 0 21:18 11.10.2021
5954 Clear 9 1012 81 10000 2 120 19:46 11.10.2021
5955 Clear 10 1014 74 10000 1.79 140 18:44 11.10.2021
5956 Clear 10 1014 72 10000 1.79 110 17:59 11.10.2021
5957 Rain 13 1020 52 10000 1.79 130 16:39 11.10.2021
5958 Clear 14 1021 47 10000 1.79 120 15:51 11.10.2021
5959 Clear 14 1021 44 10000 3.13 130 15:23 11.10.2021
5960 Clouds 15 1021 44 10000 0.89 141 14:42 11.10.2021
5961 Clear 15 1022 44 10000 3.13 100 13:38 11.10.2021
5962 Clear 13 1024 47 10000 3.13 90 11:52 11.10.2021
5963 Clear 13 1018 49 10000 3.13 80 10:43 11.10.2021
5964 Clear 11 1018 59 10000 3.13 70 09:44 11.10.2021
5965 Clear 3 1017 95 10000 2 70 07:29 11.10.2021
5966 Clear 4 1023 74 10000 1.79 80 01:41 11.10.2021
5967 Clear 5 1021 70 10000 2 90 00:50 11.10.2021
5968 Clear 5 1021 70 10000 2 90 00:28 11.10.2021
5969 Clear 6 1024 78 10000 1.79 80 21:57 10.10.2021
5970 Clear 6 1023 82 10000 2 80 21:32 10.10.2021
5971 Clear 7 1024 69 10000 3.13 90 20:48 10.10.2021
5972 Clear 8 1024 65 10000 3.13 80 20:21 10.10.2021
5973 Clear 8 1024 63 10000 3.13 80 19:59 10.10.2021
5974 Clear 9 1024 59 10000 3.13 90 19:36 10.10.2021
5975 Clear 9 1024 55 10000 3.13 80 18:36 10.10.2021
5976 Clear 13 1030 42 10000 4.02 60 16:46 10.10.2021
5977 Clear 14 1031 37 10000 4.02 80 15:46 10.10.2021
5978 Clear 15 1031 33 10000 4.92 80 13:57 10.10.2021
5979 Clear 14 1031 35 10000 4.92 80 13:33 10.10.2021
5980 Clear 13 1032 41 10000 4.02 80 12:35 10.10.2021
5981 Clear 10 1032 52 10000 3.13 90 10:44 10.10.2021
5982 Clear 7 1032 62 10000 1.79 50 09:30 10.10.2021
5983 Clear 6 1032 69 10000 1.79 20 08:53 10.10.2021
5984 Clear 4 1032 71 10000 1.79 60 07:28 10.10.2021
5985 Clear 4 1025 79 10000 0 0 02:45 10.10.2021
5986 Clear 4 1025 72 10000 2 50 00:57 10.10.2021
5987 Clear 4 1026 76 10000 1 0 00:23 10.10.2021
5988 Clear 5 1026 68 10000 2 60 22:52 09.10.2021
5989 Clear 5 1028 58 10000 0.89 70 21:45 09.10.2021
5990 Clear 5 1026 60 10000 2 60 21:26 09.10.2021
5991 Clear 7 1028 50 10000 1.79 80 19:44 09.10.2021
5992 Clear 7 1028 48 10000 1.79 60 18:59 09.10.2021
5993 Clear 8 1027 45 10000 1.79 70 18:33 09.10.2021
5994 Clear 11 1032 33 10000 4.92 60 16:43 09.10.2021
5995 Clear 12 1033 31 10000 4.92 80 15:33 09.10.2021
5996 Clear 12 1033 31 10000 4.92 80 13:44 09.10.2021
5997 Clear 11 1035 32 10000 5.81 80 12:40 09.10.2021
5998 Clear 12 1028 33 10000 0.45 259 11:48 09.10.2021
5999 Clear 10 1028 41 10000 4.92 80 10:42 09.10.2021
6000 Clear 7 1028 53 10000 3.13 90 09:40 09.10.2021
6001 Clear 5 1026 60 10000 3.13 40 08:30 09.10.2021
6002 Clear 3 1028 74 10000 3.13 70 07:48 09.10.2021
6003 Clear 2 1027 64 10000 3 80 05:29 09.10.2021
6004 Clear 3 1029 76 10000 1.79 70 02:59 09.10.2021
6005 Clear 4 1027 77 10000 2 70 02:39 09.10.2021
6006 Clear 5 1029 67 10000 3.13 70 23:41 08.10.2021
6007 Clear 6 1029 60 10000 3.13 90 22:54 08.10.2021
6008 Clear 6 1029 59 10000 3.13 80 22:24 08.10.2021
6009 Clear 6 1029 60 10000 3.13 70 20:55 08.10.2021
6010 Clear 8 1029 52 10000 3.13 70 18:54 08.10.2021
6011 Clear 10 1029 42 10000 4.92 70 17:34 08.10.2021
6012 Clear 10 1035 40 10000 4.92 70 16:51 08.10.2021
6013 Clear 11 1035 38 10000 5.81 70 16:23 08.10.2021
6014 Clear 12 1035 34 10000 0.89 355 13:57 08.10.2021
6015 Clear 12 1035 40 10000 0.89 321 12:48 08.10.2021
6016 Clear 12 1037 42 10000 0.89 325 11:32 08.10.2021
6017 Clear 10 1037 48 10000 0.89 38 10:41 08.10.2021
6018 Clear 8 1030 59 10000 0.45 323 09:18 08.10.2021
6019 Clear 7 1030 69 10000 4.02 110 23:55 07.10.2021
6020 Clear 7 1030 65 10000 0.45 211 23:19 07.10.2021
6021 Clear 7 1030 63 10000 4.92 100 21:46 07.10.2021
6022 Clear 7 1030 65 10000 0.89 314 21:23 07.10.2021
6023 Clear 7 1030 63 10000 3.13 80 20:20 07.10.2021
6024 Clear 8 1030 57 10000 3.13 90 19:29 07.10.2021
6025 Clear 9 1029 51 10000 3.13 90 18:22 07.10.2021
6026 Clear 10 1035 46 10000 0.45 302 17:18 07.10.2021
6027 Clear 12 1034 36 10000 0.45 307 15:34 07.10.2021
6028 Clear 12 1035 36 10000 0.89 278 13:47 07.10.2021
6029 Clear 11 1035 34 10000 5.81 90 13:28 07.10.2021
6030 Clear 11 1036 39 10000 0.89 291 12:40 07.10.2021
6031 Clear 10 1037 47 10000 0.89 307 10:49 07.10.2021
6032 Clear 9 1037 51 10000 0.89 306 10:19 07.10.2021
6033 Clear 7 1030 56 10000 0.45 198 09:32 07.10.2021
6034 Clear 5 1029 64 10000 0.89 296 08:41 07.10.2021
6035 Clear 3 1029 77 10000 0.45 272 07:42 07.10.2021
6036 Clear 2 1030 68 10000 4.02 90 06:59 07.10.2021
6037 Clear 3 1029 61 10000 3.13 100 02:24 07.10.2021
6038 Clear 6 1028 67 10000 0.45 73 23:40 06.10.2021
6039 Clear 6 1029 66 10000 0.89 225 22:46 06.10.2021
6040 Clear 7 1029 63 10000 0.45 251 21:49 06.10.2021
6041 Clear 8 1028 56 10000 0.89 158 20:35 06.10.2021
6042 Clear 9 1028 51 10000 0.45 293 19:48 06.10.2021
6043 Clear 10 1028 50 10000 0.45 267 18:39 06.10.2021
6044 Clear 12 1032 45 10000 0.45 304 16:55 06.10.2021
6045 Clear 14 1032 43 10000 0.89 259 15:26 06.10.2021
6046 Clouds 13 1033 48 10000 0.89 136 13:54 06.10.2021
6047 Clear 14 1033 49 10000 0.89 239 12:57 06.10.2021
6048 Clear 14 1028 50 10000 0.89 294 12:39 06.10.2021
6049 Clear 14 1033 50 10000 0.89 148 12:20 06.10.2021
6050 Clear 11 1027 74 10000 0.45 210 09:59 06.10.2021
6051 Clear 11 1028 75 10000 0.89 195 09:38 06.10.2021
6052 Clear 9 1027 85 10000 0.45 168 08:42 06.10.2021
6053 Clear 6 1027 91 10000 3.13 100 07:20 06.10.2021
6054 Clear 6 1028 81 10000 3.13 100 05:26 06.10.2021
6055 Clear 8 1027 70 10000 3.13 110 00:26 06.10.2021
6056 Clear 8 1027 66 10000 4.02 120 23:57 05.10.2021
6057 Clear 8 1027 66 10000 0.45 284 23:38 05.10.2021
6058 Clear 9 1027 65 10000 3.13 120 23:19 05.10.2021
6059 Clear 9 1027 65 10000 3.13 110 22:27 05.10.2021
6060 Clear 9 1027 67 10000 3.13 110 21:44 05.10.2021
6061 Clear 9 1027 64 10000 3.13 100 20:41 05.10.2021
6062 Clear 10 1027 62 10000 3.13 120 20:22 05.10.2021
6063 Clear 11 1027 60 10000 0.45 107 19:33 05.10.2021
6064 Clear 11 1024 58 10000 3.13 120 18:49 05.10.2021
6065 Clear 15 1031 52 10000 0.45 286 16:36 05.10.2021
6066 Clear 15 1031 53 10000 0.45 97 14:34 05.10.2021
6067 Clear 15 1032 56 10000 4.02 120 13:33 05.10.2021
6068 Clear 15 1033 62 10000 0.89 264 12:46 05.10.2021
6069 Clear 14 1033 65 10000 0.45 247 11:59 05.10.2021
6070 Clear 12 1026 71 10000 0.45 165 10:44 05.10.2021
6071 Clear 9 1026 81 10000 0.45 295 09:25 05.10.2021
6072 Clear 6 1025 82 10000 0.45 273 03:57 05.10.2021
6073 Clear 8 1025 72 10000 0.45 252 23:53 04.10.2021
6074 Clear 9 1024 65 10000 4.02 100 22:35 04.10.2021
6075 Clear 10 1023 77 10000 1.79 90 19:38 04.10.2021
6076 Clouds 10 1023 74 10000 0.89 110 18:34 04.10.2021
6077 Clear 15 1028 47 10000 1.79 130 16:24 04.10.2021
6078 Clear 15 1028 46 10000 3.13 150 15:31 04.10.2021
6079 Clear 15 1028 46 10000 3.13 150 15:31 04.10.2021
6080 Clear 16 1028 44 10000 3.13 140 14:42 04.10.2021
6081 Clear 16 1028 42 10000 0.45 120 13:50 04.10.2021
6082 Clear 16 1028 41 10000 4.02 150 13:24 04.10.2021
6083 Clear 16 1023 47 10000 1.34 205 11:35 04.10.2021
6084 Clear 15 1023 51 10000 0.89 191 10:48 04.10.2021
6085 Clear 13 1023 63 10000 0.45 186 09:58 04.10.2021
6086 Clear 8 1022 90 10000 3.13 70 08:40 04.10.2021
6087 Clear 6 1022 96 10000 1.79 70 07:19 04.10.2021
6088 Clear 8 1023 73 10000 1.79 110 00:29 04.10.2021
6089 Clear 8 1022 70 10000 1.79 120 22:34 03.10.2021
6090 Clear 9 1023 65 10000 1.79 150 21:39 03.10.2021
6091 Clear 9 1022 65 10000 1.79 140 20:59 03.10.2021
6092 Clear 10 1022 62 10000 1.79 140 19:57 03.10.2021
6093 Clear 11 1022 69 10000 1.79 140 18:34 03.10.2021
6094 Clear 13 1022 60 10000 1.79 140 17:48 03.10.2021
6095 Clear 16 1028 45 10000 0.89 141 15:57 03.10.2021
6096 Clear 16 1028 44 10000 3.13 130 14:46 03.10.2021
6097 Clear 16 1028 42 10000 3.13 130 13:58 03.10.2021
6098 Clear 16 1029 41 10000 4.02 130 13:21 03.10.2021
6099 Clear 15 1029 41 10000 4.02 140 12:28 03.10.2021
6100 Clear 13 1019 50 10000 1.79 140 10:36 03.10.2021
6101 Clear 8 1022 86 10000 3.13 80 08:36 03.10.2021
6102 Clear 6 1018 73 10000 1 110 01:30 03.10.2021
6103 Clear 7 1021 75 10000 1 110 22:34 02.10.2021
6104 Clear 10 1023 64 10000 0.89 0 20:55 02.10.2021
6105 Clear 10 1022 62 10000 1.79 140 19:40 02.10.2021
6106 Clear 11 1022 60 10000 1.79 140 18:51 02.10.2021
6107 Clear 14 1020 60 10000 1.79 130 17:41 02.10.2021
6108 Clear 14 1027 59 10000 0.45 126 17:19 02.10.2021
6109 Clear 16 1028 49 10000 0.89 175 14:49 02.10.2021
6110 Clear 13 1031 52 10000 1.79 150 15:49 30.09.2021
6111 Clouds 13 1031 51 10000 1.79 110 14:48 30.09.2021
6112 Clouds 12 1025 59 10000 0.45 144 12:36 30.09.2021
6113 Clouds 11 1032 61 10000 0.45 329 11:34 30.09.2021
6114 Clouds 10 1032 64 10000 3.13 110 10:41 30.09.2021
6115 Clouds 8 1033 88 10000 3.13 90 08:56 30.09.2021
6116 Clouds 8 1026 90 10000 3.13 80 08:27 30.09.2021
6117 Clouds 4 1026 87 10000 1.79 80 06:41 30.09.2021
6118 Clouds 5 1022 83 10000 2.36 101 04:36 30.09.2021
6119 Clear 4 1032 93 10000 2 100 00:40 30.09.2021
6120 Clear 7 1032 81 10000 3 100 23:29 29.09.2021
6121 Clouds 8 1026 74 10000 4.02 90 21:55 29.09.2021
6122 Clouds 8 1026 77 10000 4.02 90 20:57 29.09.2021
6123 Clouds 8 1026 72 10000 4.92 90 20:23 29.09.2021
6124 Clouds 9 1026 68 10000 4.92 70 19:38 29.09.2021
6125 Clouds 9 1024 70 10000 4.02 80 18:22 29.09.2021
6126 Clouds 10 1031 69 10000 4.02 80 16:56 29.09.2021
6127 Clouds 10 1031 68 10000 0.45 44 16:32 29.09.2021
6128 Clouds 11 1030 65 10000 0.45 270 15:45 29.09.2021
6129 Clouds 11 1031 64 10000 4.02 70 14:38 29.09.2021
6130 Clouds 11 1031 58 10000 4.02 80 13:36 29.09.2021
6131 Clouds 11 1031 72 10000 5.81 50 12:41 29.09.2021
6132 Clouds 11 1031 69 10000 0.45 19 11:24 29.09.2021
6133 Clouds 11 1032 79 10000 1.79 303 10:34 29.09.2021
6134 Clouds 10 1031 79 10000 0.45 256 09:44 29.09.2021
6135 Clouds 9 1025 78 10000 0.45 329 08:24 29.09.2021
6136 Clouds 7 1025 88 10000 0.45 310 06:53 29.09.2021
6137 Clear 9 1021 85 10000 3.13 70 00:51 29.09.2021
6138 Clear 10 1023 82 10000 3.13 60 23:20 28.09.2021
6139 Clouds 10 1023 79 10000 3.13 60 22:22 28.09.2021
6140 Clouds 10 1022 79 10000 4.02 40 21:24 28.09.2021
6141 Clouds 10 1022 79 10000 4.02 50 20:24 28.09.2021
6142 Clear 10 1022 79 10000 4.02 40 19:40 28.09.2021
6143 Clouds 10 1021 77 10000 4.02 30 18:44 28.09.2021
6144 Clouds 11 1026 73 10000 4.02 30 17:30 28.09.2021
6145 Clouds 13 1025 69 10000 3.13 40 15:21 28.09.2021
6146 Clouds 13 1018 70 10000 4 50 13:28 28.09.2021
6147 Clouds 13 1025 81 10000 4.02 50 12:27 28.09.2021
6148 Clouds 12 1026 83 10000 3.13 20 11:55 28.09.2021
6149 Clouds 13 1025 82 10000 0.45 170 11:35 28.09.2021
6150 Clouds 10 1025 87 10000 3.13 40 10:33 28.09.2021
6151 Clear 10 1025 81 10000 0.45 340 09:33 28.09.2021
6152 Clouds 9 1025 96 10000 3.13 70 08:44 28.09.2021
6153 Clouds 9 1018 96 10000 3.13 50 08:25 28.09.2021
6154 Clouds 7 1018 91 10000 0.45 352 06:46 28.09.2021
6155 Clear 7 1018 91 8000 0.45 41 04:39 28.09.2021
6156 Clear 9 1018 85 10000 1.79 50 00:51 28.09.2021
6157 Clear 9 1018 82 10000 3.13 40 23:52 27.09.2021
6158 Clear 10 1018 82 10000 4.02 30 23:28 27.09.2021
6159 Clear 10 1018 79 10000 3.13 30 22:44 27.09.2021
6160 Clear 11 1017 78 10000 0.45 335 21:39 27.09.2021
6161 Clear 11 1017 77 10000 4.02 20 20:38 27.09.2021
6162 Clear 11 1017 76 10000 3.13 20 19:41 27.09.2021
6163 Clear 11 1015 73 10000 3.13 20 19:22 27.09.2021
6164 Clear 12 1017 73 10000 4.02 10 18:24 27.09.2021
6165 Clear 12 1022 70 10000 3.13 20 17:22 27.09.2021
6166 Clear 12 1022 68 10000 0.45 343 16:39 27.09.2021
6167 Clear 13 1022 67 10000 4.02 350 15:40 27.09.2021
6168 Clouds 13 1022 76 10000 4.02 10 13:58 27.09.2021
6169 Clouds 13 1022 73 10000 0.45 318 12:53 27.09.2021
6170 Clouds 12 1022 71 10000 0.45 316 10:52 27.09.2021
6171 Clouds 12 1023 73 10000 0.89 306 09:50 27.09.2021
6172 Clouds 11 1016 85 10000 0.89 327 08:32 27.09.2021
6173 Clouds 8 1016 85 10000 1.79 360 05:18 27.09.2021
6174 Clear 10 1015 77 10000 3.13 10 00:39 27.09.2021
6175 Clear 12 1015 73 10000 1.79 350 22:27 26.09.2021
6176 Clear 11 1015 77 10000 3.13 20 21:45 26.09.2021
6177 Clouds 12 1014 73 10000 0.45 67 20:45 26.09.2021
6178 Clear 12 1014 71 10000 1.79 350 20:20 26.09.2021
6179 Clear 12 1014 70 10000 1.79 320 19:37 26.09.2021
6180 Clouds 13 1014 65 10000 3.13 330 18:45 26.09.2021
6181 Clouds 15 1013 62 10000 0.45 43 17:50 26.09.2021
6182 Clear 15 1013 60 10000 4.92 350 17:21 26.09.2021
6183 Clouds 17 1018 47 10000 7.15 350 16:28 26.09.2021
6184 Clouds 18 1017 43 10000 0.89 36 15:56 26.09.2021
6185 Clouds 18 1017 55 10000 0.89 91 14:26 26.09.2021
6186 Clouds 18 1018 51 10000 5.81 310 13:45 26.09.2021
6187 Clouds 17 1011 60 10000 0.89 104 12:32 26.09.2021
6188 Clouds 17 1011 59 10000 0.89 180 11:58 26.09.2021
6189 Clouds 16 1008 63 10000 5.81 310 11:36 26.09.2021
6190 Clouds 15 1008 72 10000 7.15 310 09:52 26.09.2021
6191 Clouds 15 1011 77 10000 0.89 205 08:54 26.09.2021
6192 Clouds 15 1008 83 10000 0.45 66 01:28 26.09.2021
6193 Clouds 15 1008 85 10000 4.92 280 00:20 26.09.2021
6194 Clouds 15 1007 80 10000 0.45 53 22:42 25.09.2021
6195 Clouds 15 1007 83 10000 0.45 290 22:23 25.09.2021
6196 Clouds 15 1007 84 10000 0.45 107 21:49 25.09.2021
6197 Clouds 14 1007 87 10000 0.45 122 20:53 25.09.2021
6198 Clouds 14 1006 95 10000 0.45 94 19:54 25.09.2021
6199 Clouds 14 1007 82 7000 0.45 129 18:39 25.09.2021
6200 Clouds 15 1006 75 10000 0.45 171 17:46 25.09.2021
6201 Clouds 15 1006 67 10000 0.89 222 14:49 25.09.2021
6202 Clouds 15 1005 78 10000 0.45 171 13:56 25.09.2021
6203 Clouds 14 1012 80 10000 4.92 280 12:48 25.09.2021
6204 Rain 14 1006 72 10000 0.45 64 11:38 25.09.2021
6205 Rain 12 1005 86 10000 0.45 111 10:21 25.09.2021
6206 Rain 12 1005 77 10000 0.45 136 09:24 25.09.2021
6207 Clouds 10 1004 82 10000 0.89 159 07:50 25.09.2021
6208 Clouds 10 998 91 10000 0.45 118 00:59 25.09.2021
6209 Clouds 10 997 80 10000 5.81 290 23:33 24.09.2021
6210 Clear 10 996 91 10000 0.45 268 21:39 24.09.2021
6211 Clouds 10 997 84 10000 0.45 276 20:32 24.09.2021
6212 Clouds 11 997 82 10000 1.79 276 19:43 24.09.2021
6213 Clouds 11 996 83 10000 0.45 223 18:29 24.09.2021
6214 Clouds 11 995 85 10000 0.45 131 17:53 24.09.2021
6215 Rain 11 995 81 10000 0.45 263 17:34 24.09.2021
6216 Rain 11 995 80 9000 0.45 245 16:35 24.09.2021
6217 Clouds 14 993 68 10000 0.45 337 13:41 24.09.2021
6218 Clouds 14 993 71 10000 0.45 97 12:44 24.09.2021
6219 Clouds 13 993 78 10000 0.89 89 12:25 24.09.2021
6220 Clouds 11 999 96 10000 0.45 75 10:56 24.09.2021
6221 Rain 10 999 97 6000 0.45 209 09:57 24.09.2021
6222 Rain 9 1000 99 8000 1.34 164 08:23 24.09.2021
6223 Rain 9 1000 97 9000 0.45 149 07:30 24.09.2021
6224 Rain 9 1002 97 8000 0.45 220 05:57 24.09.2021
6225 Rain 8 1004 99 8000 0.45 79 04:51 24.09.2021
6226 Clouds 7 1010 95 10000 0.45 195 22:38 23.09.2021
6227 Clouds 7 1011 95 10000 2 230 21:59 23.09.2021
6228 Clouds 8 1011 97 10000 3 250 21:20 23.09.2021
6229 Clouds 8 1011 95 10000 2 230 21:20 23.09.2021
6230 Clouds 8 1012 97 10000 2 230 20:32 23.09.2021
6231 Clouds 8 1012 95 10000 3 260 18:36 23.09.2021
6232 Rain 8 1012 91 10000 0.45 254 16:47 23.09.2021
6233 Rain 9 1013 91 10000 0.45 202 15:19 23.09.2021
6234 Rain 9 1013 90 10000 4 270 14:52 23.09.2021
6235 Clouds 9 1013 90 10000 0.45 131 13:27 23.09.2021
6236 Rain 9 1013 90 10000 3 280 12:57 23.09.2021
6237 Rain 9 1013 90 10000 4 290 12:37 23.09.2021
6238 Rain 8 1014 87 10000 3 290 12:18 23.09.2021
6239 Rain 9 1013 87 10000 4 290 10:31 23.09.2021
6240 Clouds 9 1013 89 10000 3 300 09:54 23.09.2021
6241 Clouds 8 1013 92 9000 0.45 219 08:56 23.09.2021
6242 Clouds 7 1013 95 10000 0.45 119 06:24 23.09.2021
6243 Rain 7 1013 95 10000 3 300 00:21 23.09.2021
6244 Clouds 7 1013 94 10000 3 300 22:52 22.09.2021
6245 Clouds 8 1013 93 10000 3 310 22:20 22.09.2021
6246 Clouds 8 1013 93 10000 3 300 21:42 22.09.2021
6247 Clouds 8 1013 91 10000 0.45 245 20:57 22.09.2021
6248 Clouds 8 1013 91 10000 3 320 19:48 22.09.2021
6249 Clouds 8 1014 91 10000 3 330 19:26 22.09.2021
6250 Clouds 8 1013 88 10000 0.45 71 18:30 22.09.2021
6251 Clouds 9 1013 84 10000 3.54 301 17:18 22.09.2021
6252 Clouds 8 1014 87 10000 4 310 15:38 22.09.2021
6253 Clouds 8 1014 87 10000 5 300 14:28 22.09.2021
6254 Clouds 8 1013 87 10000 0.89 66 12:55 22.09.2021
6255 Clouds 8 1013 87 10000 0.45 167 11:20 22.09.2021
6256 Clouds 7 1014 93 10000 0.45 160 09:30 22.09.2021
6257 Clouds 7 1013 93 10000 0.45 234 08:44 22.09.2021
6258 Clouds 6 1013 94 10000 0.89 147 07:31 22.09.2021
6259 Clouds 6 1013 94 10000 4 290 06:31 22.09.2021
6260 Rain 6 1013 94 9000 5 300 05:48 22.09.2021
6261 Clouds 6 1013 93 10000 0.89 164 03:59 22.09.2021
6262 Clouds 6 1014 95 10000 0.45 207 02:56 22.09.2021
6263 Clouds 7 1014 91 10000 0.89 243 23:42 21.09.2021
6264 Clouds 7 1014 92 10000 0.89 205 22:26 21.09.2021
6265 Clouds 8 1015 90 10000 0.45 276 20:31 21.09.2021
6266 Rain 8 1015 89 10000 0.89 324 19:25 21.09.2021
6267 Clouds 7 1015 93 10000 5 290 18:35 21.09.2021
6268 Clouds 8 1015 90 10000 6 300 16:47 21.09.2021
6269 Clouds 8 1015 90 10000 7 300 15:56 21.09.2021
6270 Clouds 8 1014 81 10000 7 290 14:59 21.09.2021
6271 Clouds 8 1014 90 10000 6 300 13:58 21.09.2021
6272 Clouds 8 1014 90 10000 7 290 13:39 21.09.2021
6273 Clouds 8 1014 90 10000 6 290 12:44 21.09.2021
6274 Clouds 7 1014 87 10000 6 290 10:42 21.09.2021
6275 Clouds 6 1013 93 9000 6 270 08:57 21.09.2021
6276 Clouds 6 1013 93 6000 6 280 07:37 21.09.2021
6277 Clouds 6 1013 93 10000 5 280 05:18 21.09.2021
6278 Clouds 9 1012 87 10000 4 320 23:19 20.09.2021
6279 Rain 9 1012 100 10000 3 340 21:43 20.09.2021
6280 Clouds 9 1012 100 9000 3 310 21:25 20.09.2021
6281 Rain 11 1010 95 7000 3 300 19:48 20.09.2021
6282 Clouds 11 1010 95 8000 0.45 258 17:55 20.09.2021
6283 Clouds 11 1010 93 10000 0.45 258 17:55 20.09.2021
6284 Clouds 11 1009 90 10000 0.89 151 17:19 20.09.2021
6285 Clouds 12 1009 90 10000 4 300 16:23 20.09.2021
6286 Clouds 12 1009 89 10000 0.89 89 15:36 20.09.2021
6287 Clouds 13 1008 88 10000 0.45 259 14:38 20.09.2021
6288 Clouds 12 1008 94 10000 5 290 12:44 20.09.2021
6289 Mist 11 1007 97 4000 5 290 12:24 20.09.2021
6290 Clouds 10 1007 96 10000 0.45 130 10:56 20.09.2021
6291 Clouds 10 1006 98 9000 0.45 188 09:51 20.09.2021
6292 Clouds 10 1006 98 9000 0.89 91 09:32 20.09.2021
6293 Clouds 9 1006 98 10000 0.45 78 08:48 20.09.2021
6294 Clouds 9 1004 98 8000 0.89 123 06:22 20.09.2021
6295 Clouds 9 1004 98 8000 0.89 123 06:22 20.09.2021
6296 Clouds 9 1004 98 8000 0.89 123 06:22 20.09.2021
6297 Rain 10 1005 94 10000 0.45 0 22:58 19.09.2021
6298 Clouds 10 1005 94 10000 5 250 21:50 19.09.2021
6299 Clouds 10 1005 93 10000 0.45 127 21:19 19.09.2021
6300 Clouds 10 1005 93 10000 0.45 228 19:59 19.09.2021
6301 Clouds 10 1005 94 10000 4 250 18:53 19.09.2021
6302 Clouds 10 1005 88 10000 0.45 215 17:49 19.09.2021
6303 Clouds 10 1006 91 9000 0.45 111 16:51 19.09.2021
6304 Rain 14 1005 89 10000 4 240 15:32 19.09.2021
6305 Rain 14 1005 88 10000 0.89 316 14:49 19.09.2021
6306 Rain 14 1005 87 10000 0.45 151 13:57 19.09.2021
6307 Clouds 15 1005 90 10000 0.45 219 12:56 19.09.2021
6308 Clouds 15 1005 90 10000 3 130 11:49 19.09.2021
6309 Rain 15 1005 93 10000 3 130 11:22 19.09.2021
6310 Rain 14 1005 91 10000 0.45 191 09:51 19.09.2021
6311 Clouds 13 1005 95 10000 0.45 203 09:23 19.09.2021
6312 Rain 12 1006 98 10000 1 170 06:49 19.09.2021
6313 Clouds 13 1006 87 10000 2 240 01:36 19.09.2021
6314 Clouds 13 1006 87 10000 0.45 133 23:19 18.09.2021
6315 Clouds 13 1006 84 10000 0.45 131 21:56 18.09.2021
6316 Clouds 13 1006 86 10000 3 270 20:46 18.09.2021
6317 Clouds 14 1005 86 10000 2 300 19:42 18.09.2021
6318 Clouds 14 1005 87 10000 0.45 269 19:22 18.09.2021
6319 Clear 14 1005 84 10000 3 290 18:58 18.09.2021
6320 Clear 14 1005 80 10000 4 290 18:29 18.09.2021
6321 Rain 16 1004 78 10000 6 260 16:35 18.09.2021
6322 Clouds 16 1004 81 10000 0.45 210 13:53 18.09.2021
6323 Rain 16 1003 87 10000 0.45 248 13:31 18.09.2021
6324 Rain 17 1003 86 10000 0.45 181 12:52 18.09.2021
6325 Clouds 17 1003 91 9000 0.45 230 11:59 18.09.2021
6326 Clouds 19 1002 82 10000 0.89 153 11:29 18.09.2021
6327 Clouds 20 1002 80 10000 0.45 173 10:30 18.09.2021
6328 Clouds 19 1002 92 10000 0.45 154 09:23 18.09.2021
6329 Clouds 18 1002 95 10000 0.89 142 08:24 18.09.2021
6330 Rain 18 1004 92 10000 0.45 121 00:52 18.09.2021
6331 Rain 18 1005 90 10000 3.9 186 23:55 17.09.2021
6332 Clouds 17 1005 91 10000 3.9 188 22:45 17.09.2021
6333 Clear 17 1005 85 10000 2 140 22:22 17.09.2021
6334 Clear 18 1006 86 10000 1 0 21:32 17.09.2021
6335 Clear 18 1006 86 10000 2 120 19:31 17.09.2021
6336 Clear 19 1007 83 10000 0.45 132 18:30 17.09.2021
6337 Clear 21 1008 71 10000 3 200 16:34 17.09.2021
6338 Clear 21 1008 67 10000 0.45 97 14:48 17.09.2021
6339 Clear 19 1011 68 10000 2 160 11:48 17.09.2021
6340 Clear 19 1011 67 10000 0.45 140 09:57 17.09.2021
6341 Clear 15 1012 63 10000 0.45 103 07:42 17.09.2021
6342 Clear 15 1013 62 10000 0.45 171 05:27 17.09.2021
6343 Rain 15 1015 68 10000 0.45 182 00:29 17.09.2021
6344 Clear 15 1016 66 10000 0.45 169 22:41 16.09.2021
6345 Clear 15 1016 66 10000 0.45 160 22:23 16.09.2021
6346 Clear 16 1016 66 10000 3 120 21:31 16.09.2021
6347 Clear 15 1016 68 10000 2 110 20:29 16.09.2021
6348 Clear 16 1016 66 10000 2 120 18:38 16.09.2021
6349 Clear 17 1016 61 10000 2 100 17:59 16.09.2021
6350 Clear 21 1017 48 10000 0 0 15:33 16.09.2021
6351 Clear 21 1017 47 10000 0.45 338 14:43 16.09.2021
6352 Clear 22 1018 44 10000 0.45 284 13:23 16.09.2021
6353 Clear 21 1018 45 10000 0.45 309 12:40 16.09.2021
6354 Clear 20 1018 48 10000 0.89 313 11:46 16.09.2021
6355 Clear 20 1018 46 10000 0.45 310 10:50 16.09.2021
6356 Clear 19 1019 45 10000 2 60 10:21 16.09.2021
6357 Clear 18 1018 63 10000 1 0 08:45 16.09.2021
6358 Clear 14 1018 84 10000 1 110 07:46 16.09.2021
6359 Clear 12 1018 89 10000 0 0 06:55 16.09.2021
6360 Clear 11 1018 91 10000 2 310 06:32 16.09.2021
6361 Clear 9 1018 92 10000 1 250 02:58 16.09.2021
6362 Clouds 10 1018 85 8000 1 240 00:46 16.09.2021
6363 Clouds 10 1017 85 6000 1 220 22:52 15.09.2021
6364 Mist 10 1017 82 5000 0 0 21:56 15.09.2021
6365 Mist 11 1017 81 5000 0 0 21:30 15.09.2021
6366 Clouds 12 1018 75 7000 0 0 20:24 15.09.2021
6367 Clear 12 1017 68 10000 0 0 19:29 15.09.2021
6368 Clear 16 1017 53 10000 2 330 18:25 15.09.2021
6369 Clear 18 1017 49 10000 3 330 17:27 15.09.2021
6370 Clear 20 1017 43 10000 3 310 16:27 15.09.2021
6371 Clear 20 1018 41 10000 0.45 301 14:46 15.09.2021
6372 Clear 20 1018 44 10000 0.45 311 14:24 15.09.2021
6373 Clear 21 1019 41 10000 0.45 76 13:40 15.09.2021
6374 Rain 20 1019 46 10000 0.45 96 13:21 15.09.2021
6375 Clear 19 1019 51 10000 0.45 297 12:21 15.09.2021
6376 Clear 19 1019 52 10000 0.45 282 11:47 15.09.2021
6377 Clear 18 1019 56 10000 3 320 10:56 15.09.2021
6378 Clear 16 1020 61 10000 2 290 09:31 15.09.2021
6379 Clear 15 1019 67 10000 0.45 316 08:41 15.09.2021
6380 Clear 8 1018 95 10000 0 0 05:55 15.09.2021
6381 Clear 13 1018 91 10000 1 0 23:56 14.09.2021
6382 Clear 15 1017 84 10000 0.45 173 21:58 14.09.2021
6383 Clear 16 1016 79 10000 2 320 20:56 14.09.2021
6384 Clear 17 1016 75 10000 0.45 101 19:51 14.09.2021
6385 Clear 19 1015 68 10000 3 340 18:24 14.09.2021
6386 Clear 20 1015 62 10000 0.45 232 17:28 14.09.2021
6387 Clear 21 1015 61 10000 0.45 298 15:58 14.09.2021
6388 Clouds 23 1015 53 10000 0.45 116 14:32 14.09.2021
6389 Clouds 23 1015 54 10000 0.45 233 13:20 14.09.2021
6390 Clear 22 1015 61 10000 0.45 192 10:55 14.09.2021
6391 Clear 21 1015 65 10000 0.89 246 09:51 14.09.2021
6392 Clear 19 1015 73 10000 0.45 185 08:49 14.09.2021
6393 Clear 14 1015 95 10000 2 240 06:47 14.09.2021
6394 Clear 18 1013 87 10000 2 320 00:41 14.09.2021
6395 Clear 18 1013 87 10000 0.45 127 22:53 13.09.2021
6396 Clear 18 1013 91 10000 2 330 22:24 13.09.2021
6397 Clear 18 1013 91 10000 2 330 21:53 13.09.2021
6398 Clear 18 1012 89 10000 2 300 20:51 13.09.2021
6399 Clear 18 1012 89 10000 2 280 19:26 13.09.2021
6400 Clouds 19 1011 84 10000 3 340 18:43 13.09.2021
6401 Clear 25 1011 56 10000 0.45 139 16:58 13.09.2021
6402 Clear 26 1011 46 10000 0.45 113 15:32 13.09.2021
6403 Clear 27 1012 44 10000 0.45 157 13:32 13.09.2021
6404 Clear 25 1013 50 10000 0.45 159 10:58 13.09.2021
6405 Clear 25 1013 50 10000 0.45 159 10:58 13.09.2021
6406 Clear 24 1012 54 10000 0.45 136 09:41 13.09.2021
6407 Clouds 14 1013 93 9000 2 240 07:27 13.09.2021
6408 Clouds 14 1013 90 9000 0 0 23:41 12.09.2021
6409 Clouds 12 1014 94 8000 0 0 22:26 12.09.2021
6410 Clouds 12 1014 94 8000 0 0 22:26 12.09.2021
6411 Clouds 12 1014 94 8000 0 0 22:26 12.09.2021
6412 Clouds 14 1014 88 6000 0 0 21:37 12.09.2021
6413 Clouds 16 1013 78 9000 0 0 20:34 12.09.2021
6414 Clouds 17 1013 74 9000 0 0 19:51 12.09.2021
6415 Clouds 18 1013 71 9000 0 0 19:20 12.09.2021
6416 Clear 20 1013 63 10000 1 30 18:29 12.09.2021
6417 Clear 25 1013 47 10000 0 0 16:32 12.09.2021
6418 Clear 26 1014 46 10000 0.89 138 14:56 12.09.2021
6419 Clear 26 1014 46 10000 0.89 138 14:56 12.09.2021
6420 Clear 26 1014 45 10000 0.45 303 13:45 12.09.2021
6421 Clear 25 1015 50 10000 0.45 52 11:31 12.09.2021
6422 Clear 21 1016 60 10000 2 30 09:27 12.09.2021
6423 Clear 21 1015 73 10000 1 0 08:38 12.09.2021
6424 Mist 14 1015 88 10000 0 0 01:50 12.09.2021
6425 Clouds 14 1016 87 7000 0 0 23:28 11.09.2021
6426 Clouds 15 1016 83 9000 0 0 21:50 11.09.2021
6427 Clear 16 1016 80 10000 0 0 20:31 11.09.2021
6428 Clear 19 1016 66 10000 3 20 19:21 11.09.2021
6429 Clear 23 1015 54 10000 3 350 17:34 11.09.2021
6430 Clear 24 1016 49 10000 1 0 15:48 11.09.2021
6431 Clear 25 1017 48 10000 2 270 13:33 11.09.2021
6432 Clear 25 1017 47 10000 1 0 12:48 11.09.2021
6433 Clouds 24 1017 54 10000 0.45 13 11:18 11.09.2021
6434 Clear 22 1019 53 10000 1 0 09:38 11.09.2021
6435 Clouds 15 1018 96 7000 0 0 07:45 11.09.2021
6436 Clouds 8 1019 100 7000 0 0 06:48 11.09.2021
6437 Clouds 13 1018 90 7000 0 0 23:23 10.09.2021
6438 Clouds 12 1019 94 6000 0 0 22:24 10.09.2021
6439 Clouds 14 1018 86 7000 0 0 21:53 10.09.2021
6440 Clear 15 1018 79 10000 0 0 19:58 10.09.2021
6441 Clear 20 1017 55 10000 1 0 18:26 10.09.2021
6442 Clear 25 1017 36 10000 0.45 134 16:48 10.09.2021
6443 Clear 25 1019 39 10000 0.45 150 13:55 10.09.2021
6444 Clear 25 1019 42 10000 0.45 140 11:54 10.09.2021
6445 Clear 16 1021 72 10000 2 250 08:36 10.09.2021
6446 Clear 16 1020 82 10000 2 260 07:48 10.09.2021
6447 Clear 13 1020 90 8000 2 240 00:42 10.09.2021
6448 Clear 14 1020 87 8000 1 240 22:31 09.09.2021
6449 Clear 15 1020 86 7000 1 0 21:39 09.09.2021
6450 Clear 15 1020 84 9000 2 210 20:46 09.09.2021
6451 Clear 18 1019 67 10000 2 230 18:58 09.09.2021
6452 Clear 22 1020 53 10000 2 250 17:56 09.09.2021
6453 Clear 24 1020 46 10000 3 240 16:40 09.09.2021
6454 Clear 25 1021 44 10000 0.45 338 15:27 09.09.2021
6455 Clear 25 1022 47 10000 0.45 139 12:48 09.09.2021
6456 Clear 25 1022 47 10000 0.45 139 12:48 09.09.2021
6457 Clear 22 1024 53 10000 4 290 11:33 09.09.2021
6458 Clear 21 1023 60 10000 3 270 09:39 09.09.2021
6459 Clear 17 1023 72 10000 0.89 245 08:32 09.09.2021
6460 Clear 11 1023 92 10000 1 220 06:24 09.09.2021
6461 Clear 11 1023 93 10000 0 0 01:31 09.09.2021
6462 Clear 12 1023 87 7000 1 220 22:34 08.09.2021
6463 Smoke 13 1023 83 3900 1 220 20:57 08.09.2021
6464 Clear 15 1023 71 10000 1 250 19:56 08.09.2021
6465 Clear 17 1022 60 10000 2 270 18:50 08.09.2021
6466 Clear 18 1022 57 10000 3 270 18:27 08.09.2021
6467 Clear 21 1023 50 10000 0.45 146 17:54 08.09.2021
6468 Clear 23 1023 45 10000 6 280 16:27 08.09.2021
6469 Clear 23 1024 43 10000 0.89 175 13:56 08.09.2021
6470 Clear 23 1025 44 10000 0.89 130 12:42 08.09.2021
6471 Clear 23 1025 44 10000 0.45 113 12:24 08.09.2021
6472 Clear 21 1026 46 10000 5 220 11:28 08.09.2021
6473 Clear 21 1025 49 10000 0.89 106 10:32 08.09.2021
6474 Clear 19 1026 54 10000 0.45 136 09:57 08.09.2021
6475 Clear 14 1026 63 10000 0.45 233 07:55 08.09.2021
6476 Clear 14 1026 63 10000 0.45 233 07:55 08.09.2021
6477 Clear 14 1026 63 10000 0.45 233 07:55 08.09.2021
6478 Clear 13 1026 64 10000 0.45 126 07:55 08.09.2021
6479 Clear 14 1026 63 10000 0.45 233 07:55 08.09.2021
6480 Clear 12 1026 68 10000 0.45 188 07:30 08.09.2021
6481 Clear 11 1026 67 10000 3 210 00:33 08.09.2021
6482 Clear 12 1026 70 10000 2 200 22:30 07.09.2021
6483 Clear 11 1026 75 10000 1 160 21:38 07.09.2021
6484 Clear 12 1026 70 10000 2 160 19:40 07.09.2021
6485 Clear 15 1026 59 10000 2 200 18:39 07.09.2021
6486 Clear 18 1026 47 10000 3 210 17:41 07.09.2021
6487 Clear 19 1027 44 10000 0.45 90 15:57 07.09.2021
6488 Clear 20 1027 42 10000 0.45 150 15:33 07.09.2021
6489 Clear 19 1028 42 10000 0.45 195 13:54 07.09.2021
6490 Clear 19 1028 44 10000 0.45 72 12:23 07.09.2021
6491 Clear 18 1028 45 10000 0.45 74 11:26 07.09.2021
6492 Clear 17 1029 42 10000 3 190 10:37 07.09.2021
6493 Clear 13 1028 67 10000 2 260 07:51 07.09.2021
6494 Fog 8 1028 83 8000 0.45 156 06:42 07.09.2021
6495 Clear 8 1028 81 10000 0 0 02:43 07.09.2021
6496 Clear 8 1028 80 10000 0 0 02:25 07.09.2021
6497 Clear 8 1028 79 10000 0 0 00:23 07.09.2021
6498 Clear 10 1027 72 10000 2 210 23:31 06.09.2021
6499 Clear 10 1027 76 10000 0 0 22:53 06.09.2021
6500 Clear 10 1027 77 10000 0 0 22:25 06.09.2021
6501 Clouds 10 1027 75 9000 0 0 20:37 06.09.2021
6502 Clouds 12 1027 63 10000 1 180 19:22 06.09.2021
6503 Clear 13 1026 55 10000 1 0 18:36 06.09.2021
6504 Clear 14 1026 55 10000 2 140 17:54 06.09.2021
6505 Clear 16 1026 43 10000 1 0 16:35 06.09.2021
6506 Clear 16 1026 45 10000 0.89 62 15:34 06.09.2021
6507 Clear 15 1027 44 10000 0.89 303 13:45 06.09.2021
6508 Clear 14 1027 45 10000 0.89 28 12:45 06.09.2021
6509 Clear 14 1027 53 10000 0.45 146 10:37 06.09.2021
6510 Clear 10 1027 87 10000 1 0 07:48 06.09.2021
6511 Clouds 4 1026 98 9000 0 0 04:36 06.09.2021
6512 Clear 7 1025 92 10000 2 210 23:23 05.09.2021
6513 Clear 8 1025 85 10000 2 40 22:33 05.09.2021
6514 Clear 9 1025 80 10000 3 30 21:56 05.09.2021
6515 Clear 10 1025 78 10000 2 40 21:21 05.09.2021
6516 Clear 10 1024 78 10000 2 330 19:47 05.09.2021
6517 Clear 13 1023 63 10000 4 340 17:53 05.09.2021
6518 Clear 14 1022 61 10000 6 280 16:33 05.09.2021
6519 Clear 14 1022 67 10000 1 0 15:20 05.09.2021
6520 Clouds 15 1023 59 10000 0.89 152 12:44 05.09.2021
6521 Clear 16 1022 44 10000 0.45 136 11:35 05.09.2021
6522 Clear 16 1022 49 10000 0.45 140 10:42 05.09.2021
6523 Clear 15 1021 57 10000 0.89 97 09:35 05.09.2021
6524 Clear 11 1022 71 10000 2 260 08:34 05.09.2021
6525 Clear 6 1020 91 10000 2 250 05:47 05.09.2021
6526 Clear 9 1018 83 10000 1 0 00:39 05.09.2021
6527 Clear 9 1018 85 10000 1 260 23:56 04.09.2021
6528 Clear 9 1017 84 10000 0 0 23:24 04.09.2021
6529 Clear 10 1017 80 10000 0 0 22:35 04.09.2021
6530 Clear 10 1017 74 10000 3 350 21:18 04.09.2021
6531 Clear 10 1016 71 10000 0 0 19:33 04.09.2021
6532 Clear 17 1015 47 10000 0.45 83 17:25 04.09.2021
6533 Clear 16 1014 52 10000 0.45 325 14:37 04.09.2021
6534 Clouds 15 1014 61 10000 0.45 79 11:37 04.09.2021
6535 Clouds 15 1014 64 10000 0.45 199 10:38 04.09.2021
6536 Clouds 12 1013 81 10000 0.45 37 07:43 04.09.2021
6537 Clouds 15 1010 76 10000 6 280 00:50 04.09.2021
6538 Clouds 15 1010 76 10000 6 280 00:50 04.09.2021
6539 Clear 15 1010 70 10000 0.45 118 00:19 04.09.2021
6540 Clear 15 1010 69 10000 1.34 237 23:21 03.09.2021
6541 Clear 15 1011 68 10000 0.45 98 21:43 03.09.2021
6542 Clear 15 1011 68 10000 0.45 81 20:58 03.09.2021
6543 Clear 15 1011 67 10000 0.45 118 20:28 03.09.2021
6544 Clear 16 1011 64 10000 0.89 106 19:35 03.09.2021
6545 Clear 17 1011 56 10000 0.89 66 18:27 03.09.2021
6546 Clear 19 1012 53 10000 0.89 104 16:50 03.09.2021
6547 Clear 19 1013 51 10000 0.45 119 15:39 03.09.2021
6548 Clouds 19 1013 51 10000 0.45 187 14:28 03.09.2021
6549 Clouds 19 1013 51 10000 0.45 187 14:28 03.09.2021
6550 Clouds 18 1015 54 10000 0.45 104 11:21 03.09.2021
6551 Clear 16 1015 59 10000 0.89 274 09:55 03.09.2021
6552 Clear 13 1016 72 10000 0.45 95 08:18 03.09.2021
6553 Clear 9 1016 86 10000 0.89 262 06:49 03.09.2021
6554 Clear 10 1016 77 10000 0.45 267 23:56 02.09.2021
6555 Clear 11 1015 74 10000 0.45 78 22:21 02.09.2021
6556 Clear 12 1014 70 10000 0.45 268 20:51 02.09.2021
6557 Clear 13 1013 65 10000 0.89 43 18:49 02.09.2021
6558 Clouds 15 1012 59 10000 0.89 142 16:39 02.09.2021
6559 Clear 15 1012 44 10000 9 320 15:31 02.09.2021
6560 Clear 16 1010 49 10000 1.34 157 13:33 02.09.2021
6561 Clouds 17 1009 52 10000 0.89 118 11:44 02.09.2021
6562 Clouds 17 1009 52 10000 1.34 40 11:18 02.09.2021
6563 Clouds 14 1009 75 10000 0.45 99 08:57 02.09.2021
6564 Clouds 14 1009 84 10000 0.45 171 07:28 02.09.2021
6565 Clouds 14 1008 92 10000 0.45 122 05:53 02.09.2021
6566 Clear 14 1008 84 10000 0.89 87 02:37 02.09.2021
6567 Clear 15 1008 81 10000 0.89 52 01:49 02.09.2021
6568 Clear 16 1008 86 10000 4 330 23:41 01.09.2021
6569 Clear 16 1008 85 10000 0.45 61 23:20 01.09.2021
6570 Clear 17 1007 84 10000 0.45 77 22:29 01.09.2021
6571 Clear 17 1008 84 10000 4 300 21:32 01.09.2021
6572 Clouds 17 1007 87 10000 1 230 19:37 01.09.2021
6573 Clear 20 1008 60 10000 3 270 17:55 01.09.2021
6574 Clouds 22 1007 60 10000 4 290 16:59 01.09.2021
6575 Clouds 22 1007 58 10000 2 280 16:36 01.09.2021
6576 Clear 22 1008 60 10000 1 0 14:59 01.09.2021
6577 Clear 19 1009 73 10000 2 290 11:47 01.09.2021
6578 Clear 18 1009 79 10000 2 270 10:23 01.09.2021
6579 Clear 17 1008 81 10000 2 260 08:27 01.09.2021
6580 Clear 13 1009 97 10000 1 0 06:42 01.09.2021
6581 Clear 13 1011 94 10000 1 230 23:32 31.08.2021
6582 Clear 13 1011 94 10000 2 220 22:21 31.08.2021
6583 Clear 17 1010 76 10000 2 260 19:52 31.08.2021
6584 Clear 18 1010 71 10000 2 280 19:23 31.08.2021
6585 Clear 22 1010 58 10000 0.45 157 17:44 31.08.2021
6586 Clear 22 1010 58 10000 0.45 57 17:25 31.08.2021
6587 Clouds 22 1010 56 10000 0.89 130 16:41 31.08.2021
6588 Clear 22 1010 58 10000 0.45 111 15:26 31.08.2021
6589 Clouds 23 1010 59 10000 0.89 105 12:19 31.08.2021
6590 Clouds 22 1010 65 10000 0.45 93 11:19 31.08.2021
6591 Clouds 21 1010 68 10000 0.89 123 10:43 31.08.2021
6592 Clear 20 1009 77 10000 6 290 09:41 31.08.2021
6593 Clouds 16 1009 95 10000 0.89 168 07:52 31.08.2021
6594 Clouds 17 1009 100 10000 0.45 267 05:57 31.08.2021
6595 Clouds 18 1007 99 8000 0.89 7 23:36 30.08.2021
6596 Clouds 18 1008 99 10000 3 260 22:36 30.08.2021
6597 Clear 18 1007 99 10000 2 200 21:35 30.08.2021
6598 Clouds 18 1008 99 7000 2 180 20:41 30.08.2021
6599 Clouds 20 1008 78 1000 0.45 229 19:53 30.08.2021
6600 Clouds 24 1007 78 10000 3 250 18:58 30.08.2021
6601 Clear 27 1007 65 10000 2 120 17:49 30.08.2021
6602 Clear 27 1006 76 10000 3 120 16:28 30.08.2021
6603 Clouds 26 1007 78 10000 2 130 15:45 30.08.2021
6604 Clear 27 1006 73 10000 0.45 174 13:58 30.08.2021
6605 Clear 26 1006 77 10000 0.45 206 12:58 30.08.2021
6606 Clear 23 1008 85 10000 5 90 10:42 30.08.2021
6607 Clear 19 1007 97 10000 4 70 03:31 30.08.2021
6608 Clear 18 1009 99 10000 3 70 21:36 29.08.2021
6609 Clouds 18 1009 99 10000 2 70 20:48 29.08.2021
6610 Clear 18 1009 99 10000 3 30 19:28 29.08.2021
6611 Clouds 18 1010 100 10000 5 70 18:24 29.08.2021
6612 Clouds 24 1009 76 10000 6 300 15:58 29.08.2021
6613 Clear 26 1010 67 10000 0.45 313 14:28 29.08.2021
6614 Clear 25 1010 68 10000 0.45 339 13:55 29.08.2021
6615 Clear 24 1011 64 10000 0.45 233 12:43 29.08.2021
6616 Clear 23 1011 69 10000 0.45 328 11:59 29.08.2021
6617 Clear 23 1012 66 10000 0.45 215 11:39 29.08.2021
6618 Clear 21 1013 63 10000 5 50 10:46 29.08.2021
6619 Clear 21 1013 67 10000 0.45 72 10:27 29.08.2021
6620 Clear 20 1013 72 10000 0.45 72 10:27 29.08.2021
6621 Clear 19 1013 78 10000 0.45 327 09:26 29.08.2021
6622 Clear 13 1015 96 10000 1 90 03:26 29.08.2021
6623 Clear 16 1015 87 10000 1 0 22:29 28.08.2021
6624 Clear 18 1015 80 10000 2 270 20:30 28.08.2021
6625 Clouds 19 1014 76 10000 3 280 19:19 28.08.2021
6626 Clouds 20 1014 67 10000 3 260 18:22 28.08.2021
6627 Clear 22 1014 61 10000 0.45 180 17:45 28.08.2021
6628 Clouds 23 1014 63 10000 4 260 16:21 28.08.2021
6629 Clouds 22 1014 67 10000 0.45 193 14:43 28.08.2021
6630 Clouds 22 1014 70 10000 0.45 116 13:47 28.08.2021
6631 Clouds 21 1013 69 10000 0.89 233 12:46 28.08.2021
6632 Clouds 20 1013 78 10000 1.34 320 11:58 28.08.2021
6633 Clouds 20 1013 78 10000 0.89 256 10:45 28.08.2021
6634 Clouds 19 1012 86 10000 0.45 233 09:33 28.08.2021
6635 Clouds 16 1011 94 10000 1 0 07:25 28.08.2021
6636 Clear 15 1012 93 10000 0 0 22:50 27.08.2021
6637 Clear 16 1012 91 10000 2 100 21:26 27.08.2021
6638 Clear 17 1012 89 10000 1 150 20:33 27.08.2021
6639 Clear 18 1011 85 10000 2 110 19:26 27.08.2021
6640 Clear 21 1012 74 10000 2 120 18:38 27.08.2021
6641 Clear 23 1011 63 10000 1 0 17:30 27.08.2021
6642 Clear 23 1011 55 10000 3 260 16:28 27.08.2021
6643 Clouds 22 1011 68 10000 3 260 14:44 27.08.2021
6644 Clouds 21 1011 64 10000 2 250 12:55 27.08.2021
6645 Clouds 22 1011 72 10000 2 280 11:38 27.08.2021
6646 Clouds 21 1011 79 10000 2 280 10:45 27.08.2021
6647 Clouds 19 1011 83 10000 3 290 09:51 27.08.2021
6648 Clear 18 1010 88 10000 0.45 134 08:48 27.08.2021
6649 Mist 15 1010 99 5000 3 270 07:39 27.08.2021
6650 Clouds 14 1011 100 10000 4 300 05:31 27.08.2021
6651 Clouds 15 1009 97 10000 2 310 00:37 27.08.2021
6652 Clouds 15 1009 99 8000 2 310 23:19 26.08.2021
6653 Clouds 16 1009 99 7000 0 0 22:19 26.08.2021
6654 Clouds 16 1009 99 8000 1 60 22:19 26.08.2021
6655 Clouds 16 1009 99 8000 1 60 22:19 26.08.2021
6656 Clouds 16 1009 98 10000 1 0 20:44 26.08.2021
6657 Clouds 16 1009 97 9000 2 290 18:53 26.08.2021
6658 Clouds 16 1010 94 10000 0 0 17:45 26.08.2021
6659 Clouds 17 1009 91 10000 0 0 16:35 26.08.2021
6660 Clouds 16 1009 93 10000 1 0 15:55 26.08.2021
6661 Clouds 16 1010 92 10000 0.45 262 13:53 26.08.2021
6662 Clouds 15 1010 96 10000 1 0 12:56 26.08.2021
6663 Clouds 15 1010 96 7000 0.45 147 12:31 26.08.2021
6664 Clouds 15 1010 96 9000 1 0 10:21 26.08.2021
6665 Clouds 15 1010 93 10000 1 250 08:34 26.08.2021
6666 Clouds 15 1010 94 10000 2 220 06:34 26.08.2021
6667 Clear 15 1011 91 10000 4 260 22:54 25.08.2021
6668 Clear 16 1011 89 10000 0.45 135 22:35 25.08.2021
6669 Clear 16 1011 87 10000 0.45 132 21:42 25.08.2021
6670 Clear 17 1011 84 10000 0.89 221 20:48 25.08.2021
6671 Clear 17 1011 83 10000 4 27